<?xml version='1.0' encoding='UTF-8'?><gpx version="1.1" creator="JPX - https://github.com/jenetics/jpx" xmlns="http://www.topografix.com/GPX/1/1"><trk><trkseg><trkpt lat="42.4516318728108" lon="12.07699758952666"><ele>313.0</ele><time>2026-04-26T10:52:03Z</time></trkpt><trkpt lat="42.451686689966316" lon="12.077047149767374"><ele>313.0</ele><time>2026-04-26T10:52:16Z</time></trkpt><trkpt lat="42.451741003247335" lon="12.077107982751862"><ele>313.0</ele><time>2026-04-26T10:52:20Z</time></trkpt><trkpt lat="42.45180670164705" lon="12.077175234528271"><ele>313.0</ele><time>2026-04-26T10:52:29Z</time></trkpt><trkpt lat="42.45188111231998" lon="12.077174744626102"><ele>313.0</ele><time>2026-04-26T10:53:46.001Z</time></trkpt><trkpt lat="42.45193556934" lon="12.077082617058897"><ele>313.0</ele><time>2026-04-26T10:53:48.001Z</time></trkpt><trkpt lat="42.45199857504213" lon="12.076994074281473"><ele>313.0</ele><time>2026-04-26T10:53:50.001Z</time></trkpt><trkpt lat="42.4520629029537" lon="12.076889577452878"><ele>313.0</ele><time>2026-04-26T10:53:52.001Z</time></trkpt><trkpt lat="42.45213530141856" lon="12.076790496644804"><ele>313.0</ele><time>2026-04-26T10:53:54.001Z</time></trkpt><trkpt lat="42.45223275967234" lon="12.076718522161402"><ele>313.0</ele><time>2026-04-26T10:53:56.001Z</time></trkpt><trkpt lat="42.45231735544687" lon="12.076633988227094"><ele>313.0</ele><time>2026-04-26T10:53:58.001Z</time></trkpt><trkpt lat="42.45237851399579" lon="12.076536472639644"><ele>313.3333333333333</ele><time>2026-04-26T10:54:00Z</time></trkpt><trkpt lat="42.45245077272488" lon="12.076466351023162"><ele>313.66666666666663</ele><time>2026-04-26T10:54:02Z</time></trkpt><trkpt lat="42.4525112037447" lon="12.076398218156372"><ele>314.0</ele><time>2026-04-26T10:54:03Z</time></trkpt><trkpt lat="42.452579860687315" lon="12.076319482204381"><ele>314.3333333333333</ele><time>2026-04-26T10:54:04Z</time></trkpt><trkpt lat="42.45263821643557" lon="12.076233180451624"><ele>314.6666666666667</ele><time>2026-04-26T10:54:05Z</time></trkpt><trkpt lat="42.45269360804133" lon="12.07614099420229"><ele>315.0</ele><time>2026-04-26T10:54:06Z</time></trkpt><trkpt lat="42.45275564090052" lon="12.076040148853544"><ele>315.0</ele><time>2026-04-26T10:54:07Z</time></trkpt><trkpt lat="42.45280752584827" lon="12.0759508581533"><ele>315.0</ele><time>2026-04-26T10:54:08Z</time></trkpt><trkpt lat="42.45286808844763" lon="12.075901797967367"><ele>315.0</ele><time>2026-04-26T10:54:09Z</time></trkpt><trkpt lat="42.45281443437144" lon="12.075980631070356"><ele>315.0</ele><time>2026-04-26T10:54:15Z</time></trkpt><trkpt lat="42.4527566820603" lon="12.07607235150217"><ele>315.0</ele><time>2026-04-26T10:54:16Z</time></trkpt><trkpt lat="42.45268703315595" lon="12.076161403773668"><ele>315.0</ele><time>2026-04-26T10:54:17Z</time></trkpt><trkpt lat="42.452613189345634" lon="12.076301927003321"><ele>315.0</ele><time>2026-04-26T10:54:18Z</time></trkpt><trkpt lat="42.45251403926131" lon="12.076425680794681"><ele>315.0</ele><time>2026-04-26T10:54:19Z</time></trkpt><trkpt lat="42.45242307443374" lon="12.076527611730862"><ele>315.0</ele><time>2026-04-26T10:54:20Z</time></trkpt><trkpt lat="42.452341749905806" lon="12.076621912495623"><ele>315.0</ele><time>2026-04-26T10:54:21Z</time></trkpt><trkpt lat="42.45225798695901" lon="12.076698490128251"><ele>315.0</ele><time>2026-04-26T10:54:22Z</time></trkpt><trkpt lat="42.45217022999767" lon="12.07676182516029"><ele>315.0</ele><time>2026-04-26T10:54:23Z</time></trkpt><trkpt lat="42.45210361395513" lon="12.076847265946867"><ele>315.0</ele><time>2026-04-26T10:54:24Z</time></trkpt><trkpt lat="42.45203750761761" lon="12.076918695835575"><ele>315.0</ele><time>2026-04-26T10:54:25Z</time></trkpt><trkpt lat="42.45198317730074" lon="12.076999003289714"><ele>315.0</ele><time>2026-04-26T10:54:26Z</time></trkpt><trkpt lat="42.451918917607436" lon="12.077104837108083"><ele>314.6</ele><time>2026-04-26T10:54:28Z</time></trkpt><trkpt lat="42.45187729317046" lon="12.077196353156975"><ele>314.2</ele><time>2026-04-26T10:54:30Z</time></trkpt><trkpt lat="42.45167708690273" lon="12.07705522147792"><ele>313.8</ele><time>2026-04-26T10:55:15Z</time></trkpt><trkpt lat="42.45163388977035" lon="12.07699272517626"><ele>313.4</ele><time>2026-04-26T10:55:17Z</time></trkpt><trkpt lat="42.45157660766833" lon="12.076919735517798"><ele>313.0</ele><time>2026-04-26T10:55:56.999Z</time></trkpt><trkpt lat="42.45150709243858" lon="12.076910377317141"><ele>313.0</ele><time>2026-04-26T10:55:59.999Z</time></trkpt><trkpt lat="42.451557372802675" lon="12.076975649988313"><ele>313.0</ele><time>2026-04-26T10:56:01.999Z</time></trkpt><trkpt lat="42.45162292048372" lon="12.076982381905005"><ele>313.0</ele><time>2026-04-26T10:56:02.999Z</time></trkpt><trkpt lat="42.4516758502182" lon="12.077044836224516"><ele>313.0</ele><time>2026-04-26T10:56:04.999Z</time></trkpt><trkpt lat="42.45172399440815" lon="12.07710708911474"><ele>313.0</ele><time>2026-04-26T10:56:06.999Z</time></trkpt><trkpt lat="42.451783282177885" lon="12.077161124991203"><ele>313.0</ele><time>2026-04-26T10:56:25.999Z</time></trkpt><trkpt lat="42.45185570967302" lon="12.077192628404267"><ele>313.0</ele><time>2026-04-26T10:56:41.999Z</time></trkpt><trkpt lat="42.451949542415555" lon="12.077082451366309"><ele>313.0</ele><time>2026-04-26T10:56:43.999Z</time></trkpt><trkpt lat="42.4519863714152" lon="12.07701204273842"><ele>313.0</ele><time>2026-04-26T10:56:44.999Z</time></trkpt><trkpt lat="42.45205000894802" lon="12.0769445418041"><ele>313.0</ele><time>2026-04-26T10:56:45.999Z</time></trkpt><trkpt lat="42.45211727078861" lon="12.07685236143775"><ele>313.0</ele><time>2026-04-26T10:56:46.999Z</time></trkpt><trkpt lat="42.45218177563908" lon="12.07677683100033"><ele>313.0</ele><time>2026-04-26T10:56:47.999Z</time></trkpt><trkpt lat="42.452253593375524" lon="12.076697628798035"><ele>313.0</ele><time>2026-04-26T10:56:48.999Z</time></trkpt><trkpt lat="42.452328430018724" lon="12.076622934836735"><ele>313.4</ele><time>2026-04-26T10:56:49.999Z</time></trkpt><trkpt lat="42.452399149781286" lon="12.076523571219207"><ele>313.8</ele><time>2026-04-26T10:56:50.999Z</time></trkpt><trkpt lat="42.452481840977825" lon="12.07643691644543"><ele>314.2</ele><time>2026-04-26T10:56:51.999Z</time></trkpt><trkpt lat="42.452555984890516" lon="12.076345638818495"><ele>314.6</ele><time>2026-04-26T10:56:52.999Z</time></trkpt><trkpt lat="42.452627697590806" lon="12.076249561878445"><ele>315.0</ele><time>2026-04-26T10:56:53.999Z</time></trkpt><trkpt lat="42.452685813348765" lon="12.076163762831243"><ele>315.0</ele><time>2026-04-26T10:56:54.999Z</time></trkpt><trkpt lat="42.45274333250652" lon="12.076067479504475"><ele>315.0</ele><time>2026-04-26T10:56:55.999Z</time></trkpt><trkpt lat="42.45280547228238" lon="12.075963863676321"><ele>315.0</ele><time>2026-04-26T10:56:56.999Z</time></trkpt><trkpt lat="42.4528780656053" lon="12.075861620291978"><ele>315.0</ele><time>2026-04-26T10:56:57.999Z</time></trkpt><trkpt lat="42.452958069740546" lon="12.075747770468205"><ele>315.0</ele><time>2026-04-26T10:56:58.999Z</time></trkpt><trkpt lat="42.4530419560156" lon="12.075652142972418"><ele>315.5</ele><time>2026-04-26T10:56:59.999Z</time></trkpt><trkpt lat="42.45311574653714" lon="12.075522835848334"><ele>316.0</ele><time>2026-04-26T10:57:00.999Z</time></trkpt><trkpt lat="42.453198206632926" lon="12.075405965715825"><ele>316.5</ele><time>2026-04-26T10:57:01.999Z</time></trkpt><trkpt lat="42.45327563539284" lon="12.075284663115626"><ele>317.0</ele><time>2026-04-26T10:57:02.999Z</time></trkpt><trkpt lat="42.453356369850695" lon="12.0751655403274"><ele>317.0</ele><time>2026-04-26T10:57:03.999Z</time></trkpt><trkpt lat="42.453438785193086" lon="12.075044897477413"><ele>317.0</ele><time>2026-04-26T10:57:04.999Z</time></trkpt><trkpt lat="42.45352543665747" lon="12.074927855766237"><ele>317.0</ele><time>2026-04-26T10:57:05.999Z</time></trkpt><trkpt lat="42.453603903974745" lon="12.074796161678314"><ele>317.0</ele><time>2026-04-26T10:57:06.999Z</time></trkpt><trkpt lat="42.4536966819717" lon="12.074691617165556"><ele>316.25</ele><time>2026-04-26T10:57:07.999Z</time></trkpt><trkpt lat="42.453778819785704" lon="12.074569829257548"><ele>315.5</ele><time>2026-04-26T10:57:08.999Z</time></trkpt><trkpt lat="42.4538565689727" lon="12.074454000846162"><ele>314.75</ele><time>2026-04-26T10:57:09.999Z</time></trkpt><trkpt lat="42.45392333204555" lon="12.07432340348332"><ele>314.0</ele><time>2026-04-26T10:57:10.999Z</time></trkpt><trkpt lat="42.45400309469136" lon="12.074210503744126"><ele>313.5</ele><time>2026-04-26T10:57:11.999Z</time></trkpt><trkpt lat="42.45407957921589" lon="12.074091826798027"><ele>313.0</ele><time>2026-04-26T10:57:12.999Z</time></trkpt><trkpt lat="42.454153460812144" lon="12.073973710015542"><ele>312.5</ele><time>2026-04-26T10:57:13.999Z</time></trkpt><trkpt lat="42.45424564819435" lon="12.073881548849299"><ele>312.0</ele><time>2026-04-26T10:57:14.999Z</time></trkpt><trkpt lat="42.45433789420388" lon="12.073796559448086"><ele>312.0</ele><time>2026-04-26T10:57:15.999Z</time></trkpt><trkpt lat="42.45441836877933" lon="12.07369271584573"><ele>312.0</ele><time>2026-04-26T10:57:16.999Z</time></trkpt><trkpt lat="42.454506451327504" lon="12.073597001590935"><ele>312.0</ele><time>2026-04-26T10:57:17.999Z</time></trkpt><trkpt lat="42.45459674710566" lon="12.073505128399228"><ele>312.0</ele><time>2026-04-26T10:57:18.999Z</time></trkpt><trkpt lat="42.45468535538776" lon="12.073406262285742"><ele>312.75</ele><time>2026-04-26T10:57:19.999Z</time></trkpt><trkpt lat="42.45477364253896" lon="12.073309745616992"><ele>313.5</ele><time>2026-04-26T10:57:20.999Z</time></trkpt><trkpt lat="42.45486323313144" lon="12.073213918740112"><ele>314.25</ele><time>2026-04-26T10:57:21.999Z</time></trkpt><trkpt lat="42.45495382272671" lon="12.073117957633295"><ele>315.0</ele><time>2026-04-26T10:57:22.999Z</time></trkpt><trkpt lat="42.45503564497172" lon="12.073016452827892"><ele>315.2</ele><time>2026-04-26T10:57:23.999Z</time></trkpt><trkpt lat="42.45512535314538" lon="12.07291411833638"><ele>315.4</ele><time>2026-04-26T10:57:24.999Z</time></trkpt><trkpt lat="42.45521661411742" lon="12.072838420910564"><ele>315.6</ele><time>2026-04-26T10:57:25.999Z</time></trkpt><trkpt lat="42.4552963936481" lon="12.07274965380866"><ele>315.8</ele><time>2026-04-26T10:57:26.999Z</time></trkpt><trkpt lat="42.45537188258015" lon="12.072665660801398"><ele>316.0</ele><time>2026-04-26T10:57:27.999Z</time></trkpt><trkpt lat="42.45543825660394" lon="12.072567892167081"><ele>315.6</ele><time>2026-04-26T10:57:28.999Z</time></trkpt><trkpt lat="42.45551858346495" lon="12.072482278029408"><ele>315.20000000000005</ele><time>2026-04-26T10:57:29.999Z</time></trkpt><trkpt lat="42.4555966634884" lon="12.072416177929012"><ele>314.79999999999995</ele><time>2026-04-26T10:57:30.999Z</time></trkpt><trkpt lat="42.45566565999623" lon="12.072318878717232"><ele>314.4</ele><time>2026-04-26T10:57:31.999Z</time></trkpt><trkpt lat="42.455747347555175" lon="12.072231482585332"><ele>314.0</ele><time>2026-04-26T10:57:32.999Z</time></trkpt><trkpt lat="42.45582158767698" lon="12.072144240623263"><ele>314.0</ele><time>2026-04-26T10:57:33.999Z</time></trkpt><trkpt lat="42.455897101302384" lon="12.072070522941711"><ele>314.0</ele><time>2026-04-26T10:57:34.999Z</time></trkpt><trkpt lat="42.45596304478723" lon="12.071977698129922"><ele>314.0</ele><time>2026-04-26T10:57:35.999Z</time></trkpt><trkpt lat="42.45603935179701" lon="12.071892793787008"><ele>314.0</ele><time>2026-04-26T10:57:36.999Z</time></trkpt><trkpt lat="42.4561117085897" lon="12.071802355393897"><ele>314.0</ele><time>2026-04-26T10:57:37.999Z</time></trkpt><trkpt lat="42.45617873341131" lon="12.07170332839517"><ele>314.0</ele><time>2026-04-26T10:57:38.999Z</time></trkpt><trkpt lat="42.456245134987455" lon="12.071601646055612"><ele>314.0</ele><time>2026-04-26T10:57:39.999Z</time></trkpt><trkpt lat="42.45630208574929" lon="12.071516879242813"><ele>314.0</ele><time>2026-04-26T10:57:40.999Z</time></trkpt><trkpt lat="42.45636431884977" lon="12.071433879903836"><ele>314.0</ele><time>2026-04-26T10:57:41.999Z</time></trkpt><trkpt lat="42.45643938446211" lon="12.071350998543275"><ele>314.0</ele><time>2026-04-26T10:57:42.999Z</time></trkpt><trkpt lat="42.45651020069274" lon="12.071253475752318"><ele>314.0</ele><time>2026-04-26T10:57:43.999Z</time></trkpt><trkpt lat="42.45657528817888" lon="12.07116384188889"><ele>314.0</ele><time>2026-04-26T10:57:44.999Z</time></trkpt><trkpt lat="42.45662808512712" lon="12.07106212606139"><ele>314.0</ele><time>2026-04-26T10:57:45.999Z</time></trkpt><trkpt lat="42.456687495660226" lon="12.070987356393069"><ele>314.0</ele><time>2026-04-26T10:57:46.999Z</time></trkpt><trkpt lat="42.45674589057709" lon="12.070894249645486"><ele>314.0</ele><time>2026-04-26T10:57:47.999Z</time></trkpt><trkpt lat="42.45680235871724" lon="12.070806996698366"><ele>314.0</ele><time>2026-04-26T10:57:48.999Z</time></trkpt><trkpt lat="42.456850700010754" lon="12.070745495363488"><ele>314.2</ele><time>2026-04-26T10:57:49.999Z</time></trkpt><trkpt lat="42.45690179300379" lon="12.07067070206795"><ele>314.4</ele><time>2026-04-26T10:57:50.999Z</time></trkpt><trkpt lat="42.45696007650554" lon="12.070594131503196"><ele>314.6</ele><time>2026-04-26T10:57:51.999Z</time></trkpt><trkpt lat="42.45701861973175" lon="12.07050775635159"><ele>314.8</ele><time>2026-04-26T10:57:52.999Z</time></trkpt><trkpt lat="42.45709533085415" lon="12.070428021960561"><ele>315.0</ele><time>2026-04-26T10:57:53.999Z</time></trkpt><trkpt lat="42.45718265148612" lon="12.070277209281608"><ele>315.0</ele><time>2026-04-26T10:57:55.999Z</time></trkpt><trkpt lat="42.45722974765349" lon="12.070176906897567"><ele>315.0</ele><time>2026-04-26T10:57:56.999Z</time></trkpt><trkpt lat="42.45726696739614" lon="12.070058859972795"><ele>315.0</ele><time>2026-04-26T10:57:57.999Z</time></trkpt><trkpt lat="42.4573101631101" lon="12.069965936881768"><ele>315.0</ele><time>2026-04-26T10:57:58.999Z</time></trkpt><trkpt lat="42.45732854477157" lon="12.069863153158545"><ele>315.0</ele><time>2026-04-26T10:57:59.999Z</time></trkpt><trkpt lat="42.45735992250138" lon="12.069785694892438"><ele>315.0</ele><time>2026-04-26T10:58:00.999Z</time></trkpt><trkpt lat="42.45741427851552" lon="12.069690115779396"><ele>315.0</ele><time>2026-04-26T10:58:01.999Z</time></trkpt><trkpt lat="42.45745604111164" lon="12.069591809876433"><ele>315.0</ele><time>2026-04-26T10:58:02.999Z</time></trkpt><trkpt lat="42.45748070478126" lon="12.069488717665058"><ele>315.0</ele><time>2026-04-26T10:58:03.999Z</time></trkpt><trkpt lat="42.45753489229256" lon="12.069407779881654"><ele>315.0</ele><time>2026-04-26T10:58:04.999Z</time></trkpt><trkpt lat="42.457568316035704" lon="12.069330436783348"><ele>315.0</ele><time>2026-04-26T10:58:05.999Z</time></trkpt><trkpt lat="42.457609792076575" lon="12.069234460599832"><ele>315.0</ele><time>2026-04-26T10:58:06.999Z</time></trkpt><trkpt lat="42.45763020751939" lon="12.06914310008265"><ele>315.3333333333333</ele><time>2026-04-26T10:58:07.999Z</time></trkpt><trkpt lat="42.457676189871854" lon="12.069058913598987"><ele>315.6666666666667</ele><time>2026-04-26T10:58:08.999Z</time></trkpt><trkpt lat="42.45771474614397" lon="12.068960207557533"><ele>316.0</ele><time>2026-04-26T10:58:09.999Z</time></trkpt><trkpt lat="42.457753449330724" lon="12.068864021065009"><ele>316.33333333333337</ele><time>2026-04-26T10:58:10.999Z</time></trkpt><trkpt lat="42.45779138114189" lon="12.06876642044493"><ele>316.6666666666667</ele><time>2026-04-26T10:58:11.999Z</time></trkpt><trkpt lat="42.4578360480525" lon="12.06865565094229"><ele>317.0</ele><time>2026-04-26T10:58:12.999Z</time></trkpt><trkpt lat="42.45788525947931" lon="12.068538716141262"><ele>317.0</ele><time>2026-04-26T10:58:13.999Z</time></trkpt><trkpt lat="42.45792592044625" lon="12.06843279225659"><ele>317.0</ele><time>2026-04-26T10:58:14.999Z</time></trkpt><trkpt lat="42.457966394410406" lon="12.068323477671678"><ele>317.0</ele><time>2026-04-26T10:58:15.999Z</time></trkpt><trkpt lat="42.45802076603422" lon="12.068231499552633"><ele>317.0</ele><time>2026-04-26T10:58:16.999Z</time></trkpt><trkpt lat="42.45806366047204" lon="12.0681316920504"><ele>317.0</ele><time>2026-04-26T10:58:17.999Z</time></trkpt><trkpt lat="42.458103201301995" lon="12.068044864856546"><ele>317.0</ele><time>2026-04-26T10:58:18.999Z</time></trkpt><trkpt lat="42.45814719766234" lon="12.067948253976336"><ele>317.0</ele><time>2026-04-26T10:58:19.999Z</time></trkpt><trkpt lat="42.45817681985801" lon="12.067846346666544"><ele>317.0</ele><time>2026-04-26T10:58:20.999Z</time></trkpt><trkpt lat="42.45822675927697" lon="12.067746098014243"><ele>317.0</ele><time>2026-04-26T10:58:21.999Z</time></trkpt><trkpt lat="42.45827765791096" lon="12.067645216189423"><ele>317.0</ele><time>2026-04-26T10:58:22.999Z</time></trkpt><trkpt lat="42.4583254661965" lon="12.067537145654084"><ele>317.0</ele><time>2026-04-26T10:58:23.999Z</time></trkpt><trkpt lat="42.45837555475582" lon="12.067426891204267"><ele>317.0</ele><time>2026-04-26T10:58:24.999Z</time></trkpt><trkpt lat="42.45841600700284" lon="12.067329526292998"><ele>317.0</ele><time>2026-04-26T10:58:25.999Z</time></trkpt><trkpt lat="42.45847313725957" lon="12.067240153022485"><ele>317.0</ele><time>2026-04-26T10:58:26.999Z</time></trkpt><trkpt lat="42.45850313815436" lon="12.067137685413677"><ele>317.0</ele><time>2026-04-26T10:58:27.999Z</time></trkpt><trkpt lat="42.45854139359047" lon="12.067056556331767"><ele>317.0</ele><time>2026-04-26T10:58:28.999Z</time></trkpt><trkpt lat="42.45858103577515" lon="12.066973379823219"><ele>317.0</ele><time>2026-04-26T10:58:29.999Z</time></trkpt><trkpt lat="42.45865396987086" lon="12.066851238742718"><ele>317.0</ele><time>2026-04-26T10:58:31.999Z</time></trkpt><trkpt lat="42.45870914803012" lon="12.066733368763984"><ele>317.0</ele><time>2026-04-26T10:58:33.999Z</time></trkpt><trkpt lat="42.45875384263233" lon="12.066607455371544"><ele>317.0</ele><time>2026-04-26T10:58:35.999Z</time></trkpt><trkpt lat="42.458811109349604" lon="12.066473176303733"><ele>317.0</ele><time>2026-04-26T10:58:37.999Z</time></trkpt><trkpt lat="42.45887931404375" lon="12.066358713283146"><ele>317.0</ele><time>2026-04-26T10:58:39.999Z</time></trkpt><trkpt lat="42.458924308774016" lon="12.066219974228016"><ele>317.0</ele><time>2026-04-26T10:58:41.999Z</time></trkpt><trkpt lat="42.45899103616666" lon="12.06610804753044"><ele>317.33333333333337</ele><time>2026-04-26T10:58:43.999Z</time></trkpt><trkpt lat="42.459032382519766" lon="12.066024044509483"><ele>317.6666666666667</ele><time>2026-04-26T10:58:45.999Z</time></trkpt><trkpt lat="42.45907443388631" lon="12.065932104000792"><ele>318.0</ele><time>2026-04-26T10:58:49.999Z</time></trkpt><trkpt lat="42.45914329751866" lon="12.065858982942245"><ele>318.3333333333333</ele><time>2026-04-26T10:58:51.999Z</time></trkpt><trkpt lat="42.45921698960021" lon="12.065771498417696"><ele>318.66666666666663</ele><time>2026-04-26T10:58:53.999Z</time></trkpt><trkpt lat="42.45929183860409" lon="12.065683610268035"><ele>319.0</ele><time>2026-04-26T10:58:55.999Z</time></trkpt><trkpt lat="42.459366372619094" lon="12.06559609185355"><ele>319.2</ele><time>2026-04-26T10:58:57.999Z</time></trkpt><trkpt lat="42.459433221900326" lon="12.065517596970448"><ele>319.4</ele><time>2026-04-26T10:58:59.999Z</time></trkpt><trkpt lat="42.4595103165292" lon="12.065422140082683"><ele>319.6</ele><time>2026-04-26T10:59:01.999Z</time></trkpt><trkpt lat="42.45959069087116" lon="12.065322093628781"><ele>319.8</ele><time>2026-04-26T10:59:03.999Z</time></trkpt><trkpt lat="42.45967013152399" lon="12.065213261956908"><ele>320.0</ele><time>2026-04-26T10:59:05.999Z</time></trkpt><trkpt lat="42.45975352252491" lon="12.0651394116548"><ele>320.2</ele><time>2026-04-26T10:59:07.999Z</time></trkpt><trkpt lat="42.45985828677797" lon="12.065073741237873"><ele>320.4</ele><time>2026-04-26T10:59:09.999Z</time></trkpt><trkpt lat="42.45998038218194" lon="12.065067648052564"><ele>320.6</ele><time>2026-04-26T10:59:11.999Z</time></trkpt><trkpt lat="42.46006642977653" lon="12.065075874894564"><ele>320.8</ele><time>2026-04-26T10:59:12.999Z</time></trkpt><trkpt lat="42.460160431562905" lon="12.065084379695447"><ele>321.0</ele><time>2026-04-26T10:59:13.999Z</time></trkpt><trkpt lat="42.46025677943733" lon="12.065089327874833"><ele>321.0</ele><time>2026-04-26T10:59:14.999Z</time></trkpt><trkpt lat="42.46036568491997" lon="12.065095690771798"><ele>321.0</ele><time>2026-04-26T10:59:15.999Z</time></trkpt><trkpt lat="42.460481549303765" lon="12.065096334862911"><ele>321.0</ele><time>2026-04-26T10:59:16.999Z</time></trkpt><trkpt lat="42.460591744672406" lon="12.065116536612175"><ele>321.0</ele><time>2026-04-26T10:59:17.999Z</time></trkpt><trkpt lat="42.46070419894705" lon="12.06510864421633"><ele>321.0</ele><time>2026-04-26T10:59:18.999Z</time></trkpt><trkpt lat="42.460809368111555" lon="12.06508770713049"><ele>320.8</ele><time>2026-04-26T10:59:19.999Z</time></trkpt><trkpt lat="42.460907463542526" lon="12.065019593232782"><ele>320.6</ele><time>2026-04-26T10:59:20.999Z</time></trkpt><trkpt lat="42.46099753359645" lon="12.064976124296685"><ele>320.4</ele><time>2026-04-26T10:59:21.999Z</time></trkpt><trkpt lat="42.461085531011115" lon="12.06493566695447"><ele>320.2</ele><time>2026-04-26T10:59:22.999Z</time></trkpt><trkpt lat="42.46117493467474" lon="12.064904965745008"><ele>320.0</ele><time>2026-04-26T10:59:23.999Z</time></trkpt><trkpt lat="42.46127214957" lon="12.064892689415434"><ele>320.1666666666667</ele><time>2026-04-26T10:59:24.999Z</time></trkpt><trkpt lat="42.46136664934717" lon="12.064890206554088"><ele>320.33333333333337</ele><time>2026-04-26T10:59:25.999Z</time></trkpt><trkpt lat="42.46145985750237" lon="12.064888642355626"><ele>320.5</ele><time>2026-04-26T10:59:26.999Z</time></trkpt><trkpt lat="42.46154473604609" lon="12.064877939219263"><ele>320.6666666666667</ele><time>2026-04-26T10:59:27.999Z</time></trkpt><trkpt lat="42.46163000499778" lon="12.064870490795405"><ele>320.8333333333333</ele><time>2026-04-26T10:59:28.999Z</time></trkpt><trkpt lat="42.461707426259835" lon="12.064869861689381"><ele>321.0</ele><time>2026-04-26T10:59:29.999Z</time></trkpt><trkpt lat="42.46184874049641" lon="12.064887861661017"><ele>321.0</ele><time>2026-04-26T10:59:31.999Z</time></trkpt><trkpt lat="42.461950354865756" lon="12.064899324639098"><ele>321.0</ele><time>2026-04-26T10:59:33.999Z</time></trkpt><trkpt lat="42.46199810761703" lon="12.064670691302513"><ele>321.0</ele><time>2026-04-26T10:59:35.999Z</time></trkpt><trkpt lat="42.462047321979334" lon="12.06456307677079"><ele>321.0</ele><time>2026-04-26T10:59:36.999Z</time></trkpt><trkpt lat="42.46210294434764" lon="12.06441217078162"><ele>321.0</ele><time>2026-04-26T10:59:37.999Z</time></trkpt><trkpt lat="42.46215639801272" lon="12.064221946295644"><ele>321.0</ele><time>2026-04-26T10:59:38.999Z</time></trkpt><trkpt lat="42.462232734461864" lon="12.0640156487227"><ele>321.0</ele><time>2026-04-26T10:59:39.999Z</time></trkpt><trkpt lat="42.46232254942548" lon="12.063795511113483"><ele>321.3333333333333</ele><time>2026-04-26T10:59:40.999Z</time></trkpt><trkpt lat="42.46238534500504" lon="12.063564071853163"><ele>321.66666666666663</ele><time>2026-04-26T10:59:41.999Z</time></trkpt><trkpt lat="42.46245176497238" lon="12.063369655793165"><ele>322.0</ele><time>2026-04-26T10:59:42.999Z</time></trkpt><trkpt lat="42.462515577788366" lon="12.06318876256563"><ele>322.0</ele><time>2026-04-26T10:59:43.999Z</time></trkpt><trkpt lat="42.46256867917431" lon="12.06300599395386"><ele>322.0</ele><time>2026-04-26T10:59:44.999Z</time></trkpt><trkpt lat="42.46263159858906" lon="12.062812680126966"><ele>322.0</ele><time>2026-04-26T10:59:45.999Z</time></trkpt><trkpt lat="42.462686796806636" lon="12.062621237659831"><ele>322.5</ele><time>2026-04-26T10:59:46.999Z</time></trkpt><trkpt lat="42.46274946254176" lon="12.062447345105365"><ele>323.0</ele><time>2026-04-26T10:59:47.999Z</time></trkpt><trkpt lat="42.46281500477036" lon="12.062266996364418"><ele>323.5</ele><time>2026-04-26T10:59:48.999Z</time></trkpt><trkpt lat="42.46288622478022" lon="12.062082855522824"><ele>324.0</ele><time>2026-04-26T10:59:49.999Z</time></trkpt><trkpt lat="42.46296424716407" lon="12.061879961570131"><ele>324.0</ele><time>2026-04-26T10:59:50.999Z</time></trkpt><trkpt lat="42.4630346138256" lon="12.06168615869764"><ele>324.0</ele><time>2026-04-26T10:59:51.999Z</time></trkpt><trkpt lat="42.46309867994857" lon="12.061510698823545"><ele>324.0</ele><time>2026-04-26T10:59:52.999Z</time></trkpt><trkpt lat="42.46316252001311" lon="12.06134605561966"><ele>324.0</ele><time>2026-04-26T10:59:53.999Z</time></trkpt><trkpt lat="42.46323539084285" lon="12.061198792684277"><ele>324.5</ele><time>2026-04-26T10:59:54.999Z</time></trkpt><trkpt lat="42.46329299516739" lon="12.061047478803733"><ele>325.0</ele><time>2026-04-26T10:59:55.999Z</time></trkpt><trkpt lat="42.46333101014387" lon="12.060894840179232"><ele>325.5</ele><time>2026-04-26T10:59:56.999Z</time></trkpt><trkpt lat="42.46339581428267" lon="12.060768126867758"><ele>326.0</ele><time>2026-04-26T10:59:57.999Z</time></trkpt><trkpt lat="42.46344337439441" lon="12.06063890947094"><ele>326.0</ele><time>2026-04-26T10:59:58.999Z</time></trkpt><trkpt lat="42.46348326894819" lon="12.060530518875485"><ele>326.0</ele><time>2026-04-26T10:59:59.999Z</time></trkpt><trkpt lat="42.463526757287326" lon="12.060412584005542"><ele>326.0</ele><time>2026-04-26T11:00:00.999Z</time></trkpt><trkpt lat="42.46355955650984" lon="12.060275815526126"><ele>326.0</ele><time>2026-04-26T11:00:01.999Z</time></trkpt><trkpt lat="42.46361269174719" lon="12.060148915711551"><ele>326.0</ele><time>2026-04-26T11:00:02.999Z</time></trkpt><trkpt lat="42.463664202157936" lon="12.060005789870365"><ele>327.0</ele><time>2026-04-26T11:00:03.999Z</time></trkpt><trkpt lat="42.46372320125084" lon="12.059864332507717"><ele>328.0</ele><time>2026-04-26T11:00:04.999Z</time></trkpt><trkpt lat="42.4638177117133" lon="12.059763878196701"><ele>329.0</ele><time>2026-04-26T11:00:05.999Z</time></trkpt><trkpt lat="42.46388087379472" lon="12.05963048686005"><ele>330.0</ele><time>2026-04-26T11:00:06.999Z</time></trkpt><trkpt lat="42.463933666284476" lon="12.059501301094482"><ele>330.3333333333333</ele><time>2026-04-26T11:00:07.999Z</time></trkpt><trkpt lat="42.4639846634177" lon="12.0593805570694"><ele>330.6666666666667</ele><time>2026-04-26T11:00:08.999Z</time></trkpt><trkpt lat="42.464035416841384" lon="12.05929012144169"><ele>331.0</ele><time>2026-04-26T11:00:09.999Z</time></trkpt><trkpt lat="42.46408534279329" lon="12.059207946479539"><ele>331.33333333333337</ele><time>2026-04-26T11:00:10.999Z</time></trkpt><trkpt lat="42.46413315332422" lon="12.059134185442614"><ele>331.6666666666667</ele><time>2026-04-26T11:00:11.999Z</time></trkpt><trkpt lat="42.46418515236622" lon="12.05906406121725"><ele>332.0</ele><time>2026-04-26T11:00:12.999Z</time></trkpt><trkpt lat="42.46426683616455" lon="12.058961686815989"><ele>332.0</ele><time>2026-04-26T11:00:14.999Z</time></trkpt><trkpt lat="42.464314935575544" lon="12.0589015531264"><ele>332.0</ele><time>2026-04-26T11:00:15.999Z</time></trkpt><trkpt lat="42.46441232647389" lon="12.05876951160693"><ele>332.0</ele><time>2026-04-26T11:00:17.999Z</time></trkpt><trkpt lat="42.46450730623407" lon="12.058675002333484"><ele>332.0</ele><time>2026-04-26T11:00:19.999Z</time></trkpt><trkpt lat="42.46459947614158" lon="12.05861664241568"><ele>332.0</ele><time>2026-04-26T11:00:21.999Z</time></trkpt><trkpt lat="42.464681433449265" lon="12.058624671006195"><ele>331.8</ele><time>2026-04-26T11:00:23.999Z</time></trkpt><trkpt lat="42.464785431297535" lon="12.058629375436535"><ele>331.6</ele><time>2026-04-26T11:00:25.999Z</time></trkpt><trkpt lat="42.46490508142276" lon="12.058634991770973"><ele>331.40000000000003</ele><time>2026-04-26T11:00:27.999Z</time></trkpt><trkpt lat="42.46502233717517" lon="12.058642062471264"><ele>331.20000000000005</ele><time>2026-04-26T11:00:29.999Z</time></trkpt><trkpt lat="42.46508636674958" lon="12.05862825932174"><ele>331.0</ele><time>2026-04-26T11:00:30.999Z</time></trkpt><trkpt lat="42.465211271258944" lon="12.05864155179678"><ele>331.0</ele><time>2026-04-26T11:00:32.999Z</time></trkpt><trkpt lat="42.465331639423475" lon="12.058650068684658"><ele>331.0</ele><time>2026-04-26T11:00:34.999Z</time></trkpt><trkpt lat="42.46545368911893" lon="12.058665082188082"><ele>331.0</ele><time>2026-04-26T11:00:36.999Z</time></trkpt><trkpt lat="42.46551583239385" lon="12.058691615606866"><ele>331.0</ele><time>2026-04-26T11:00:37.999Z</time></trkpt><trkpt lat="42.46558265737056" lon="12.05870084111276"><ele>331.0</ele><time>2026-04-26T11:00:38.999Z</time></trkpt><trkpt lat="42.46564686085129" lon="12.05871033280415"><ele>331.0</ele><time>2026-04-26T11:00:39.999Z</time></trkpt><trkpt lat="42.46571527102216" lon="12.058720446397837"><ele>330.8</ele><time>2026-04-26T11:00:40.999Z</time></trkpt><trkpt lat="42.46583448287742" lon="12.058738516640151"><ele>330.6</ele><time>2026-04-26T11:00:42.999Z</time></trkpt><trkpt lat="42.465950340064516" lon="12.05873619385339"><ele>330.4</ele><time>2026-04-26T11:00:44.999Z</time></trkpt><trkpt lat="42.46606405028048" lon="12.05876939421917"><ele>330.2</ele><time>2026-04-26T11:00:46.999Z</time></trkpt><trkpt lat="42.466131730025445" lon="12.058774317723422"><ele>330.0</ele><time>2026-04-26T11:00:47.999Z</time></trkpt><trkpt lat="42.466199185952405" lon="12.058776392602418"><ele>330.0</ele><time>2026-04-26T11:00:48.999Z</time></trkpt><trkpt lat="42.46626530764699" lon="12.05877057159635"><ele>330.0</ele><time>2026-04-26T11:00:49.999Z</time></trkpt><trkpt lat="42.46637774932388" lon="12.058744809561604"><ele>330.0</ele><time>2026-04-26T11:00:51.999Z</time></trkpt><trkpt lat="42.46643148800318" lon="12.058690852464183"><ele>330.0</ele><time>2026-04-26T11:00:52.999Z</time></trkpt><trkpt lat="42.46652027083407" lon="12.058577066905737"><ele>330.0</ele><time>2026-04-26T11:00:54.999Z</time></trkpt><trkpt lat="42.4666146656611" lon="12.058499513013519"><ele>330.4</ele><time>2026-04-26T11:00:56.999Z</time></trkpt><trkpt lat="42.466688051204656" lon="12.058387047814747"><ele>330.8</ele><time>2026-04-26T11:00:58.999Z</time></trkpt><trkpt lat="42.46677383116026" lon="12.058292896960817"><ele>331.20000000000005</ele><time>2026-04-26T11:01:00.999Z</time></trkpt><trkpt lat="42.466864205770555" lon="12.058202273774176"><ele>331.6</ele><time>2026-04-26T11:01:02.999Z</time></trkpt><trkpt lat="42.46694912620588" lon="12.058096598889536"><ele>332.0</ele><time>2026-04-26T11:01:04.999Z</time></trkpt><trkpt lat="42.467019006587336" lon="12.057980454164628"><ele>332.0</ele><time>2026-04-26T11:01:06.999Z</time></trkpt><trkpt lat="42.467099564823044" lon="12.057867941324506"><ele>332.0</ele><time>2026-04-26T11:01:08.999Z</time></trkpt><trkpt lat="42.467187433071764" lon="12.05777041325972"><ele>332.0</ele><time>2026-04-26T11:01:10.999Z</time></trkpt><trkpt lat="42.467255773209814" lon="12.057673620849672"><ele>332.0</ele><time>2026-04-26T11:01:12.999Z</time></trkpt><trkpt lat="42.46731525344601" lon="12.057591457526586"><ele>332.0</ele><time>2026-04-26T11:01:14.999Z</time></trkpt><trkpt lat="42.46737005212143" lon="12.057516412129237"><ele>332.33333333333337</ele><time>2026-04-26T11:01:16.999Z</time></trkpt><trkpt lat="42.46745253153998" lon="12.057403458690297"><ele>332.6666666666667</ele><time>2026-04-26T11:01:18.999Z</time></trkpt><trkpt lat="42.46751307801864" lon="12.057320541929945"><ele>333.0</ele><time>2026-04-26T11:01:19.999Z</time></trkpt><trkpt lat="42.46755760388308" lon="12.057232611861583"><ele>333.3333333333333</ele><time>2026-04-26T11:01:20.999Z</time></trkpt><trkpt lat="42.46761577311387" lon="12.057154450225806"><ele>333.66666666666663</ele><time>2026-04-26T11:01:21.999Z</time></trkpt><trkpt lat="42.46767110116911" lon="12.057078999040636"><ele>334.0</ele><time>2026-04-26T11:01:22.999Z</time></trkpt><trkpt lat="42.467721108187924" lon="12.057005372515022"><ele>334.0</ele><time>2026-04-26T11:01:23.999Z</time></trkpt><trkpt lat="42.467764303847666" lon="12.056938301917576"><ele>334.0</ele><time>2026-04-26T11:01:24.999Z</time></trkpt><trkpt lat="42.46781383766656" lon="12.056853311275342"><ele>334.0</ele><time>2026-04-26T11:01:26.999Z</time></trkpt><trkpt lat="42.46786083878261" lon="12.0567918354571"><ele>334.0</ele><time>2026-04-26T11:01:28.999Z</time></trkpt><trkpt lat="42.46790599576296" lon="12.056711236556074"><ele>334.0</ele><time>2026-04-26T11:01:30.999Z</time></trkpt><trkpt lat="42.467962196892074" lon="12.056648074545317"><ele>334.0</ele><time>2026-04-26T11:01:32.999Z</time></trkpt><trkpt lat="42.468000327599974" lon="12.056573706097927"><ele>334.0</ele><time>2026-04-26T11:01:34.999Z</time></trkpt><trkpt lat="42.46802752089641" lon="12.056493720364484"><ele>333.16666666666663</ele><time>2026-04-26T11:01:36.999Z</time></trkpt><trkpt lat="42.46806474601602" lon="12.056418722185605"><ele>332.3333333333333</ele><time>2026-04-26T11:01:38.999Z</time></trkpt><trkpt lat="42.468116525223685" lon="12.056315298175306"><ele>331.5</ele><time>2026-04-26T11:01:41.999Z</time></trkpt><trkpt lat="42.46815635771704" lon="12.0562413101391"><ele>330.6666666666667</ele><time>2026-04-26T11:01:44Z</time></trkpt><trkpt lat="42.468206810544885" lon="12.056143591141792"><ele>329.83333333333337</ele><time>2026-04-26T11:01:47Z</time></trkpt><trkpt lat="42.46825818824025" lon="12.056045638067568"><ele>329.0</ele><time>2026-04-26T11:01:50Z</time></trkpt><trkpt lat="42.46831419575537" lon="12.055936326884696"><ele>329.0</ele><time>2026-04-26T11:01:52Z</time></trkpt><trkpt lat="42.46836188522163" lon="12.055851193606445"><ele>329.0</ele><time>2026-04-26T11:01:53Z</time></trkpt><trkpt lat="42.46843681130121" lon="12.055741668832002"><ele>329.0</ele><time>2026-04-26T11:01:54Z</time></trkpt><trkpt lat="42.46849265828807" lon="12.055606122093351"><ele>329.0</ele><time>2026-04-26T11:01:55Z</time></trkpt><trkpt lat="42.46856556291188" lon="12.055475871297045"><ele>329.0</ele><time>2026-04-26T11:01:56Z</time></trkpt><trkpt lat="42.46863587779586" lon="12.05534232661204"><ele>328.75</ele><time>2026-04-26T11:01:57Z</time></trkpt><trkpt lat="42.46870319425723" lon="12.055216432390996"><ele>328.5</ele><time>2026-04-26T11:01:58Z</time></trkpt><trkpt lat="42.46877022525685" lon="12.055090687943494"><ele>328.25</ele><time>2026-04-26T11:01:59Z</time></trkpt><trkpt lat="42.46883508218653" lon="12.054963736586336"><ele>328.0</ele><time>2026-04-26T11:02:00Z</time></trkpt><trkpt lat="42.46889894574541" lon="12.054839013893025"><ele>327.25</ele><time>2026-04-26T11:02:01Z</time></trkpt><trkpt lat="42.468960819480856" lon="12.054711392491033"><ele>326.5</ele><time>2026-04-26T11:02:02Z</time></trkpt><trkpt lat="42.46902039207738" lon="12.054572261950774"><ele>325.75</ele><time>2026-04-26T11:02:03Z</time></trkpt><trkpt lat="42.46907641410631" lon="12.054428410733976"><ele>325.0</ele><time>2026-04-26T11:02:04Z</time></trkpt><trkpt lat="42.46912685111412" lon="12.054290779045939"><ele>325.0</ele><time>2026-04-26T11:02:05Z</time></trkpt><trkpt lat="42.46917118836515" lon="12.054158680123765"><ele>325.0</ele><time>2026-04-26T11:02:06Z</time></trkpt><trkpt lat="42.46921504330887" lon="12.054033305873087"><ele>325.0</ele><time>2026-04-26T11:02:07Z</time></trkpt><trkpt lat="42.46925763505174" lon="12.053906970210415"><ele>325.0</ele><time>2026-04-26T11:02:08Z</time></trkpt><trkpt lat="42.46929848313412" lon="12.053770389808196"><ele>325.0</ele><time>2026-04-26T11:02:09Z</time></trkpt><trkpt lat="42.46932777044393" lon="12.053647101853317"><ele>325.2</ele><time>2026-04-26T11:02:10Z</time></trkpt><trkpt lat="42.46936006592544" lon="12.053522624819843"><ele>325.4</ele><time>2026-04-26T11:02:10.999Z</time></trkpt><trkpt lat="42.46939384966342" lon="12.053390058922284"><ele>325.6</ele><time>2026-04-26T11:02:11.999Z</time></trkpt><trkpt lat="42.46943595336054" lon="12.053277786414114"><ele>325.8</ele><time>2026-04-26T11:02:12.999Z</time></trkpt><trkpt lat="42.46943973334887" lon="12.053150211338675"><ele>326.0</ele><time>2026-04-26T11:02:13.999Z</time></trkpt><trkpt lat="42.4694281935461" lon="12.053029662502478"><ele>326.0</ele><time>2026-04-26T11:02:14.999Z</time></trkpt><trkpt lat="42.469427846642894" lon="12.052899551806386"><ele>326.0</ele><time>2026-04-26T11:02:15.999Z</time></trkpt><trkpt lat="42.46942793004101" lon="12.052766839547866"><ele>326.0</ele><time>2026-04-26T11:02:16.999Z</time></trkpt><trkpt lat="42.46945198241188" lon="12.052628930099814"><ele>326.0</ele><time>2026-04-26T11:02:17.999Z</time></trkpt><trkpt lat="42.46946580519758" lon="12.05250088806369"><ele>326.0</ele><time>2026-04-26T11:02:18.999Z</time></trkpt><trkpt lat="42.469485587119145" lon="12.05236306956477"><ele>326.0</ele><time>2026-04-26T11:02:19.999Z</time></trkpt><trkpt lat="42.46951120708197" lon="12.052242992773849"><ele>326.0</ele><time>2026-04-26T11:02:20.999Z</time></trkpt><trkpt lat="42.46953738279109" lon="12.052132443194564"><ele>326.0</ele><time>2026-04-26T11:02:21.999Z</time></trkpt><trkpt lat="42.46956853446008" lon="12.052026945375246"><ele>326.0</ele><time>2026-04-26T11:02:22.999Z</time></trkpt><trkpt lat="42.46960443646779" lon="12.05191640533162"><ele>326.0</ele><time>2026-04-26T11:02:23.999Z</time></trkpt><trkpt lat="42.46962785508174" lon="12.051787652582568"><ele>326.0</ele><time>2026-04-26T11:02:24.999Z</time></trkpt><trkpt lat="42.4696758187912" lon="12.051666027588015"><ele>326.0</ele><time>2026-04-26T11:02:25.999Z</time></trkpt><trkpt lat="42.46970178510132" lon="12.051524449969534"><ele>326.0</ele><time>2026-04-26T11:02:26.999Z</time></trkpt><trkpt lat="42.46971907600703" lon="12.05139213395537"><ele>326.0</ele><time>2026-04-26T11:02:27.999Z</time></trkpt><trkpt lat="42.4697356617523" lon="12.051245857499948"><ele>326.0</ele><time>2026-04-26T11:02:28.999Z</time></trkpt><trkpt lat="42.469752570371355" lon="12.051087057172944"><ele>326.0</ele><time>2026-04-26T11:02:29.999Z</time></trkpt><trkpt lat="42.469757685659445" lon="12.050923372044586"><ele>326.5</ele><time>2026-04-26T11:02:30.999Z</time></trkpt><trkpt lat="42.469791962285306" lon="12.050764554272206"><ele>327.0</ele><time>2026-04-26T11:02:31.999Z</time></trkpt><trkpt lat="42.46981391141224" lon="12.05060020114933"><ele>327.5</ele><time>2026-04-26T11:02:32.999Z</time></trkpt><trkpt lat="42.4698214143617" lon="12.050444487741071"><ele>328.0</ele><time>2026-04-26T11:02:33.999Z</time></trkpt><trkpt lat="42.46986421041505" lon="12.050309441490763"><ele>328.0</ele><time>2026-04-26T11:02:34.999Z</time></trkpt><trkpt lat="42.46989560993969" lon="12.05017053526658"><ele>328.0</ele><time>2026-04-26T11:02:35.999Z</time></trkpt><trkpt lat="42.46993219323178" lon="12.05002921614446"><ele>328.0</ele><time>2026-04-26T11:02:36.999Z</time></trkpt><trkpt lat="42.469974631909295" lon="12.049869503493884"><ele>328.0</ele><time>2026-04-26T11:02:37.999Z</time></trkpt><trkpt lat="42.470015770232386" lon="12.049711452790945"><ele>328.5</ele><time>2026-04-26T11:02:38.999Z</time></trkpt><trkpt lat="42.4700590792294" lon="12.049543841394167"><ele>329.0</ele><time>2026-04-26T11:02:39.999Z</time></trkpt><trkpt lat="42.47010207096688" lon="12.049377457781587"><ele>329.5</ele><time>2026-04-26T11:02:40.999Z</time></trkpt><trkpt lat="42.47014312851545" lon="12.049218559730038"><ele>330.0</ele><time>2026-04-26T11:02:41.999Z</time></trkpt><trkpt lat="42.470169486948684" lon="12.049048880892055"><ele>330.75</ele><time>2026-04-26T11:02:42.999Z</time></trkpt><trkpt lat="42.47022461786615" lon="12.048897073555963"><ele>331.5</ele><time>2026-04-26T11:02:43.999Z</time></trkpt><trkpt lat="42.47024981762607" lon="12.048738893552514"><ele>332.25</ele><time>2026-04-26T11:02:44.999Z</time></trkpt><trkpt lat="42.47028493534513" lon="12.048585128157331"><ele>333.0</ele><time>2026-04-26T11:02:45.999Z</time></trkpt><trkpt lat="42.470319146992466" lon="12.048441515680233"><ele>333.0</ele><time>2026-04-26T11:02:46.999Z</time></trkpt><trkpt lat="42.47034088007012" lon="12.048307206120928"><ele>333.0</ele><time>2026-04-26T11:02:47.999Z</time></trkpt><trkpt lat="42.470359207347244" lon="12.048181157683404"><ele>333.0</ele><time>2026-04-26T11:02:48.999Z</time></trkpt><trkpt lat="42.470393403609144" lon="12.04805503274783"><ele>333.0</ele><time>2026-04-26T11:02:49.999Z</time></trkpt><trkpt lat="42.470416362808166" lon="12.047914015975092"><ele>333.0</ele><time>2026-04-26T11:02:50.999Z</time></trkpt><trkpt lat="42.47043905998878" lon="12.047781486939707"><ele>332.8333333333333</ele><time>2026-04-26T11:02:51.999Z</time></trkpt><trkpt lat="42.47046122545082" lon="12.047662082708193"><ele>332.6666666666667</ele><time>2026-04-26T11:02:52.999Z</time></trkpt><trkpt lat="42.47048324428328" lon="12.047545851453618"><ele>332.5</ele><time>2026-04-26T11:02:53.999Z</time></trkpt><trkpt lat="42.47050406739395" lon="12.04743593200329"><ele>332.33333333333337</ele><time>2026-04-26T11:02:54.999Z</time></trkpt><trkpt lat="42.47052235938097" lon="12.047339373688017"><ele>332.1666666666667</ele><time>2026-04-26T11:02:55.999Z</time></trkpt><trkpt lat="42.47053262376761" lon="12.04723183841532"><ele>332.0</ele><time>2026-04-26T11:02:56.999Z</time></trkpt><trkpt lat="42.47054973061777" lon="12.04706177578298"><ele>332.0</ele><time>2026-04-26T11:02:58.999Z</time></trkpt><trkpt lat="42.470570306081235" lon="12.046957162196712"><ele>332.0</ele><time>2026-04-26T11:03:00.999Z</time></trkpt><trkpt lat="42.47066288376157" lon="12.046913019775605"><ele>332.0</ele><time>2026-04-26T11:03:03.999Z</time></trkpt><trkpt lat="42.47073728653678" lon="12.046892945102888"><ele>332.0</ele><time>2026-04-26T11:03:05.999Z</time></trkpt><trkpt lat="42.470819829075225" lon="12.046885162012503"><ele>332.0</ele><time>2026-04-26T11:03:07.999Z</time></trkpt><trkpt lat="42.470901914041875" lon="12.046874463303457"><ele>332.0</ele><time>2026-04-26T11:03:09.999Z</time></trkpt><trkpt lat="42.47098735483127" lon="12.046863516429843"><ele>332.0</ele><time>2026-04-26T11:03:11.999Z</time></trkpt><trkpt lat="42.47108233151095" lon="12.04683104272904"><ele>332.0</ele><time>2026-04-26T11:03:13.999Z</time></trkpt><trkpt lat="42.471198597076466" lon="12.04682463234456"><ele>332.0</ele><time>2026-04-26T11:03:15.999Z</time></trkpt><trkpt lat="42.471272164962016" lon="12.046815537997809"><ele>332.0</ele><time>2026-04-26T11:03:16.999Z</time></trkpt><trkpt lat="42.47135529978521" lon="12.046803294088292"><ele>332.0</ele><time>2026-04-26T11:03:17.999Z</time></trkpt><trkpt lat="42.47143673451246" lon="12.046792111528172"><ele>332.33333333333337</ele><time>2026-04-26T11:03:18.999Z</time></trkpt><trkpt lat="42.47151241242701" lon="12.046780150367248"><ele>332.6666666666667</ele><time>2026-04-26T11:03:19.999Z</time></trkpt><trkpt lat="42.47158879149533" lon="12.046770122910873"><ele>333.0</ele><time>2026-04-26T11:03:20.999Z</time></trkpt><trkpt lat="42.471662482985124" lon="12.046763740599799"><ele>333.3333333333333</ele><time>2026-04-26T11:03:21.999Z</time></trkpt><trkpt lat="42.47174248908241" lon="12.046755965155324"><ele>333.66666666666663</ele><time>2026-04-26T11:03:22.999Z</time></trkpt><trkpt lat="42.471811726529076" lon="12.046745893031204"><ele>334.0</ele><time>2026-04-26T11:03:23.999Z</time></trkpt><trkpt lat="42.471885711746424" lon="12.046736430665254"><ele>334.0</ele><time>2026-04-26T11:03:24.999Z</time></trkpt><trkpt lat="42.471954235546896" lon="12.046729403430202"><ele>334.0</ele><time>2026-04-26T11:03:25.999Z</time></trkpt><trkpt lat="42.47202235799569" lon="12.04672283930357"><ele>334.0</ele><time>2026-04-26T11:03:26.999Z</time></trkpt><trkpt lat="42.472088488553304" lon="12.046713241077732"><ele>334.0</ele><time>2026-04-26T11:03:27.999Z</time></trkpt><trkpt lat="42.47215303910042" lon="12.046705326918214"><ele>334.0</ele><time>2026-04-26T11:03:28.999Z</time></trkpt><trkpt lat="42.472270472539094" lon="12.046695399846577"><ele>334.0</ele><time>2026-04-26T11:03:30.999Z</time></trkpt><trkpt lat="42.4723778930673" lon="12.046682164415898"><ele>334.2</ele><time>2026-04-26T11:03:32.999Z</time></trkpt><trkpt lat="42.47247590789975" lon="12.046666621736149"><ele>334.4</ele><time>2026-04-26T11:03:34.999Z</time></trkpt><trkpt lat="42.47258497095904" lon="12.046656185331548"><ele>334.6</ele><time>2026-04-26T11:03:36.999Z</time></trkpt><trkpt lat="42.47270714012759" lon="12.046642248631594"><ele>334.8</ele><time>2026-04-26T11:03:38.999Z</time></trkpt><trkpt lat="42.47277055129276" lon="12.046631194360774"><ele>335.0</ele><time>2026-04-26T11:03:39.999Z</time></trkpt><trkpt lat="42.472839967619635" lon="12.04662441990925"><ele>335.83333333333337</ele><time>2026-04-26T11:03:40.999Z</time></trkpt><trkpt lat="42.4729145946353" lon="12.046615372654188"><ele>336.6666666666667</ele><time>2026-04-26T11:03:41.999Z</time></trkpt><trkpt lat="42.47298899699956" lon="12.046603051679863"><ele>337.5</ele><time>2026-04-26T11:03:42.999Z</time></trkpt><trkpt lat="42.473059920342656" lon="12.046590844143301"><ele>338.3333333333333</ele><time>2026-04-26T11:03:43.999Z</time></trkpt><trkpt lat="42.47313582717701" lon="12.046582456644103"><ele>339.16666666666663</ele><time>2026-04-26T11:03:44.999Z</time></trkpt><trkpt lat="42.47321015188792" lon="12.04657483019656"><ele>340.0</ele><time>2026-04-26T11:03:45.999Z</time></trkpt><trkpt lat="42.473287971691086" lon="12.046563555560077"><ele>340.0</ele><time>2026-04-26T11:03:46.999Z</time></trkpt><trkpt lat="42.473368912661705" lon="12.046553652683933"><ele>340.0</ele><time>2026-04-26T11:03:47.999Z</time></trkpt><trkpt lat="42.473449123434754" lon="12.04654099672889"><ele>340.0</ele><time>2026-04-26T11:03:49Z</time></trkpt><trkpt lat="42.47352244676747" lon="12.046529734310182"><ele>340.0</ele><time>2026-04-26T11:03:50Z</time></trkpt><trkpt lat="42.473599609376556" lon="12.046538850451425"><ele>340.0</ele><time>2026-04-26T11:03:51Z</time></trkpt><trkpt lat="42.47367564388252" lon="12.046532066514342"><ele>340.0</ele><time>2026-04-26T11:03:52Z</time></trkpt><trkpt lat="42.47373897564844" lon="12.046526304038101"><ele>340.0</ele><time>2026-04-26T11:03:53Z</time></trkpt><trkpt lat="42.47385970911061" lon="12.046518075789376"><ele>340.0</ele><time>2026-04-26T11:03:55Z</time></trkpt><trkpt lat="42.47393416801424" lon="12.046512964184268"><ele>340.0</ele><time>2026-04-26T11:03:56Z</time></trkpt><trkpt lat="42.47401278136659" lon="12.046507567370456"><ele>340.0</ele><time>2026-04-26T11:03:57Z</time></trkpt><trkpt lat="42.474094773623904" lon="12.046480201390862"><ele>340.0</ele><time>2026-04-26T11:03:58Z</time></trkpt><trkpt lat="42.47417496955934" lon="12.046496433115534"><ele>340.0</ele><time>2026-04-26T11:03:59Z</time></trkpt><trkpt lat="42.474258129035135" lon="12.046490724209574"><ele>340.0</ele><time>2026-04-26T11:04:00Z</time></trkpt><trkpt lat="42.4743362103895" lon="12.046485365614487"><ele>340.0</ele><time>2026-04-26T11:04:01Z</time></trkpt><trkpt lat="42.4744085517368" lon="12.046480399368283"><ele>340.0</ele><time>2026-04-26T11:04:02Z</time></trkpt><trkpt lat="42.474480642917236" lon="12.04647545029704"><ele>340.0</ele><time>2026-04-26T11:04:03Z</time></trkpt><trkpt lat="42.47454806670544" lon="12.046470821643258"><ele>340.0</ele><time>2026-04-26T11:04:04Z</time></trkpt><trkpt lat="42.47461262003636" lon="12.04646573893044"><ele>340.0</ele><time>2026-04-26T11:04:05Z</time></trkpt><trkpt lat="42.47473526390039" lon="12.046455903633055"><ele>340.16666666666663</ele><time>2026-04-26T11:04:07Z</time></trkpt><trkpt lat="42.47480029695219" lon="12.046450688374946"><ele>340.3333333333333</ele><time>2026-04-26T11:04:08Z</time></trkpt><trkpt lat="42.474878520220834" lon="12.046443666422855"><ele>340.5</ele><time>2026-04-26T11:04:09Z</time></trkpt><trkpt lat="42.47496528451801" lon="12.046435506205576"><ele>340.6666666666667</ele><time>2026-04-26T11:04:10Z</time></trkpt><trkpt lat="42.47506072349768" lon="12.04640763417595"><ele>340.83333333333337</ele><time>2026-04-26T11:04:11Z</time></trkpt><trkpt lat="42.47516075892781" lon="12.046402700496042"><ele>341.0</ele><time>2026-04-26T11:04:12Z</time></trkpt><trkpt lat="42.475254932716254" lon="12.046397605205172"><ele>341.0</ele><time>2026-04-26T11:04:13Z</time></trkpt><trkpt lat="42.4753457776332" lon="12.046387172763174"><ele>341.0</ele><time>2026-04-26T11:04:14Z</time></trkpt><trkpt lat="42.47542925042683" lon="12.046377496040366"><ele>341.0</ele><time>2026-04-26T11:04:15Z</time></trkpt><trkpt lat="42.47551808753072" lon="12.04637137031996"><ele>341.0</ele><time>2026-04-26T11:04:16Z</time></trkpt><trkpt lat="42.47560555720597" lon="12.046361350083204"><ele>341.0</ele><time>2026-04-26T11:04:17Z</time></trkpt><trkpt lat="42.47570154024512" lon="12.046351282388803"><ele>341.0</ele><time>2026-04-26T11:04:18Z</time></trkpt><trkpt lat="42.47580811616447" lon="12.046341829551617"><ele>341.0</ele><time>2026-04-26T11:04:19Z</time></trkpt><trkpt lat="42.47592036485869" lon="12.046331524524712"><ele>341.0</ele><time>2026-04-26T11:04:20Z</time></trkpt><trkpt lat="42.4760261141462" lon="12.04631751703514"><ele>341.0</ele><time>2026-04-26T11:04:21Z</time></trkpt><trkpt lat="42.47613133441642" lon="12.04630463301962"><ele>341.0</ele><time>2026-04-26T11:04:22Z</time></trkpt><trkpt lat="42.476235953157655" lon="12.046295566931292"><ele>341.0</ele><time>2026-04-26T11:04:23Z</time></trkpt><trkpt lat="42.47634114771154" lon="12.046286827141376"><ele>340.8</ele><time>2026-04-26T11:04:24Z</time></trkpt><trkpt lat="42.476446597728696" lon="12.046278027932617"><ele>340.6</ele><time>2026-04-26T11:04:25Z</time></trkpt><trkpt lat="42.47655012187015" lon="12.0462707936953"><ele>340.4</ele><time>2026-04-26T11:04:26Z</time></trkpt><trkpt lat="42.4766496264461" lon="12.046264082205203"><ele>340.2</ele><time>2026-04-26T11:04:27Z</time></trkpt><trkpt lat="42.47674509192631" lon="12.046254366134814"><ele>340.0</ele><time>2026-04-26T11:04:28Z</time></trkpt><trkpt lat="42.47684202923633" lon="12.0462467737683"><ele>340.0</ele><time>2026-04-26T11:04:29Z</time></trkpt><trkpt lat="42.476934277367455" lon="12.046238893096168"><ele>340.0</ele><time>2026-04-26T11:04:30Z</time></trkpt><trkpt lat="42.47703203550087" lon="12.046231577754117"><ele>340.0</ele><time>2026-04-26T11:04:31Z</time></trkpt><trkpt lat="42.47713860697352" lon="12.046219891626489"><ele>340.0</ele><time>2026-04-26T11:04:32Z</time></trkpt><trkpt lat="42.477250232855326" lon="12.046208846251405"><ele>340.0</ele><time>2026-04-26T11:04:33Z</time></trkpt><trkpt lat="42.47736130973592" lon="12.046203528790894"><ele>339.6</ele><time>2026-04-26T11:04:34Z</time></trkpt><trkpt lat="42.47746978500884" lon="12.04618950608174"><ele>339.2</ele><time>2026-04-26T11:04:35Z</time></trkpt><trkpt lat="42.477570341986294" lon="12.04618147975222"><ele>338.79999999999995</ele><time>2026-04-26T11:04:36Z</time></trkpt><trkpt lat="42.477661017053045" lon="12.046177442960559"><ele>338.4</ele><time>2026-04-26T11:04:37Z</time></trkpt><trkpt lat="42.477743855922036" lon="12.046167852431953"><ele>338.0</ele><time>2026-04-26T11:04:38Z</time></trkpt><trkpt lat="42.47782408558478" lon="12.046161385849686"><ele>338.0</ele><time>2026-04-26T11:04:38.999Z</time></trkpt><trkpt lat="42.47789197168232" lon="12.046156703923744"><ele>338.0</ele><time>2026-04-26T11:04:39.999Z</time></trkpt><trkpt lat="42.477956523785885" lon="12.046150835071968"><ele>338.0</ele><time>2026-04-26T11:04:40.999Z</time></trkpt><trkpt lat="42.478055753864055" lon="12.046146485604206"><ele>338.0</ele><time>2026-04-26T11:04:42.999Z</time></trkpt><trkpt lat="42.478131103994315" lon="12.046150164048266"><ele>338.0</ele><time>2026-04-26T11:04:45.999Z</time></trkpt><trkpt lat="42.47821671005973" lon="12.046141590987913"><ele>338.0</ele><time>2026-04-26T11:04:56.999Z</time></trkpt><trkpt lat="42.47831429144352" lon="12.046149929506267"><ele>338.75</ele><time>2026-04-26T11:04:57.999Z</time></trkpt><trkpt lat="42.478430279122826" lon="12.046148383432845"><ele>339.5</ele><time>2026-04-26T11:04:58.999Z</time></trkpt><trkpt lat="42.47857927817944" lon="12.046140389003671"><ele>340.25</ele><time>2026-04-26T11:04:59.999Z</time></trkpt><trkpt lat="42.47874370676779" lon="12.046109271859082"><ele>341.0</ele><time>2026-04-26T11:05:00.999Z</time></trkpt><trkpt lat="42.47892413771717" lon="12.046094072426415"><ele>342.0</ele><time>2026-04-26T11:05:01.999Z</time></trkpt><trkpt lat="42.47911120487107" lon="12.046096535047681"><ele>343.0</ele><time>2026-04-26T11:05:02.999Z</time></trkpt><trkpt lat="42.479317598874864" lon="12.046081192818352"><ele>344.0</ele><time>2026-04-26T11:05:03.999Z</time></trkpt><trkpt lat="42.47951557755467" lon="12.046068191912482"><ele>344.33333333333337</ele><time>2026-04-26T11:05:04.999Z</time></trkpt><trkpt lat="42.47970107013132" lon="12.046033374943423"><ele>344.6666666666667</ele><time>2026-04-26T11:05:05.999Z</time></trkpt><trkpt lat="42.47987318006907" lon="12.046042024755419"><ele>345.0</ele><time>2026-04-26T11:05:06.999Z</time></trkpt><trkpt lat="42.48005321478882" lon="12.046020129255448"><ele>345.0</ele><time>2026-04-26T11:05:07.999Z</time></trkpt><trkpt lat="42.48022806188634" lon="12.045986619040347"><ele>345.0</ele><time>2026-04-26T11:05:08.999Z</time></trkpt><trkpt lat="42.48039336714264" lon="12.04594763752725"><ele>345.0</ele><time>2026-04-26T11:05:09.999Z</time></trkpt><trkpt lat="42.480556014852816" lon="12.045908393337315"><ele>346.0</ele><time>2026-04-26T11:05:10.999Z</time></trkpt><trkpt lat="42.4807094913918" lon="12.04587136200024"><ele>347.0</ele><time>2026-04-26T11:05:11.999Z</time></trkpt><trkpt lat="42.48085166814898" lon="12.045837057100591"><ele>348.0</ele><time>2026-04-26T11:05:12.999Z</time></trkpt><trkpt lat="42.480987836239926" lon="12.045811949477324"><ele>349.0</ele><time>2026-04-26T11:05:13.999Z</time></trkpt><trkpt lat="42.48112525471387" lon="12.04580959908977"><ele>350.66666666666663</ele><time>2026-04-26T11:05:14.999Z</time></trkpt><trkpt lat="42.481278400045575" lon="12.045833344055408"><ele>352.3333333333333</ele><time>2026-04-26T11:05:15.999Z</time></trkpt><trkpt lat="42.481428823203665" lon="12.045866026920775"><ele>354.0</ele><time>2026-04-26T11:05:16.999Z</time></trkpt><trkpt lat="42.48159233611867" lon="12.04590181276556"><ele>354.0</ele><time>2026-04-26T11:05:17.999Z</time></trkpt><trkpt lat="42.48175109031276" lon="12.045936557137768"><ele>354.0</ele><time>2026-04-26T11:05:18.999Z</time></trkpt><trkpt lat="42.481910470866644" lon="12.045971924970216"><ele>354.0</ele><time>2026-04-26T11:05:19.999Z</time></trkpt><trkpt lat="42.4820743112275" lon="12.04600893444301"><ele>355.25</ele><time>2026-04-26T11:05:20.999Z</time></trkpt><trkpt lat="42.48221140178209" lon="12.046038374934378"><ele>356.5</ele><time>2026-04-26T11:05:21.999Z</time></trkpt><trkpt lat="42.48234185941871" lon="12.046063573343964"><ele>357.75</ele><time>2026-04-26T11:05:22.999Z</time></trkpt><trkpt lat="42.48246878100736" lon="12.046074528143805"><ele>359.0</ele><time>2026-04-26T11:05:23.999Z</time></trkpt><trkpt lat="42.48260453118743" lon="12.04606213741447"><ele>359.0</ele><time>2026-04-26T11:05:24.999Z</time></trkpt><trkpt lat="42.4827308441258" lon="12.045952155334879"><ele>359.0</ele><time>2026-04-26T11:05:25.999Z</time></trkpt><trkpt lat="42.482868801128554" lon="12.045908140853525"><ele>359.0</ele><time>2026-04-26T11:05:26.999Z</time></trkpt><trkpt lat="42.48300812863534" lon="12.045857088139154"><ele>359.0</ele><time>2026-04-26T11:05:27.999Z</time></trkpt><trkpt lat="42.483147285249586" lon="12.04581102983016"><ele>359.75</ele><time>2026-04-26T11:05:28.999Z</time></trkpt><trkpt lat="42.48328382237797" lon="12.045772092973646"><ele>360.5</ele><time>2026-04-26T11:05:29.999Z</time></trkpt><trkpt lat="42.48341872371828" lon="12.045749261593603"><ele>361.25</ele><time>2026-04-26T11:05:30.999Z</time></trkpt><trkpt lat="42.48355621752721" lon="12.045726186163968"><ele>362.0</ele><time>2026-04-26T11:05:31.999Z</time></trkpt><trkpt lat="42.48369625483264" lon="12.045732538909897"><ele>363.5</ele><time>2026-04-26T11:05:32.999Z</time></trkpt><trkpt lat="42.48383187346638" lon="12.045735465087944"><ele>365.0</ele><time>2026-04-26T11:05:33.999Z</time></trkpt><trkpt lat="42.48396796024971" lon="12.045764976258612"><ele>366.5</ele><time>2026-04-26T11:05:34.999Z</time></trkpt><trkpt lat="42.48410425022354" lon="12.045773094367721"><ele>368.0</ele><time>2026-04-26T11:05:35.999Z</time></trkpt><trkpt lat="42.48423862705014" lon="12.04576200870107"><ele>368.0</ele><time>2026-04-26T11:05:36.999Z</time></trkpt><trkpt lat="42.484366984391976" lon="12.045768508946761"><ele>368.0</ele><time>2026-04-26T11:05:37.999Z</time></trkpt><trkpt lat="42.4844931592486" lon="12.045756400143446"><ele>368.0</ele><time>2026-04-26T11:05:38.999Z</time></trkpt><trkpt lat="42.48462046789377" lon="12.045720775493"><ele>368.0</ele><time>2026-04-26T11:05:39.999Z</time></trkpt><trkpt lat="42.484740183153484" lon="12.045663431875104"><ele>369.2</ele><time>2026-04-26T11:05:40.999Z</time></trkpt><trkpt lat="42.48484693341865" lon="12.045612076491775"><ele>370.4</ele><time>2026-04-26T11:05:41.999Z</time></trkpt><trkpt lat="42.484947705425924" lon="12.045594224927015"><ele>371.59999999999997</ele><time>2026-04-26T11:05:42.999Z</time></trkpt><trkpt lat="42.4850377193367" lon="12.045569257078466"><ele>372.79999999999995</ele><time>2026-04-26T11:05:43.999Z</time></trkpt><trkpt lat="42.48512686994348" lon="12.045551521046404"><ele>374.0</ele><time>2026-04-26T11:05:44.999Z</time></trkpt><trkpt lat="42.48521949381584" lon="12.045516924856976"><ele>374.0</ele><time>2026-04-26T11:05:45.999Z</time></trkpt><trkpt lat="42.48531438913462" lon="12.045534642379787"><ele>374.0</ele><time>2026-04-26T11:05:46.999Z</time></trkpt><trkpt lat="42.48540943725139" lon="12.045538180129892"><ele>374.0</ele><time>2026-04-26T11:05:47.999Z</time></trkpt><trkpt lat="42.48549654664745" lon="12.045547489716489"><ele>374.0</ele><time>2026-04-26T11:05:48.999Z</time></trkpt><trkpt lat="42.48559219347259" lon="12.045560135067255"><ele>374.0</ele><time>2026-04-26T11:05:49.999Z</time></trkpt><trkpt lat="42.485682241302065" lon="12.045581817419068"><ele>374.0</ele><time>2026-04-26T11:05:50.999Z</time></trkpt><trkpt lat="42.48576804943059" lon="12.045611645052212"><ele>374.0</ele><time>2026-04-26T11:05:51.999Z</time></trkpt><trkpt lat="42.48585438582656" lon="12.04564737080376"><ele>374.0</ele><time>2026-04-26T11:05:52.999Z</time></trkpt><trkpt lat="42.48593954255141" lon="12.045689929167473"><ele>374.0</ele><time>2026-04-26T11:05:53.999Z</time></trkpt><trkpt lat="42.48601657606103" lon="12.04573806879755"><ele>374.0</ele><time>2026-04-26T11:05:55Z</time></trkpt><trkpt lat="42.48609933855254" lon="12.045795036300422"><ele>374.0</ele><time>2026-04-26T11:05:56Z</time></trkpt><trkpt lat="42.48617720178411" lon="12.045850635099061"><ele>374.79999999999995</ele><time>2026-04-26T11:05:57Z</time></trkpt><trkpt lat="42.486254726484255" lon="12.045909268515663"><ele>375.59999999999997</ele><time>2026-04-26T11:05:58Z</time></trkpt><trkpt lat="42.48634154065399" lon="12.045974576538816"><ele>376.4</ele><time>2026-04-26T11:05:59Z</time></trkpt><trkpt lat="42.486440668483674" lon="12.046023482277809"><ele>377.2</ele><time>2026-04-26T11:06:00Z</time></trkpt><trkpt lat="42.48652902919247" lon="12.046114170315898"><ele>378.0</ele><time>2026-04-26T11:06:01Z</time></trkpt><trkpt lat="42.486616100814906" lon="12.046178999107406"><ele>378.0</ele><time>2026-04-26T11:06:02Z</time></trkpt><trkpt lat="42.486707810682" lon="12.046229989412623"><ele>378.0</ele><time>2026-04-26T11:06:03Z</time></trkpt><trkpt lat="42.486797385533485" lon="12.046292793865707"><ele>378.0</ele><time>2026-04-26T11:06:04Z</time></trkpt><trkpt lat="42.486880238089185" lon="12.04635917850436"><ele>378.0</ele><time>2026-04-26T11:06:05Z</time></trkpt><trkpt lat="42.486958219065144" lon="12.046417660450302"><ele>378.0</ele><time>2026-04-26T11:06:06Z</time></trkpt><trkpt lat="42.48702823131595" lon="12.04647900907996"><ele>378.0</ele><time>2026-04-26T11:06:07Z</time></trkpt><trkpt lat="42.48709140700445" lon="12.046546830152783"><ele>378.0</ele><time>2026-04-26T11:06:08Z</time></trkpt><trkpt lat="42.48715728067826" lon="12.046618994580967"><ele>378.0</ele><time>2026-04-26T11:06:09Z</time></trkpt><trkpt lat="42.487215638581795" lon="12.046688929722961"><ele>378.0</ele><time>2026-04-26T11:06:10Z</time></trkpt><trkpt lat="42.48726730303241" lon="12.046762948008364"><ele>378.0</ele><time>2026-04-26T11:06:11Z</time></trkpt><trkpt lat="42.48730881261203" lon="12.046846857923871"><ele>378.0</ele><time>2026-04-26T11:06:12Z</time></trkpt><trkpt lat="42.48735505852188" lon="12.04692822410652"><ele>378.6666666666667</ele><time>2026-04-26T11:06:13Z</time></trkpt><trkpt lat="42.48741867780621" lon="12.046997695382117"><ele>379.3333333333333</ele><time>2026-04-26T11:06:14Z</time></trkpt><trkpt lat="42.48748833398102" lon="12.047074334713798"><ele>380.0</ele><time>2026-04-26T11:06:15Z</time></trkpt><trkpt lat="42.487560812780465" lon="12.047145535611248"><ele>380.66666666666663</ele><time>2026-04-26T11:06:16Z</time></trkpt><trkpt lat="42.48763221901415" lon="12.047223701636153"><ele>381.3333333333333</ele><time>2026-04-26T11:06:17Z</time></trkpt><trkpt lat="42.4877061191365" lon="12.047292988833863"><ele>382.0</ele><time>2026-04-26T11:06:18Z</time></trkpt><trkpt lat="42.48777583812448" lon="12.047363033795877"><ele>382.0</ele><time>2026-04-26T11:06:19Z</time></trkpt><trkpt lat="42.48784331644897" lon="12.047426283988838"><ele>382.0</ele><time>2026-04-26T11:06:20Z</time></trkpt><trkpt lat="42.48791139406019" lon="12.04746931494166"><ele>382.0</ele><time>2026-04-26T11:06:21Z</time></trkpt><trkpt lat="42.48797819009195" lon="12.047514497729491"><ele>382.0</ele><time>2026-04-26T11:06:22Z</time></trkpt><trkpt lat="42.488036441120784" lon="12.047570279815353"><ele>382.0</ele><time>2026-04-26T11:06:23Z</time></trkpt><trkpt lat="42.48810687888395" lon="12.047602947589745"><ele>382.0</ele><time>2026-04-26T11:06:24Z</time></trkpt><trkpt lat="42.48817900330444" lon="12.047631843147492"><ele>381.0</ele><time>2026-04-26T11:06:25Z</time></trkpt><trkpt lat="42.48825970263257" lon="12.047653403426096"><ele>380.0</ele><time>2026-04-26T11:06:26Z</time></trkpt><trkpt lat="42.48834557624312" lon="12.04767246451134"><ele>379.0</ele><time>2026-04-26T11:06:27Z</time></trkpt><trkpt lat="42.48842605740185" lon="12.047690139131358"><ele>378.0</ele><time>2026-04-26T11:06:28Z</time></trkpt><trkpt lat="42.488507945720315" lon="12.047708658628595"><ele>377.0</ele><time>2026-04-26T11:06:29Z</time></trkpt><trkpt lat="42.48858525146801" lon="12.047728798078733"><ele>376.0</ele><time>2026-04-26T11:06:30Z</time></trkpt><trkpt lat="42.48866385356549" lon="12.047753700399904"><ele>376.0</ele><time>2026-04-26T11:06:31Z</time></trkpt><trkpt lat="42.48873830893079" lon="12.047785184788419"><ele>376.0</ele><time>2026-04-26T11:06:32Z</time></trkpt><trkpt lat="42.4888091182876" lon="12.047824087848767"><ele>376.0</ele><time>2026-04-26T11:06:33Z</time></trkpt><trkpt lat="42.48886956007113" lon="12.04786644398336"><ele>376.0</ele><time>2026-04-26T11:06:34Z</time></trkpt><trkpt lat="42.488931303156576" lon="12.047912522577727"><ele>376.0</ele><time>2026-04-26T11:06:35Z</time></trkpt><trkpt lat="42.48899569349856" lon="12.047966254208356"><ele>376.0</ele><time>2026-04-26T11:06:36Z</time></trkpt><trkpt lat="42.48905861156806" lon="12.04802367425707"><ele>376.0</ele><time>2026-04-26T11:06:37Z</time></trkpt><trkpt lat="42.48912391693037" lon="12.048071045695096"><ele>374.16666666666663</ele><time>2026-04-26T11:06:38Z</time></trkpt><trkpt lat="42.48917981669594" lon="12.048131322572747"><ele>372.3333333333333</ele><time>2026-04-26T11:06:39Z</time></trkpt><trkpt lat="42.489221726217174" lon="12.048208431900377"><ele>370.5</ele><time>2026-04-26T11:06:40Z</time></trkpt><trkpt lat="42.48927402791434" lon="12.04826739380946"><ele>368.6666666666667</ele><time>2026-04-26T11:06:41Z</time></trkpt><trkpt lat="42.489325008528674" lon="12.04832114347"><ele>366.83333333333337</ele><time>2026-04-26T11:06:42Z</time></trkpt><trkpt lat="42.48942512490352" lon="12.048400678683816"><ele>365.0</ele><time>2026-04-26T11:06:44Z</time></trkpt><trkpt lat="42.48953850598651" lon="12.048451353064088"><ele>363.33333333333337</ele><time>2026-04-26T11:06:46Z</time></trkpt><trkpt lat="42.48960148089489" lon="12.048460691163342"><ele>361.6666666666667</ele><time>2026-04-26T11:06:47Z</time></trkpt><trkpt lat="42.48966777681333" lon="12.04846461816045"><ele>360.0</ele><time>2026-04-26T11:06:48Z</time></trkpt><trkpt lat="42.48973125254744" lon="12.04846771116163"><ele>358.3333333333333</ele><time>2026-04-26T11:06:49Z</time></trkpt><trkpt lat="42.48979691715539" lon="12.04847142045515"><ele>356.66666666666663</ele><time>2026-04-26T11:06:50Z</time></trkpt><trkpt lat="42.489923593532346" lon="12.048479656832669"><ele>355.0</ele><time>2026-04-26T11:06:52Z</time></trkpt><trkpt lat="42.489989406628446" lon="12.04848009603935"><ele>355.0</ele><time>2026-04-26T11:06:52.999Z</time></trkpt><trkpt lat="42.4900559404217" lon="12.048480540056259"><ele>355.0</ele><time>2026-04-26T11:06:53.999Z</time></trkpt><trkpt lat="42.490125860669785" lon="12.048481443678815"><ele>355.0</ele><time>2026-04-26T11:06:54.999Z</time></trkpt><trkpt lat="42.49019966844109" lon="12.048485174265277"><ele>355.0</ele><time>2026-04-26T11:06:55.999Z</time></trkpt><trkpt lat="42.49026996286131" lon="12.048494130534138"><ele>355.0</ele><time>2026-04-26T11:06:56.999Z</time></trkpt><trkpt lat="42.49034043280633" lon="12.048511565276595"><ele>355.0</ele><time>2026-04-26T11:06:57.999Z</time></trkpt><trkpt lat="42.49041656221277" lon="12.04853657626276"><ele>355.0</ele><time>2026-04-26T11:06:58.999Z</time></trkpt><trkpt lat="42.49049215977261" lon="12.048566694981382"><ele>354.0</ele><time>2026-04-26T11:06:59.999Z</time></trkpt><trkpt lat="42.49056626132013" lon="12.048599889323622"><ele>353.0</ele><time>2026-04-26T11:07:00.999Z</time></trkpt><trkpt lat="42.49064220443625" lon="12.048641743709414"><ele>352.0</ele><time>2026-04-26T11:07:01.999Z</time></trkpt><trkpt lat="42.490721214496936" lon="12.04868924099846"><ele>351.0</ele><time>2026-04-26T11:07:02.999Z</time></trkpt><trkpt lat="42.490794167246435" lon="12.048739574990723"><ele>350.0</ele><time>2026-04-26T11:07:03.999Z</time></trkpt><trkpt lat="42.49087332477645" lon="12.04879905267501"><ele>349.0</ele><time>2026-04-26T11:07:04.999Z</time></trkpt><trkpt lat="42.49094472934527" lon="12.048860597490156"><ele>349.0</ele><time>2026-04-26T11:07:05.999Z</time></trkpt><trkpt lat="42.49101867791342" lon="12.04892495440489"><ele>349.0</ele><time>2026-04-26T11:07:06.999Z</time></trkpt><trkpt lat="42.491091861262205" lon="12.048990841833293"><ele>349.0</ele><time>2026-04-26T11:07:07.999Z</time></trkpt><trkpt lat="42.49116608360711" lon="12.049059445144954"><ele>349.0</ele><time>2026-04-26T11:07:08.999Z</time></trkpt><trkpt lat="42.4912450184685" lon="12.049132404349663"><ele>349.0</ele><time>2026-04-26T11:07:09.999Z</time></trkpt><trkpt lat="42.49133120228999" lon="12.049212063752544"><ele>347.5</ele><time>2026-04-26T11:07:10.999Z</time></trkpt><trkpt lat="42.49142705614505" lon="12.049300661032062"><ele>346.0</ele><time>2026-04-26T11:07:11.999Z</time></trkpt><trkpt lat="42.491526011248624" lon="12.04938894069603"><ele>344.5</ele><time>2026-04-26T11:07:12.999Z</time></trkpt><trkpt lat="42.491631411668656" lon="12.049459741553392"><ele>343.0</ele><time>2026-04-26T11:07:13.999Z</time></trkpt><trkpt lat="42.491724385202566" lon="12.049539356384576"><ele>343.0</ele><time>2026-04-26T11:07:14.999Z</time></trkpt><trkpt lat="42.49181872388485" lon="12.049616356048578"><ele>343.0</ele><time>2026-04-26T11:07:15.999Z</time></trkpt><trkpt lat="42.49190596547173" lon="12.04968459643476"><ele>343.0</ele><time>2026-04-26T11:07:16.999Z</time></trkpt><trkpt lat="42.49198951682662" lon="12.04974998440154"><ele>343.0</ele><time>2026-04-26T11:07:17.999Z</time></trkpt><trkpt lat="42.49206049606162" lon="12.049795006985432"><ele>343.0</ele><time>2026-04-26T11:07:18.999Z</time></trkpt><trkpt lat="42.492120005459846" lon="12.049853757711722"><ele>342.5</ele><time>2026-04-26T11:07:19.999Z</time></trkpt><trkpt lat="42.492185778401875" lon="12.049877938990496"><ele>342.0</ele><time>2026-04-26T11:07:20.999Z</time></trkpt><trkpt lat="42.49224719962706" lon="12.049924785252244"><ele>341.5</ele><time>2026-04-26T11:07:21.999Z</time></trkpt><trkpt lat="42.492303696028436" lon="12.049973433051509"><ele>341.0</ele><time>2026-04-26T11:07:22.999Z</time></trkpt><trkpt lat="42.492368180592436" lon="12.050022788335335"><ele>340.5</ele><time>2026-04-26T11:07:23.999Z</time></trkpt><trkpt lat="42.49243719177965" lon="12.050101071754115"><ele>340.0</ele><time>2026-04-26T11:07:24.999Z</time></trkpt><trkpt lat="42.49250894931328" lon="12.050194242374438"><ele>339.6</ele><time>2026-04-26T11:07:25.999Z</time></trkpt><trkpt lat="42.49258440719143" lon="12.05028781011901"><ele>339.2</ele><time>2026-04-26T11:07:26.999Z</time></trkpt><trkpt lat="42.492643443239956" lon="12.050401898614627"><ele>338.79999999999995</ele><time>2026-04-26T11:07:27.999Z</time></trkpt><trkpt lat="42.49271104237155" lon="12.050502124943577"><ele>338.4</ele><time>2026-04-26T11:07:28.999Z</time></trkpt><trkpt lat="42.492779123915334" lon="12.050601506946665"><ele>338.0</ele><time>2026-04-26T11:07:29.999Z</time></trkpt><trkpt lat="42.49285614457571" lon="12.050695908448786"><ele>336.2</ele><time>2026-04-26T11:07:30.999Z</time></trkpt><trkpt lat="42.4929270068934" lon="12.050789996994704"><ele>334.4</ele><time>2026-04-26T11:07:31.999Z</time></trkpt><trkpt lat="42.492997496959994" lon="12.050895981636206"><ele>332.59999999999997</ele><time>2026-04-26T11:07:32.999Z</time></trkpt><trkpt lat="42.49307066367194" lon="12.050998179963528"><ele>330.79999999999995</ele><time>2026-04-26T11:07:33.999Z</time></trkpt><trkpt lat="42.493135356475754" lon="12.051094072582904"><ele>329.0</ele><time>2026-04-26T11:07:34.999Z</time></trkpt><trkpt lat="42.493208389609585" lon="12.051189151480434"><ele>329.0</ele><time>2026-04-26T11:07:35.999Z</time></trkpt><trkpt lat="42.49327223356834" lon="12.051283259988839"><ele>329.0</ele><time>2026-04-26T11:07:36.999Z</time></trkpt><trkpt lat="42.49333736788303" lon="12.05138852306658"><ele>329.0</ele><time>2026-04-26T11:07:37.999Z</time></trkpt><trkpt lat="42.49340452487705" lon="12.051481484506246"><ele>329.0</ele><time>2026-04-26T11:07:38.999Z</time></trkpt><trkpt lat="42.49346996012722" lon="12.051570587419803"><ele>329.0</ele><time>2026-04-26T11:07:39.999Z</time></trkpt><trkpt lat="42.493527783336155" lon="12.051679743614764"><ele>328.83333333333337</ele><time>2026-04-26T11:07:40.999Z</time></trkpt><trkpt lat="42.49359191962752" lon="12.051769802321509"><ele>328.6666666666667</ele><time>2026-04-26T11:07:41.999Z</time></trkpt><trkpt lat="42.49365559540171" lon="12.051846255615253"><ele>328.5</ele><time>2026-04-26T11:07:42.999Z</time></trkpt><trkpt lat="42.49372410955344" lon="12.051922846897744"><ele>328.3333333333333</ele><time>2026-04-26T11:07:43.999Z</time></trkpt><trkpt lat="42.49377628053767" lon="12.051987626119477"><ele>328.16666666666663</ele><time>2026-04-26T11:07:44.999Z</time></trkpt><trkpt lat="42.49383227050891" lon="12.052052856999712"><ele>328.0</ele><time>2026-04-26T11:07:45.999Z</time></trkpt><trkpt lat="42.49388590523848" lon="12.0521071690703"><ele>327.2</ele><time>2026-04-26T11:07:46.999Z</time></trkpt><trkpt lat="42.493948518806" lon="12.052166446950666"><ele>326.4</ele><time>2026-04-26T11:07:47.999Z</time></trkpt><trkpt lat="42.49402966542131" lon="12.052235607285574"><ele>325.59999999999997</ele><time>2026-04-26T11:07:48.999Z</time></trkpt><trkpt lat="42.494115378363595" lon="12.052310330826321"><ele>324.79999999999995</ele><time>2026-04-26T11:07:49.999Z</time></trkpt><trkpt lat="42.49420950658567" lon="12.052375404391094"><ele>324.0</ele><time>2026-04-26T11:07:50.999Z</time></trkpt><trkpt lat="42.49431243421409" lon="12.052440997599126"><ele>323.6</ele><time>2026-04-26T11:07:51.999Z</time></trkpt><trkpt lat="42.494411101165916" lon="12.052503761012323"><ele>323.2</ele><time>2026-04-26T11:07:52.999Z</time></trkpt><trkpt lat="42.49450591809912" lon="12.052567845166456"><ele>322.8</ele><time>2026-04-26T11:07:53.999Z</time></trkpt><trkpt lat="42.494597656158355" lon="12.05263303071338"><ele>322.40000000000003</ele><time>2026-04-26T11:07:54.999Z</time></trkpt><trkpt lat="42.49468797230159" lon="12.052694970980518"><ele>322.0</ele><time>2026-04-26T11:07:55.999Z</time></trkpt><trkpt lat="42.494776080154246" lon="12.052753540275663"><ele>321.20000000000005</ele><time>2026-04-26T11:07:56.999Z</time></trkpt><trkpt lat="42.49486859568259" lon="12.052814850277528"><ele>320.40000000000003</ele><time>2026-04-26T11:07:57.999Z</time></trkpt><trkpt lat="42.49495165022694" lon="12.052875076708371"><ele>319.6</ele><time>2026-04-26T11:07:58.999Z</time></trkpt><trkpt lat="42.49504265977585" lon="12.052932540708289"><ele>318.8</ele><time>2026-04-26T11:07:59.999Z</time></trkpt><trkpt lat="42.495123697397375" lon="12.0530039634874"><ele>318.0</ele><time>2026-04-26T11:08:01Z</time></trkpt><trkpt lat="42.49521449462295" lon="12.053046544500733"><ele>318.0</ele><time>2026-04-26T11:08:02Z</time></trkpt><trkpt lat="42.49530771269891" lon="12.053031578373847"><ele>318.0</ele><time>2026-04-26T11:08:03Z</time></trkpt><trkpt lat="42.495384912120805" lon="12.053020616579843"><ele>318.0</ele><time>2026-04-26T11:08:04Z</time></trkpt><trkpt lat="42.49552115748435" lon="12.053001803889373"><ele>318.0</ele><time>2026-04-26T11:08:06Z</time></trkpt><trkpt lat="42.49561415088648" lon="12.053027441408359"><ele>318.0</ele><time>2026-04-26T11:08:08Z</time></trkpt><trkpt lat="42.495670509162586" lon="12.05311842011307"><ele>318.8</ele><time>2026-04-26T11:08:10Z</time></trkpt><trkpt lat="42.49570664868551" lon="12.053285408847099"><ele>319.6</ele><time>2026-04-26T11:08:12Z</time></trkpt><trkpt lat="42.49570483444052" lon="12.053382199040241"><ele>320.40000000000003</ele><time>2026-04-26T11:08:13Z</time></trkpt><trkpt lat="42.49576347372983" lon="12.053514318831454"><ele>321.20000000000005</ele><time>2026-04-26T11:08:15Z</time></trkpt><trkpt lat="42.495831499291725" lon="12.053575551165965"><ele>322.0</ele><time>2026-04-26T11:08:16Z</time></trkpt><trkpt lat="42.495916592983896" lon="12.053636994036877"><ele>322.0</ele><time>2026-04-26T11:08:17Z</time></trkpt><trkpt lat="42.49600099471829" lon="12.053706727805604"><ele>322.0</ele><time>2026-04-26T11:08:18Z</time></trkpt><trkpt lat="42.496080699332026" lon="12.053812720225595"><ele>322.0</ele><time>2026-04-26T11:08:19Z</time></trkpt><trkpt lat="42.49615600035294" lon="12.053947077495884"><ele>322.0</ele><time>2026-04-26T11:08:20Z</time></trkpt><trkpt lat="42.4962314171478" lon="12.054077717713497"><ele>322.75</ele><time>2026-04-26T11:08:21Z</time></trkpt><trkpt lat="42.496305182336386" lon="12.054205708639158"><ele>323.5</ele><time>2026-04-26T11:08:22Z</time></trkpt><trkpt lat="42.49637556287297" lon="12.054331874164587"><ele>324.25</ele><time>2026-04-26T11:08:23Z</time></trkpt><trkpt lat="42.49644362978721" lon="12.054463533689933"><ele>325.0</ele><time>2026-04-26T11:08:24Z</time></trkpt><trkpt lat="42.49650957560908" lon="12.054602896177755"><ele>325.0</ele><time>2026-04-26T11:08:25Z</time></trkpt><trkpt lat="42.49657397863492" lon="12.054745218290654"><ele>325.0</ele><time>2026-04-26T11:08:26Z</time></trkpt><trkpt lat="42.49663456118646" lon="12.054881162378013"><ele>325.0</ele><time>2026-04-26T11:08:27Z</time></trkpt><trkpt lat="42.49669362816882" lon="12.055010067099003"><ele>325.0</ele><time>2026-04-26T11:08:28Z</time></trkpt><trkpt lat="42.496723272964985" lon="12.05515211390972"><ele>324.0</ele><time>2026-04-26T11:08:29Z</time></trkpt><trkpt lat="42.496773755403005" lon="12.055277351197873"><ele>323.0</ele><time>2026-04-26T11:08:30Z</time></trkpt><trkpt lat="42.496802195544696" lon="12.05540120877034"><ele>322.0</ele><time>2026-04-26T11:08:31Z</time></trkpt><trkpt lat="42.49684275698978" lon="12.055530547237318"><ele>321.0</ele><time>2026-04-26T11:08:32Z</time></trkpt><trkpt lat="42.496884590912224" lon="12.05562016059111"><ele>320.0</ele><time>2026-04-26T11:08:33Z</time></trkpt><trkpt lat="42.49693901651629" lon="12.055690362143105"><ele>320.0</ele><time>2026-04-26T11:08:34Z</time></trkpt><trkpt lat="42.496999970359774" lon="12.055739999066704"><ele>320.0</ele><time>2026-04-26T11:08:35Z</time></trkpt><trkpt lat="42.49708049547696" lon="12.055785062673612"><ele>320.0</ele><time>2026-04-26T11:08:36Z</time></trkpt><trkpt lat="42.49717851993012" lon="12.055814484958349"><ele>320.0</ele><time>2026-04-26T11:08:37Z</time></trkpt><trkpt lat="42.49727516059958" lon="12.055821334747257"><ele>320.0</ele><time>2026-04-26T11:08:38Z</time></trkpt><trkpt lat="42.497367789243654" lon="12.055833544462276"><ele>320.0</ele><time>2026-04-26T11:08:39Z</time></trkpt><trkpt lat="42.49746649704784" lon="12.055817832352517"><ele>320.2</ele><time>2026-04-26T11:08:40Z</time></trkpt><trkpt lat="42.49758136529275" lon="12.055791842245808"><ele>320.4</ele><time>2026-04-26T11:08:41Z</time></trkpt><trkpt lat="42.49769255649782" lon="12.055760174751159"><ele>320.6</ele><time>2026-04-26T11:08:42Z</time></trkpt><trkpt lat="42.497798833029734" lon="12.055728695532263"><ele>320.8</ele><time>2026-04-26T11:08:43Z</time></trkpt><trkpt lat="42.497892592530704" lon="12.055698310046532"><ele>321.0</ele><time>2026-04-26T11:08:44Z</time></trkpt><trkpt lat="42.49797379543394" lon="12.055672582516369"><ele>322.20000000000005</ele><time>2026-04-26T11:08:45Z</time></trkpt><trkpt lat="42.49805508907519" lon="12.055652331068314"><ele>323.40000000000003</ele><time>2026-04-26T11:08:46Z</time></trkpt><trkpt lat="42.49814340687276" lon="12.055645280426472"><ele>324.6</ele><time>2026-04-26T11:08:47Z</time></trkpt><trkpt lat="42.49823818441461" lon="12.055647382170369"><ele>325.8</ele><time>2026-04-26T11:08:48Z</time></trkpt><trkpt lat="42.49833400607613" lon="12.055656169416753"><ele>327.0</ele><time>2026-04-26T11:08:49Z</time></trkpt><trkpt lat="42.498446818454866" lon="12.055668402261714"><ele>327.0</ele><time>2026-04-26T11:08:50Z</time></trkpt><trkpt lat="42.49856092742386" lon="12.055685323070316"><ele>327.0</ele><time>2026-04-26T11:08:51Z</time></trkpt><trkpt lat="42.49867309303818" lon="12.05570431858185"><ele>327.0</ele><time>2026-04-26T11:08:52Z</time></trkpt><trkpt lat="42.49878599334905" lon="12.05572343842395"><ele>327.0</ele><time>2026-04-26T11:08:53Z</time></trkpt><trkpt lat="42.49889896506069" lon="12.055744460042192"><ele>328.0</ele><time>2026-04-26T11:08:54Z</time></trkpt><trkpt lat="42.499011138857384" lon="12.055766064863715"><ele>329.0</ele><time>2026-04-26T11:08:55Z</time></trkpt><trkpt lat="42.49911879646808" lon="12.055786799774973"><ele>330.0</ele><time>2026-04-26T11:08:55.999Z</time></trkpt><trkpt lat="42.49922400140161" lon="12.055807062338465"><ele>331.0</ele><time>2026-04-26T11:08:56.999Z</time></trkpt><trkpt lat="42.49933286634731" lon="12.05582839952921"><ele>332.0</ele><time>2026-04-26T11:08:57.999Z</time></trkpt><trkpt lat="42.499444317456174" lon="12.055851130103761"><ele>332.0</ele><time>2026-04-26T11:08:58.999Z</time></trkpt><trkpt lat="42.499553713692336" lon="12.055875301661915"><ele>332.0</ele><time>2026-04-26T11:08:59.999Z</time></trkpt><trkpt lat="42.4996637895211" lon="12.05590311799982"><ele>332.0</ele><time>2026-04-26T11:09:00.999Z</time></trkpt><trkpt lat="42.49977028704464" lon="12.055930030074915"><ele>332.0</ele><time>2026-04-26T11:09:01.999Z</time></trkpt><trkpt lat="42.49986458307579" lon="12.055953858868575"><ele>332.0</ele><time>2026-04-26T11:09:02.999Z</time></trkpt><trkpt lat="42.499956250551286" lon="12.055954337817123"><ele>333.0</ele><time>2026-04-26T11:09:03.999Z</time></trkpt><trkpt lat="42.500041989559136" lon="12.05597937053441"><ele>334.0</ele><time>2026-04-26T11:09:04.999Z</time></trkpt><trkpt lat="42.50012672409524" lon="12.05598656924429"><ele>335.0</ele><time>2026-04-26T11:09:05.999Z</time></trkpt><trkpt lat="42.50021781347921" lon="12.055965538624541"><ele>336.0</ele><time>2026-04-26T11:09:06.999Z</time></trkpt><trkpt lat="42.500312092879255" lon="12.055924139042789"><ele>337.0</ele><time>2026-04-26T11:09:07.999Z</time></trkpt><trkpt lat="42.500414392278216" lon="12.055867770604854"><ele>338.0</ele><time>2026-04-26T11:09:08.999Z</time></trkpt><trkpt lat="42.5005187130913" lon="12.055824158964928"><ele>339.0</ele><time>2026-04-26T11:09:09.999Z</time></trkpt><trkpt lat="42.50060744400107" lon="12.055734957771296"><ele>340.0</ele><time>2026-04-26T11:09:10.999Z</time></trkpt><trkpt lat="42.500695545488895" lon="12.055660759885175"><ele>341.0</ele><time>2026-04-26T11:09:11.999Z</time></trkpt><trkpt lat="42.50079115358216" lon="12.055587226917098"><ele>342.0</ele><time>2026-04-26T11:09:12.999Z</time></trkpt><trkpt lat="42.500886833163854" lon="12.0555226826297"><ele>342.20000000000005</ele><time>2026-04-26T11:09:13.999Z</time></trkpt><trkpt lat="42.500970833386916" lon="12.055449674333456"><ele>342.4</ele><time>2026-04-26T11:09:14.999Z</time></trkpt><trkpt lat="42.50106391858827" lon="12.055366560359237"><ele>342.6</ele><time>2026-04-26T11:09:15.999Z</time></trkpt><trkpt lat="42.50116119588955" lon="12.055276993786173"><ele>342.79999999999995</ele><time>2026-04-26T11:09:16.999Z</time></trkpt><trkpt lat="42.50125528784354" lon="12.05518995669949"><ele>343.0</ele><time>2026-04-26T11:09:17.999Z</time></trkpt><trkpt lat="42.5013435930167" lon="12.055107286164878"><ele>343.5</ele><time>2026-04-26T11:09:18.999Z</time></trkpt><trkpt lat="42.50142787234477" lon="12.055026813143822"><ele>344.0</ele><time>2026-04-26T11:09:19.999Z</time></trkpt><trkpt lat="42.50149998191288" lon="12.054957960438093"><ele>344.5</ele><time>2026-04-26T11:09:20.999Z</time></trkpt><trkpt lat="42.501563558397834" lon="12.054895331631194"><ele>345.0</ele><time>2026-04-26T11:09:21.999Z</time></trkpt><trkpt lat="42.50162003228598" lon="12.054839196451812"><ele>345.5</ele><time>2026-04-26T11:09:22.999Z</time></trkpt><trkpt lat="42.50166498075948" lon="12.054769355039387"><ele>346.0</ele><time>2026-04-26T11:09:23.999Z</time></trkpt><trkpt lat="42.501764709630685" lon="12.05468440220188"><ele>346.16666666666663</ele><time>2026-04-26T11:09:25.999Z</time></trkpt><trkpt lat="42.50181863867862" lon="12.054623494946165"><ele>346.3333333333333</ele><time>2026-04-26T11:09:26.999Z</time></trkpt><trkpt lat="42.501883580858056" lon="12.054552039637022"><ele>346.5</ele><time>2026-04-26T11:09:27.999Z</time></trkpt><trkpt lat="42.501957958527946" lon="12.05448059896102"><ele>346.6666666666667</ele><time>2026-04-26T11:09:28.999Z</time></trkpt><trkpt lat="42.502029497058466" lon="12.05441543018976"><ele>346.83333333333337</ele><time>2026-04-26T11:09:29.999Z</time></trkpt><trkpt lat="42.502098661546945" lon="12.054355489781843"><ele>347.0</ele><time>2026-04-26T11:09:30.999Z</time></trkpt><trkpt lat="42.50215418465333" lon="12.054296937900741"><ele>348.1666666666667</ele><time>2026-04-26T11:09:31.999Z</time></trkpt><trkpt lat="42.502218600952276" lon="12.054246754980497"><ele>349.33333333333337</ele><time>2026-04-26T11:09:32.999Z</time></trkpt><trkpt lat="42.502287590988274" lon="12.054184234374771"><ele>350.5</ele><time>2026-04-26T11:09:33.999Z</time></trkpt><trkpt lat="42.50233889426429" lon="12.054133858572023"><ele>351.6666666666667</ele><time>2026-04-26T11:09:34.999Z</time></trkpt><trkpt lat="42.502450010982" lon="12.054025070384206"><ele>352.8333333333333</ele><time>2026-04-26T11:09:36.999Z</time></trkpt><trkpt lat="42.50252296873504" lon="12.053986559635092"><ele>354.0</ele><time>2026-04-26T11:09:37.999Z</time></trkpt><trkpt lat="42.50257939339126" lon="12.053945995756237"><ele>354.0</ele><time>2026-04-26T11:09:38.999Z</time></trkpt><trkpt lat="42.50268051832106" lon="12.05387050452619"><ele>354.0</ele><time>2026-04-26T11:09:40.999Z</time></trkpt><trkpt lat="42.502772747116104" lon="12.053761681798187"><ele>354.0</ele><time>2026-04-26T11:09:42.999Z</time></trkpt><trkpt lat="42.502825759185406" lon="12.053703438068919"><ele>354.0</ele><time>2026-04-26T11:09:43.999Z</time></trkpt><trkpt lat="42.5029276581123" lon="12.05360883218855"><ele>354.0</ele><time>2026-04-26T11:09:45.999Z</time></trkpt><trkpt lat="42.50303055187916" lon="12.053482165553127"><ele>354.0</ele><time>2026-04-26T11:09:47.999Z</time></trkpt><trkpt lat="42.503091917154016" lon="12.053406623481129"><ele>354.0</ele><time>2026-04-26T11:09:48.999Z</time></trkpt><trkpt lat="42.50315615632672" lon="12.053325515562667"><ele>354.0</ele><time>2026-04-26T11:09:49.999Z</time></trkpt><trkpt lat="42.50320300853324" lon="12.053218084516232"><ele>354.0</ele><time>2026-04-26T11:09:50.999Z</time></trkpt><trkpt lat="42.50326767693011" lon="12.053138812535325"><ele>354.0</ele><time>2026-04-26T11:09:51.999Z</time></trkpt><trkpt lat="42.50332837221142" lon="12.053060992601274"><ele>354.0</ele><time>2026-04-26T11:09:52.999Z</time></trkpt><trkpt lat="42.503391323701784" lon="12.0529835298617"><ele>354.0</ele><time>2026-04-26T11:09:53.999Z</time></trkpt><trkpt lat="42.50345309789221" lon="12.052907555156185"><ele>354.0</ele><time>2026-04-26T11:09:54.999Z</time></trkpt><trkpt lat="42.50351748226016" lon="12.052824009311099"><ele>354.0</ele><time>2026-04-26T11:09:55.999Z</time></trkpt><trkpt lat="42.503584953923195" lon="12.052732629722893"><ele>354.0</ele><time>2026-04-26T11:09:56.999Z</time></trkpt><trkpt lat="42.503649937312055" lon="12.052637552496035"><ele>354.0</ele><time>2026-04-26T11:09:57.999Z</time></trkpt><trkpt lat="42.50370378249248" lon="12.052540127517622"><ele>353.5</ele><time>2026-04-26T11:09:58.999Z</time></trkpt><trkpt lat="42.50375434065538" lon="12.052448930056935"><ele>353.0</ele><time>2026-04-26T11:09:59.999Z</time></trkpt><trkpt lat="42.50384193662567" lon="12.052405558140428"><ele>352.5</ele><time>2026-04-26T11:10:00.999Z</time></trkpt><trkpt lat="42.50387018383016" lon="12.052291716292892"><ele>352.0</ele><time>2026-04-26T11:10:01.999Z</time></trkpt><trkpt lat="42.50392788858554" lon="12.052211725576"><ele>351.5</ele><time>2026-04-26T11:10:02.999Z</time></trkpt><trkpt lat="42.50401078872124" lon="12.052173565182692"><ele>351.0</ele><time>2026-04-26T11:10:03.999Z</time></trkpt><trkpt lat="42.50406869651245" lon="12.052094003156737"><ele>351.0</ele><time>2026-04-26T11:10:04.999Z</time></trkpt><trkpt lat="42.504128084180905" lon="12.052012664054793"><ele>351.0</ele><time>2026-04-26T11:10:05.999Z</time></trkpt><trkpt lat="42.50418802746074" lon="12.051934096454044"><ele>351.0</ele><time>2026-04-26T11:10:07Z</time></trkpt><trkpt lat="42.50425442688863" lon="12.051847066843289"><ele>351.0</ele><time>2026-04-26T11:10:08Z</time></trkpt><trkpt lat="42.50432570051737" lon="12.051753514702439"><ele>351.0</ele><time>2026-04-26T11:10:09Z</time></trkpt><trkpt lat="42.50439465942934" lon="12.051666453391064"><ele>350.8</ele><time>2026-04-26T11:10:10Z</time></trkpt><trkpt lat="42.50445997745061" lon="12.051583988887527"><ele>350.6</ele><time>2026-04-26T11:10:11Z</time></trkpt><trkpt lat="42.50452358672034" lon="12.051504054571748"><ele>350.4</ele><time>2026-04-26T11:10:12Z</time></trkpt><trkpt lat="42.5045874114318" lon="12.051426000909364"><ele>350.2</ele><time>2026-04-26T11:10:13Z</time></trkpt><trkpt lat="42.50465222098205" lon="12.051320846562552"><ele>350.0</ele><time>2026-04-26T11:10:14Z</time></trkpt><trkpt lat="42.5047238741262" lon="12.05122847524045"><ele>350.5</ele><time>2026-04-26T11:10:15Z</time></trkpt><trkpt lat="42.504790436062045" lon="12.051145614563415"><ele>351.0</ele><time>2026-04-26T11:10:16Z</time></trkpt><trkpt lat="42.50485671852709" lon="12.051069885654183"><ele>351.5</ele><time>2026-04-26T11:10:17Z</time></trkpt><trkpt lat="42.504921264899515" lon="12.051008502373431"><ele>352.0</ele><time>2026-04-26T11:10:18Z</time></trkpt><trkpt lat="42.50498687576641" lon="12.050946473138186"><ele>352.5</ele><time>2026-04-26T11:10:19Z</time></trkpt><trkpt lat="42.50504777867099" lon="12.050883182906041"><ele>353.0</ele><time>2026-04-26T11:10:20Z</time></trkpt><trkpt lat="42.50510486883525" lon="12.050821675625672"><ele>353.0</ele><time>2026-04-26T11:10:21Z</time></trkpt><trkpt lat="42.50515439505905" lon="12.050763087600787"><ele>353.0</ele><time>2026-04-26T11:10:22Z</time></trkpt><trkpt lat="42.50524013541641" lon="12.050667863723575"><ele>353.0</ele><time>2026-04-26T11:10:24Z</time></trkpt><trkpt lat="42.50531162151963" lon="12.050602142911428"><ele>353.0</ele><time>2026-04-26T11:10:26Z</time></trkpt><trkpt lat="42.50539291605133" lon="12.050571497553522"><ele>353.0</ele><time>2026-04-26T11:10:28Z</time></trkpt><trkpt lat="42.505452346567886" lon="12.050543205907145"><ele>353.0</ele><time>2026-04-26T11:10:29Z</time></trkpt><trkpt lat="42.505564003057636" lon="12.05049316315217"><ele>353.2</ele><time>2026-04-26T11:10:31Z</time></trkpt><trkpt lat="42.505684979824665" lon="12.050442202873123"><ele>353.4</ele><time>2026-04-26T11:10:33Z</time></trkpt><trkpt lat="42.50577986595744" lon="12.050409808612445"><ele>353.59999999999997</ele><time>2026-04-26T11:10:34Z</time></trkpt><trkpt lat="42.505865713638286" lon="12.050385260239345"><ele>353.79999999999995</ele><time>2026-04-26T11:10:35Z</time></trkpt><trkpt lat="42.50594524579907" lon="12.050361706949586"><ele>354.0</ele><time>2026-04-26T11:10:36Z</time></trkpt><trkpt lat="42.50608677542761" lon="12.050308417319542"><ele>354.0</ele><time>2026-04-26T11:10:38Z</time></trkpt><trkpt lat="42.506165325042424" lon="12.050276320502947"><ele>354.0</ele><time>2026-04-26T11:10:40Z</time></trkpt><trkpt lat="42.50617158411096" lon="12.05014057228263"><ele>354.0</ele><time>2026-04-26T11:10:43Z</time></trkpt><trkpt lat="42.50611568740374" lon="12.050067606989503"><ele>354.0</ele><time>2026-04-26T11:10:45Z</time></trkpt><trkpt lat="42.50611686086964" lon="12.049956346414692"><ele>354.0</ele><time>2026-04-26T11:10:47Z</time></trkpt><trkpt lat="42.506189702138514" lon="12.049911481137835"><ele>354.0</ele><time>2026-04-26T11:10:49Z</time></trkpt><trkpt lat="42.506324836281784" lon="12.049879207858568"><ele>354.6666666666667</ele><time>2026-04-26T11:10:51Z</time></trkpt><trkpt lat="42.506395034263576" lon="12.049848654379653"><ele>355.3333333333333</ele><time>2026-04-26T11:10:52Z</time></trkpt><trkpt lat="42.506456678898246" lon="12.049818381326471"><ele>356.0</ele><time>2026-04-26T11:10:53Z</time></trkpt><trkpt lat="42.50652029369942" lon="12.049785864337125"><ele>356.66666666666663</ele><time>2026-04-26T11:10:54Z</time></trkpt><trkpt lat="42.506635048862414" lon="12.049745142779473"><ele>357.3333333333333</ele><time>2026-04-26T11:10:56Z</time></trkpt><trkpt lat="42.50675087442728" lon="12.049708074013964"><ele>358.0</ele><time>2026-04-26T11:10:58Z</time></trkpt><trkpt lat="42.506877691673665" lon="12.04969143811119"><ele>358.0</ele><time>2026-04-26T11:11:00Z</time></trkpt><trkpt lat="42.50699902604392" lon="12.049649289019374"><ele>358.0</ele><time>2026-04-26T11:11:02Z</time></trkpt><trkpt lat="42.50707242642789" lon="12.049623791203125"><ele>358.0</ele><time>2026-04-26T11:11:03Z</time></trkpt><trkpt lat="42.50714297354565" lon="12.049598754690788"><ele>358.0</ele><time>2026-04-26T11:11:03.999Z</time></trkpt><trkpt lat="42.50720599842101" lon="12.049575307003959"><ele>358.0</ele><time>2026-04-26T11:11:04.999Z</time></trkpt><trkpt lat="42.50733247457346" lon="12.049528253582984"><ele>358.79999999999995</ele><time>2026-04-26T11:11:06.999Z</time></trkpt><trkpt lat="42.50741865557267" lon="12.049495104158304"><ele>359.6</ele><time>2026-04-26T11:11:07.999Z</time></trkpt><trkpt lat="42.50748867303704" lon="12.049468441228537"><ele>360.4</ele><time>2026-04-26T11:11:08.999Z</time></trkpt><trkpt lat="42.50755478628809" lon="12.049440410483069"><ele>361.20000000000005</ele><time>2026-04-26T11:11:09.999Z</time></trkpt><trkpt lat="42.50766559312008" lon="12.049389666592637"><ele>362.0</ele><time>2026-04-26T11:11:11.999Z</time></trkpt><trkpt lat="42.5077740051317" lon="12.049317952821873"><ele>362.0</ele><time>2026-04-26T11:11:13.999Z</time></trkpt><trkpt lat="42.50786681840945" lon="12.049208150777144"><ele>362.0</ele><time>2026-04-26T11:11:15.999Z</time></trkpt><trkpt lat="42.50793740251196" lon="12.049119348705622"><ele>362.0</ele><time>2026-04-26T11:11:17.999Z</time></trkpt><trkpt lat="42.50802222373281" lon="12.049055227093339"><ele>362.0</ele><time>2026-04-26T11:11:19.999Z</time></trkpt><trkpt lat="42.50811289593747" lon="12.049032793552854"><ele>362.0</ele><time>2026-04-26T11:11:21.999Z</time></trkpt><trkpt lat="42.50820795626081" lon="12.049014974905134"><ele>363.0</ele><time>2026-04-26T11:11:23.999Z</time></trkpt><trkpt lat="42.50830764298685" lon="12.04898263297497"><ele>364.0</ele><time>2026-04-26T11:11:25.999Z</time></trkpt><trkpt lat="42.50841018454294" lon="12.048916589635644"><ele>365.0</ele><time>2026-04-26T11:11:27.999Z</time></trkpt><trkpt lat="42.50846766220878" lon="12.048866863655537"><ele>366.0</ele><time>2026-04-26T11:11:28.999Z</time></trkpt><trkpt lat="42.508509672527886" lon="12.048796971790427"><ele>367.0</ele><time>2026-04-26T11:11:29.999Z</time></trkpt><trkpt lat="42.50859796712005" lon="12.048720577647767"><ele>367.0</ele><time>2026-04-26T11:11:31.999Z</time></trkpt><trkpt lat="42.508675906761745" lon="12.048602818372649"><ele>367.0</ele><time>2026-04-26T11:11:33.999Z</time></trkpt><trkpt lat="42.50872268855791" lon="12.048517657424117"><ele>367.0</ele><time>2026-04-26T11:11:34.999Z</time></trkpt><trkpt lat="42.50876313762764" lon="12.048442262499828"><ele>367.0</ele><time>2026-04-26T11:11:35.999Z</time></trkpt><trkpt lat="42.50879578039069" lon="12.048345659742328"><ele>367.0</ele><time>2026-04-26T11:11:36.999Z</time></trkpt><trkpt lat="42.5088773963768" lon="12.048221879717094"><ele>367.8333333333333</ele><time>2026-04-26T11:11:38.999Z</time></trkpt><trkpt lat="42.50893420828943" lon="12.04816224521693"><ele>368.66666666666663</ele><time>2026-04-26T11:11:39.999Z</time></trkpt><trkpt lat="42.50898165768857" lon="12.048079334935341"><ele>369.5</ele><time>2026-04-26T11:11:40.999Z</time></trkpt><trkpt lat="42.50903767759679" lon="12.048012893263206"><ele>370.3333333333333</ele><time>2026-04-26T11:11:41.999Z</time></trkpt><trkpt lat="42.509097871560655" lon="12.047942581305037"><ele>371.1666666666667</ele><time>2026-04-26T11:11:42.999Z</time></trkpt><trkpt lat="42.50916770980083" lon="12.047870441757842"><ele>372.0</ele><time>2026-04-26T11:11:43.999Z</time></trkpt><trkpt lat="42.50922651628308" lon="12.04780038033101"><ele>372.00000000000006</ele><time>2026-04-26T11:11:44.999Z</time></trkpt><trkpt lat="42.50929461730572" lon="12.047727808648595"><ele>372.0</ele><time>2026-04-26T11:11:45.999Z</time></trkpt><trkpt lat="42.50935599959684" lon="12.047663165636562"><ele>372.0</ele><time>2026-04-26T11:11:46.999Z</time></trkpt><trkpt lat="42.50941991607069" lon="12.047600873586227"><ele>372.0</ele><time>2026-04-26T11:11:47.999Z</time></trkpt><trkpt lat="42.509480856579934" lon="12.047551984331415"><ele>372.0</ele><time>2026-04-26T11:11:48.999Z</time></trkpt><trkpt lat="42.50953673361719" lon="12.04749404574286"><ele>372.00000000000006</ele><time>2026-04-26T11:11:49.999Z</time></trkpt><trkpt lat="42.50959125823369" lon="12.047448396796502"><ele>372.0</ele><time>2026-04-26T11:11:50.999Z</time></trkpt><trkpt lat="42.50965120875592" lon="12.047393215391219"><ele>372.8333333333333</ele><time>2026-04-26T11:11:51.999Z</time></trkpt><trkpt lat="42.509715944850576" lon="12.04733163025942"><ele>373.6666666666667</ele><time>2026-04-26T11:11:52.999Z</time></trkpt><trkpt lat="42.50978554403866" lon="12.047260283978163"><ele>374.5</ele><time>2026-04-26T11:11:53.999Z</time></trkpt><trkpt lat="42.5098586594518" lon="12.047204697597854"><ele>375.33333333333337</ele><time>2026-04-26T11:11:54.999Z</time></trkpt><trkpt lat="42.509921100999684" lon="12.047155930137771"><ele>376.1666666666667</ele><time>2026-04-26T11:11:55.999Z</time></trkpt><trkpt lat="42.509956772882106" lon="12.04707500868618"><ele>377.0</ele><time>2026-04-26T11:11:56.999Z</time></trkpt><trkpt lat="42.510017394637366" lon="12.047013858594678"><ele>376.99999999999994</ele><time>2026-04-26T11:11:57.999Z</time></trkpt><trkpt lat="42.51007692500612" lon="12.046954352499045"><ele>377.0</ele><time>2026-04-26T11:11:58.999Z</time></trkpt><trkpt lat="42.51013539433482" lon="12.04689773631597"><ele>377.0</ele><time>2026-04-26T11:11:59.999Z</time></trkpt><trkpt lat="42.51020032204047" lon="12.046832142179555"><ele>377.0</ele><time>2026-04-26T11:12:00.999Z</time></trkpt><trkpt lat="42.510260300217" lon="12.04676401646362"><ele>377.0</ele><time>2026-04-26T11:12:01.999Z</time></trkpt><trkpt lat="42.510318271640784" lon="12.04670426196926"><ele>376.99999999999994</ele><time>2026-04-26T11:12:02.999Z</time></trkpt><trkpt lat="42.510373147548634" lon="12.046656983670825"><ele>377.0</ele><time>2026-04-26T11:12:03.999Z</time></trkpt><trkpt lat="42.51043157764158" lon="12.04660621470482"><ele>378.1666666666667</ele><time>2026-04-26T11:12:04.999Z</time></trkpt><trkpt lat="42.51049482466221" lon="12.046546809960699"><ele>379.33333333333337</ele><time>2026-04-26T11:12:05.999Z</time></trkpt><trkpt lat="42.510559084640484" lon="12.046483273974916"><ele>380.5</ele><time>2026-04-26T11:12:06.999Z</time></trkpt><trkpt lat="42.51061423022305" lon="12.04642832761169"><ele>381.6666666666667</ele><time>2026-04-26T11:12:07.999Z</time></trkpt><trkpt lat="42.51067347560104" lon="12.046371475696931"><ele>382.8333333333333</ele><time>2026-04-26T11:12:08.999Z</time></trkpt><trkpt lat="42.51073950410134" lon="12.046316255661868"><ele>384.0</ele><time>2026-04-26T11:12:09.999Z</time></trkpt><trkpt lat="42.51080760676215" lon="12.046267925231238"><ele>383.99999999999994</ele><time>2026-04-26T11:12:10.999Z</time></trkpt><trkpt lat="42.510867067808135" lon="12.046216949526567"><ele>384.0</ele><time>2026-04-26T11:12:11.999Z</time></trkpt><trkpt lat="42.51093108943161" lon="12.046164619095055"><ele>384.0</ele><time>2026-04-26T11:12:13Z</time></trkpt><trkpt lat="42.51099548165376" lon="12.046118852567972"><ele>384.0</ele><time>2026-04-26T11:12:14Z</time></trkpt><trkpt lat="42.51106443536173" lon="12.046092282633328"><ele>384.0</ele><time>2026-04-26T11:12:15Z</time></trkpt><trkpt lat="42.511123874371535" lon="12.046051011532848"><ele>383.99999999999994</ele><time>2026-04-26T11:12:16Z</time></trkpt><trkpt lat="42.511192337307" lon="12.046008233239627"><ele>384.0</ele><time>2026-04-26T11:12:17Z</time></trkpt><trkpt lat="42.5112583930677" lon="12.045968551812031"><ele>383.5</ele><time>2026-04-26T11:12:18Z</time></trkpt><trkpt lat="42.51133225868865" lon="12.045927061700631"><ele>383.0</ele><time>2026-04-26T11:12:19Z</time></trkpt><trkpt lat="42.51139538943354" lon="12.045894199106847"><ele>382.5</ele><time>2026-04-26T11:12:20Z</time></trkpt><trkpt lat="42.5114586494669" lon="12.045864733739874"><ele>382.0</ele><time>2026-04-26T11:12:21Z</time></trkpt><trkpt lat="42.51157482297252" lon="12.04581731339283"><ele>381.5</ele><time>2026-04-26T11:12:23Z</time></trkpt><trkpt lat="42.511656543264415" lon="12.045787801557958"><ele>381.0</ele><time>2026-04-26T11:12:24Z</time></trkpt><trkpt lat="42.51173463118223" lon="12.04574680483693"><ele>381.0</ele><time>2026-04-26T11:12:25Z</time></trkpt><trkpt lat="42.51180024016622" lon="12.045728846330368"><ele>381.0</ele><time>2026-04-26T11:12:26Z</time></trkpt><trkpt lat="42.51186324772908" lon="12.045705046119448"><ele>381.0</ele><time>2026-04-26T11:12:27Z</time></trkpt><trkpt lat="42.51196566636232" lon="12.045667235735207"><ele>381.0</ele><time>2026-04-26T11:12:29Z</time></trkpt><trkpt lat="42.512092212520784" lon="12.045617486054983"><ele>381.0</ele><time>2026-04-26T11:12:31Z</time></trkpt><trkpt lat="42.51215828425036" lon="12.045592811360253"><ele>381.0</ele><time>2026-04-26T11:12:32Z</time></trkpt><trkpt lat="42.512224872275475" lon="12.04557124978178"><ele>381.57142857142856</ele><time>2026-04-26T11:12:33Z</time></trkpt><trkpt lat="42.51229058272029" lon="12.045540244914513"><ele>382.14285714285717</ele><time>2026-04-26T11:12:34Z</time></trkpt><trkpt lat="42.51235314621808" lon="12.045514815198135"><ele>382.7142857142857</ele><time>2026-04-26T11:12:35Z</time></trkpt><trkpt lat="42.51241751340019" lon="12.045486164698914"><ele>383.2857142857143</ele><time>2026-04-26T11:12:36Z</time></trkpt><trkpt lat="42.51248226579046" lon="12.045459774616631"><ele>383.8571428571429</ele><time>2026-04-26T11:12:37Z</time></trkpt><trkpt lat="42.512594960669226" lon="12.045431089406353"><ele>384.42857142857144</ele><time>2026-04-26T11:12:39Z</time></trkpt><trkpt lat="42.5126551127902" lon="12.045405468112206"><ele>385.0</ele><time>2026-04-26T11:12:40Z</time></trkpt><trkpt lat="42.51277364942096" lon="12.045355756810109"><ele>385.00000000000006</ele><time>2026-04-26T11:12:42Z</time></trkpt><trkpt lat="42.51284186180429" lon="12.045325707918806"><ele>385.0</ele><time>2026-04-26T11:12:43Z</time></trkpt><trkpt lat="42.5129158585141" lon="12.04528070685302"><ele>385.0</ele><time>2026-04-26T11:12:44Z</time></trkpt><trkpt lat="42.51300394244216" lon="12.045237142272251"><ele>385.0</ele><time>2026-04-26T11:12:45Z</time></trkpt><trkpt lat="42.513079204226024" lon="12.045210279697802"><ele>385.00000000000006</ele><time>2026-04-26T11:12:46Z</time></trkpt><trkpt lat="42.51314744314955" lon="12.045168060418147"><ele>385.0</ele><time>2026-04-26T11:12:47Z</time></trkpt><trkpt lat="42.51322142088637" lon="12.04514123988135"><ele>385.83333333333337</ele><time>2026-04-26T11:12:48Z</time></trkpt><trkpt lat="42.51329385401696" lon="12.045091827641997"><ele>386.6666666666667</ele><time>2026-04-26T11:12:49Z</time></trkpt><trkpt lat="42.513368158881754" lon="12.045043351289857"><ele>387.5</ele><time>2026-04-26T11:12:50Z</time></trkpt><trkpt lat="42.51343656382852" lon="12.044992992036399"><ele>388.33333333333337</ele><time>2026-04-26T11:12:51Z</time></trkpt><trkpt lat="42.513506167483285" lon="12.04493760286027"><ele>389.1666666666667</ele><time>2026-04-26T11:12:52Z</time></trkpt><trkpt lat="42.51357831573222" lon="12.04490507429371"><ele>390.0</ele><time>2026-04-26T11:12:53Z</time></trkpt><trkpt lat="42.5136288687412" lon="12.044838213169816"><ele>390.0</ele><time>2026-04-26T11:12:54Z</time></trkpt><trkpt lat="42.513696124276905" lon="12.044794971938302"><ele>390.0</ele><time>2026-04-26T11:12:55Z</time></trkpt><trkpt lat="42.51377960234505" lon="12.044714116963807"><ele>390.0</ele><time>2026-04-26T11:12:56Z</time></trkpt><trkpt lat="42.51384803889551" lon="12.044658105390573"><ele>390.0</ele><time>2026-04-26T11:12:57Z</time></trkpt><trkpt lat="42.513915166079784" lon="12.044597108212658"><ele>390.0</ele><time>2026-04-26T11:12:58Z</time></trkpt><trkpt lat="42.51397733080201" lon="12.044539313405734"><ele>390.0</ele><time>2026-04-26T11:12:59Z</time></trkpt><trkpt lat="42.51404089026629" lon="12.044475543282653"><ele>391.1666666666667</ele><time>2026-04-26T11:13:00Z</time></trkpt><trkpt lat="42.51410505639339" lon="12.044397603997956"><ele>392.33333333333337</ele><time>2026-04-26T11:13:01Z</time></trkpt><trkpt lat="42.51415963659738" lon="12.044325032778525"><ele>393.5</ele><time>2026-04-26T11:13:02Z</time></trkpt><trkpt lat="42.51421331075106" lon="12.044252423980248"><ele>394.6666666666667</ele><time>2026-04-26T11:13:03Z</time></trkpt><trkpt lat="42.5142643462124" lon="12.044176378563735"><ele>395.83333333333337</ele><time>2026-04-26T11:13:04Z</time></trkpt><trkpt lat="42.51432075732616" lon="12.04409772607618"><ele>397.0</ele><time>2026-04-26T11:13:05Z</time></trkpt><trkpt lat="42.51438333186736" lon="12.044018532257201"><ele>397.7142857142857</ele><time>2026-04-26T11:13:06Z</time></trkpt><trkpt lat="42.51444034078108" lon="12.043943764940057"><ele>398.42857142857144</ele><time>2026-04-26T11:13:07Z</time></trkpt><trkpt lat="42.51449724554743" lon="12.043884141248638"><ele>399.1428571428571</ele><time>2026-04-26T11:13:08Z</time></trkpt><trkpt lat="42.51455002036332" lon="12.04382050811209"><ele>399.8571428571429</ele><time>2026-04-26T11:13:09Z</time></trkpt><trkpt lat="42.51460300663584" lon="12.0437499137853"><ele>400.5714285714286</ele><time>2026-04-26T11:13:10Z</time></trkpt><trkpt lat="42.5146571690056" lon="12.043685209133669"><ele>401.2857142857143</ele><time>2026-04-26T11:13:10.999Z</time></trkpt><trkpt lat="42.51470679652265" lon="12.043612583399945"><ele>402.0</ele><time>2026-04-26T11:13:11.999Z</time></trkpt><trkpt lat="42.514792827324655" lon="12.043510530253107"><ele>402.8333333333333</ele><time>2026-04-26T11:13:13.999Z</time></trkpt><trkpt lat="42.51483886992717" lon="12.0434471508168"><ele>403.66666666666663</ele><time>2026-04-26T11:13:14.999Z</time></trkpt><trkpt lat="42.51493518102201" lon="12.043338364110197"><ele>404.5</ele><time>2026-04-26T11:13:16.999Z</time></trkpt><trkpt lat="42.515033981578036" lon="12.043244656096794"><ele>405.3333333333333</ele><time>2026-04-26T11:13:18.999Z</time></trkpt><trkpt lat="42.51508524456047" lon="12.043185102247962"><ele>406.16666666666663</ele><time>2026-04-26T11:13:19.999Z</time></trkpt><trkpt lat="42.51514397019904" lon="12.043136457823426"><ele>407.0</ele><time>2026-04-26T11:13:20.999Z</time></trkpt><trkpt lat="42.51520560615222" lon="12.04307317050466"><ele>407.8333333333333</ele><time>2026-04-26T11:13:21.999Z</time></trkpt><trkpt lat="42.51526496045333" lon="12.043006941390468"><ele>408.66666666666663</ele><time>2026-04-26T11:13:22.999Z</time></trkpt><trkpt lat="42.51532180534444" lon="12.042938019055702"><ele>409.5</ele><time>2026-04-26T11:13:23.999Z</time></trkpt><trkpt lat="42.51537548040425" lon="12.042873257327539"><ele>410.33333333333337</ele><time>2026-04-26T11:13:24.999Z</time></trkpt><trkpt lat="42.51542792408566" lon="12.042810549741361"><ele>411.1666666666667</ele><time>2026-04-26T11:13:25.999Z</time></trkpt><trkpt lat="42.51547273902155" lon="12.042728745330141"><ele>412.0</ele><time>2026-04-26T11:13:26.999Z</time></trkpt><trkpt lat="42.51553521043803" lon="12.04265999077802"><ele>413.33333333333337</ele><time>2026-04-26T11:13:27.999Z</time></trkpt><trkpt lat="42.5156004377724" lon="12.042591555154626"><ele>414.6666666666667</ele><time>2026-04-26T11:13:28.999Z</time></trkpt><trkpt lat="42.515665773648635" lon="12.042509656973722"><ele>416.0</ele><time>2026-04-26T11:13:29.999Z</time></trkpt><trkpt lat="42.515737465570204" lon="12.042433749134018"><ele>417.33333333333337</ele><time>2026-04-26T11:13:30.999Z</time></trkpt><trkpt lat="42.51579018680046" lon="12.042371513331208"><ele>418.6666666666667</ele><time>2026-04-26T11:13:31.999Z</time></trkpt><trkpt lat="42.515856563192244" lon="12.042295088680193"><ele>420.0</ele><time>2026-04-26T11:13:32.999Z</time></trkpt><trkpt lat="42.51590988924363" lon="12.042233625825583"><ele>421.3333333333333</ele><time>2026-04-26T11:13:33.999Z</time></trkpt><trkpt lat="42.51596368723478" lon="12.042176390549804"><ele>422.66666666666663</ele><time>2026-04-26T11:13:34.999Z</time></trkpt><trkpt lat="42.51602283251745" lon="12.042117613145919"><ele>424.0</ele><time>2026-04-26T11:13:35.999Z</time></trkpt><trkpt lat="42.51607439182761" lon="12.042049300309058"><ele>425.3333333333333</ele><time>2026-04-26T11:13:36.999Z</time></trkpt><trkpt lat="42.51613461011409" lon="12.042001714303764"><ele>426.66666666666663</ele><time>2026-04-26T11:13:37.999Z</time></trkpt><trkpt lat="42.516188700315624" lon="12.04195144735314"><ele>428.0</ele><time>2026-04-26T11:13:38.999Z</time></trkpt><trkpt lat="42.516283792293414" lon="12.04187642118626"><ele>428.8333333333333</ele><time>2026-04-26T11:13:40.999Z</time></trkpt><trkpt lat="42.516388912979124" lon="12.041808298294912"><ele>429.66666666666663</ele><time>2026-04-26T11:13:42.999Z</time></trkpt><trkpt lat="42.51646840035986" lon="12.041710524182799"><ele>430.5</ele><time>2026-04-26T11:13:44.999Z</time></trkpt><trkpt lat="42.51652949089236" lon="12.041677922899243"><ele>431.33333333333337</ele><time>2026-04-26T11:13:45.999Z</time></trkpt><trkpt lat="42.5165886171022" lon="12.041628615565342"><ele>432.1666666666667</ele><time>2026-04-26T11:13:46.999Z</time></trkpt><trkpt lat="42.51664356062032" lon="12.041577784853366"><ele>433.0</ele><time>2026-04-26T11:13:47.999Z</time></trkpt><trkpt lat="42.51669895935695" lon="12.041527135268932"><ele>434.33333333333337</ele><time>2026-04-26T11:13:48.999Z</time></trkpt><trkpt lat="42.51676418025404" lon="12.041484057054564"><ele>435.6666666666667</ele><time>2026-04-26T11:13:49.999Z</time></trkpt><trkpt lat="42.516823706342784" lon="12.041449717594121"><ele>437.0</ele><time>2026-04-26T11:13:50.999Z</time></trkpt><trkpt lat="42.516888506309755" lon="12.041424342514585"><ele>438.33333333333337</ele><time>2026-04-26T11:13:51.999Z</time></trkpt><trkpt lat="42.51700480233179" lon="12.041395980608257"><ele>439.6666666666667</ele><time>2026-04-26T11:13:53.999Z</time></trkpt><trkpt lat="42.51708225449604" lon="12.041372042708891"><ele>441.0</ele><time>2026-04-26T11:13:54.999Z</time></trkpt><trkpt lat="42.51716664480991" lon="12.041351908138035"><ele>441.3333333333333</ele><time>2026-04-26T11:13:55.999Z</time></trkpt><trkpt lat="42.51723683121259" lon="12.041325772177478"><ele>441.66666666666663</ele><time>2026-04-26T11:13:56.999Z</time></trkpt><trkpt lat="42.517305775888" lon="12.041310488670499"><ele>442.0</ele><time>2026-04-26T11:13:57.999Z</time></trkpt><trkpt lat="42.51739264331559" lon="12.041284696079124"><ele>442.3333333333333</ele><time>2026-04-26T11:13:58.999Z</time></trkpt><trkpt lat="42.51745703504623" lon="12.04126318023291"><ele>442.66666666666663</ele><time>2026-04-26T11:13:59.999Z</time></trkpt><trkpt lat="42.51752761194045" lon="12.041218674043291"><ele>443.0</ele><time>2026-04-26T11:14:01.999Z</time></trkpt><trkpt lat="42.51762173472682" lon="12.041178478856434"><ele>443.0</ele><time>2026-04-26T11:14:03.999Z</time></trkpt><trkpt lat="42.517709386106574" lon="12.041149683729666"><ele>442.99999999999994</ele><time>2026-04-26T11:14:05.999Z</time></trkpt><trkpt lat="42.51778023482582" lon="12.041126958182154"><ele>442.99999999999994</ele><time>2026-04-26T11:14:12.999Z</time></trkpt><trkpt lat="42.517860703855604" lon="12.04108965606891"><ele>443.0</ele><time>2026-04-26T11:14:14.999Z</time></trkpt><trkpt lat="42.517964560263415" lon="12.041046114931994"><ele>443.0</ele><time>2026-04-26T11:14:16.999Z</time></trkpt><trkpt lat="42.51807036624775" lon="12.04101437554265"><ele>443.79999999999995</ele><time>2026-04-26T11:14:19Z</time></trkpt><trkpt lat="42.51814974400357" lon="12.041006134733173"><ele>444.59999999999997</ele><time>2026-04-26T11:14:21Z</time></trkpt><trkpt lat="42.51824919193203" lon="12.04094310585374"><ele>445.40000000000003</ele><time>2026-04-26T11:14:25Z</time></trkpt><trkpt lat="42.5183526618324" lon="12.040910382015351"><ele>446.20000000000005</ele><time>2026-04-26T11:14:27Z</time></trkpt><trkpt lat="42.51845572270686" lon="12.04088139750385"><ele>447.0</ele><time>2026-04-26T11:14:29Z</time></trkpt><trkpt lat="42.518518295089365" lon="12.040859976993774"><ele>447.0</ele><time>2026-04-26T11:14:30Z</time></trkpt><trkpt lat="42.51858093843228" lon="12.04083853218229"><ele>447.0</ele><time>2026-04-26T11:14:31Z</time></trkpt><trkpt lat="42.51871278546451" lon="12.04079289760192"><ele>447.0</ele><time>2026-04-26T11:14:33Z</time></trkpt><trkpt lat="42.51878105765857" lon="12.040768942778204"><ele>447.0</ele><time>2026-04-26T11:14:34Z</time></trkpt><trkpt lat="42.51886192194033" lon="12.040740569755771"><ele>447.0</ele><time>2026-04-26T11:14:35Z</time></trkpt><trkpt lat="42.51892315586843" lon="12.040696820788778"><ele>447.0</ele><time>2026-04-26T11:14:36Z</time></trkpt><trkpt lat="42.51899064059335" lon="12.040685833094606"><ele>450.6</ele><time>2026-04-26T11:14:37Z</time></trkpt><trkpt lat="42.51905443362169" lon="12.040668434167573"><ele>454.20000000000005</ele><time>2026-04-26T11:14:38Z</time></trkpt><trkpt lat="42.519158355802254" lon="12.040659816173326"><ele>457.8</ele><time>2026-04-26T11:14:40Z</time></trkpt><trkpt lat="42.51924685743969" lon="12.040591156129976"><ele>461.4</ele><time>2026-04-26T11:14:42Z</time></trkpt><trkpt lat="42.51937899564537" lon="12.040564898530754"><ele>465.0</ele><time>2026-04-26T11:14:44Z</time></trkpt><trkpt lat="42.51944901671063" lon="12.040556672777141"><ele>465.0</ele><time>2026-04-26T11:14:45Z</time></trkpt><trkpt lat="42.51955720152713" lon="12.04051041868522"><ele>465.0</ele><time>2026-04-26T11:14:47Z</time></trkpt><trkpt lat="42.51965273408992" lon="12.0403973152493"><ele>465.0</ele><time>2026-04-26T11:14:49Z</time></trkpt><trkpt lat="42.51970780975851" lon="12.04033915795314"><ele>465.0</ele><time>2026-04-26T11:14:50Z</time></trkpt><trkpt lat="42.51976311379132" lon="12.040292381967005"><ele>465.0</ele><time>2026-04-26T11:14:51Z</time></trkpt><trkpt lat="42.519832037563035" lon="12.04019051700187"><ele>464.4</ele><time>2026-04-26T11:14:53Z</time></trkpt><trkpt lat="42.519890116942044" lon="12.040134465971649"><ele>463.8</ele><time>2026-04-26T11:14:55Z</time></trkpt><trkpt lat="42.51995185870852" lon="12.04004913589979"><ele>463.20000000000005</ele><time>2026-04-26T11:14:57Z</time></trkpt><trkpt lat="42.520015486770795" lon="12.03992716052687"><ele>462.6</ele><time>2026-04-26T11:14:59Z</time></trkpt><trkpt lat="42.52008818797566" lon="12.039845910395954"><ele>462.0</ele><time>2026-04-26T11:15:01Z</time></trkpt><trkpt lat="42.52014631992634" lon="12.039741598978352"><ele>462.0</ele><time>2026-04-26T11:15:03Z</time></trkpt><trkpt lat="42.52020549961343" lon="12.039660460413213"><ele>462.00000000000006</ele><time>2026-04-26T11:15:05Z</time></trkpt><trkpt lat="42.52026116129483" lon="12.039570965696099"><ele>462.00000000000006</ele><time>2026-04-26T11:15:07Z</time></trkpt><trkpt lat="42.52032354031402" lon="12.03948501800055"><ele>462.0</ele><time>2026-04-26T11:15:09Z</time></trkpt><trkpt lat="42.52038491998992" lon="12.039387798297962"><ele>462.0</ele><time>2026-04-26T11:15:11Z</time></trkpt><trkpt lat="42.52046535379433" lon="12.039285182997876"><ele>460.3333333333333</ele><time>2026-04-26T11:15:13Z</time></trkpt><trkpt lat="42.520527834350446" lon="12.03920033584153"><ele>458.66666666666663</ele><time>2026-04-26T11:15:15Z</time></trkpt><trkpt lat="42.52057601202455" lon="12.039123310490035"><ele>457.0</ele><time>2026-04-26T11:15:17Z</time></trkpt><trkpt lat="42.520637347079706" lon="12.039023593285545"><ele>455.3333333333333</ele><time>2026-04-26T11:15:19Z</time></trkpt><trkpt lat="42.52069394756203" lon="12.03892903495583"><ele>453.66666666666663</ele><time>2026-04-26T11:15:21Z</time></trkpt><trkpt lat="42.52076000449062" lon="12.03886675728358"><ele>452.0</ele><time>2026-04-26T11:15:22.999Z</time></trkpt><trkpt lat="42.52081713823332" lon="12.038784948765837"><ele>451.66666666666663</ele><time>2026-04-26T11:15:24.999Z</time></trkpt><trkpt lat="42.52086951508785" lon="12.038709951520524"><ele>451.3333333333333</ele><time>2026-04-26T11:15:26.999Z</time></trkpt><trkpt lat="42.52092211901735" lon="12.038634629131117"><ele>451.0</ele><time>2026-04-26T11:15:28.999Z</time></trkpt><trkpt lat="42.52097319446909" lon="12.038580562611587"><ele>450.66666666666663</ele><time>2026-04-26T11:15:30.999Z</time></trkpt><trkpt lat="42.52109096903537" lon="12.038552530143907"><ele>450.3333333333333</ele><time>2026-04-26T11:15:32.999Z</time></trkpt><trkpt lat="42.52115171029183" lon="12.038523667228906"><ele>450.0</ele><time>2026-04-26T11:15:33.999Z</time></trkpt><trkpt lat="42.52121104540266" lon="12.038491805123286"><ele>450.0</ele><time>2026-04-26T11:15:34.999Z</time></trkpt><trkpt lat="42.52130674582323" lon="12.038442965483062"><ele>450.0</ele><time>2026-04-26T11:15:36.999Z</time></trkpt><trkpt lat="42.52141898392365" lon="12.038392240798546"><ele>450.0</ele><time>2026-04-26T11:15:38.999Z</time></trkpt><trkpt lat="42.52148251151497" lon="12.038342876995955"><ele>450.0</ele><time>2026-04-26T11:15:39.999Z</time></trkpt><trkpt lat="42.52155803943392" lon="12.038318530625668"><ele>450.0</ele><time>2026-04-26T11:15:40.999Z</time></trkpt><trkpt lat="42.52163939874674" lon="12.038285754831586"><ele>449.5</ele><time>2026-04-26T11:15:41.999Z</time></trkpt><trkpt lat="42.52171855098674" lon="12.038261066150351"><ele>449.0</ele><time>2026-04-26T11:15:42.999Z</time></trkpt><trkpt lat="42.52179858636872" lon="12.038234056759158"><ele>448.5</ele><time>2026-04-26T11:15:43.999Z</time></trkpt><trkpt lat="42.521888023875434" lon="12.038204003856263"><ele>448.0</ele><time>2026-04-26T11:15:44.999Z</time></trkpt><trkpt lat="42.52197315820305" lon="12.038173711939123"><ele>447.5</ele><time>2026-04-26T11:15:45.999Z</time></trkpt><trkpt lat="42.52205981415783" lon="12.038145093522422"><ele>447.0</ele><time>2026-04-26T11:15:46.999Z</time></trkpt><trkpt lat="42.5221385055568" lon="12.038122253133334"><ele>448.0</ele><time>2026-04-26T11:15:47.999Z</time></trkpt><trkpt lat="42.522211929131714" lon="12.038090441259763"><ele>449.0</ele><time>2026-04-26T11:15:48.999Z</time></trkpt><trkpt lat="42.522280244625804" lon="12.038066913914323"><ele>450.0</ele><time>2026-04-26T11:15:49.999Z</time></trkpt><trkpt lat="42.522346534174744" lon="12.038041219181348"><ele>451.0</ele><time>2026-04-26T11:15:50.999Z</time></trkpt><trkpt lat="42.52245620885914" lon="12.037986554715237"><ele>452.0</ele><time>2026-04-26T11:15:52.999Z</time></trkpt><trkpt lat="42.52253073303721" lon="12.037979351258546"><ele>453.0</ele><time>2026-04-26T11:15:54.999Z</time></trkpt><trkpt lat="42.522610042823715" lon="12.037957680522645"><ele>453.0</ele><time>2026-04-26T11:15:56.999Z</time></trkpt><trkpt lat="42.52267915390177" lon="12.037932770194866"><ele>452.99999999999994</ele><time>2026-04-26T11:15:58.999Z</time></trkpt><trkpt lat="42.522771064434664" lon="12.037899642056699"><ele>452.99999999999994</ele><time>2026-04-26T11:16:00.999Z</time></trkpt><trkpt lat="42.522834131055156" lon="12.037876910390386"><ele>453.0</ele><time>2026-04-26T11:16:01.999Z</time></trkpt><trkpt lat="42.522945106285206" lon="12.037836910601934"><ele>453.0</ele><time>2026-04-26T11:16:03.999Z</time></trkpt><trkpt lat="42.52305536371432" lon="12.037797169523115"><ele>453.75</ele><time>2026-04-26T11:16:05.999Z</time></trkpt><trkpt lat="42.52318599700696" lon="12.037750084195842"><ele>454.5</ele><time>2026-04-26T11:16:07.999Z</time></trkpt><trkpt lat="42.52331583467583" lon="12.03767839614655"><ele>455.25</ele><time>2026-04-26T11:16:09.999Z</time></trkpt><trkpt lat="42.52339453631866" lon="12.03766562641133"><ele>456.0</ele><time>2026-04-26T11:16:10.999Z</time></trkpt><trkpt lat="42.523499161214225" lon="12.037619948719719"><ele>456.0</ele><time>2026-04-26T11:16:12.999Z</time></trkpt><trkpt lat="42.52358079669531" lon="12.037584307851846"><ele>456.0</ele><time>2026-04-26T11:16:14.999Z</time></trkpt><trkpt lat="42.52364146158034" lon="12.03753510671507"><ele>456.0</ele><time>2026-04-26T11:16:15.999Z</time></trkpt><trkpt lat="42.5237059796412" lon="12.037517500615815"><ele>456.0</ele><time>2026-04-26T11:16:16.999Z</time></trkpt><trkpt lat="42.52379505515568" lon="12.037486256292656"><ele>456.0</ele><time>2026-04-26T11:16:18.999Z</time></trkpt><trkpt lat="42.523863165008954" lon="12.037464368153165"><ele>456.0</ele><time>2026-04-26T11:16:19.999Z</time></trkpt><trkpt lat="42.524020148509216" lon="12.03737999498475"><ele>457.4</ele><time>2026-04-26T11:16:23Z</time></trkpt><trkpt lat="42.524134659000374" lon="12.03732919677589"><ele>458.8</ele><time>2026-04-26T11:16:25Z</time></trkpt><trkpt lat="42.524222949380835" lon="12.037286338179634"><ele>460.19999999999993</ele><time>2026-04-26T11:16:27Z</time></trkpt><trkpt lat="42.52431936764914" lon="12.037261844632047"><ele>461.59999999999997</ele><time>2026-04-26T11:16:29Z</time></trkpt><trkpt lat="42.524376825852364" lon="12.037223523887752"><ele>463.0</ele><time>2026-04-26T11:16:30Z</time></trkpt><trkpt lat="42.524478897161444" lon="12.037180285516085"><ele>464.2</ele><time>2026-04-26T11:16:32Z</time></trkpt><trkpt lat="42.524597970838755" lon="12.037140148608364"><ele>465.4</ele><time>2026-04-26T11:16:34Z</time></trkpt><trkpt lat="42.52466028638568" lon="12.037119955686327"><ele>466.59999999999997</ele><time>2026-04-26T11:16:35Z</time></trkpt><trkpt lat="42.524758129854426" lon="12.037081206497964"><ele>467.79999999999995</ele><time>2026-04-26T11:16:37Z</time></trkpt><trkpt lat="42.524871637334684" lon="12.037040590258183"><ele>469.0</ele><time>2026-04-26T11:16:39Z</time></trkpt><trkpt lat="42.524979878636046" lon="12.037002323322168"><ele>469.00000000000006</ele><time>2026-04-26T11:16:41Z</time></trkpt><trkpt lat="42.52504585398363" lon="12.036996741636933"><ele>469.0</ele><time>2026-04-26T11:16:42Z</time></trkpt><trkpt lat="42.5251043547324" lon="12.036953404731534"><ele>469.0</ele><time>2026-04-26T11:16:43Z</time></trkpt><trkpt lat="42.52521906839143" lon="12.036911934948838"><ele>469.0</ele><time>2026-04-26T11:16:45Z</time></trkpt><trkpt lat="42.525334527742814" lon="12.03688811463338"><ele>469.00000000000006</ele><time>2026-04-26T11:16:47Z</time></trkpt><trkpt lat="42.525388883482044" lon="12.036843539340378"><ele>469.0</ele><time>2026-04-26T11:16:48Z</time></trkpt><trkpt lat="42.525485243250756" lon="12.036827157258056"><ele>470.4</ele><time>2026-04-26T11:16:50Z</time></trkpt><trkpt lat="42.52554238448366" lon="12.036781188509774"><ele>471.79999999999995</ele><time>2026-04-26T11:16:51Z</time></trkpt><trkpt lat="42.52567510858117" lon="12.036729578762994"><ele>473.20000000000005</ele><time>2026-04-26T11:16:53Z</time></trkpt><trkpt lat="42.52574724380706" lon="12.036700270295928"><ele>474.6</ele><time>2026-04-26T11:16:54Z</time></trkpt><trkpt lat="42.52584096539152" lon="12.036659528584487"><ele>476.0</ele><time>2026-04-26T11:16:56Z</time></trkpt><trkpt lat="42.5259350187298" lon="12.03660435618802"><ele>476.4</ele><time>2026-04-26T11:16:58Z</time></trkpt><trkpt lat="42.5260337942837" lon="12.03658127732399"><ele>476.8</ele><time>2026-04-26T11:17:00Z</time></trkpt><trkpt lat="42.52610473404265" lon="12.036544910101702"><ele>477.19999999999993</ele><time>2026-04-26T11:17:01Z</time></trkpt><trkpt lat="42.52617181720557" lon="12.036510520021537"><ele>477.59999999999997</ele><time>2026-04-26T11:17:02Z</time></trkpt><trkpt lat="42.52630043400537" lon="12.036443166752502"><ele>478.0</ele><time>2026-04-26T11:17:04Z</time></trkpt><trkpt lat="42.526409738383116" lon="12.036380963641975"><ele>478.6666666666667</ele><time>2026-04-26T11:17:06Z</time></trkpt><trkpt lat="42.526502768392874" lon="12.036321126681946"><ele>479.33333333333337</ele><time>2026-04-26T11:17:08Z</time></trkpt><trkpt lat="42.52661147962444" lon="12.036235489492816"><ele>480.0</ele><time>2026-04-26T11:17:10Z</time></trkpt><trkpt lat="42.5266686652936" lon="12.036181906670194"><ele>480.66666666666663</ele><time>2026-04-26T11:17:11Z</time></trkpt><trkpt lat="42.52672129362262" lon="12.036130753785317"><ele>481.3333333333333</ele><time>2026-04-26T11:17:12Z</time></trkpt><trkpt lat="42.52677860546666" lon="12.036073551423945"><ele>482.0</ele><time>2026-04-26T11:17:13Z</time></trkpt><trkpt lat="42.52683270682838" lon="12.03602237764414"><ele>482.0</ele><time>2026-04-26T11:17:14Z</time></trkpt><trkpt lat="42.526939248473354" lon="12.035943394238062"><ele>482.00000000000006</ele><time>2026-04-26T11:17:16Z</time></trkpt><trkpt lat="42.52703926205519" lon="12.035919200696558"><ele>482.00000000000006</ele><time>2026-04-26T11:17:18Z</time></trkpt><trkpt lat="42.52713944156607" lon="12.035904703422487"><ele>482.0</ele><time>2026-04-26T11:17:20Z</time></trkpt><trkpt lat="42.52721842996959" lon="12.03585394455584"><ele>482.0</ele><time>2026-04-26T11:17:22Z</time></trkpt><trkpt lat="42.527299003846444" lon="12.035837470696025"><ele>482.20000000000005</ele><time>2026-04-26T11:17:24Z</time></trkpt><trkpt lat="42.52736403723863" lon="12.03583851890278"><ele>482.40000000000003</ele><time>2026-04-26T11:17:27Z</time></trkpt><trkpt lat="42.52745309119209" lon="12.035860746930659"><ele>482.59999999999997</ele><time>2026-04-26T11:17:29Z</time></trkpt><trkpt lat="42.5274959562833" lon="12.035732656349216"><ele>482.79999999999995</ele><time>2026-04-26T11:17:30Z</time></trkpt><trkpt lat="42.527574255406236" lon="12.035623840210564"><ele>483.0</ele><time>2026-04-26T11:17:31Z</time></trkpt><trkpt lat="42.527675166615104" lon="12.035472246283751"><ele>483.33333333333337</ele><time>2026-04-26T11:17:32Z</time></trkpt><trkpt lat="42.52776074088866" lon="12.035314141140628"><ele>483.6666666666667</ele><time>2026-04-26T11:17:33Z</time></trkpt><trkpt lat="42.527870620896515" lon="12.035169911645683"><ele>484.0</ele><time>2026-04-26T11:17:34Z</time></trkpt><trkpt lat="42.52797373591943" lon="12.03501781162812"><ele>484.25</ele><time>2026-04-26T11:17:35Z</time></trkpt><trkpt lat="42.52807590662026" lon="12.034862639131614"><ele>484.5</ele><time>2026-04-26T11:17:36Z</time></trkpt><trkpt lat="42.52816811060889" lon="12.03472832570882"><ele>484.75</ele><time>2026-04-26T11:17:37Z</time></trkpt><trkpt lat="42.52826337050757" lon="12.034612651715522"><ele>485.0</ele><time>2026-04-26T11:17:38Z</time></trkpt><trkpt lat="42.52834237459212" lon="12.034495144662944"><ele>484.99999999999994</ele><time>2026-04-26T11:17:39Z</time></trkpt><trkpt lat="42.52840992418827" lon="12.0343727128057"><ele>485.0</ele><time>2026-04-26T11:17:40Z</time></trkpt><trkpt lat="42.52848725231387" lon="12.034281118092894"><ele>485.0</ele><time>2026-04-26T11:17:41Z</time></trkpt><trkpt lat="42.528550778524384" lon="12.03420158427201"><ele>485.0</ele><time>2026-04-26T11:17:41.999Z</time></trkpt><trkpt lat="42.52861050807066" lon="12.034145662358222"><ele>484.99999999999994</ele><time>2026-04-26T11:17:42.999Z</time></trkpt><trkpt lat="42.52866810484342" lon="12.034099086430391"><ele>485.0</ele><time>2026-04-26T11:17:44.999Z</time></trkpt><trkpt lat="42.528711296211966" lon="12.034002374046798"><ele>486.0</ele><time>2026-04-26T11:17:47.999Z</time></trkpt><trkpt lat="42.528760354717726" lon="12.033900429699962"><ele>487.0</ele><time>2026-04-26T11:17:48.999Z</time></trkpt><trkpt lat="42.528821467945974" lon="12.03377926048312"><ele>488.0</ele><time>2026-04-26T11:17:49.999Z</time></trkpt><trkpt lat="42.52888771311375" lon="12.03365762901374"><ele>489.0</ele><time>2026-04-26T11:17:50.999Z</time></trkpt><trkpt lat="42.52895269834447" lon="12.033505465497853"><ele>490.0</ele><time>2026-04-26T11:17:51.999Z</time></trkpt><trkpt lat="42.529031642885656" lon="12.033366987661879"><ele>490.25</ele><time>2026-04-26T11:17:52.999Z</time></trkpt><trkpt lat="42.52911463403851" lon="12.033215668164305"><ele>490.5</ele><time>2026-04-26T11:17:53.999Z</time></trkpt><trkpt lat="42.52921109555598" lon="12.033096716976573"><ele>490.75</ele><time>2026-04-26T11:17:54.999Z</time></trkpt><trkpt lat="42.52928642168084" lon="12.032976095232677"><ele>491.0</ele><time>2026-04-26T11:17:55.999Z</time></trkpt><trkpt lat="42.52935591536015" lon="12.032864813149745"><ele>491.0</ele><time>2026-04-26T11:17:56.999Z</time></trkpt><trkpt lat="42.52942303010296" lon="12.032756241225874"><ele>491.0</ele><time>2026-04-26T11:17:57.999Z</time></trkpt><trkpt lat="42.52948348886828" lon="12.032640747149268"><ele>491.0</ele><time>2026-04-26T11:17:58.999Z</time></trkpt><trkpt lat="42.529552540693125" lon="12.03253349005529"><ele>491.0</ele><time>2026-04-26T11:17:59.999Z</time></trkpt><trkpt lat="42.529616912345205" lon="12.032439266341"><ele>491.0</ele><time>2026-04-26T11:18:00.999Z</time></trkpt><trkpt lat="42.52967525265633" lon="12.03235765650915"><ele>491.99999999999994</ele><time>2026-04-26T11:18:01.999Z</time></trkpt><trkpt lat="42.52974329669955" lon="12.032291972966979"><ele>493.0</ele><time>2026-04-26T11:18:02.999Z</time></trkpt><trkpt lat="42.52980338498605" lon="12.032205513253965"><ele>494.0</ele><time>2026-04-26T11:18:03.999Z</time></trkpt><trkpt lat="42.52986354475213" lon="12.032118460195536"><ele>495.0</ele><time>2026-04-26T11:18:04.999Z</time></trkpt><trkpt lat="42.529924537917246" lon="12.032028857358169"><ele>495.99999999999994</ele><time>2026-04-26T11:18:05.999Z</time></trkpt><trkpt lat="42.529981870912664" lon="12.031942821015628"><ele>497.0</ele><time>2026-04-26T11:18:06.999Z</time></trkpt><trkpt lat="42.53001972620573" lon="12.031850235960034"><ele>496.99999999999994</ele><time>2026-04-26T11:18:07.999Z</time></trkpt><trkpt lat="42.53007169170276" lon="12.031790223466375"><ele>497.0</ele><time>2026-04-26T11:18:08.999Z</time></trkpt><trkpt lat="42.530144101898635" lon="12.031668468792978"><ele>497.0</ele><time>2026-04-26T11:18:10.999Z</time></trkpt><trkpt lat="42.5302047918809" lon="12.031578834461897"><ele>497.0</ele><time>2026-04-26T11:18:12.999Z</time></trkpt><trkpt lat="42.5302515732603" lon="12.0315089979718"><ele>496.99999999999994</ele><time>2026-04-26T11:18:14.999Z</time></trkpt><trkpt lat="42.53029828868324" lon="12.031438398497109"><ele>497.0</ele><time>2026-04-26T11:18:16.999Z</time></trkpt><trkpt lat="42.53033451878931" lon="12.031356366577654"><ele>497.1428571428571</ele><time>2026-04-26T11:18:18.999Z</time></trkpt><trkpt lat="42.53037610185868" lon="12.031289764507006"><ele>497.2857142857143</ele><time>2026-04-26T11:18:20.999Z</time></trkpt><trkpt lat="42.53042144818707" lon="12.031226154592389"><ele>497.42857142857144</ele><time>2026-04-26T11:18:22.999Z</time></trkpt><trkpt lat="42.530469737593265" lon="12.031150329716429"><ele>497.57142857142856</ele><time>2026-04-26T11:18:24.999Z</time></trkpt><trkpt lat="42.53052199493266" lon="12.031079065772255"><ele>497.71428571428567</ele><time>2026-04-26T11:18:26.999Z</time></trkpt><trkpt lat="42.53057101185499" lon="12.031004865820067"><ele>497.85714285714283</ele><time>2026-04-26T11:18:29Z</time></trkpt><trkpt lat="42.53062098825787" lon="12.030927256651218"><ele>498.0</ele><time>2026-04-26T11:18:31Z</time></trkpt><trkpt lat="42.530674684357045" lon="12.030851562393732"><ele>500.1666666666667</ele><time>2026-04-26T11:18:33Z</time></trkpt><trkpt lat="42.53072024078398" lon="12.030761974503188"><ele>502.33333333333337</ele><time>2026-04-26T11:18:35Z</time></trkpt><trkpt lat="42.530794632879186" lon="12.030690608673048"><ele>504.5</ele><time>2026-04-26T11:18:37Z</time></trkpt><trkpt lat="42.530858888966996" lon="12.03060772648145"><ele>506.6666666666667</ele><time>2026-04-26T11:18:39Z</time></trkpt><trkpt lat="42.530921632965295" lon="12.030527932651783"><ele>508.83333333333337</ele><time>2026-04-26T11:18:41Z</time></trkpt><trkpt lat="42.53098334104663" lon="12.030445339422766"><ele>511.0</ele><time>2026-04-26T11:18:43Z</time></trkpt><trkpt lat="42.531055865094324" lon="12.030348269519271"><ele>511.0</ele><time>2026-04-26T11:18:45Z</time></trkpt><trkpt lat="42.53114146131557" lon="12.03024522835689"><ele>511.0</ele><time>2026-04-26T11:18:47Z</time></trkpt><trkpt lat="42.53122922319983" lon="12.030161554586977"><ele>511.0</ele><time>2026-04-26T11:18:49Z</time></trkpt><trkpt lat="42.53131011203727" lon="12.030081513591115"><ele>511.0</ele><time>2026-04-26T11:18:51Z</time></trkpt><trkpt lat="42.531400637315535" lon="12.030027724064738"><ele>511.0</ele><time>2026-04-26T11:18:53Z</time></trkpt><trkpt lat="42.53150565958398" lon="12.029932289833836"><ele>513.8333333333334</ele><time>2026-04-26T11:18:55Z</time></trkpt><trkpt lat="42.53155944407406" lon="12.029873073568464"><ele>516.6666666666667</ele><time>2026-04-26T11:18:56Z</time></trkpt><trkpt lat="42.53163253699508" lon="12.029804735720482"><ele>519.5</ele><time>2026-04-26T11:18:57Z</time></trkpt><trkpt lat="42.5316967521156" lon="12.02974055764657"><ele>522.3333333333334</ele><time>2026-04-26T11:18:58Z</time></trkpt><trkpt lat="42.53177047164033" lon="12.02966634120474"><ele>525.1666666666666</ele><time>2026-04-26T11:18:59Z</time></trkpt><trkpt lat="42.53184514828032" lon="12.029586066808761"><ele>528.0</ele><time>2026-04-26T11:19:00Z</time></trkpt><trkpt lat="42.531932291374616" lon="12.029518397756867"><ele>528.0</ele><time>2026-04-26T11:19:01Z</time></trkpt><trkpt lat="42.532010175660055" lon="12.029426548124896"><ele>528.0</ele><time>2026-04-26T11:19:02Z</time></trkpt><trkpt lat="42.53207205556922" lon="12.029319585761533"><ele>528.0</ele><time>2026-04-26T11:19:03Z</time></trkpt><trkpt lat="42.53214954137286" lon="12.029220162430393"><ele>528.0</ele><time>2026-04-26T11:19:04Z</time></trkpt><trkpt lat="42.53223693090476" lon="12.029151366058814"><ele>528.0</ele><time>2026-04-26T11:19:05Z</time></trkpt><trkpt lat="42.53229917006964" lon="12.029076698070844"><ele>531.8</ele><time>2026-04-26T11:19:06Z</time></trkpt><trkpt lat="42.532348668823865" lon="12.02897042561409"><ele>535.5999999999999</ele><time>2026-04-26T11:19:07Z</time></trkpt><trkpt lat="42.532403456879486" lon="12.028877784967309"><ele>539.4000000000001</ele><time>2026-04-26T11:19:08Z</time></trkpt><trkpt lat="42.53246413520356" lon="12.028788333895646"><ele>543.2</ele><time>2026-04-26T11:19:09Z</time></trkpt><trkpt lat="42.53252467864267" lon="12.028694465085026"><ele>547.0</ele><time>2026-04-26T11:19:10Z</time></trkpt><trkpt lat="42.53258190836024" lon="12.028601767750834"><ele>547.0</ele><time>2026-04-26T11:19:11Z</time></trkpt><trkpt lat="42.5326441325205" lon="12.028503523881314"><ele>547.0</ele><time>2026-04-26T11:19:12Z</time></trkpt><trkpt lat="42.53270005614076" lon="12.02842008922262"><ele>547.0</ele><time>2026-04-26T11:19:13Z</time></trkpt><trkpt lat="42.53276152779734" lon="12.028327313445299"><ele>547.0</ele><time>2026-04-26T11:19:14Z</time></trkpt><trkpt lat="42.53281185915402" lon="12.02823491104624"><ele>547.0</ele><time>2026-04-26T11:19:15Z</time></trkpt><trkpt lat="42.5328622969546" lon="12.028123011530027"><ele>548.5</ele><time>2026-04-26T11:19:16Z</time></trkpt><trkpt lat="42.532909774264425" lon="12.028001056927666"><ele>550.0</ele><time>2026-04-26T11:19:17Z</time></trkpt><trkpt lat="42.532951327963936" lon="12.027862707588636"><ele>551.5</ele><time>2026-04-26T11:19:18Z</time></trkpt><trkpt lat="42.53298088846162" lon="12.02770651980792"><ele>553.0</ele><time>2026-04-26T11:19:19Z</time></trkpt><trkpt lat="42.533007905083515" lon="12.027539028360488"><ele>556.75</ele><time>2026-04-26T11:19:20Z</time></trkpt><trkpt lat="42.53305583299603" lon="12.027385595854303"><ele>560.5</ele><time>2026-04-26T11:19:21Z</time></trkpt><trkpt lat="42.5330893577515" lon="12.027239339691654"><ele>564.25</ele><time>2026-04-26T11:19:22Z</time></trkpt><trkpt lat="42.53313348788336" lon="12.027096576161313"><ele>568.0</ele><time>2026-04-26T11:19:23Z</time></trkpt><trkpt lat="42.53318092791111" lon="12.026954221945537"><ele>568.0</ele><time>2026-04-26T11:19:24Z</time></trkpt><trkpt lat="42.53324528809222" lon="12.026818971069575"><ele>568.0</ele><time>2026-04-26T11:19:25Z</time></trkpt><trkpt lat="42.53331233978054" lon="12.026682694585999"><ele>568.0</ele><time>2026-04-26T11:19:26Z</time></trkpt><trkpt lat="42.53336860105052" lon="12.026564069721008"><ele>568.0</ele><time>2026-04-26T11:19:27Z</time></trkpt><trkpt lat="42.53341722303929" lon="12.026460357687936"><ele>568.0</ele><time>2026-04-26T11:19:28Z</time></trkpt><trkpt lat="42.5334671377303" lon="12.026344437603536"><ele>569.8</ele><time>2026-04-26T11:19:29Z</time></trkpt><trkpt lat="42.53356847120278" lon="12.026285277200461"><ele>571.5999999999999</ele><time>2026-04-26T11:19:30Z</time></trkpt><trkpt lat="42.53366333415487" lon="12.026207389424917"><ele>573.4000000000001</ele><time>2026-04-26T11:19:31Z</time></trkpt><trkpt lat="42.53375146877836" lon="12.026115649437493"><ele>575.2</ele><time>2026-04-26T11:19:32Z</time></trkpt><trkpt lat="42.53383616705948" lon="12.026049559464868"><ele>577.0</ele><time>2026-04-26T11:19:33Z</time></trkpt><trkpt lat="42.53388960684058" lon="12.025990812276879"><ele>578.2</ele><time>2026-04-26T11:19:34Z</time></trkpt><trkpt lat="42.53394638974181" lon="12.02590477515097"><ele>579.4000000000001</ele><time>2026-04-26T11:19:36Z</time></trkpt><trkpt lat="42.534013723962815" lon="12.025872162452426"><ele>580.5999999999999</ele><time>2026-04-26T11:19:39Z</time></trkpt><trkpt lat="42.53407172647226" lon="12.026024216409093"><ele>581.8</ele><time>2026-04-26T11:19:40Z</time></trkpt><trkpt lat="42.534139686342776" lon="12.026148488296977"><ele>583.0</ele><time>2026-04-26T11:19:41Z</time></trkpt><trkpt lat="42.534208179732275" lon="12.02632537941613"><ele>583.0</ele><time>2026-04-26T11:19:42Z</time></trkpt><trkpt lat="42.53428654656645" lon="12.026497314014879"><ele>583.0</ele><time>2026-04-26T11:19:43Z</time></trkpt><trkpt lat="42.53436196659302" lon="12.026714240865635"><ele>583.0</ele><time>2026-04-26T11:19:44Z</time></trkpt><trkpt lat="42.53445832921926" lon="12.026898248195698"><ele>582.0</ele><time>2026-04-26T11:19:45Z</time></trkpt><trkpt lat="42.53453065521254" lon="12.027077938250658"><ele>581.0</ele><time>2026-04-26T11:19:46Z</time></trkpt><trkpt lat="42.53460732604796" lon="12.027260361123052"><ele>580.0</ele><time>2026-04-26T11:19:47Z</time></trkpt><trkpt lat="42.534682748076726" lon="12.027447208561073"><ele>582.5</ele><time>2026-04-26T11:19:48Z</time></trkpt><trkpt lat="42.53474918645296" lon="12.027623898037232"><ele>585.0</ele><time>2026-04-26T11:19:49Z</time></trkpt><trkpt lat="42.53481746054981" lon="12.027792419473618"><ele>587.5</ele><time>2026-04-26T11:19:49.999Z</time></trkpt><trkpt lat="42.53489293779211" lon="12.027956485312831"><ele>590.0</ele><time>2026-04-26T11:19:50.999Z</time></trkpt><trkpt lat="42.534971334384885" lon="12.028126423149555"><ele>590.0</ele><time>2026-04-26T11:19:51.999Z</time></trkpt><trkpt lat="42.53504246092625" lon="12.028303739964914"><ele>590.0</ele><time>2026-04-26T11:19:52.999Z</time></trkpt><trkpt lat="42.53510737939194" lon="12.028485869059239"><ele>590.0</ele><time>2026-04-26T11:19:53.999Z</time></trkpt><trkpt lat="42.535165467266914" lon="12.02867444820083"><ele>590.0</ele><time>2026-04-26T11:19:54.999Z</time></trkpt><trkpt lat="42.5352157870467" lon="12.028860293189169"><ele>589.25</ele><time>2026-04-26T11:19:55.999Z</time></trkpt><trkpt lat="42.535257045402574" lon="12.029045393656377"><ele>588.5</ele><time>2026-04-26T11:19:56.999Z</time></trkpt><trkpt lat="42.53529072767794" lon="12.029232744213509"><ele>587.75</ele><time>2026-04-26T11:19:57.999Z</time></trkpt><trkpt lat="42.535321742771515" lon="12.029412125327871"><ele>587.0</ele><time>2026-04-26T11:19:58.999Z</time></trkpt><trkpt lat="42.53534158369155" lon="12.029593056182845"><ele>586.5</ele><time>2026-04-26T11:19:59.999Z</time></trkpt><trkpt lat="42.535364113940396" lon="12.029775279891144"><ele>586.0</ele><time>2026-04-26T11:20:00.999Z</time></trkpt><trkpt lat="42.53539968801461" lon="12.029954264279516"><ele>585.5</ele><time>2026-04-26T11:20:01.999Z</time></trkpt><trkpt lat="42.53542520188992" lon="12.030132707561984"><ele>585.0</ele><time>2026-04-26T11:20:02.999Z</time></trkpt><trkpt lat="42.535467906269105" lon="12.030286317266716"><ele>589.75</ele><time>2026-04-26T11:20:03.999Z</time></trkpt><trkpt lat="42.53552963432943" lon="12.030423026267869"><ele>594.5</ele><time>2026-04-26T11:20:04.999Z</time></trkpt><trkpt lat="42.53561224297948" lon="12.03052985854421"><ele>599.25</ele><time>2026-04-26T11:20:05.999Z</time></trkpt><trkpt lat="42.53572529245281" lon="12.030611766809846"><ele>604.0</ele><time>2026-04-26T11:20:06.999Z</time></trkpt><trkpt lat="42.5358478265133" lon="12.030673710013298"><ele>604.0</ele><time>2026-04-26T11:20:07.999Z</time></trkpt><trkpt lat="42.53595420137329" lon="12.030772780432045"><ele>604.0</ele><time>2026-04-26T11:20:08.999Z</time></trkpt><trkpt lat="42.53606167064754" lon="12.03082801899938"><ele>604.0</ele><time>2026-04-26T11:20:09.999Z</time></trkpt><trkpt lat="42.53615413467428" lon="12.030911837630788"><ele>604.0</ele><time>2026-04-26T11:20:10.999Z</time></trkpt><trkpt lat="42.53624808671098" lon="12.03098680633085"><ele>604.2</ele><time>2026-04-26T11:20:11.999Z</time></trkpt><trkpt lat="42.53634686045248" lon="12.031027248274794"><ele>604.4</ele><time>2026-04-26T11:20:12.999Z</time></trkpt><trkpt lat="42.536453723546295" lon="12.03105267401036"><ele>604.6</ele><time>2026-04-26T11:20:13.999Z</time></trkpt><trkpt lat="42.53656070513408" lon="12.031077053324736"><ele>604.8</ele><time>2026-04-26T11:20:14.999Z</time></trkpt><trkpt lat="42.53667514195774" lon="12.031081474760047"><ele>605.0</ele><time>2026-04-26T11:20:15.999Z</time></trkpt><trkpt lat="42.53677544675367" lon="12.031106857647783"><ele>605.0</ele><time>2026-04-26T11:20:16.999Z</time></trkpt><trkpt lat="42.53687106403699" lon="12.031150650144847"><ele>605.0</ele><time>2026-04-26T11:20:17.999Z</time></trkpt><trkpt lat="42.53696788394141" lon="12.03116553209463"><ele>605.0</ele><time>2026-04-26T11:20:18.999Z</time></trkpt><trkpt lat="42.537056138447824" lon="12.031181849329718"><ele>605.0</ele><time>2026-04-26T11:20:19.999Z</time></trkpt><trkpt lat="42.537210191004796" lon="12.031309762662053"><ele>604.4</ele><time>2026-04-26T11:20:21.999Z</time></trkpt><trkpt lat="42.5372873427513" lon="12.031391274653664"><ele>603.8</ele><time>2026-04-26T11:20:22.999Z</time></trkpt><trkpt lat="42.53735601040426" lon="12.03148444313433"><ele>603.2</ele><time>2026-04-26T11:20:23.999Z</time></trkpt><trkpt lat="42.537419088948475" lon="12.031585948000176"><ele>602.6</ele><time>2026-04-26T11:20:24.999Z</time></trkpt><trkpt lat="42.537472032538496" lon="12.031699465665127"><ele>602.0</ele><time>2026-04-26T11:20:25.999Z</time></trkpt><trkpt lat="42.53752806094471" lon="12.031818923405362"><ele>598.25</ele><time>2026-04-26T11:20:26.999Z</time></trkpt><trkpt lat="42.53757882388028" lon="12.03194581350398"><ele>594.5</ele><time>2026-04-26T11:20:27.999Z</time></trkpt><trkpt lat="42.53762758663117" lon="12.032080986615412"><ele>590.75</ele><time>2026-04-26T11:20:28.999Z</time></trkpt><trkpt lat="42.537656936185584" lon="12.032236313584951"><ele>587.0</ele><time>2026-04-26T11:20:29.999Z</time></trkpt><trkpt lat="42.5376838957207" lon="12.032390373621215"><ele>587.75</ele><time>2026-04-26T11:20:30.999Z</time></trkpt><trkpt lat="42.53772084315181" lon="12.032543099350756"><ele>588.5</ele><time>2026-04-26T11:20:31.999Z</time></trkpt><trkpt lat="42.537785680580896" lon="12.03268567573255"><ele>589.25</ele><time>2026-04-26T11:20:32.999Z</time></trkpt><trkpt lat="42.537880359346225" lon="12.03282306250135"><ele>590.0</ele><time>2026-04-26T11:20:34Z</time></trkpt><trkpt lat="42.53798924868548" lon="12.032937553745077"><ele>590.0</ele><time>2026-04-26T11:20:35Z</time></trkpt><trkpt lat="42.53809511496577" lon="12.033040819866962"><ele>590.0</ele><time>2026-04-26T11:20:36Z</time></trkpt><trkpt lat="42.5382018645216" lon="12.03314209647337"><ele>590.0</ele><time>2026-04-26T11:20:37Z</time></trkpt><trkpt lat="42.53831461683947" lon="12.033236413866254"><ele>590.0</ele><time>2026-04-26T11:20:38Z</time></trkpt><trkpt lat="42.53843311997965" lon="12.033324017191534"><ele>588.25</ele><time>2026-04-26T11:20:39Z</time></trkpt><trkpt lat="42.538552185184116" lon="12.03339773721133"><ele>586.5</ele><time>2026-04-26T11:20:40Z</time></trkpt><trkpt lat="42.538661997632154" lon="12.033477875215244"><ele>584.75</ele><time>2026-04-26T11:20:41Z</time></trkpt><trkpt lat="42.538777652748706" lon="12.03353763333448"><ele>583.0</ele><time>2026-04-26T11:20:42Z</time></trkpt><trkpt lat="42.538892967877054" lon="12.03358986900528"><ele>583.0</ele><time>2026-04-26T11:20:43Z</time></trkpt><trkpt lat="42.53900882585903" lon="12.033626668551504"><ele>583.0</ele><time>2026-04-26T11:20:44Z</time></trkpt><trkpt lat="42.539117266750104" lon="12.033647392137414"><ele>583.0</ele><time>2026-04-26T11:20:45Z</time></trkpt><trkpt lat="42.53921613004783" lon="12.033679691806011"><ele>583.0</ele><time>2026-04-26T11:20:46Z</time></trkpt><trkpt lat="42.53929921526751" lon="12.033709885137045"><ele>583.0</ele><time>2026-04-26T11:20:47Z</time></trkpt><trkpt lat="42.53937010785539" lon="12.03373334067841"><ele>583.0</ele><time>2026-04-26T11:20:48Z</time></trkpt><trkpt lat="42.53947083167512" lon="12.033777152957756"><ele>583.0</ele><time>2026-04-26T11:20:50Z</time></trkpt><trkpt lat="42.539536117525685" lon="12.033826569352911"><ele>583.0</ele><time>2026-04-26T11:20:53Z</time></trkpt><trkpt lat="42.53962707742095" lon="12.033884250181684"><ele>583.0</ele><time>2026-04-26T11:20:55Z</time></trkpt><trkpt lat="42.53970751772002" lon="12.033858411348483"><ele>583.0</ele><time>2026-04-26T11:20:56Z</time></trkpt><trkpt lat="42.53977552890464" lon="12.033832361129168"><ele>583.0</ele><time>2026-04-26T11:20:57Z</time></trkpt><trkpt lat="42.539846532859066" lon="12.033808254515652"><ele>582.0</ele><time>2026-04-26T11:20:58Z</time></trkpt><trkpt lat="42.53991208800214" lon="12.033809468157184"><ele>581.0</ele><time>2026-04-26T11:20:59Z</time></trkpt><trkpt lat="42.54002299763608" lon="12.033762204264645"><ele>580.0</ele><time>2026-04-26T11:21:01Z</time></trkpt><trkpt lat="42.5401107247228" lon="12.033746810917032"><ele>579.0</ele><time>2026-04-26T11:21:02.999Z</time></trkpt><trkpt lat="42.54019364032141" lon="12.033872415441946"><ele>578.0</ele><time>2026-04-26T11:21:05.999Z</time></trkpt><trkpt lat="42.54028040601144" lon="12.034069782145602"><ele>576.5</ele><time>2026-04-26T11:21:08.999Z</time></trkpt><trkpt lat="42.54032781291228" lon="12.034156560324417"><ele>575.0</ele><time>2026-04-26T11:21:09.999Z</time></trkpt><trkpt lat="42.54037191721677" lon="12.034249091972045"><ele>573.5</ele><time>2026-04-26T11:21:10.999Z</time></trkpt><trkpt lat="42.54042277579605" lon="12.034340739011403"><ele>572.0</ele><time>2026-04-26T11:21:11.999Z</time></trkpt><trkpt lat="42.54047367157831" lon="12.034432849629656"><ele>570.5</ele><time>2026-04-26T11:21:12.999Z</time></trkpt><trkpt lat="42.54052137809462" lon="12.034521190206869"><ele>569.0</ele><time>2026-04-26T11:21:13.999Z</time></trkpt><trkpt lat="42.54056551506929" lon="12.034607952465132"><ele>567.6666666666666</ele><time>2026-04-26T11:21:14.999Z</time></trkpt><trkpt lat="42.54060890641668" lon="12.034695585564151"><ele>566.3333333333333</ele><time>2026-04-26T11:21:15.999Z</time></trkpt><trkpt lat="42.540654886683306" lon="12.034767752648282"><ele>565.0</ele><time>2026-04-26T11:21:16.999Z</time></trkpt><trkpt lat="42.540698552569616" lon="12.034832299231997"><ele>563.6666666666666</ele><time>2026-04-26T11:21:17.999Z</time></trkpt><trkpt lat="42.540735907370845" lon="12.034997059289118"><ele>562.3333333333334</ele><time>2026-04-26T11:21:19.999Z</time></trkpt><trkpt lat="42.54073541024998" lon="12.035089513201346"><ele>561.0</ele><time>2026-04-26T11:21:20.999Z</time></trkpt><trkpt lat="42.54072667600513" lon="12.03518319366051"><ele>560.3333333333334</ele><time>2026-04-26T11:21:21.999Z</time></trkpt><trkpt lat="42.540711965090814" lon="12.035278762614837"><ele>559.6666666666666</ele><time>2026-04-26T11:21:22.999Z</time></trkpt><trkpt lat="42.54070540402116" lon="12.035371908861814"><ele>559.0</ele><time>2026-04-26T11:21:23.999Z</time></trkpt><trkpt lat="42.5407112628838" lon="12.035519838426495"><ele>558.3333333333333</ele><time>2026-04-26T11:21:25.999Z</time></trkpt><trkpt lat="42.54073215701721" lon="12.035633664670401"><ele>557.6666666666666</ele><time>2026-04-26T11:21:27.999Z</time></trkpt><trkpt lat="42.54071888333344" lon="12.03572920813279"><ele>557.0</ele><time>2026-04-26T11:21:29.999Z</time></trkpt><trkpt lat="42.54067756001272" lon="12.03580978490173"><ele>556.25</ele><time>2026-04-26T11:21:32.999Z</time></trkpt><trkpt lat="42.54077060597078" lon="12.035922947928508"><ele>555.5</ele><time>2026-04-26T11:21:39.999Z</time></trkpt><trkpt lat="42.54090223590489" lon="12.035911647175727"><ele>554.75</ele><time>2026-04-26T11:21:40.999Z</time></trkpt><trkpt lat="42.54101701191263" lon="12.035926033673691"><ele>554.0</ele><time>2026-04-26T11:21:41.999Z</time></trkpt><trkpt lat="42.54112898196057" lon="12.035946745984058"><ele>551.6</ele><time>2026-04-26T11:21:42.999Z</time></trkpt><trkpt lat="42.54123505825218" lon="12.035973278416602"><ele>549.2</ele><time>2026-04-26T11:21:43.999Z</time></trkpt><trkpt lat="42.541340443375965" lon="12.036006379144776"><ele>546.8000000000001</ele><time>2026-04-26T11:21:44.999Z</time></trkpt><trkpt lat="42.54144346675578" lon="12.036037243395892"><ele>544.4</ele><time>2026-04-26T11:21:45.999Z</time></trkpt><trkpt lat="42.541547423397844" lon="12.036078609490481"><ele>542.0</ele><time>2026-04-26T11:21:46.999Z</time></trkpt><trkpt lat="42.54164995744455" lon="12.036121111281123"><ele>542.0</ele><time>2026-04-26T11:21:47.999Z</time></trkpt><trkpt lat="42.54175542444563" lon="12.036159703159719"><ele>542.0</ele><time>2026-04-26T11:21:48.999Z</time></trkpt><trkpt lat="42.541859527873115" lon="12.036201918252575"><ele>542.0</ele><time>2026-04-26T11:21:49.999Z</time></trkpt><trkpt lat="42.541961376836305" lon="12.036249460965315"><ele>542.0</ele><time>2026-04-26T11:21:50.999Z</time></trkpt><trkpt lat="42.54206165465295" lon="12.036300356064181"><ele>542.0</ele><time>2026-04-26T11:21:51.999Z</time></trkpt><trkpt lat="42.54215812615415" lon="12.036365926679313"><ele>541.0</ele><time>2026-04-26T11:21:52.999Z</time></trkpt><trkpt lat="42.54225203833883" lon="12.036434182617956"><ele>540.0</ele><time>2026-04-26T11:21:53.999Z</time></trkpt><trkpt lat="42.54234679871013" lon="12.036497039164965"><ele>539.0</ele><time>2026-04-26T11:21:54.999Z</time></trkpt><trkpt lat="42.54244394741646" lon="12.036558779880224"><ele>538.0</ele><time>2026-04-26T11:21:55.999Z</time></trkpt><trkpt lat="42.54254059498197" lon="12.03661997076237"><ele>537.0</ele><time>2026-04-26T11:21:56.999Z</time></trkpt><trkpt lat="42.54263368701215" lon="12.03668977653351"><ele>537.0</ele><time>2026-04-26T11:21:57.999Z</time></trkpt><trkpt lat="42.54271514586197" lon="12.036782783582664"><ele>537.0</ele><time>2026-04-26T11:21:58.999Z</time></trkpt><trkpt lat="42.54278773404276" lon="12.036896169819359"><ele>537.0</ele><time>2026-04-26T11:21:59.999Z</time></trkpt><trkpt lat="42.54284909861089" lon="12.03702745772518"><ele>537.0</ele><time>2026-04-26T11:22:00.999Z</time></trkpt><trkpt lat="42.54290390136313" lon="12.037173277017757"><ele>537.0</ele><time>2026-04-26T11:22:01.998Z</time></trkpt><trkpt lat="42.54295555085078" lon="12.03732750928745"><ele>537.0</ele><time>2026-04-26T11:22:02.998Z</time></trkpt><trkpt lat="42.54301040448992" lon="12.037487875376122"><ele>537.0</ele><time>2026-04-26T11:22:03.998Z</time></trkpt><trkpt lat="42.54307561374807" lon="12.03763561057565"><ele>537.0</ele><time>2026-04-26T11:22:04.998Z</time></trkpt><trkpt lat="42.543159672071695" lon="12.037767843269927"><ele>536.25</ele><time>2026-04-26T11:22:05.998Z</time></trkpt><trkpt lat="42.54324975574994" lon="12.037884222630233"><ele>535.5</ele><time>2026-04-26T11:22:06.998Z</time></trkpt><trkpt lat="42.543371080965755" lon="12.037939540797787"><ele>534.75</ele><time>2026-04-26T11:22:07.998Z</time></trkpt><trkpt lat="42.54348617301279" lon="12.03799471309608"><ele>534.0</ele><time>2026-04-26T11:22:08.998Z</time></trkpt><trkpt lat="42.5436016906236" lon="12.038029019370157"><ele>534.0</ele><time>2026-04-26T11:22:09.998Z</time></trkpt><trkpt lat="42.54371352455032" lon="12.03805004539173"><ele>534.0</ele><time>2026-04-26T11:22:10.998Z</time></trkpt><trkpt lat="42.54381287717844" lon="12.038071836825567"><ele>534.0</ele><time>2026-04-26T11:22:11.998Z</time></trkpt><trkpt lat="42.54389217711113" lon="12.038093217488845"><ele>534.0</ele><time>2026-04-26T11:22:12.998Z</time></trkpt><trkpt lat="42.544011872213375" lon="12.038165366625272"><ele>534.0</ele><time>2026-04-26T11:22:14.998Z</time></trkpt><trkpt lat="42.54415064276501" lon="12.037955112401514"><ele>533.8</ele><time>2026-04-26T11:22:16.998Z</time></trkpt><trkpt lat="42.54419509444288" lon="12.037844371601171"><ele>533.5999999999999</ele><time>2026-04-26T11:22:17.998Z</time></trkpt><trkpt lat="42.544237508022086" lon="12.037724691916576"><ele>533.4</ele><time>2026-04-26T11:22:18.998Z</time></trkpt><trkpt lat="42.54428078756078" lon="12.037591874109054"><ele>533.1999999999999</ele><time>2026-04-26T11:22:19.998Z</time></trkpt><trkpt lat="42.54432154657047" lon="12.037456762118323"><ele>533.0</ele><time>2026-04-26T11:22:20.998Z</time></trkpt><trkpt lat="42.54437126651711" lon="12.03734988860977"><ele>533.3333333333333</ele><time>2026-04-26T11:22:21.998Z</time></trkpt><trkpt lat="42.544407441534545" lon="12.0372517673842"><ele>533.6666666666666</ele><time>2026-04-26T11:22:22.998Z</time></trkpt><trkpt lat="42.544438735183185" lon="12.03715981041926"><ele>534.0</ele><time>2026-04-26T11:22:23.998Z</time></trkpt><trkpt lat="42.544465863269295" lon="12.037076407603017"><ele>534.3333333333334</ele><time>2026-04-26T11:22:24.998Z</time></trkpt><trkpt lat="42.544502605329704" lon="12.03693245484217"><ele>534.6666666666667</ele><time>2026-04-26T11:22:26.998Z</time></trkpt><trkpt lat="42.54453155916648" lon="12.036826483171875"><ele>535.0</ele><time>2026-04-26T11:22:28.998Z</time></trkpt><trkpt lat="42.544570514182254" lon="12.036670586666185"><ele>536.8</ele><time>2026-04-26T11:22:30.998Z</time></trkpt><trkpt lat="42.54462502954691" lon="12.036579967932443"><ele>538.6</ele><time>2026-04-26T11:22:31.998Z</time></trkpt><trkpt lat="42.54464984469665" lon="12.03648045934791"><ele>540.4</ele><time>2026-04-26T11:22:32.998Z</time></trkpt><trkpt lat="42.544673181816805" lon="12.036365807261607"><ele>542.2</ele><time>2026-04-26T11:22:33.998Z</time></trkpt><trkpt lat="42.54469296782668" lon="12.036238802641316"><ele>544.0</ele><time>2026-04-26T11:22:34.998Z</time></trkpt><trkpt lat="42.54469448764191" lon="12.036092996477244"><ele>544.0</ele><time>2026-04-26T11:22:35.998Z</time></trkpt><trkpt lat="42.544702783989" lon="12.035959178339159"><ele>544.0</ele><time>2026-04-26T11:22:36.998Z</time></trkpt><trkpt lat="42.54470465860279" lon="12.035830912890898"><ele>544.0</ele><time>2026-04-26T11:22:37.998Z</time></trkpt><trkpt lat="42.54472482002462" lon="12.035701024438943"><ele>544.0</ele><time>2026-04-26T11:22:38.998Z</time></trkpt><trkpt lat="42.54473040703352" lon="12.035585861705764"><ele>544.0</ele><time>2026-04-26T11:22:39.999Z</time></trkpt><trkpt lat="42.544721469467426" lon="12.035478446835922"><ele>544.5</ele><time>2026-04-26T11:22:40.999Z</time></trkpt><trkpt lat="42.54473923607877" lon="12.035386327419912"><ele>545.0</ele><time>2026-04-26T11:22:41.999Z</time></trkpt><trkpt lat="42.54476325961292" lon="12.03529817586081"><ele>545.5</ele><time>2026-04-26T11:22:42.999Z</time></trkpt><trkpt lat="42.54479820014552" lon="12.035216665264624"><ele>546.0</ele><time>2026-04-26T11:22:44Z</time></trkpt><trkpt lat="42.54486024321578" lon="12.035140384194536"><ele>546.5</ele><time>2026-04-26T11:22:45Z</time></trkpt><trkpt lat="42.544941846901516" lon="12.035092926058901"><ele>547.0</ele><time>2026-04-26T11:22:46Z</time></trkpt><trkpt lat="42.54505008500755" lon="12.035078336145464"><ele>547.0</ele><time>2026-04-26T11:22:47Z</time></trkpt><trkpt lat="42.545155966650796" lon="12.035028232604047"><ele>547.0</ele><time>2026-04-26T11:22:48Z</time></trkpt><trkpt lat="42.545280741566195" lon="12.034986909994354"><ele>547.0</ele><time>2026-04-26T11:22:49Z</time></trkpt><trkpt lat="42.5454067840326" lon="12.034945436567197"><ele>547.0</ele><time>2026-04-26T11:22:50Z</time></trkpt><trkpt lat="42.54552849564114" lon="12.034899009013872"><ele>549.2</ele><time>2026-04-26T11:22:51Z</time></trkpt><trkpt lat="42.545648046900894" lon="12.03485084437263"><ele>551.4000000000001</ele><time>2026-04-26T11:22:52Z</time></trkpt><trkpt lat="42.54576247649006" lon="12.034801743847485"><ele>553.5999999999999</ele><time>2026-04-26T11:22:53Z</time></trkpt><trkpt lat="42.54586394393347" lon="12.034757400529752"><ele>555.8</ele><time>2026-04-26T11:22:54Z</time></trkpt><trkpt lat="42.54594536944382" lon="12.034727468080808"><ele>558.0</ele><time>2026-04-26T11:22:55Z</time></trkpt><trkpt lat="42.54601876510112" lon="12.03469518925574"><ele>558.0</ele><time>2026-04-26T11:22:56Z</time></trkpt><trkpt lat="42.54608508590402" lon="12.034656557331893"><ele>558.0</ele><time>2026-04-26T11:22:57Z</time></trkpt><trkpt lat="42.54616018520104" lon="12.03461378145203"><ele>558.0</ele><time>2026-04-26T11:22:58Z</time></trkpt><trkpt lat="42.54623889037108" lon="12.03458176038276"><ele>558.0</ele><time>2026-04-26T11:22:59Z</time></trkpt><trkpt lat="42.54632230028979" lon="12.034555581833205"><ele>558.0</ele><time>2026-04-26T11:23:00Z</time></trkpt><trkpt lat="42.54639765481323" lon="12.034532406438515"><ele>558.0</ele><time>2026-04-26T11:23:01Z</time></trkpt><trkpt lat="42.54646983525315" lon="12.034493782488349"><ele>557.3333333333334</ele><time>2026-04-26T11:23:02Z</time></trkpt><trkpt lat="42.546541133453545" lon="12.034449153201681"><ele>556.6666666666666</ele><time>2026-04-26T11:23:03Z</time></trkpt><trkpt lat="42.54661295598929" lon="12.0344069282949"><ele>556.0</ele><time>2026-04-26T11:23:04Z</time></trkpt><trkpt lat="42.54669216435099" lon="12.034363041646577"><ele>555.3333333333333</ele><time>2026-04-26T11:23:05Z</time></trkpt><trkpt lat="42.54677359657201" lon="12.034319205067979"><ele>554.6666666666666</ele><time>2026-04-26T11:23:06Z</time></trkpt><trkpt lat="42.546854155034595" lon="12.034266966527872"><ele>554.0</ele><time>2026-04-26T11:23:07Z</time></trkpt><trkpt lat="42.546935100132686" lon="12.034211331366027"><ele>554.0</ele><time>2026-04-26T11:23:08Z</time></trkpt><trkpt lat="42.54702181695446" lon="12.034154498479195"><ele>554.0</ele><time>2026-04-26T11:23:09Z</time></trkpt><trkpt lat="42.54710984122305" lon="12.034093336452464"><ele>554.0</ele><time>2026-04-26T11:23:10Z</time></trkpt><trkpt lat="42.54719366219234" lon="12.03402757385093"><ele>554.0</ele><time>2026-04-26T11:23:11Z</time></trkpt><trkpt lat="42.54738046563783" lon="12.033875753497568"><ele>554.6</ele><time>2026-04-26T11:23:13Z</time></trkpt><trkpt lat="42.547472727851975" lon="12.033793704355155"><ele>555.2</ele><time>2026-04-26T11:23:14Z</time></trkpt><trkpt lat="42.54756701025809" lon="12.033717130301456"><ele>555.8000000000001</ele><time>2026-04-26T11:23:15Z</time></trkpt><trkpt lat="42.547664381160345" lon="12.033647254473436"><ele>556.4</ele><time>2026-04-26T11:23:16Z</time></trkpt><trkpt lat="42.5477610007579" lon="12.033577405837287"><ele>557.0</ele><time>2026-04-26T11:23:17Z</time></trkpt><trkpt lat="42.5478493206278" lon="12.03350609440428"><ele>556.8000000000001</ele><time>2026-04-26T11:23:18Z</time></trkpt><trkpt lat="42.547934072122075" lon="12.033422113145786"><ele>556.6</ele><time>2026-04-26T11:23:19Z</time></trkpt><trkpt lat="42.548013684306454" lon="12.03332403479114"><ele>556.4000000000001</ele><time>2026-04-26T11:23:20Z</time></trkpt><trkpt lat="42.54809570492325" lon="12.033218760909817"><ele>556.2</ele><time>2026-04-26T11:23:21Z</time></trkpt><trkpt lat="42.54816546939061" lon="12.03310435791174"><ele>556.0</ele><time>2026-04-26T11:23:22Z</time></trkpt><trkpt lat="42.54823485854488" lon="12.032983564049694"><ele>556.0</ele><time>2026-04-26T11:23:23Z</time></trkpt><trkpt lat="42.548308657393434" lon="12.032870721305118"><ele>556.0</ele><time>2026-04-26T11:23:24Z</time></trkpt><trkpt lat="42.54838310233665" lon="12.032754917469395"><ele>556.0</ele><time>2026-04-26T11:23:25Z</time></trkpt><trkpt lat="42.548461319037244" lon="12.032635081856736"><ele>556.0</ele><time>2026-04-26T11:23:26Z</time></trkpt><trkpt lat="42.54853095852473" lon="12.032508784842666"><ele>555.5</ele><time>2026-04-26T11:23:27Z</time></trkpt><trkpt lat="42.54859219799742" lon="12.032373361807291"><ele>555.0</ele><time>2026-04-26T11:23:28Z</time></trkpt><trkpt lat="42.548650530535504" lon="12.03223590057145"><ele>554.5</ele><time>2026-04-26T11:23:29Z</time></trkpt><trkpt lat="42.54871078752852" lon="12.032100861375682"><ele>554.0</ele><time>2026-04-26T11:23:30Z</time></trkpt><trkpt lat="42.548762591489975" lon="12.031958235307883"><ele>552.75</ele><time>2026-04-26T11:23:31Z</time></trkpt><trkpt lat="42.548819131648514" lon="12.031815964207281"><ele>551.5</ele><time>2026-04-26T11:23:32Z</time></trkpt><trkpt lat="42.548876075668765" lon="12.03166735763962"><ele>550.25</ele><time>2026-04-26T11:23:33Z</time></trkpt><trkpt lat="42.54892749782546" lon="12.031513916996607"><ele>549.0</ele><time>2026-04-26T11:23:34Z</time></trkpt><trkpt lat="42.548968350914656" lon="12.031358837964492"><ele>546.0</ele><time>2026-04-26T11:23:35Z</time></trkpt><trkpt lat="42.54899387487587" lon="12.031192894887175"><ele>543.0</ele><time>2026-04-26T11:23:36Z</time></trkpt><trkpt lat="42.54901235354363" lon="12.031028786808598"><ele>540.0</ele><time>2026-04-26T11:23:37Z</time></trkpt><trkpt lat="42.549014678464644" lon="12.030862846127189"><ele>537.0</ele><time>2026-04-26T11:23:38Z</time></trkpt><trkpt lat="42.548993633494064" lon="12.030686661587334"><ele>536.2</ele><time>2026-04-26T11:23:39Z</time></trkpt><trkpt lat="42.54897012686168" lon="12.03052325095022"><ele>535.4000000000001</ele><time>2026-04-26T11:23:40Z</time></trkpt><trkpt lat="42.54895283482273" lon="12.030390801919882"><ele>534.5999999999999</ele><time>2026-04-26T11:23:41Z</time></trkpt><trkpt lat="42.54894203803535" lon="12.030273895117626"><ele>533.8</ele><time>2026-04-26T11:23:42Z</time></trkpt><trkpt lat="42.54894181502675" lon="12.030163968941695"><ele>533.0</ele><time>2026-04-26T11:23:43Z</time></trkpt><trkpt lat="42.548944983215264" lon="12.030059685434798"><ele>532.6</ele><time>2026-04-26T11:23:44Z</time></trkpt><trkpt lat="42.54895232750248" lon="12.02992174937037"><ele>532.1999999999999</ele><time>2026-04-26T11:23:46Z</time></trkpt><trkpt lat="42.54897609173386" lon="12.02980236979831"><ele>531.8</ele><time>2026-04-26T11:23:52Z</time></trkpt><trkpt lat="42.54899114794515" lon="12.029709508576813"><ele>531.4</ele><time>2026-04-26T11:23:53Z</time></trkpt><trkpt lat="42.54910890605555" lon="12.029635258693146"><ele>531.0</ele><time>2026-04-26T11:23:54Z</time></trkpt><trkpt lat="42.54921798970661" lon="12.02954710910833"><ele>531.0</ele><time>2026-04-26T11:23:55Z</time></trkpt><trkpt lat="42.549338068645056" lon="12.029441628564115"><ele>531.0</ele><time>2026-04-26T11:23:56Z</time></trkpt><trkpt lat="42.54946214948882" lon="12.029312085403802"><ele>531.0</ele><time>2026-04-26T11:23:57Z</time></trkpt><trkpt lat="42.54958954285889" lon="12.029197464128076"><ele>531.0</ele><time>2026-04-26T11:23:58Z</time></trkpt><trkpt lat="42.549717194329254" lon="12.029099207885732"><ele>531.0</ele><time>2026-04-26T11:23:59Z</time></trkpt><trkpt lat="42.54985011075256" lon="12.029002099807313"><ele>531.0</ele><time>2026-04-26T11:24:00Z</time></trkpt><trkpt lat="42.54998288522737" lon="12.02889966241392"><ele>531.0</ele><time>2026-04-26T11:24:01Z</time></trkpt><trkpt lat="42.55011052577231" lon="12.02879813080323"><ele>531.0</ele><time>2026-04-26T11:24:02Z</time></trkpt><trkpt lat="42.5502383085094" lon="12.028704351644672"><ele>531.0</ele><time>2026-04-26T11:24:03Z</time></trkpt><trkpt lat="42.550365904530196" lon="12.028623125538676"><ele>531.0</ele><time>2026-04-26T11:24:04Z</time></trkpt><trkpt lat="42.55048776523637" lon="12.02854486779356"><ele>531.0</ele><time>2026-04-26T11:24:05Z</time></trkpt><trkpt lat="42.55060561652843" lon="12.028476552009394"><ele>531.0</ele><time>2026-04-26T11:24:06Z</time></trkpt><trkpt lat="42.55072960109308" lon="12.028472711265328"><ele>531.0</ele><time>2026-04-26T11:24:07Z</time></trkpt><trkpt lat="42.550846960654255" lon="12.028420998899911"><ele>531.0</ele><time>2026-04-26T11:24:08Z</time></trkpt><trkpt lat="42.55097104004609" lon="12.028389664654858"><ele>531.0</ele><time>2026-04-26T11:24:09Z</time></trkpt><trkpt lat="42.55109856166699" lon="12.028384145487696"><ele>531.0</ele><time>2026-04-26T11:24:10Z</time></trkpt><trkpt lat="42.5512323857228" lon="12.02835805859909"><ele>531.0</ele><time>2026-04-26T11:24:10.999Z</time></trkpt><trkpt lat="42.55137226597512" lon="12.028332665528106"><ele>531.0</ele><time>2026-04-26T11:24:11.999Z</time></trkpt><trkpt lat="42.55151228057334" lon="12.028305849992535"><ele>532.0</ele><time>2026-04-26T11:24:12.999Z</time></trkpt><trkpt lat="42.55164421167686" lon="12.028280793274593"><ele>533.0</ele><time>2026-04-26T11:24:13.999Z</time></trkpt><trkpt lat="42.551770294250616" lon="12.028224031244504"><ele>534.0</ele><time>2026-04-26T11:24:14.999Z</time></trkpt><trkpt lat="42.55189547389349" lon="12.028166600169305"><ele>535.0</ele><time>2026-04-26T11:24:15.999Z</time></trkpt><trkpt lat="42.552024156104665" lon="12.02808643909746"><ele>535.25</ele><time>2026-04-26T11:24:16.999Z</time></trkpt><trkpt lat="42.55216467946948" lon="12.028014182333573"><ele>535.5</ele><time>2026-04-26T11:24:17.999Z</time></trkpt><trkpt lat="42.552295522382295" lon="12.027938217989186"><ele>535.75</ele><time>2026-04-26T11:24:18.999Z</time></trkpt><trkpt lat="42.5524234274803" lon="12.027863763518628"><ele>536.0</ele><time>2026-04-26T11:24:19.999Z</time></trkpt><trkpt lat="42.55254766954589" lon="12.027799201678713"><ele>536.0</ele><time>2026-04-26T11:24:20.999Z</time></trkpt><trkpt lat="42.55267357806442" lon="12.02776428275926"><ele>536.0</ele><time>2026-04-26T11:24:21.999Z</time></trkpt><trkpt lat="42.5527984889071" lon="12.027750026103977"><ele>536.0</ele><time>2026-04-26T11:24:22.999Z</time></trkpt><trkpt lat="42.55291876311916" lon="12.027767120119623"><ele>536.0</ele><time>2026-04-26T11:24:23.999Z</time></trkpt><trkpt lat="42.55303372842288" lon="12.027803708427614"><ele>536.8</ele><time>2026-04-26T11:24:24.999Z</time></trkpt><trkpt lat="42.5531383628491" lon="12.027859024327755"><ele>537.6</ele><time>2026-04-26T11:24:25.999Z</time></trkpt><trkpt lat="42.55324052934468" lon="12.027912273219693"><ele>538.4</ele><time>2026-04-26T11:24:26.999Z</time></trkpt><trkpt lat="42.55331882244723" lon="12.027969791072426"><ele>539.2</ele><time>2026-04-26T11:24:27.999Z</time></trkpt><trkpt lat="42.55338163108217" lon="12.028020548020768"><ele>540.0</ele><time>2026-04-26T11:24:28.999Z</time></trkpt><trkpt lat="42.55344586169043" lon="12.028093726124677"><ele>540.0</ele><time>2026-04-26T11:24:30.999Z</time></trkpt><trkpt lat="42.553609120771455" lon="12.02807099156032"><ele>540.0</ele><time>2026-04-26T11:24:32.999Z</time></trkpt><trkpt lat="42.55369125824402" lon="12.028059340987774"><ele>540.0</ele><time>2026-04-26T11:24:33.999Z</time></trkpt><trkpt lat="42.553781763832326" lon="12.028038840648831"><ele>540.0</ele><time>2026-04-26T11:24:34.999Z</time></trkpt><trkpt lat="42.55387884671124" lon="12.027963239623343"><ele>540.5</ele><time>2026-04-26T11:24:35.999Z</time></trkpt><trkpt lat="42.55396903037313" lon="12.02786988227821"><ele>541.0</ele><time>2026-04-26T11:24:36.999Z</time></trkpt><trkpt lat="42.55404275884708" lon="12.027758925779537"><ele>541.5</ele><time>2026-04-26T11:24:37.999Z</time></trkpt><trkpt lat="42.55410039924107" lon="12.027630925366923"><ele>542.0</ele><time>2026-04-26T11:24:38.999Z</time></trkpt><trkpt lat="42.55412987993325" lon="12.027475328709809"><ele>542.0</ele><time>2026-04-26T11:24:39.999Z</time></trkpt><trkpt lat="42.55417966087921" lon="12.027341421439576"><ele>542.0</ele><time>2026-04-26T11:24:40.999Z</time></trkpt><trkpt lat="42.554214226912435" lon="12.027205311430581"><ele>542.0</ele><time>2026-04-26T11:24:41.999Z</time></trkpt><trkpt lat="42.55425271531513" lon="12.02707538527646"><ele>542.0</ele><time>2026-04-26T11:24:42.999Z</time></trkpt><trkpt lat="42.55429568523027" lon="12.026948690346396"><ele>542.0</ele><time>2026-04-26T11:24:43.999Z</time></trkpt><trkpt lat="42.55434803226281" lon="12.026829307133427"><ele>542.0</ele><time>2026-04-26T11:24:44.999Z</time></trkpt><trkpt lat="42.554402388272415" lon="12.026717360090206"><ele>542.0</ele><time>2026-04-26T11:24:46.001Z</time></trkpt><trkpt lat="42.55446451821538" lon="12.026618719341442"><ele>542.0</ele><time>2026-04-26T11:24:47.001Z</time></trkpt><trkpt lat="42.554512730123854" lon="12.026518799313905"><ele>542.0</ele><time>2026-04-26T11:24:48.001Z</time></trkpt><trkpt lat="42.55457126942713" lon="12.026445519849624"><ele>542.0</ele><time>2026-04-26T11:24:49Z</time></trkpt><trkpt lat="42.554644812257486" lon="12.02635737778663"><ele>541.5</ele><time>2026-04-26T11:24:51Z</time></trkpt><trkpt lat="42.554702849792776" lon="12.02629799060668"><ele>541.0</ele><time>2026-04-26T11:24:54Z</time></trkpt><trkpt lat="42.55475915116839" lon="12.026230618234875"><ele>540.5</ele><time>2026-04-26T11:26:21.999Z</time></trkpt><trkpt lat="42.55484668580695" lon="12.0261064206861"><ele>540.0</ele><time>2026-04-26T11:26:23.999Z</time></trkpt><trkpt lat="42.554892193876384" lon="12.026037278005385"><ele>539.5</ele><time>2026-04-26T11:26:24.999Z</time></trkpt><trkpt lat="42.55493917246115" lon="12.025962381130268"><ele>539.0</ele><time>2026-04-26T11:26:25.999Z</time></trkpt><trkpt lat="42.554987552308546" lon="12.025885250245377"><ele>538.5</ele><time>2026-04-26T11:26:26.999Z</time></trkpt><trkpt lat="42.55503429002868" lon="12.025811776691818"><ele>538.0</ele><time>2026-04-26T11:26:27.999Z</time></trkpt><trkpt lat="42.55508440886053" lon="12.025735933110854"><ele>537.5</ele><time>2026-04-26T11:26:28.999Z</time></trkpt><trkpt lat="42.55513273176493" lon="12.025662807321469"><ele>537.0</ele><time>2026-04-26T11:26:29.999Z</time></trkpt><trkpt lat="42.55518617929486" lon="12.02558192654929"><ele>536.5</ele><time>2026-04-26T11:26:30.999Z</time></trkpt><trkpt lat="42.555240846511055" lon="12.025496380660089"><ele>536.0</ele><time>2026-04-26T11:26:31.999Z</time></trkpt><trkpt lat="42.55529509070396" lon="12.025405815652835"><ele>536.0</ele><time>2026-04-26T11:26:32.999Z</time></trkpt><trkpt lat="42.55534815572702" lon="12.02531312788207"><ele>536.0</ele><time>2026-04-26T11:26:33.999Z</time></trkpt><trkpt lat="42.55540283010702" lon="12.025225336348052"><ele>536.0</ele><time>2026-04-26T11:26:34.999Z</time></trkpt><trkpt lat="42.55546016042121" lon="12.025143276391885"><ele>536.0</ele><time>2026-04-26T11:26:35.999Z</time></trkpt><trkpt lat="42.555522376182836" lon="12.025066460998335"><ele>536.0</ele><time>2026-04-26T11:26:36.999Z</time></trkpt><trkpt lat="42.55559166668148" lon="12.024986813099703"><ele>536.0</ele><time>2026-04-26T11:26:37.999Z</time></trkpt><trkpt lat="42.55567013681743" lon="12.02491408075309"><ele>534.4</ele><time>2026-04-26T11:26:38.999Z</time></trkpt><trkpt lat="42.55575825437961" lon="12.024843059038744"><ele>532.8</ele><time>2026-04-26T11:26:39.999Z</time></trkpt><trkpt lat="42.555853559201715" lon="12.024779988741525"><ele>531.1999999999999</ele><time>2026-04-26T11:26:40.999Z</time></trkpt><trkpt lat="42.55595157539305" lon="12.024703389248408"><ele>529.6</ele><time>2026-04-26T11:26:41.999Z</time></trkpt><trkpt lat="42.55604397814225" lon="12.024609771114141"><ele>528.0</ele><time>2026-04-26T11:26:42.999Z</time></trkpt><trkpt lat="42.55612865236132" lon="12.024501219854704"><ele>527.8</ele><time>2026-04-26T11:26:43.999Z</time></trkpt><trkpt lat="42.556206584937115" lon="12.024379204960134"><ele>527.5999999999999</ele><time>2026-04-26T11:26:44.999Z</time></trkpt><trkpt lat="42.55628671404791" lon="12.024268385702364"><ele>527.4000000000001</ele><time>2026-04-26T11:26:45.999Z</time></trkpt><trkpt lat="42.5563657735064" lon="12.024163979801875"><ele>527.2</ele><time>2026-04-26T11:26:46.999Z</time></trkpt><trkpt lat="42.556443581734875" lon="12.024066581962643"><ele>527.0</ele><time>2026-04-26T11:26:47.999Z</time></trkpt><trkpt lat="42.556569854866844" lon="12.023918434057606"><ele>527.0</ele><time>2026-04-26T11:26:49.999Z</time></trkpt><trkpt lat="42.55663508408183" lon="12.02389732630946"><ele>527.0</ele><time>2026-04-26T11:26:50.999Z</time></trkpt><trkpt lat="42.55681753287115" lon="12.023966911935561"><ele>527.0</ele><time>2026-04-26T11:26:53.001Z</time></trkpt><trkpt lat="42.55693097690507" lon="12.023992743922127"><ele>527.0</ele><time>2026-04-26T11:26:54.001Z</time></trkpt><trkpt lat="42.557041102326146" lon="12.024048004282944"><ele>526.0</ele><time>2026-04-26T11:26:55.001Z</time></trkpt><trkpt lat="42.55714045567139" lon="12.024094985333502"><ele>525.0</ele><time>2026-04-26T11:26:56.001Z</time></trkpt><trkpt lat="42.55724034888225" lon="12.024139711009692"><ele>524.0</ele><time>2026-04-26T11:26:57.001Z</time></trkpt><trkpt lat="42.557339307068105" lon="12.024184409010674"><ele>523.0</ele><time>2026-04-26T11:26:58.001Z</time></trkpt><trkpt lat="42.55742450546679" lon="12.024229533253926"><ele>522.0</ele><time>2026-04-26T11:26:59.001Z</time></trkpt><trkpt lat="42.55750556542453" lon="12.024267992203951"><ele>521.0</ele><time>2026-04-26T11:27:00.001Z</time></trkpt><trkpt lat="42.55757696066968" lon="12.024287601475649"><ele>520.0</ele><time>2026-04-26T11:27:01.001Z</time></trkpt><trkpt lat="42.557664681492504" lon="12.024321154350638"><ele>519.0</ele><time>2026-04-26T11:27:02.001Z</time></trkpt><trkpt lat="42.55778279069219" lon="12.024278837379883"><ele>518.0</ele><time>2026-04-26T11:27:03.001Z</time></trkpt><trkpt lat="42.5579037006481" lon="12.024239469970418"><ele>517.0</ele><time>2026-04-26T11:27:04.001Z</time></trkpt><trkpt lat="42.55802790831192" lon="12.024177866062585"><ele>514.75</ele><time>2026-04-26T11:27:05.001Z</time></trkpt><trkpt lat="42.55815644548725" lon="12.02413222759667"><ele>512.5</ele><time>2026-04-26T11:27:06.001Z</time></trkpt><trkpt lat="42.55828632623225" lon="12.024054382773818"><ele>510.25</ele><time>2026-04-26T11:27:07.001Z</time></trkpt><trkpt lat="42.55840421480786" lon="12.023953528446356"><ele>508.0</ele><time>2026-04-26T11:27:08.001Z</time></trkpt><trkpt lat="42.5585355299072" lon="12.023883062509091"><ele>508.0</ele><time>2026-04-26T11:27:09.001Z</time></trkpt><trkpt lat="42.558659313583014" lon="12.023795981682978"><ele>508.0</ele><time>2026-04-26T11:27:10.001Z</time></trkpt><trkpt lat="42.558788086441275" lon="12.02371616131645"><ele>508.0</ele><time>2026-04-26T11:27:11.001Z</time></trkpt><trkpt lat="42.55891550337634" lon="12.023635960619218"><ele>508.0</ele><time>2026-04-26T11:27:12.001Z</time></trkpt><trkpt lat="42.55904152398134" lon="12.023556529568927"><ele>505.25</ele><time>2026-04-26T11:27:13.001Z</time></trkpt><trkpt lat="42.55915029339925" lon="12.023453111319773"><ele>502.5</ele><time>2026-04-26T11:27:14Z</time></trkpt><trkpt lat="42.55924809612666" lon="12.02335074885167"><ele>499.75</ele><time>2026-04-26T11:27:15Z</time></trkpt><trkpt lat="42.55933336433067" lon="12.023236522075434"><ele>497.0</ele><time>2026-04-26T11:27:16Z</time></trkpt><trkpt lat="42.55940362742086" lon="12.02311729377997"><ele>496.40000000000003</ele><time>2026-04-26T11:27:17Z</time></trkpt><trkpt lat="42.55944867774229" lon="12.023004776632476"><ele>495.80000000000007</ele><time>2026-04-26T11:27:18Z</time></trkpt><trkpt lat="42.55949621778673" lon="12.022897267903595"><ele>495.2</ele><time>2026-04-26T11:27:19Z</time></trkpt><trkpt lat="42.55947352235253" lon="12.022773487215526"><ele>494.6</ele><time>2026-04-26T11:27:20Z</time></trkpt><trkpt lat="42.55943497687074" lon="12.02266441156253"><ele>494.0</ele><time>2026-04-26T11:27:21Z</time></trkpt><trkpt lat="42.55938553234202" lon="12.02257042291273"><ele>493.8333333333333</ele><time>2026-04-26T11:27:22Z</time></trkpt><trkpt lat="42.559363300824074" lon="12.02247171995217"><ele>493.66666666666663</ele><time>2026-04-26T11:27:23Z</time></trkpt><trkpt lat="42.55934777115862" lon="12.022329896752996"><ele>493.5</ele><time>2026-04-26T11:27:25Z</time></trkpt><trkpt lat="42.559397431578255" lon="12.022276333066612"><ele>493.33333333333337</ele><time>2026-04-26T11:27:26Z</time></trkpt><trkpt lat="42.55948606060993" lon="12.022273060775655"><ele>493.1666666666667</ele><time>2026-04-26T11:27:27Z</time></trkpt><trkpt lat="42.55959389621609" lon="12.022244461656976"><ele>493.0</ele><time>2026-04-26T11:27:28Z</time></trkpt><trkpt lat="42.55971224610951" lon="12.022222019898075"><ele>493.59999999999997</ele><time>2026-04-26T11:27:29Z</time></trkpt><trkpt lat="42.559824061123706" lon="12.02219564221779"><ele>494.19999999999993</ele><time>2026-04-26T11:27:30Z</time></trkpt><trkpt lat="42.55993067643412" lon="12.022222618372703"><ele>494.8</ele><time>2026-04-26T11:27:31Z</time></trkpt><trkpt lat="42.56001916379994" lon="12.022295533687362"><ele>495.4</ele><time>2026-04-26T11:27:32Z</time></trkpt><trkpt lat="42.5601056846509" lon="12.022348849994431"><ele>496.0</ele><time>2026-04-26T11:27:33Z</time></trkpt><trkpt lat="42.560189046862696" lon="12.022382983367303"><ele>496.00000000000006</ele><time>2026-04-26T11:27:34Z</time></trkpt><trkpt lat="42.56026308676699" lon="12.022426972849258"><ele>496.0</ele><time>2026-04-26T11:27:35Z</time></trkpt><trkpt lat="42.560333714983365" lon="12.022464331908173"><ele>496.0</ele><time>2026-04-26T11:27:36Z</time></trkpt><trkpt lat="42.560402648268166" lon="12.02250260396399"><ele>496.0</ele><time>2026-04-26T11:27:37Z</time></trkpt><trkpt lat="42.56047071301595" lon="12.0225294596118"><ele>496.00000000000006</ele><time>2026-04-26T11:27:38Z</time></trkpt><trkpt lat="42.56054560020224" lon="12.02253792951514"><ele>496.0</ele><time>2026-04-26T11:27:39Z</time></trkpt><trkpt lat="42.56062629609155" lon="12.022533118685045"><ele>495.1666666666667</ele><time>2026-04-26T11:27:40Z</time></trkpt><trkpt lat="42.56069854798154" lon="12.022502993455236"><ele>494.33333333333337</ele><time>2026-04-26T11:27:41Z</time></trkpt><trkpt lat="42.5607729684432" lon="12.022475555003139"><ele>493.5</ele><time>2026-04-26T11:27:42Z</time></trkpt><trkpt lat="42.560843108057284" lon="12.02242987156482"><ele>492.66666666666663</ele><time>2026-04-26T11:27:43Z</time></trkpt><trkpt lat="42.560918737720414" lon="12.022375642148507"><ele>491.8333333333333</ele><time>2026-04-26T11:27:44Z</time></trkpt><trkpt lat="42.56099409250674" lon="12.022323131064361"><ele>491.0</ele><time>2026-04-26T11:27:45Z</time></trkpt><trkpt lat="42.56107452705427" lon="12.022268076650395"><ele>490.99999999999994</ele><time>2026-04-26T11:27:46Z</time></trkpt><trkpt lat="42.56115176233978" lon="12.022209783518838"><ele>491.0</ele><time>2026-04-26T11:27:47Z</time></trkpt><trkpt lat="42.561235090601805" lon="12.022146944087337"><ele>491.0</ele><time>2026-04-26T11:27:48Z</time></trkpt><trkpt lat="42.561306142652995" lon="12.022093301249097"><ele>491.0</ele><time>2026-04-26T11:27:49Z</time></trkpt><trkpt lat="42.56137888216337" lon="12.022027496117746"><ele>490.99999999999994</ele><time>2026-04-26T11:27:50Z</time></trkpt><trkpt lat="42.561452120756414" lon="12.021951422212847"><ele>491.0</ele><time>2026-04-26T11:27:51Z</time></trkpt><trkpt lat="42.56151448844668" lon="12.021884118759635"><ele>490.16666666666663</ele><time>2026-04-26T11:27:52Z</time></trkpt><trkpt lat="42.561581103656664" lon="12.02181918872009"><ele>489.3333333333333</ele><time>2026-04-26T11:27:53Z</time></trkpt><trkpt lat="42.561648046078034" lon="12.021777774361267"><ele>488.5</ele><time>2026-04-26T11:27:54Z</time></trkpt><trkpt lat="42.561730624764934" lon="12.021732065418815"><ele>487.66666666666663</ele><time>2026-04-26T11:27:55Z</time></trkpt><trkpt lat="42.56181351962126" lon="12.021703577064866"><ele>486.8333333333333</ele><time>2026-04-26T11:27:56Z</time></trkpt><trkpt lat="42.56191769054956" lon="12.021663487744025"><ele>486.0</ele><time>2026-04-26T11:27:57Z</time></trkpt><trkpt lat="42.56203549082231" lon="12.021648719686922"><ele>488.0</ele><time>2026-04-26T11:27:58Z</time></trkpt><trkpt lat="42.56215075841335" lon="12.021625956290244"><ele>490.0</ele><time>2026-04-26T11:27:59Z</time></trkpt><trkpt lat="42.56226555871345" lon="12.021598318495998"><ele>492.0</ele><time>2026-04-26T11:28:00Z</time></trkpt><trkpt lat="42.56238060351481" lon="12.021573541459652"><ele>494.0</ele><time>2026-04-26T11:28:01Z</time></trkpt><trkpt lat="42.56249604317587" lon="12.021548552302544"><ele>494.0</ele><time>2026-04-26T11:28:02Z</time></trkpt><trkpt lat="42.562619009979116" lon="12.021526461088945"><ele>494.0</ele><time>2026-04-26T11:28:03Z</time></trkpt><trkpt lat="42.5627325690771" lon="12.02150611250053"><ele>494.0</ele><time>2026-04-26T11:28:04Z</time></trkpt><trkpt lat="42.562848378599156" lon="12.021478947539265"><ele>494.0</ele><time>2026-04-26T11:28:05Z</time></trkpt><trkpt lat="42.562962234520576" lon="12.021457368378574"><ele>493.4</ele><time>2026-04-26T11:28:06Z</time></trkpt><trkpt lat="42.56307047275958" lon="12.021450373208959"><ele>492.79999999999995</ele><time>2026-04-26T11:28:07Z</time></trkpt><trkpt lat="42.563168324311775" lon="12.02143275197014"><ele>492.20000000000005</ele><time>2026-04-26T11:28:08Z</time></trkpt><trkpt lat="42.56326473361299" lon="12.021415942694082"><ele>491.6</ele><time>2026-04-26T11:28:09Z</time></trkpt><trkpt lat="42.56335037121615" lon="12.021395282720647"><ele>491.0</ele><time>2026-04-26T11:28:10Z</time></trkpt><trkpt lat="42.563436213835544" lon="12.02137201621489"><ele>490.99999999999994</ele><time>2026-04-26T11:28:11Z</time></trkpt><trkpt lat="42.563519332051676" lon="12.02134739137164"><ele>491.0</ele><time>2026-04-26T11:28:12Z</time></trkpt><trkpt lat="42.56360309519313" lon="12.021310010340445"><ele>491.0</ele><time>2026-04-26T11:28:13Z</time></trkpt><trkpt lat="42.56368409397866" lon="12.021269026131732"><ele>491.0</ele><time>2026-04-26T11:28:14Z</time></trkpt><trkpt lat="42.56375871633423" lon="12.021198195306276"><ele>490.99999999999994</ele><time>2026-04-26T11:28:15Z</time></trkpt><trkpt lat="42.56382324219847" lon="12.021150974598507"><ele>491.0</ele><time>2026-04-26T11:28:16Z</time></trkpt><trkpt lat="42.56388419394179" lon="12.021096345826892"><ele>490.4</ele><time>2026-04-26T11:28:17Z</time></trkpt><trkpt lat="42.56396713569318" lon="12.021037933936222"><ele>489.8</ele><time>2026-04-26T11:28:18Z</time></trkpt><trkpt lat="42.56403855063634" lon="12.020940823475293"><ele>489.19999999999993</ele><time>2026-04-26T11:28:19Z</time></trkpt><trkpt lat="42.56411074674643" lon="12.02084279608201"><ele>488.59999999999997</ele><time>2026-04-26T11:28:20Z</time></trkpt><trkpt lat="42.564183707326556" lon="12.02074320294573"><ele>488.0</ele><time>2026-04-26T11:28:21Z</time></trkpt><trkpt lat="42.564238249546854" lon="12.020631758972495"><ele>487.99999999999994</ele><time>2026-04-26T11:28:22Z</time></trkpt><trkpt lat="42.56431007056146" lon="12.020544330169221"><ele>488.0</ele><time>2026-04-26T11:28:23Z</time></trkpt><trkpt lat="42.564367263421374" lon="12.020450147989338"><ele>488.0</ele><time>2026-04-26T11:28:24Z</time></trkpt><trkpt lat="42.564422740182415" lon="12.020364396827292"><ele>488.0</ele><time>2026-04-26T11:28:25Z</time></trkpt><trkpt lat="42.564486322317315" lon="12.02028699413548"><ele>487.99999999999994</ele><time>2026-04-26T11:28:26Z</time></trkpt><trkpt lat="42.56455055086918" lon="12.020233057016517"><ele>488.0</ele><time>2026-04-26T11:28:27Z</time></trkpt><trkpt lat="42.564633592999044" lon="12.020183013583928"><ele>487.25</ele><time>2026-04-26T11:28:28Z</time></trkpt><trkpt lat="42.56473627577638" lon="12.020173978672895"><ele>486.5</ele><time>2026-04-26T11:28:28.999Z</time></trkpt><trkpt lat="42.564842234950014" lon="12.020121663961666"><ele>485.75</ele><time>2026-04-26T11:28:29.999Z</time></trkpt><trkpt lat="42.564964561569504" lon="12.020085341479371"><ele>485.0</ele><time>2026-04-26T11:28:30.999Z</time></trkpt><trkpt lat="42.56508875035079" lon="12.02004509729822"><ele>485.0</ele><time>2026-04-26T11:28:31.999Z</time></trkpt><trkpt lat="42.565204007547365" lon="12.020005655383224"><ele>485.0</ele><time>2026-04-26T11:28:32.999Z</time></trkpt><trkpt lat="42.565315520252774" lon="12.01996894265812"><ele>485.0</ele><time>2026-04-26T11:28:33.999Z</time></trkpt><trkpt lat="42.56543334008174" lon="12.019933132184102"><ele>485.0</ele><time>2026-04-26T11:28:34.999Z</time></trkpt><trkpt lat="42.56554641063635" lon="12.019893050664473"><ele>486.25</ele><time>2026-04-26T11:28:35.999Z</time></trkpt><trkpt lat="42.56565569946818" lon="12.019856849176687"><ele>487.5</ele><time>2026-04-26T11:28:36.999Z</time></trkpt><trkpt lat="42.565765249811776" lon="12.019818566473003"><ele>488.75</ele><time>2026-04-26T11:28:37.999Z</time></trkpt><trkpt lat="42.56588225175108" lon="12.019804396168368"><ele>490.0</ele><time>2026-04-26T11:28:38.999Z</time></trkpt><trkpt lat="42.565994141324715" lon="12.019765710377278"><ele>490.0</ele><time>2026-04-26T11:28:39.999Z</time></trkpt><trkpt lat="42.56610681848251" lon="12.019727135849315"><ele>490.0</ele><time>2026-04-26T11:28:40.999Z</time></trkpt><trkpt lat="42.56621816463352" lon="12.019689344616122"><ele>490.0</ele><time>2026-04-26T11:28:41.999Z</time></trkpt><trkpt lat="42.56632734862428" lon="12.019648784112528"><ele>490.0</ele><time>2026-04-26T11:28:42.999Z</time></trkpt><trkpt lat="42.56643167163795" lon="12.019610029405927"><ele>490.1666666666667</ele><time>2026-04-26T11:28:43.999Z</time></trkpt><trkpt lat="42.566533133731916" lon="12.019567420505966"><ele>490.33333333333337</ele><time>2026-04-26T11:28:44.999Z</time></trkpt><trkpt lat="42.566619388149725" lon="12.01952961060802"><ele>490.5</ele><time>2026-04-26T11:28:45.999Z</time></trkpt><trkpt lat="42.56670234035346" lon="12.019501468856218"><ele>490.66666666666663</ele><time>2026-04-26T11:28:46.999Z</time></trkpt><trkpt lat="42.566792267637" lon="12.019501835939913"><ele>490.8333333333333</ele><time>2026-04-26T11:28:47.999Z</time></trkpt><trkpt lat="42.56686248873518" lon="12.019469049753276"><ele>491.0</ele><time>2026-04-26T11:28:48.999Z</time></trkpt><trkpt lat="42.566929154890865" lon="12.019418685130303"><ele>491.0</ele><time>2026-04-26T11:28:49.999Z</time></trkpt><trkpt lat="42.56698590044269" lon="12.019335276453939"><ele>491.0</ele><time>2026-04-26T11:28:50.999Z</time></trkpt><trkpt lat="42.567051489097594" lon="12.01925047697491"><ele>491.0</ele><time>2026-04-26T11:28:51.999Z</time></trkpt><trkpt lat="42.56712346103927" lon="12.01915791030053"><ele>491.0</ele><time>2026-04-26T11:28:52.999Z</time></trkpt><trkpt lat="42.567185707876085" lon="12.019072709609166"><ele>491.0</ele><time>2026-04-26T11:28:53.999Z</time></trkpt><trkpt lat="42.56724687620068" lon="12.018982214779275"><ele>490.16666666666663</ele><time>2026-04-26T11:28:54.999Z</time></trkpt><trkpt lat="42.56730414176449" lon="12.018887519325295"><ele>489.3333333333333</ele><time>2026-04-26T11:28:55.999Z</time></trkpt><trkpt lat="42.56735012298526" lon="12.018776697863197"><ele>488.5</ele><time>2026-04-26T11:28:56.999Z</time></trkpt><trkpt lat="42.567386079331236" lon="12.01867089927051"><ele>487.66666666666663</ele><time>2026-04-26T11:28:58.001Z</time></trkpt><trkpt lat="42.567416273292054" lon="12.018577293217035"><ele>486.8333333333333</ele><time>2026-04-26T11:28:59.001Z</time></trkpt><trkpt lat="42.5674449700295" lon="12.01848545271272"><ele>486.0</ele><time>2026-04-26T11:29:00.001Z</time></trkpt><trkpt lat="42.567503073431794" lon="12.018330778682364"><ele>485.4</ele><time>2026-04-26T11:29:02.001Z</time></trkpt><trkpt lat="42.56758333666728" lon="12.018198833412683"><ele>484.8</ele><time>2026-04-26T11:29:04.001Z</time></trkpt><trkpt lat="42.567634364749594" lon="12.018126163777653"><ele>484.19999999999993</ele><time>2026-04-26T11:29:05.001Z</time></trkpt><trkpt lat="42.56770142875551" lon="12.018045354162549"><ele>483.59999999999997</ele><time>2026-04-26T11:29:06.001Z</time></trkpt><trkpt lat="42.567771921040865" lon="12.017961909367381"><ele>483.0</ele><time>2026-04-26T11:29:07.001Z</time></trkpt><trkpt lat="42.567838318280884" lon="12.017881085089495"><ele>482.5</ele><time>2026-04-26T11:29:08.001Z</time></trkpt><trkpt lat="42.56789626397559" lon="12.017810548707923"><ele>482.0</ele><time>2026-04-26T11:29:09.001Z</time></trkpt><trkpt lat="42.56794914117296" lon="12.017748935468669"><ele>481.5</ele><time>2026-04-26T11:29:10.001Z</time></trkpt><trkpt lat="42.56800180726336" lon="12.01768997545283"><ele>481.0</ele><time>2026-04-26T11:29:11.001Z</time></trkpt><trkpt lat="42.56805316927125" lon="12.017632475378015"><ele>480.5</ele><time>2026-04-26T11:29:12.001Z</time></trkpt><trkpt lat="42.56815572033026" lon="12.01751945620373"><ele>480.0</ele><time>2026-04-26T11:29:14.001Z</time></trkpt><trkpt lat="42.56820921814112" lon="12.017462492758357"><ele>479.14285714285717</ele><time>2026-04-26T11:29:15.001Z</time></trkpt><trkpt lat="42.568262927471785" lon="12.017402628574999"><ele>478.2857142857142</ele><time>2026-04-26T11:29:16.001Z</time></trkpt><trkpt lat="42.56831871791526" lon="12.017334612356064"><ele>477.4285714285714</ele><time>2026-04-26T11:29:17.001Z</time></trkpt><trkpt lat="42.56836945639429" lon="12.01726493926697"><ele>476.57142857142856</ele><time>2026-04-26T11:29:18Z</time></trkpt><trkpt lat="42.56841807628405" lon="12.017190622024097"><ele>475.71428571428567</ele><time>2026-04-26T11:29:19Z</time></trkpt><trkpt lat="42.568462864932904" lon="12.017111664277664"><ele>474.8571428571428</ele><time>2026-04-26T11:29:20Z</time></trkpt><trkpt lat="42.568503262877705" lon="12.017026385375996"><ele>473.99999999999994</ele><time>2026-04-26T11:29:21Z</time></trkpt><trkpt lat="42.56855428623977" lon="12.016892896637149"><ele>474.0</ele><time>2026-04-26T11:29:22Z</time></trkpt><trkpt lat="42.56859628164524" lon="12.016760723961077"><ele>474.0</ele><time>2026-04-26T11:29:23Z</time></trkpt><trkpt lat="42.568637753468785" lon="12.016626092565252"><ele>474.0</ele><time>2026-04-26T11:29:24Z</time></trkpt><trkpt lat="42.568674859907816" lon="12.016493009651112"><ele>474.0</ele><time>2026-04-26T11:29:25Z</time></trkpt><trkpt lat="42.56870862844774" lon="12.016373340195951"><ele>474.0</ele><time>2026-04-26T11:29:26Z</time></trkpt><trkpt lat="42.56874198846583" lon="12.016277621594064"><ele>473.1666666666667</ele><time>2026-04-26T11:29:27Z</time></trkpt><trkpt lat="42.56877381190153" lon="12.016192532861636"><ele>472.33333333333337</ele><time>2026-04-26T11:29:28Z</time></trkpt><trkpt lat="42.56880654218567" lon="12.016117218435504"><ele>471.5</ele><time>2026-04-26T11:29:29Z</time></trkpt><trkpt lat="42.56884391821685" lon="12.01604819755409"><ele>470.6666666666667</ele><time>2026-04-26T11:29:30Z</time></trkpt><trkpt lat="42.56889321299397" lon="12.01597144768749"><ele>469.83333333333337</ele><time>2026-04-26T11:29:31Z</time></trkpt><trkpt lat="42.56894672775409" lon="12.015890533151747"><ele>469.0</ele><time>2026-04-26T11:29:32Z</time></trkpt><trkpt lat="42.569062393876735" lon="12.015714584908128"><ele>466.79999999999995</ele><time>2026-04-26T11:29:34Z</time></trkpt><trkpt lat="42.5691172627864" lon="12.01562813205212"><ele>464.59999999999997</ele><time>2026-04-26T11:29:35Z</time></trkpt><trkpt lat="42.569159969529466" lon="12.01555861405325"><ele>462.4</ele><time>2026-04-26T11:29:36Z</time></trkpt><trkpt lat="42.56920928554941" lon="12.015472451074158"><ele>460.2</ele><time>2026-04-26T11:29:37Z</time></trkpt><trkpt lat="42.56928371519442" lon="12.015321940555515"><ele>458.0</ele><time>2026-04-26T11:29:39Z</time></trkpt><trkpt lat="42.56934068291272" lon="12.015202339888303"><ele>458.0</ele><time>2026-04-26T11:29:41Z</time></trkpt><trkpt lat="42.569393379856706" lon="12.015109256633778"><ele>457.99999999999994</ele><time>2026-04-26T11:29:43Z</time></trkpt><trkpt lat="42.56944639104636" lon="12.015017910342273"><ele>457.99999999999994</ele><time>2026-04-26T11:29:45Z</time></trkpt><trkpt lat="42.56949921743132" lon="12.014933373001092"><ele>458.0</ele><time>2026-04-26T11:29:47Z</time></trkpt><trkpt lat="42.56957278122333" lon="12.014850448354906"><ele>458.0</ele><time>2026-04-26T11:29:49Z</time></trkpt><trkpt lat="42.569671359793" lon="12.014770939868978"><ele>457.4</ele><time>2026-04-26T11:29:51Z</time></trkpt><trkpt lat="42.56972823594337" lon="12.014732806084545"><ele>456.79999999999995</ele><time>2026-04-26T11:29:52Z</time></trkpt><trkpt lat="42.569790492848725" lon="12.014699061000183"><ele>456.2</ele><time>2026-04-26T11:29:53Z</time></trkpt><trkpt lat="42.56990191761782" lon="12.01464693059997"><ele>455.6</ele><time>2026-04-26T11:29:55Z</time></trkpt><trkpt lat="42.57001192155393" lon="12.014608221648887"><ele>455.0</ele><time>2026-04-26T11:29:57Z</time></trkpt><trkpt lat="42.57012633246445" lon="12.01457528898946"><ele>454.99999999999994</ele><time>2026-04-26T11:29:59Z</time></trkpt><trkpt lat="42.57025083820056" lon="12.014548524169044"><ele>455.0</ele><time>2026-04-26T11:30:01Z</time></trkpt><trkpt lat="42.570318179075734" lon="12.014537948743087"><ele>455.0</ele><time>2026-04-26T11:30:02Z</time></trkpt><trkpt lat="42.57039400436318" lon="12.014527400050392"><ele>455.0</ele><time>2026-04-26T11:30:03Z</time></trkpt><trkpt lat="42.570471424477155" lon="12.014517979374993"><ele>454.99999999999994</ele><time>2026-04-26T11:30:04Z</time></trkpt><trkpt lat="42.57055191489813" lon="12.014489862648965"><ele>455.0</ele><time>2026-04-26T11:30:05Z</time></trkpt><trkpt lat="42.57064093531547" lon="12.014484753855644"><ele>454.16666666666663</ele><time>2026-04-26T11:30:06Z</time></trkpt><trkpt lat="42.570723799004206" lon="12.014476491095934"><ele>453.3333333333333</ele><time>2026-04-26T11:30:07Z</time></trkpt><trkpt lat="42.57081160483781" lon="12.014469491063121"><ele>452.5</ele><time>2026-04-26T11:30:08Z</time></trkpt><trkpt lat="42.57090135513221" lon="12.014476134810602"><ele>451.66666666666663</ele><time>2026-04-26T11:30:09Z</time></trkpt><trkpt lat="42.57097414404678" lon="12.014431862162278"><ele>450.8333333333333</ele><time>2026-04-26T11:30:10Z</time></trkpt><trkpt lat="42.571039633154676" lon="12.014412036419166"><ele>450.0</ele><time>2026-04-26T11:30:11Z</time></trkpt><trkpt lat="42.571104462605646" lon="12.014384857058719"><ele>450.0</ele><time>2026-04-26T11:30:12Z</time></trkpt><trkpt lat="42.57118920732373" lon="12.014286049282951"><ele>450.0</ele><time>2026-04-26T11:30:14Z</time></trkpt><trkpt lat="42.57123196558714" lon="12.014219489523668"><ele>450.0</ele><time>2026-04-26T11:30:15Z</time></trkpt><trkpt lat="42.571335099351074" lon="12.014063399402877"><ele>450.0</ele><time>2026-04-26T11:30:17Z</time></trkpt><trkpt lat="42.57137968630574" lon="12.013962064581664"><ele>450.0</ele><time>2026-04-26T11:30:18Z</time></trkpt><trkpt lat="42.57141612530001" lon="12.013864237265064"><ele>449.7142857142858</ele><time>2026-04-26T11:30:19Z</time></trkpt><trkpt lat="42.57144325914937" lon="12.013785878384244"><ele>449.42857142857144</ele><time>2026-04-26T11:30:20Z</time></trkpt><trkpt lat="42.57149276787506" lon="12.013640509583226"><ele>449.14285714285717</ele><time>2026-04-26T11:30:22Z</time></trkpt><trkpt lat="42.57151936049916" lon="12.013562427627829"><ele>448.8571428571429</ele><time>2026-04-26T11:30:23Z</time></trkpt><trkpt lat="42.571547514957366" lon="12.013479759776775"><ele>448.57142857142856</ele><time>2026-04-26T11:30:24Z</time></trkpt><trkpt lat="42.57157503753234" lon="12.013398954761918"><ele>448.2857142857143</ele><time>2026-04-26T11:30:25Z</time></trkpt><trkpt lat="42.571601915437235" lon="12.013320254950639"><ele>448.0</ele><time>2026-04-26T11:30:26Z</time></trkpt><trkpt lat="42.571629910967005" lon="12.013238282694873"><ele>445.79999999999995</ele><time>2026-04-26T11:30:27Z</time></trkpt><trkpt lat="42.57167621478301" lon="12.013109459827643"><ele>443.59999999999997</ele><time>2026-04-26T11:30:29Z</time></trkpt><trkpt lat="42.57172683012809" lon="12.012980557072044"><ele>441.40000000000003</ele><time>2026-04-26T11:30:30.999Z</time></trkpt><trkpt lat="42.57176115092438" lon="12.01280762011774"><ele>439.20000000000005</ele><time>2026-04-26T11:30:32.999Z</time></trkpt><trkpt lat="42.57177082773634" lon="12.01271811886801"><ele>437.0</ele><time>2026-04-26T11:30:33.999Z</time></trkpt><trkpt lat="42.5717798558034" lon="12.01263270115378"><ele>437.0</ele><time>2026-04-26T11:30:34.999Z</time></trkpt><trkpt lat="42.571788825113444" lon="12.012547839350956"><ele>437.00000000000006</ele><time>2026-04-26T11:30:35.999Z</time></trkpt><trkpt lat="42.571805056119544" lon="12.012392332477743"><ele>437.00000000000006</ele><time>2026-04-26T11:30:37.999Z</time></trkpt><trkpt lat="42.57179986162937" lon="12.012264696902847"><ele>437.0</ele><time>2026-04-26T11:30:39.999Z</time></trkpt><trkpt lat="42.5718400148333" lon="12.01216220803168"><ele>437.0</ele><time>2026-04-26T11:30:42.999Z</time></trkpt><trkpt lat="42.57196489538216" lon="12.012200892213647"><ele>434.5</ele><time>2026-04-26T11:30:45.999Z</time></trkpt><trkpt lat="42.57206713872664" lon="12.012191918725208"><ele>432.0</ele><time>2026-04-26T11:30:46.999Z</time></trkpt><trkpt lat="42.57218809845208" lon="12.012215635656277"><ele>429.5</ele><time>2026-04-26T11:30:47.999Z</time></trkpt><trkpt lat="42.57231815891582" lon="12.012222197771226"><ele>427.0</ele><time>2026-04-26T11:30:48.999Z</time></trkpt><trkpt lat="42.57244839268907" lon="12.012228768648127"><ele>427.0</ele><time>2026-04-26T11:30:49.999Z</time></trkpt><trkpt lat="42.57257523814619" lon="12.012238096571087"><ele>427.0</ele><time>2026-04-26T11:30:50.999Z</time></trkpt><trkpt lat="42.572693652013015" lon="12.012247192689934"><ele>427.0</ele><time>2026-04-26T11:30:51.999Z</time></trkpt><trkpt lat="42.572808377417594" lon="12.01225705664068"><ele>427.0</ele><time>2026-04-26T11:30:52.999Z</time></trkpt><trkpt lat="42.57292245345005" lon="12.012266864764781"><ele>426.6</ele><time>2026-04-26T11:30:53.999Z</time></trkpt><trkpt lat="42.573033067655" lon="12.01227637524926"><ele>426.20000000000005</ele><time>2026-04-26T11:30:54.999Z</time></trkpt><trkpt lat="42.573143452636735" lon="12.012285866021921"><ele>425.8</ele><time>2026-04-26T11:30:55.999Z</time></trkpt><trkpt lat="42.57325073776869" lon="12.012295090274138"><ele>425.4</ele><time>2026-04-26T11:30:56.999Z</time></trkpt><trkpt lat="42.57336538968891" lon="12.012304947912623"><ele>425.0</ele><time>2026-04-26T11:30:57.999Z</time></trkpt><trkpt lat="42.5734811372412" lon="12.012314899752978"><ele>425.0</ele><time>2026-04-26T11:30:58.999Z</time></trkpt><trkpt lat="42.57359579961634" lon="12.0123247582938"><ele>425.0</ele><time>2026-04-26T11:30:59.999Z</time></trkpt><trkpt lat="42.57371127609692" lon="12.012335541194188"><ele>425.0</ele><time>2026-04-26T11:31:00.999Z</time></trkpt><trkpt lat="42.57382426558524" lon="12.01234688050824"><ele>425.0</ele><time>2026-04-26T11:31:01.999Z</time></trkpt><trkpt lat="42.573933589263156" lon="12.012357851929442"><ele>424.6</ele><time>2026-04-26T11:31:02.999Z</time></trkpt><trkpt lat="42.5740402437637" lon="12.012368555481794"><ele>424.2</ele><time>2026-04-26T11:31:04.001Z</time></trkpt><trkpt lat="42.57414784562296" lon="12.012379354106521"><ele>423.79999999999995</ele><time>2026-04-26T11:31:05.001Z</time></trkpt><trkpt lat="42.57425630538747" lon="12.012367674306095"><ele>423.4</ele><time>2026-04-26T11:31:06.001Z</time></trkpt><trkpt lat="42.5743578655703" lon="12.012400431126911"><ele>423.0</ele><time>2026-04-26T11:31:07.001Z</time></trkpt><trkpt lat="42.57446055386497" lon="12.012410736640408"><ele>422.2</ele><time>2026-04-26T11:31:08.001Z</time></trkpt><trkpt lat="42.57455994382668" lon="12.012420676345753"><ele>421.4</ele><time>2026-04-26T11:31:09.001Z</time></trkpt><trkpt lat="42.574660370027544" lon="12.012430472082977"><ele>420.59999999999997</ele><time>2026-04-26T11:31:10.001Z</time></trkpt><trkpt lat="42.574757787172864" lon="12.012439974312528"><ele>419.79999999999995</ele><time>2026-04-26T11:31:11.001Z</time></trkpt><trkpt lat="42.5748471877247" lon="12.012434363461042"><ele>419.0</ele><time>2026-04-26T11:31:12.001Z</time></trkpt><trkpt lat="42.57492688506503" lon="12.012439982994728"><ele>419.0</ele><time>2026-04-26T11:31:13.001Z</time></trkpt><trkpt lat="42.57503603815361" lon="12.012446389513437"><ele>419.0</ele><time>2026-04-26T11:31:14.001Z</time></trkpt><trkpt lat="42.575134612010544" lon="12.012459857760222"><ele>419.0</ele><time>2026-04-26T11:31:15.001Z</time></trkpt><trkpt lat="42.57522886926487" lon="12.012466950777618"><ele>419.0</ele><time>2026-04-26T11:31:16.001Z</time></trkpt><trkpt lat="42.57530721715042" lon="12.012493535603888"><ele>419.0</ele><time>2026-04-26T11:31:17.001Z</time></trkpt><trkpt lat="42.57542035958264" lon="12.012482043731536"><ele>419.3333333333333</ele><time>2026-04-26T11:31:18Z</time></trkpt><trkpt lat="42.57552353384789" lon="12.012492373769513"><ele>419.66666666666663</ele><time>2026-04-26T11:31:19Z</time></trkpt><trkpt lat="42.57562312965627" lon="12.012519474632626"><ele>420.0</ele><time>2026-04-26T11:31:20Z</time></trkpt><trkpt lat="42.575701699403574" lon="12.012509253142158"><ele>420.33333333333337</ele><time>2026-04-26T11:31:21Z</time></trkpt><trkpt lat="42.57577917707512" lon="12.01251348985688"><ele>420.6666666666667</ele><time>2026-04-26T11:31:22Z</time></trkpt><trkpt lat="42.575851348268294" lon="12.012538342362895"><ele>421.0</ele><time>2026-04-26T11:31:23Z</time></trkpt><trkpt lat="42.575917293236714" lon="12.012544326257812"><ele>421.0</ele><time>2026-04-26T11:31:24Z</time></trkpt><trkpt lat="42.57601308968943" lon="12.012556093732263"><ele>421.0</ele><time>2026-04-26T11:31:26Z</time></trkpt><trkpt lat="42.576076172909566" lon="12.01260336143077"><ele>421.0</ele><time>2026-04-26T11:31:28Z</time></trkpt><trkpt lat="42.576079915554196" lon="12.012766192954192"><ele>421.0</ele><time>2026-04-26T11:31:30Z</time></trkpt><trkpt lat="42.5760765042232" lon="12.01287298931598"><ele>421.0</ele><time>2026-04-26T11:31:31Z</time></trkpt><trkpt lat="42.57605319111985" lon="12.012980922678828"><ele>421.0</ele><time>2026-04-26T11:31:32Z</time></trkpt><trkpt lat="42.576057104867495" lon="12.013113902531755"><ele>421.0</ele><time>2026-04-26T11:31:33Z</time></trkpt><trkpt lat="42.57604998498734" lon="12.013250628165375"><ele>421.0</ele><time>2026-04-26T11:31:34Z</time></trkpt><trkpt lat="42.576047384746985" lon="12.013375092503535"><ele>421.0</ele><time>2026-04-26T11:31:35Z</time></trkpt><trkpt lat="42.57604284346194" lon="12.013490105415586"><ele>421.0</ele><time>2026-04-26T11:31:36Z</time></trkpt><trkpt lat="42.576032083289796" lon="12.013608977448458"><ele>421.8</ele><time>2026-04-26T11:31:37Z</time></trkpt><trkpt lat="42.57602631846472" lon="12.013738158825838"><ele>422.6</ele><time>2026-04-26T11:31:38Z</time></trkpt><trkpt lat="42.57601824854969" lon="12.013873669009769"><ele>423.4</ele><time>2026-04-26T11:31:39Z</time></trkpt><trkpt lat="42.57601744175905" lon="12.014003385089586"><ele>424.2</ele><time>2026-04-26T11:31:40Z</time></trkpt><trkpt lat="42.5760201425533" lon="12.01411473212573"><ele>425.0</ele><time>2026-04-26T11:31:41Z</time></trkpt><trkpt lat="42.57601826790522" lon="12.014222783426595"><ele>426.66666666666663</ele><time>2026-04-26T11:31:42Z</time></trkpt><trkpt lat="42.57601090315378" lon="12.014329040851546"><ele>428.3333333333333</ele><time>2026-04-26T11:31:43Z</time></trkpt><trkpt lat="42.576007122762235" lon="12.014424260468076"><ele>430.0</ele><time>2026-04-26T11:31:44Z</time></trkpt><trkpt lat="42.57600218694837" lon="12.01452846231012"><ele>431.66666666666663</ele><time>2026-04-26T11:31:45Z</time></trkpt><trkpt lat="42.57599164320389" lon="12.014619701919779"><ele>433.3333333333333</ele><time>2026-04-26T11:31:46Z</time></trkpt><trkpt lat="42.57597202267537" lon="12.014713611971544"><ele>435.0</ele><time>2026-04-26T11:31:48Z</time></trkpt><trkpt lat="42.575979503676024" lon="12.01459489542851"><ele>435.0</ele><time>2026-04-26T11:31:57Z</time></trkpt><trkpt lat="42.575989273965185" lon="12.014468594160105"><ele>435.0</ele><time>2026-04-26T11:31:59Z</time></trkpt><trkpt lat="42.57600224160641" lon="12.014311538454635"><ele>435.0</ele><time>2026-04-26T11:32:01Z</time></trkpt><trkpt lat="42.57601146025369" lon="12.014145584289846"><ele>435.0</ele><time>2026-04-26T11:32:03Z</time></trkpt><trkpt lat="42.57601428763726" lon="12.013985800559528"><ele>432.5</ele><time>2026-04-26T11:32:05Z</time></trkpt><trkpt lat="42.57601322212624" lon="12.013826558712134"><ele>430.0</ele><time>2026-04-26T11:32:07Z</time></trkpt><trkpt lat="42.57602058148848" lon="12.013674048490678"><ele>427.5</ele><time>2026-04-26T11:32:09Z</time></trkpt><trkpt lat="42.57602865136438" lon="12.013527247259972"><ele>425.0</ele><time>2026-04-26T11:32:11Z</time></trkpt><trkpt lat="42.576038106050035" lon="12.013370798266884"><ele>424.3333333333333</ele><time>2026-04-26T11:32:13Z</time></trkpt><trkpt lat="42.576068960874686" lon="12.013291302906373"><ele>423.66666666666663</ele><time>2026-04-26T11:32:14Z</time></trkpt><trkpt lat="42.57607400100626" lon="12.013202591761882"><ele>423.0</ele><time>2026-04-26T11:32:15Z</time></trkpt><trkpt lat="42.57606392017204" lon="12.01310778149157"><ele>422.33333333333337</ele><time>2026-04-26T11:32:16Z</time></trkpt><trkpt lat="42.57608465966788" lon="12.01301498910412"><ele>421.6666666666667</ele><time>2026-04-26T11:32:17Z</time></trkpt><trkpt lat="42.57609023662629" lon="12.012922793836877"><ele>421.0</ele><time>2026-04-26T11:32:18Z</time></trkpt><trkpt lat="42.57610194945722" lon="12.012754548649314"><ele>421.0</ele><time>2026-04-26T11:32:20Z</time></trkpt><trkpt lat="42.576105649622214" lon="12.012641266927854"><ele>421.0</ele><time>2026-04-26T11:32:22Z</time></trkpt><trkpt lat="42.576108676464244" lon="12.012548599836093"><ele>421.0</ele><time>2026-04-26T11:32:25Z</time></trkpt><trkpt lat="42.5762787278961" lon="12.012558728950674"><ele>421.0</ele><time>2026-04-26T11:32:30Z</time></trkpt><trkpt lat="42.57638977825801" lon="12.012575246734018"><ele>421.0</ele><time>2026-04-26T11:32:32Z</time></trkpt><trkpt lat="42.57650670226172" lon="12.012576388120632"><ele>421.0</ele><time>2026-04-26T11:32:33.999Z</time></trkpt><trkpt lat="42.57661903249342" lon="12.012593465967567"><ele>421.0</ele><time>2026-04-26T11:32:35.999Z</time></trkpt><trkpt lat="42.57672519955906" lon="12.01260510674786"><ele>421.0</ele><time>2026-04-26T11:32:37.999Z</time></trkpt><trkpt lat="42.57680533042806" lon="12.012617592020597"><ele>421.0</ele><time>2026-04-26T11:32:39.999Z</time></trkpt><trkpt lat="42.576835615666276" lon="12.012700404702962"><ele>421.0</ele><time>2026-04-26T11:32:41.999Z</time></trkpt><trkpt lat="42.57681636238348" lon="12.012877537363817"><ele>421.0</ele><time>2026-04-26T11:32:43.999Z</time></trkpt><trkpt lat="42.576809060346974" lon="12.012962778407907"><ele>421.0</ele><time>2026-04-26T11:32:44.999Z</time></trkpt><trkpt lat="42.57680031980772" lon="12.013128004022361"><ele>421.0</ele><time>2026-04-26T11:32:46.999Z</time></trkpt><trkpt lat="42.5767925913432" lon="12.013216926014987"><ele>421.0</ele><time>2026-04-26T11:32:47.999Z</time></trkpt><trkpt lat="42.576790933537495" lon="12.013352144143893"><ele>421.0</ele><time>2026-04-26T11:32:49.999Z</time></trkpt><trkpt lat="42.57681244908277" lon="12.013491360669848"><ele>421.4</ele><time>2026-04-26T11:32:51.999Z</time></trkpt><trkpt lat="42.57680515482328" lon="12.013644147546396"><ele>421.8</ele><time>2026-04-26T11:32:53.999Z</time></trkpt><trkpt lat="42.5768262112489" lon="12.013740216199283"><ele>422.2</ele><time>2026-04-26T11:32:55.999Z</time></trkpt><trkpt lat="42.57688453236658" lon="12.01384006750857"><ele>422.59999999999997</ele><time>2026-04-26T11:32:57.999Z</time></trkpt><trkpt lat="42.57695072676401" lon="12.01393538682996"><ele>423.0</ele><time>2026-04-26T11:32:59.999Z</time></trkpt><trkpt lat="42.577014265792" lon="12.013986124742221"><ele>422.5</ele><time>2026-04-26T11:33:03.999Z</time></trkpt><trkpt lat="42.577064566748916" lon="12.01405071071754"><ele>422.0</ele><time>2026-04-26T11:33:06.999Z</time></trkpt><trkpt lat="42.57711834398693" lon="12.014136132874388"><ele>421.5</ele><time>2026-04-26T11:33:11Z</time></trkpt><trkpt lat="42.57716051585673" lon="12.014219515081484"><ele>421.0</ele><time>2026-04-26T11:33:13Z</time></trkpt><trkpt lat="42.57717892079623" lon="12.014325123973732"><ele>420.5</ele><time>2026-04-26T11:33:15Z</time></trkpt><trkpt lat="42.57715899404359" lon="12.01443183692746"><ele>420.0</ele><time>2026-04-26T11:33:17Z</time></trkpt><trkpt lat="42.5771159510863" lon="12.014527602192127"><ele>420.0</ele><time>2026-04-26T11:33:19Z</time></trkpt><trkpt lat="42.577091416944086" lon="12.014615194215327"><ele>420.0</ele><time>2026-04-26T11:33:21Z</time></trkpt><trkpt lat="42.57711933505385" lon="12.014729671553136"><ele>420.0</ele><time>2026-04-26T11:33:24Z</time></trkpt><trkpt lat="42.57718964465275" lon="12.014765573750415"><ele>420.0</ele><time>2026-04-26T11:33:26Z</time></trkpt><trkpt lat="42.57725609062507" lon="12.014788325247046"><ele>420.0</ele><time>2026-04-26T11:33:28Z</time></trkpt><trkpt lat="42.57733132435365" lon="12.01482595760863"><ele>420.0</ele><time>2026-04-26T11:33:30Z</time></trkpt><trkpt lat="42.577406953260635" lon="12.014907862416086"><ele>420.8</ele><time>2026-04-26T11:33:32Z</time></trkpt><trkpt lat="42.57748808343749" lon="12.015007871381608"><ele>421.6</ele><time>2026-04-26T11:33:34Z</time></trkpt><trkpt lat="42.577568108542266" lon="12.01510577394846"><ele>422.4</ele><time>2026-04-26T11:33:36Z</time></trkpt><trkpt lat="42.57764450133086" lon="12.015198425304565"><ele>423.2</ele><time>2026-04-26T11:33:38Z</time></trkpt><trkpt lat="42.57771256201362" lon="12.015281135878983"><ele>424.0</ele><time>2026-04-26T11:33:40Z</time></trkpt><trkpt lat="42.57778104305078" lon="12.015341443677714"><ele>424.50000000000006</ele><time>2026-04-26T11:33:43Z</time></trkpt><trkpt lat="42.577853883643755" lon="12.015308080312373"><ele>425.0</ele><time>2026-04-26T11:33:45Z</time></trkpt><trkpt lat="42.57792068711758" lon="12.015230255548605"><ele>425.5</ele><time>2026-04-26T11:33:47Z</time></trkpt><trkpt lat="42.57797981979945" lon="12.015160433787086"><ele>426.0</ele><time>2026-04-26T11:33:49Z</time></trkpt><trkpt lat="42.578043357706754" lon="12.015118042084659"><ele>426.50000000000006</ele><time>2026-04-26T11:33:51Z</time></trkpt><trkpt lat="42.5781068302241" lon="12.01506629878621"><ele>427.0</ele><time>2026-04-26T11:33:53Z</time></trkpt><trkpt lat="42.578188368454896" lon="12.014979064319768"><ele>425.40000000000003</ele><time>2026-04-26T11:33:55Z</time></trkpt><trkpt lat="42.57826476107264" lon="12.014912871346558"><ele>423.80000000000007</ele><time>2026-04-26T11:33:57Z</time></trkpt><trkpt lat="42.57834387435066" lon="12.014833117762528"><ele>422.2</ele><time>2026-04-26T11:33:59Z</time></trkpt><trkpt lat="42.57843234169691" lon="12.014760810021222"><ele>420.6</ele><time>2026-04-26T11:34:01Z</time></trkpt><trkpt lat="42.5785283332757" lon="12.014693985102141"><ele>419.0</ele><time>2026-04-26T11:34:03Z</time></trkpt><trkpt lat="42.578618633483785" lon="12.014605625216735"><ele>419.0</ele><time>2026-04-26T11:34:05Z</time></trkpt><trkpt lat="42.578678940876976" lon="12.014538693335195"><ele>419.0</ele><time>2026-04-26T11:34:07Z</time></trkpt><trkpt lat="42.578748969640394" lon="12.014477060727398"><ele>419.0</ele><time>2026-04-26T11:34:09Z</time></trkpt><trkpt lat="42.578828331682125" lon="12.014400918342881"><ele>419.0</ele><time>2026-04-26T11:34:11Z</time></trkpt><trkpt lat="42.57890598171889" lon="12.014334508891197"><ele>419.0</ele><time>2026-04-26T11:34:13Z</time></trkpt><trkpt lat="42.57900491179067" lon="12.014251428097912"><ele>418.79999999999995</ele><time>2026-04-26T11:34:15Z</time></trkpt><trkpt lat="42.579089383780214" lon="12.014179875394287"><ele>418.59999999999997</ele><time>2026-04-26T11:34:17Z</time></trkpt><trkpt lat="42.57917876324216" lon="12.014105037895641"><ele>418.4</ele><time>2026-04-26T11:34:19Z</time></trkpt><trkpt lat="42.5792655809422" lon="12.014028262036296"><ele>418.2</ele><time>2026-04-26T11:34:21Z</time></trkpt><trkpt lat="42.579355389793115" lon="12.01396101031249"><ele>418.0</ele><time>2026-04-26T11:34:23Z</time></trkpt><trkpt lat="42.579442844308616" lon="12.013884941930009"><ele>419.2</ele><time>2026-04-26T11:34:25Z</time></trkpt><trkpt lat="42.57954036627624" lon="12.013797593064618"><ele>420.4</ele><time>2026-04-26T11:34:27Z</time></trkpt><trkpt lat="42.57963369352369" lon="12.013718472924904"><ele>421.59999999999997</ele><time>2026-04-26T11:34:29Z</time></trkpt><trkpt lat="42.579717921696066" lon="12.013637731810107"><ele>422.79999999999995</ele><time>2026-04-26T11:34:31Z</time></trkpt><trkpt lat="42.57980492133829" lon="12.01355628623524"><ele>424.0</ele><time>2026-04-26T11:34:32.999Z</time></trkpt><trkpt lat="42.579893247980806" lon="12.013466118483773"><ele>424.0</ele><time>2026-04-26T11:34:34.999Z</time></trkpt><trkpt lat="42.57997367975923" lon="12.013384239033954"><ele>424.0</ele><time>2026-04-26T11:34:36.999Z</time></trkpt><trkpt lat="42.580055862456305" lon="12.013298029061213"><ele>424.0</ele><time>2026-04-26T11:34:38.999Z</time></trkpt><trkpt lat="42.580137681316785" lon="12.013214154104258"><ele>424.0</ele><time>2026-04-26T11:34:40.999Z</time></trkpt><trkpt lat="42.58022257421447" lon="12.013124526421805"><ele>424.0</ele><time>2026-04-26T11:34:42.999Z</time></trkpt><trkpt lat="42.58030162455262" lon="12.013041500147892"><ele>423.6</ele><time>2026-04-26T11:34:44.999Z</time></trkpt><trkpt lat="42.58038496809837" lon="12.012953446431263"><ele>423.2</ele><time>2026-04-26T11:34:46.999Z</time></trkpt><trkpt lat="42.58046439169613" lon="12.01287141201962"><ele>422.8</ele><time>2026-04-26T11:34:48.999Z</time></trkpt><trkpt lat="42.58054245589855" lon="12.012789969627953"><ele>422.40000000000003</ele><time>2026-04-26T11:34:50.999Z</time></trkpt><trkpt lat="42.58061167472353" lon="12.012717196761312"><ele>422.0</ele><time>2026-04-26T11:34:52.999Z</time></trkpt><trkpt lat="42.580689905279804" lon="12.01264217250906"><ele>422.0</ele><time>2026-04-26T11:34:54.999Z</time></trkpt><trkpt lat="42.58076663054164" lon="12.012557865429239"><ele>422.0</ele><time>2026-04-26T11:34:56.999Z</time></trkpt><trkpt lat="42.58084503966409" lon="12.012472618456856"><ele>422.0</ele><time>2026-04-26T11:34:58.999Z</time></trkpt><trkpt lat="42.580920498755155" lon="12.012395667351528"><ele>422.0</ele><time>2026-04-26T11:35:00.999Z</time></trkpt><trkpt lat="42.58099447263056" lon="12.012324592131984"><ele>422.0</ele><time>2026-04-26T11:35:02.999Z</time></trkpt><trkpt lat="42.581060186497005" lon="12.012263671251683"><ele>421.20000000000005</ele><time>2026-04-26T11:35:04.999Z</time></trkpt><trkpt lat="42.581063219010005" lon="12.012176862641153"><ele>420.4</ele><time>2026-04-26T11:35:09.999Z</time></trkpt><trkpt lat="42.580989585210794" lon="12.012044004576241"><ele>419.6</ele><time>2026-04-26T11:35:11.999Z</time></trkpt><trkpt lat="42.58090970118283" lon="12.011935952252196"><ele>418.79999999999995</ele><time>2026-04-26T11:35:13.999Z</time></trkpt><trkpt lat="42.58081374004467" lon="12.011814306666338"><ele>418.0</ele><time>2026-04-26T11:35:16Z</time></trkpt><trkpt lat="42.580758406852226" lon="12.01175599101403"><ele>418.00000000000006</ele><time>2026-04-26T11:35:17Z</time></trkpt><trkpt lat="42.580699877557024" lon="12.011707616284992"><ele>418.0</ele><time>2026-04-26T11:35:18Z</time></trkpt><trkpt lat="42.58063285152482" lon="12.011687195181022"><ele>418.0</ele><time>2026-04-26T11:35:19Z</time></trkpt><trkpt lat="42.58058752222325" lon="12.011620161720343"><ele>418.0</ele><time>2026-04-26T11:35:20Z</time></trkpt><trkpt lat="42.58049963771167" lon="12.011492892305123"><ele>418.00000000000006</ele><time>2026-04-26T11:35:22Z</time></trkpt><trkpt lat="42.58046654692613" lon="12.011406168595565"><ele>418.0</ele><time>2026-04-26T11:35:23Z</time></trkpt><trkpt lat="42.58042634661766" lon="12.01133060331069"><ele>418.0</ele><time>2026-04-26T11:35:24Z</time></trkpt><trkpt lat="42.58044619950245" lon="12.01124052672903"><ele>418.0</ele><time>2026-04-26T11:35:25Z</time></trkpt><trkpt lat="42.58053296164917" lon="12.011086776705538"><ele>418.0</ele><time>2026-04-26T11:35:27Z</time></trkpt><trkpt lat="42.58059632105792" lon="12.010960761652834"><ele>418.0</ele><time>2026-04-26T11:35:28Z</time></trkpt><trkpt lat="42.580653835195854" lon="12.0108487997705"><ele>418.0</ele><time>2026-04-26T11:35:29Z</time></trkpt><trkpt lat="42.58069408269964" lon="12.010770450536269"><ele>418.0</ele><time>2026-04-26T11:35:30Z</time></trkpt><trkpt lat="42.580753687293125" lon="12.010667334556759"><ele>418.0</ele><time>2026-04-26T11:35:33Z</time></trkpt><trkpt lat="42.58082906084986" lon="12.010742671819973"><ele>418.0</ele><time>2026-04-26T11:35:35Z</time></trkpt><trkpt lat="42.58087920940145" lon="12.010804459530956"><ele>418.0</ele><time>2026-04-26T11:35:36Z</time></trkpt><trkpt lat="42.58100955983609" lon="12.010910690141321"><ele>418.0</ele><time>2026-04-26T11:35:38Z</time></trkpt><trkpt lat="42.58110478714382" lon="12.010994223943724"><ele>421.33333333333337</ele><time>2026-04-26T11:35:39Z</time></trkpt><trkpt lat="42.5812233577804" lon="12.011096946922134"><ele>424.66666666666663</ele><time>2026-04-26T11:35:40Z</time></trkpt><trkpt lat="42.581361400068374" lon="12.011198803371203"><ele>428.0</ele><time>2026-04-26T11:35:41Z</time></trkpt><trkpt lat="42.58150824028747" lon="12.01131134348267"><ele>428.0</ele><time>2026-04-26T11:35:42Z</time></trkpt><trkpt lat="42.58166942619761" lon="12.01141350189721"><ele>428.0</ele><time>2026-04-26T11:35:43Z</time></trkpt><trkpt lat="42.58182925597444" lon="12.011530187014138"><ele>428.0</ele><time>2026-04-26T11:35:44Z</time></trkpt><trkpt lat="42.58199998330811" lon="12.011678085499002"><ele>429.3333333333333</ele><time>2026-04-26T11:35:45Z</time></trkpt><trkpt lat="42.582166501543995" lon="12.011803316218199"><ele>430.66666666666663</ele><time>2026-04-26T11:35:46Z</time></trkpt><trkpt lat="42.58232488275132" lon="12.011921149723069"><ele>432.0</ele><time>2026-04-26T11:35:47Z</time></trkpt><trkpt lat="42.5824797295509" lon="12.012035313244946"><ele>432.0</ele><time>2026-04-26T11:35:48Z</time></trkpt><trkpt lat="42.58262581805863" lon="12.012143019560474"><ele>432.0</ele><time>2026-04-26T11:35:49Z</time></trkpt><trkpt lat="42.58274853863221" lon="12.012234146547156"><ele>432.0</ele><time>2026-04-26T11:35:50Z</time></trkpt><trkpt lat="42.58287292791631" lon="12.01233109244664"><ele>432.0</ele><time>2026-04-26T11:35:51Z</time></trkpt><trkpt lat="42.582991036441115" lon="12.012426614160136"><ele>434.0</ele><time>2026-04-26T11:35:52Z</time></trkpt><trkpt lat="42.58311672094214" lon="12.012531516381905"><ele>436.0</ele><time>2026-04-26T11:35:53Z</time></trkpt><trkpt lat="42.58323112129285" lon="12.012630851628407"><ele>438.0</ele><time>2026-04-26T11:35:54Z</time></trkpt><trkpt lat="42.583333141308266" lon="12.012721074228315"><ele>440.0</ele><time>2026-04-26T11:35:55Z</time></trkpt><trkpt lat="42.583430692461626" lon="12.012810799161047"><ele>440.0</ele><time>2026-04-26T11:35:56Z</time></trkpt><trkpt lat="42.58353357012672" lon="12.012906446656594"><ele>440.0</ele><time>2026-04-26T11:35:57Z</time></trkpt><trkpt lat="42.583629315173994" lon="12.012996315240835"><ele>440.0</ele><time>2026-04-26T11:35:58Z</time></trkpt><trkpt lat="42.58372390145077" lon="12.013085096160124"><ele>440.0</ele><time>2026-04-26T11:35:59Z</time></trkpt><trkpt lat="42.583833314024574" lon="12.01317519731769"><ele>442.75</ele><time>2026-04-26T11:36:00Z</time></trkpt><trkpt lat="42.5839410168509" lon="12.013277056326002"><ele>445.5</ele><time>2026-04-26T11:36:01Z</time></trkpt><trkpt lat="42.58404223460369" lon="12.013406573707611"><ele>448.25</ele><time>2026-04-26T11:36:02Z</time></trkpt><trkpt lat="42.5841600380543" lon="12.013529154582093"><ele>451.0</ele><time>2026-04-26T11:36:03Z</time></trkpt><trkpt lat="42.58440480452282" lon="12.013783847341138"><ele>452.33333333333337</ele><time>2026-04-26T11:36:05Z</time></trkpt><trkpt lat="42.584528506667915" lon="12.013893868337316"><ele>453.66666666666663</ele><time>2026-04-26T11:36:06Z</time></trkpt><trkpt lat="42.584653772871945" lon="12.014027516667728"><ele>455.0</ele><time>2026-04-26T11:36:07Z</time></trkpt><trkpt lat="42.58478217245399" lon="12.014158653857605"><ele>455.0</ele><time>2026-04-26T11:36:08Z</time></trkpt><trkpt lat="42.58491845867584" lon="12.014290171563076"><ele>455.0</ele><time>2026-04-26T11:36:09Z</time></trkpt><trkpt lat="42.58504346858384" lon="12.014446768004635"><ele>455.0</ele><time>2026-04-26T11:36:10Z</time></trkpt><trkpt lat="42.5851815690723" lon="12.014561290640053"><ele>455.0</ele><time>2026-04-26T11:36:11Z</time></trkpt><trkpt lat="42.58530862604231" lon="12.014699417866114"><ele>455.0</ele><time>2026-04-26T11:36:12Z</time></trkpt><trkpt lat="42.58542764398235" lon="12.014833986990194"><ele>455.0</ele><time>2026-04-26T11:36:13Z</time></trkpt><trkpt lat="42.58556325080499" lon="12.014971914879613"><ele>456.0</ele><time>2026-04-26T11:36:14Z</time></trkpt><trkpt lat="42.58568158179316" lon="12.01509301056092"><ele>457.0</ele><time>2026-04-26T11:36:15Z</time></trkpt><trkpt lat="42.58578926722401" lon="12.015208091632937"><ele>458.0</ele><time>2026-04-26T11:36:16Z</time></trkpt><trkpt lat="42.5858850003216" lon="12.015326268707161"><ele>459.0</ele><time>2026-04-26T11:36:17Z</time></trkpt><trkpt lat="42.58596685390741" lon="12.015454358131912"><ele>459.0</ele><time>2026-04-26T11:36:18Z</time></trkpt><trkpt lat="42.58603758420457" lon="12.015603250297065"><ele>459.0</ele><time>2026-04-26T11:36:19Z</time></trkpt><trkpt lat="42.586090656185796" lon="12.015771721542649"><ele>459.0</ele><time>2026-04-26T11:36:20Z</time></trkpt><trkpt lat="42.58613797400792" lon="12.015928247029253"><ele>459.0</ele><time>2026-04-26T11:36:21Z</time></trkpt><trkpt lat="42.58617791474723" lon="12.016063193405143"><ele>459.0</ele><time>2026-04-26T11:36:22Z</time></trkpt><trkpt lat="42.586192556627324" lon="12.01621302994377"><ele>459.0</ele><time>2026-04-26T11:36:23Z</time></trkpt><trkpt lat="42.58619251422595" lon="12.016349462133794"><ele>459.0</ele><time>2026-04-26T11:36:24Z</time></trkpt><trkpt lat="42.58619037547017" lon="12.01647854626891"><ele>459.0</ele><time>2026-04-26T11:36:25Z</time></trkpt><trkpt lat="42.5861749179188" lon="12.01657361482492"><ele>459.0</ele><time>2026-04-26T11:36:26Z</time></trkpt><trkpt lat="42.58614030033636" lon="12.016670240896733"><ele>460.2</ele><time>2026-04-26T11:36:27Z</time></trkpt><trkpt lat="42.58611183641453" lon="12.016763569417371"><ele>461.4</ele><time>2026-04-26T11:36:28Z</time></trkpt><trkpt lat="42.586110821732625" lon="12.01686762320245"><ele>462.6</ele><time>2026-04-26T11:36:30Z</time></trkpt><trkpt lat="42.58628092194595" lon="12.01681678149305"><ele>463.8</ele><time>2026-04-26T11:36:32.999Z</time></trkpt><trkpt lat="42.58634590244227" lon="12.016751137890829"><ele>465.0</ele><time>2026-04-26T11:36:33.999Z</time></trkpt><trkpt lat="42.586432970429065" lon="12.01662421955669"><ele>465.0</ele><time>2026-04-26T11:36:34.999Z</time></trkpt><trkpt lat="42.586529580975366" lon="12.016445038397594"><ele>465.0</ele><time>2026-04-26T11:36:35.999Z</time></trkpt><trkpt lat="42.586614716543814" lon="12.016278124572318"><ele>465.0</ele><time>2026-04-26T11:36:36.999Z</time></trkpt><trkpt lat="42.58667391206386" lon="12.016165028333237"><ele>465.0</ele><time>2026-04-26T11:36:37.999Z</time></trkpt><trkpt lat="42.58677222179778" lon="12.015977202326573"><ele>465.0</ele><time>2026-04-26T11:36:38.999Z</time></trkpt><trkpt lat="42.5868421284107" lon="12.01583799991985"><ele>465.0</ele><time>2026-04-26T11:36:39.999Z</time></trkpt><trkpt lat="42.586912892751194" lon="12.015690456302808"><ele>465.0</ele><time>2026-04-26T11:36:40.999Z</time></trkpt><trkpt lat="42.58698212432767" lon="12.015544769408395"><ele>465.0</ele><time>2026-04-26T11:36:41.999Z</time></trkpt><trkpt lat="42.587057146176065" lon="12.015397866093883"><ele>466.25</ele><time>2026-04-26T11:36:42.999Z</time></trkpt><trkpt lat="42.58713705847861" lon="12.015253319835562"><ele>467.5</ele><time>2026-04-26T11:36:43.999Z</time></trkpt><trkpt lat="42.58721655195105" lon="12.015114424001906"><ele>468.75</ele><time>2026-04-26T11:36:44.999Z</time></trkpt><trkpt lat="42.58729213821331" lon="12.014984230205037"><ele>470.0</ele><time>2026-04-26T11:36:45.999Z</time></trkpt><trkpt lat="42.587363704897236" lon="12.01486357537842"><ele>470.6</ele><time>2026-04-26T11:36:46.999Z</time></trkpt><trkpt lat="42.58742990783533" lon="12.014751963457545"><ele>471.2</ele><time>2026-04-26T11:36:47.999Z</time></trkpt><trkpt lat="42.587492116291166" lon="12.014647085820167"><ele>471.79999999999995</ele><time>2026-04-26T11:36:48.999Z</time></trkpt><trkpt lat="42.587557432053245" lon="12.014537381462903"><ele>472.4</ele><time>2026-04-26T11:36:49.999Z</time></trkpt><trkpt lat="42.58761871914368" lon="12.014435908388077"><ele>473.0</ele><time>2026-04-26T11:36:50.999Z</time></trkpt><trkpt lat="42.5876838521222" lon="12.014328067986675"><ele>473.0</ele><time>2026-04-26T11:36:51.999Z</time></trkpt><trkpt lat="42.58774474363102" lon="12.014228876989662"><ele>472.99999999999994</ele><time>2026-04-26T11:36:52.999Z</time></trkpt><trkpt lat="42.58780553900455" lon="12.014130518733989"><ele>472.99999999999994</ele><time>2026-04-26T11:36:53.999Z</time></trkpt><trkpt lat="42.587858035885226" lon="12.014045585753673"><ele>473.0</ele><time>2026-04-26T11:36:54.999Z</time></trkpt><trkpt lat="42.58790838559682" lon="12.013964126854736"><ele>473.0</ele><time>2026-04-26T11:36:56.999Z</time></trkpt><trkpt lat="42.58796263261554" lon="12.013843387456184"><ele>473.0</ele><time>2026-04-26T11:36:58.999Z</time></trkpt><trkpt lat="42.588012727213375" lon="12.013784924521355"><ele>472.99999999999994</ele><time>2026-04-26T11:36:59.999Z</time></trkpt><trkpt lat="42.58807043279275" lon="12.01369921169185"><ele>472.99999999999994</ele><time>2026-04-26T11:37:00.999Z</time></trkpt><trkpt lat="42.58813681910536" lon="12.013586924311872"><ele>473.0</ele><time>2026-04-26T11:37:02.999Z</time></trkpt><trkpt lat="42.5881956285084" lon="12.013487050297105"><ele>473.0</ele><time>2026-04-26T11:37:04.999Z</time></trkpt><trkpt lat="42.58825609520405" lon="12.013378846992241"><ele>472.8333333333333</ele><time>2026-04-26T11:37:06.999Z</time></trkpt><trkpt lat="42.58833081867323" lon="12.013239435209886"><ele>472.66666666666663</ele><time>2026-04-26T11:37:08.999Z</time></trkpt><trkpt lat="42.58837103401088" lon="12.013162182025596"><ele>472.5</ele><time>2026-04-26T11:37:09.999Z</time></trkpt><trkpt lat="42.588408269910275" lon="12.013088752444672"><ele>472.33333333333337</ele><time>2026-04-26T11:37:10.999Z</time></trkpt><trkpt lat="42.588448929052596" lon="12.013008451833254"><ele>472.1666666666667</ele><time>2026-04-26T11:37:11.999Z</time></trkpt><trkpt lat="42.58848660786791" lon="12.012934037280026"><ele>472.0</ele><time>2026-04-26T11:37:12.999Z</time></trkpt><trkpt lat="42.58852835434597" lon="12.012851589214902"><ele>472.00000000000006</ele><time>2026-04-26T11:37:13.999Z</time></trkpt><trkpt lat="42.588567495866066" lon="12.012776990945037"><ele>472.0</ele><time>2026-04-26T11:37:14.999Z</time></trkpt><trkpt lat="42.588644673038885" lon="12.012633766591327"><ele>472.0</ele><time>2026-04-26T11:37:16.999Z</time></trkpt><trkpt lat="42.58868878302961" lon="12.012551907840866"><ele>472.0</ele><time>2026-04-26T11:37:17.999Z</time></trkpt><trkpt lat="42.58873394218057" lon="12.012468102108317"><ele>472.00000000000006</ele><time>2026-04-26T11:37:18.999Z</time></trkpt><trkpt lat="42.5887853962038" lon="12.012373586980324"><ele>472.0</ele><time>2026-04-26T11:37:19.999Z</time></trkpt><trkpt lat="42.588839455562265" lon="12.012281718568284"><ele>470.1666666666667</ele><time>2026-04-26T11:37:20.999Z</time></trkpt><trkpt lat="42.58888561548892" lon="12.012209857714415"><ele>468.33333333333337</ele><time>2026-04-26T11:37:22Z</time></trkpt><trkpt lat="42.588954210033805" lon="12.012121430487364"><ele>466.5</ele><time>2026-04-26T11:37:24Z</time></trkpt><trkpt lat="42.589014033351035" lon="12.012061461493435"><ele>464.66666666666663</ele><time>2026-04-26T11:37:27Z</time></trkpt><trkpt lat="42.589071169520885" lon="12.012017589827433"><ele>462.8333333333333</ele><time>2026-04-26T11:37:29Z</time></trkpt><trkpt lat="42.589179028617" lon="12.011951873765286"><ele>461.0</ele><time>2026-04-26T11:37:31Z</time></trkpt><trkpt lat="42.58925086354843" lon="12.011908707270702"><ele>461.0</ele><time>2026-04-26T11:37:32Z</time></trkpt><trkpt lat="42.58931676079373" lon="12.011862199387544"><ele>461.00000000000006</ele><time>2026-04-26T11:37:33Z</time></trkpt><trkpt lat="42.58937676740147" lon="12.011812636044056"><ele>461.0</ele><time>2026-04-26T11:37:34Z</time></trkpt><trkpt lat="42.589435627669296" lon="12.011761456695156"><ele>461.0</ele><time>2026-04-26T11:37:35Z</time></trkpt><trkpt lat="42.58949231813636" lon="12.01171115638562"><ele>461.00000000000006</ele><time>2026-04-26T11:37:36Z</time></trkpt><trkpt lat="42.58955139852535" lon="12.011650540028718"><ele>461.0</ele><time>2026-04-26T11:37:37Z</time></trkpt><trkpt lat="42.5896166115529" lon="12.011571685444615"><ele>461.0</ele><time>2026-04-26T11:37:38Z</time></trkpt><trkpt lat="42.58967165303039" lon="12.011494443409257"><ele>460.49999999999994</ele><time>2026-04-26T11:37:39Z</time></trkpt><trkpt lat="42.58972788570279" lon="12.011408279834734"><ele>460.0</ele><time>2026-04-26T11:37:40Z</time></trkpt><trkpt lat="42.58977968575731" lon="12.011320646171498"><ele>459.5</ele><time>2026-04-26T11:37:41Z</time></trkpt><trkpt lat="42.58982743522886" lon="12.011231410950181"><ele>459.0</ele><time>2026-04-26T11:37:42Z</time></trkpt><trkpt lat="42.58986705822992" lon="12.011144476888548"><ele>458.49999999999994</ele><time>2026-04-26T11:37:43Z</time></trkpt><trkpt lat="42.589898723041905" lon="12.01106131799234"><ele>458.0</ele><time>2026-04-26T11:37:44Z</time></trkpt><trkpt lat="42.58992203811138" lon="12.01097521634098"><ele>458.0</ele><time>2026-04-26T11:37:45Z</time></trkpt><trkpt lat="42.589928857914714" lon="12.010887004394165"><ele>457.99999999999994</ele><time>2026-04-26T11:37:46Z</time></trkpt><trkpt lat="42.58992635275858" lon="12.010723013463693"><ele>457.99999999999994</ele><time>2026-04-26T11:37:48Z</time></trkpt><trkpt lat="42.58994041043042" lon="12.010575584949356"><ele>458.0</ele><time>2026-04-26T11:37:50Z</time></trkpt><trkpt lat="42.5900017683268" lon="12.010479919788544"><ele>458.0</ele><time>2026-04-26T11:37:52Z</time></trkpt><trkpt lat="42.590092604287314" lon="12.010367785321186"><ele>457.3333333333333</ele><time>2026-04-26T11:37:54Z</time></trkpt><trkpt lat="42.59014913519965" lon="12.010302649349674"><ele>456.66666666666663</ele><time>2026-04-26T11:37:55Z</time></trkpt><trkpt lat="42.5902058861221" lon="12.010239139278713"><ele>456.0</ele><time>2026-04-26T11:37:56Z</time></trkpt><trkpt lat="42.59027165375673" lon="12.010165538549863"><ele>455.33333333333337</ele><time>2026-04-26T11:37:57Z</time></trkpt><trkpt lat="42.59033638897723" lon="12.01009144228061"><ele>454.6666666666667</ele><time>2026-04-26T11:37:58Z</time></trkpt><trkpt lat="42.59040649212269" lon="12.010010607469162"><ele>454.0</ele><time>2026-04-26T11:37:59Z</time></trkpt><trkpt lat="42.59047677038872" lon="12.009929570731057"><ele>453.4</ele><time>2026-04-26T11:38:00Z</time></trkpt><trkpt lat="42.59054715399187" lon="12.009848434910198"><ele>452.79999999999995</ele><time>2026-04-26T11:38:01Z</time></trkpt><trkpt lat="42.59062225125257" lon="12.009761886741808"><ele>452.20000000000005</ele><time>2026-04-26T11:38:02Z</time></trkpt><trkpt lat="42.5907029537686" lon="12.009668878665796"><ele>451.6</ele><time>2026-04-26T11:38:03Z</time></trkpt><trkpt lat="42.59078113233294" lon="12.00957923269964"><ele>451.0</ele><time>2026-04-26T11:38:04Z</time></trkpt><trkpt lat="42.59086284903991" lon="12.009486646597248"><ele>451.0</ele><time>2026-04-26T11:38:05Z</time></trkpt><trkpt lat="42.59093836848728" lon="12.009401542718452"><ele>451.0</ele><time>2026-04-26T11:38:06Z</time></trkpt><trkpt lat="42.59101093617585" lon="12.009321750278998"><ele>451.0</ele><time>2026-04-26T11:38:07Z</time></trkpt><trkpt lat="42.59108422736427" lon="12.00924226893727"><ele>451.0</ele><time>2026-04-26T11:38:08Z</time></trkpt><trkpt lat="42.59115105987911" lon="12.009170380296345"><ele>451.0</ele><time>2026-04-26T11:38:09Z</time></trkpt><trkpt lat="42.591216564574566" lon="12.009099919926744"><ele>450.83333333333337</ele><time>2026-04-26T11:38:10Z</time></trkpt><trkpt lat="42.59128338558359" lon="12.00903133694846"><ele>450.6666666666667</ele><time>2026-04-26T11:38:11Z</time></trkpt><trkpt lat="42.59134859952389" lon="12.008964263421358"><ele>450.5</ele><time>2026-04-26T11:38:12Z</time></trkpt><trkpt lat="42.59141601527729" lon="12.008894925314793"><ele>450.33333333333337</ele><time>2026-04-26T11:38:13Z</time></trkpt><trkpt lat="42.591480602010115" lon="12.00883065361047"><ele>450.1666666666667</ele><time>2026-04-26T11:38:14Z</time></trkpt><trkpt lat="42.59153978585487" lon="12.008773153690537"><ele>450.0</ele><time>2026-04-26T11:38:15Z</time></trkpt><trkpt lat="42.59159843519464" lon="12.008717733936399"><ele>450.0</ele><time>2026-04-26T11:38:16Z</time></trkpt><trkpt lat="42.59165209305624" lon="12.00866877638986"><ele>450.0</ele><time>2026-04-26T11:38:17Z</time></trkpt><trkpt lat="42.591734558237626" lon="12.008594673913642"><ele>450.0</ele><time>2026-04-26T11:38:19Z</time></trkpt><trkpt lat="42.59179095770652" lon="12.008545749819692"><ele>450.0</ele><time>2026-04-26T11:38:21Z</time></trkpt><trkpt lat="42.59172889474172" lon="12.008408196045144"><ele>450.0</ele><time>2026-04-26T11:38:24Z</time></trkpt><trkpt lat="42.591664749312486" lon="12.008404959913793"><ele>450.0</ele><time>2026-04-26T11:38:25Z</time></trkpt><trkpt lat="42.591582874477766" lon="12.008430887216397"><ele>450.0</ele><time>2026-04-26T11:38:26Z</time></trkpt><trkpt lat="42.591508018105614" lon="12.008440483741454"><ele>450.0</ele><time>2026-04-26T11:38:28Z</time></trkpt><trkpt lat="42.5914941795293" lon="12.008268977670056"><ele>450.0</ele><time>2026-04-26T11:38:30Z</time></trkpt><trkpt lat="42.59148052503392" lon="12.00817956644629"><ele>450.0</ele><time>2026-04-26T11:38:31Z</time></trkpt><trkpt lat="42.59143106413464" lon="12.00794058331116"><ele>449.6666666666667</ele><time>2026-04-26T11:38:34Z</time></trkpt><trkpt lat="42.59143526909616" lon="12.007853951164707"><ele>449.33333333333337</ele><time>2026-04-26T11:38:35Z</time></trkpt><trkpt lat="42.59141407557012" lon="12.007693989733266"><ele>449.0</ele><time>2026-04-26T11:38:36.999Z</time></trkpt><trkpt lat="42.59140282907979" lon="12.007609105100453"><ele>448.6666666666667</ele><time>2026-04-26T11:38:37.999Z</time></trkpt><trkpt lat="42.59138145699649" lon="12.007440918004363"><ele>448.33333333333337</ele><time>2026-04-26T11:38:39.999Z</time></trkpt><trkpt lat="42.59137052363856" lon="12.00735304452438"><ele>448.0</ele><time>2026-04-26T11:38:40.999Z</time></trkpt><trkpt lat="42.59135937361697" lon="12.007263429652477"><ele>446.0</ele><time>2026-04-26T11:38:41.999Z</time></trkpt><trkpt lat="42.591339729053786" lon="12.007100413324512"><ele>444.0</ele><time>2026-04-26T11:38:43.999Z</time></trkpt><trkpt lat="42.59132086730141" lon="12.00693576264592"><ele>442.0</ele><time>2026-04-26T11:38:45.999Z</time></trkpt><trkpt lat="42.591303297416225" lon="12.006782389103435"><ele>440.0</ele><time>2026-04-26T11:38:47.999Z</time></trkpt><trkpt lat="42.591285381987944" lon="12.006627631239098"><ele>437.4</ele><time>2026-04-26T11:38:49.999Z</time></trkpt><trkpt lat="42.59126669651929" lon="12.006466800001256"><ele>434.8</ele><time>2026-04-26T11:38:51.999Z</time></trkpt><trkpt lat="42.591232461915" lon="12.006311559717773"><ele>432.20000000000005</ele><time>2026-04-26T11:38:53.999Z</time></trkpt><trkpt lat="42.59121632511063" lon="12.006168930338617"><ele>429.6</ele><time>2026-04-26T11:38:55.999Z</time></trkpt><trkpt lat="42.59119752235619" lon="12.006031882155298"><ele>427.0</ele><time>2026-04-26T11:38:57.999Z</time></trkpt><trkpt lat="42.59117620054208" lon="12.005873151924439"><ele>423.8</ele><time>2026-04-26T11:38:59.999Z</time></trkpt><trkpt lat="42.59115260973675" lon="12.005718673435952"><ele>420.6</ele><time>2026-04-26T11:39:01.999Z</time></trkpt><trkpt lat="42.591127085227384" lon="12.005566095205904"><ele>417.40000000000003</ele><time>2026-04-26T11:39:03.999Z</time></trkpt><trkpt lat="42.59110119064599" lon="12.005435733474958"><ele>414.20000000000005</ele><time>2026-04-26T11:39:05.999Z</time></trkpt><trkpt lat="42.59108857973987" lon="12.005336925392248"><ele>411.0</ele><time>2026-04-26T11:39:07.999Z</time></trkpt><trkpt lat="42.591068533019396" lon="12.005215240898606"><ele>411.0</ele><time>2026-04-26T11:39:09.999Z</time></trkpt><trkpt lat="42.59104607008358" lon="12.005087243634854"><ele>411.0</ele><time>2026-04-26T11:39:11.999Z</time></trkpt><trkpt lat="42.59102971604922" lon="12.004997543555966"><ele>411.0</ele><time>2026-04-26T11:39:13.999Z</time></trkpt><trkpt lat="42.591027117542495" lon="12.004879083594822"><ele>411.0</ele><time>2026-04-26T11:39:15.999Z</time></trkpt><trkpt lat="42.59100362141074" lon="12.004736316954702"><ele>411.0</ele><time>2026-04-26T11:39:17.999Z</time></trkpt><trkpt lat="42.59096763603519" lon="12.004591623089897"><ele>409.6</ele><time>2026-04-26T11:39:19.999Z</time></trkpt><trkpt lat="42.590942213415865" lon="12.004436564493828"><ele>408.20000000000005</ele><time>2026-04-26T11:39:21.999Z</time></trkpt><trkpt lat="42.59091564058224" lon="12.00428288289858"><ele>406.79999999999995</ele><time>2026-04-26T11:39:23.999Z</time></trkpt><trkpt lat="42.590905402328865" lon="12.004131953350923"><ele>405.4</ele><time>2026-04-26T11:39:25.999Z</time></trkpt><trkpt lat="42.59088394100215" lon="12.003996094932537"><ele>404.0</ele><time>2026-04-26T11:39:28Z</time></trkpt><trkpt lat="42.59086262051785" lon="12.003861128008474"><ele>403.0</ele><time>2026-04-26T11:39:30Z</time></trkpt><trkpt lat="42.590841475197195" lon="12.003727270028573"><ele>402.0</ele><time>2026-04-26T11:39:32Z</time></trkpt><trkpt lat="42.590823310825186" lon="12.003612097127675"><ele>401.0</ele><time>2026-04-26T11:39:34Z</time></trkpt><trkpt lat="42.59079639687845" lon="12.00344123083801"><ele>400.0</ele><time>2026-04-26T11:39:36Z</time></trkpt><trkpt lat="42.59078111316886" lon="12.003344200449147"><ele>399.0</ele><time>2026-04-26T11:39:37Z</time></trkpt><trkpt lat="42.590766277409436" lon="12.003250013943946"><ele>398.79999999999995</ele><time>2026-04-26T11:39:38Z</time></trkpt><trkpt lat="42.59075032272492" lon="12.00314872381364"><ele>398.59999999999997</ele><time>2026-04-26T11:39:39Z</time></trkpt><trkpt lat="42.590723610518936" lon="12.003053258966641"><ele>398.4</ele><time>2026-04-26T11:39:40Z</time></trkpt><trkpt lat="42.59072186663576" lon="12.002962551620604"><ele>398.2</ele><time>2026-04-26T11:39:41Z</time></trkpt><trkpt lat="42.59068445378803" lon="12.002807364251284"><ele>398.0</ele><time>2026-04-26T11:39:43Z</time></trkpt><trkpt lat="42.5906602015678" lon="12.002655528460968"><ele>398.0</ele><time>2026-04-26T11:39:45Z</time></trkpt><trkpt lat="42.59063975041897" lon="12.002506918759597"><ele>398.0</ele><time>2026-04-26T11:39:47Z</time></trkpt><trkpt lat="42.59062367308031" lon="12.002374387848327"><ele>398.0</ele><time>2026-04-26T11:39:49Z</time></trkpt><trkpt lat="42.59061962956216" lon="12.00223429121754"><ele>398.0</ele><time>2026-04-26T11:39:51Z</time></trkpt><trkpt lat="42.59058704661504" lon="12.002102192134512"><ele>398.0</ele><time>2026-04-26T11:39:53Z</time></trkpt><trkpt lat="42.59058417506678" lon="12.001968367364396"><ele>396.4</ele><time>2026-04-26T11:39:55Z</time></trkpt><trkpt lat="42.59056638603972" lon="12.00183494207035"><ele>394.79999999999995</ele><time>2026-04-26T11:39:57Z</time></trkpt><trkpt lat="42.5905490517504" lon="12.001704927530179"><ele>393.2</ele><time>2026-04-26T11:39:59Z</time></trkpt><trkpt lat="42.59052999373599" lon="12.001564876388619"><ele>391.6</ele><time>2026-04-26T11:40:01Z</time></trkpt><trkpt lat="42.590512013766364" lon="12.001434626645771"><ele>390.0</ele><time>2026-04-26T11:40:03Z</time></trkpt><trkpt lat="42.59049360037702" lon="12.00130480974264"><ele>388.5</ele><time>2026-04-26T11:40:05Z</time></trkpt><trkpt lat="42.590460558200874" lon="12.001193147886292"><ele>387.0</ele><time>2026-04-26T11:40:07Z</time></trkpt><trkpt lat="42.59044441079608" lon="12.001076153833072"><ele>385.5</ele><time>2026-04-26T11:40:09Z</time></trkpt><trkpt lat="42.59042235645675" lon="12.00091167999266"><ele>384.0</ele><time>2026-04-26T11:40:12Z</time></trkpt><trkpt lat="42.59040860765452" lon="12.000820155903893"><ele>382.5</ele><time>2026-04-26T11:40:14Z</time></trkpt><trkpt lat="42.590407984959924" lon="12.00071801286561"><ele>381.0</ele><time>2026-04-26T11:40:17Z</time></trkpt><trkpt lat="42.590568947485465" lon="12.000618760315055"><ele>379.0</ele><time>2026-04-26T11:40:22Z</time></trkpt><trkpt lat="42.59070352641325" lon="12.000628327009363"><ele>377.0</ele><time>2026-04-26T11:40:23Z</time></trkpt><trkpt lat="42.590845200614936" lon="12.000642280865865"><ele>375.0</ele><time>2026-04-26T11:40:24Z</time></trkpt><trkpt lat="42.591002132461234" lon="12.00067692980215"><ele>373.0</ele><time>2026-04-26T11:40:25Z</time></trkpt><trkpt lat="42.59117421888341" lon="12.0007135027653"><ele>371.0</ele><time>2026-04-26T11:40:26Z</time></trkpt><trkpt lat="42.59135299967887" lon="12.000744383785129"><ele>369.0</ele><time>2026-04-26T11:40:27Z</time></trkpt><trkpt lat="42.59152255656761" lon="12.000770887447516"><ele>367.0</ele><time>2026-04-26T11:40:28Z</time></trkpt><trkpt lat="42.59167859336619" lon="12.000792448834668"><ele>367.0</ele><time>2026-04-26T11:40:29Z</time></trkpt><trkpt lat="42.59183617111532" lon="12.000806538396676"><ele>367.0</ele><time>2026-04-26T11:40:30Z</time></trkpt><trkpt lat="42.59199426963148" lon="12.000810831279116"><ele>367.0</ele><time>2026-04-26T11:40:31Z</time></trkpt><trkpt lat="42.59215455273974" lon="12.000803825300977"><ele>364.3333333333333</ele><time>2026-04-26T11:40:32Z</time></trkpt><trkpt lat="42.592324394716584" lon="12.000780114749857"><ele>361.6666666666667</ele><time>2026-04-26T11:40:33Z</time></trkpt><trkpt lat="42.592495927050805" lon="12.000738970704607"><ele>359.0</ele><time>2026-04-26T11:40:34Z</time></trkpt><trkpt lat="42.59267206768537" lon="12.000699215720966"><ele>359.0</ele><time>2026-04-26T11:40:35Z</time></trkpt><trkpt lat="42.592831451989426" lon="12.00066707851105"><ele>359.0</ele><time>2026-04-26T11:40:36Z</time></trkpt><trkpt lat="42.592992796697196" lon="12.000638909944966"><ele>359.0</ele><time>2026-04-26T11:40:37Z</time></trkpt><trkpt lat="42.593151018624056" lon="12.0006130573033"><ele>358.0</ele><time>2026-04-26T11:40:38Z</time></trkpt><trkpt lat="42.59330637805242" lon="12.000587362080767"><ele>357.0</ele><time>2026-04-26T11:40:39Z</time></trkpt><trkpt lat="42.59346511514438" lon="12.0005651170002"><ele>356.0</ele><time>2026-04-26T11:40:40Z</time></trkpt><trkpt lat="42.59363005299474" lon="12.000549560711399"><ele>355.33333333333337</ele><time>2026-04-26T11:40:41Z</time></trkpt><trkpt lat="42.59379663110455" lon="12.000538705295229"><ele>354.6666666666667</ele><time>2026-04-26T11:40:42Z</time></trkpt><trkpt lat="42.593965591942975" lon="12.000522755906925"><ele>354.0</ele><time>2026-04-26T11:40:43Z</time></trkpt><trkpt lat="42.59413854337888" lon="12.000504751363003"><ele>354.0</ele><time>2026-04-26T11:40:44Z</time></trkpt><trkpt lat="42.594314409732235" lon="12.000494073662244"><ele>354.0</ele><time>2026-04-26T11:40:45Z</time></trkpt><trkpt lat="42.59448273037107" lon="12.0004836769836"><ele>354.0</ele><time>2026-04-26T11:40:46Z</time></trkpt><trkpt lat="42.59464632698524" lon="12.000474636340853"><ele>353.3333333333333</ele><time>2026-04-26T11:40:47Z</time></trkpt><trkpt lat="42.59481147236649" lon="12.000454681576016"><ele>352.66666666666663</ele><time>2026-04-26T11:40:48Z</time></trkpt><trkpt lat="42.59497786852171" lon="12.000413929678736"><ele>352.0</ele><time>2026-04-26T11:40:49Z</time></trkpt><trkpt lat="42.59515143089775" lon="12.000339814568816"><ele>352.0</ele><time>2026-04-26T11:40:50Z</time></trkpt><trkpt lat="42.59532225039526" lon="12.000233053521956"><ele>352.0</ele><time>2026-04-26T11:40:51Z</time></trkpt><trkpt lat="42.595489132283625" lon="12.000115379377785"><ele>352.0</ele><time>2026-04-26T11:40:52Z</time></trkpt><trkpt lat="42.59565104696384" lon="12.000000117875011"><ele>351.66666666666663</ele><time>2026-04-26T11:40:53Z</time></trkpt><trkpt lat="42.59580921751285" lon="11.999890420962425"><ele>351.3333333333333</ele><time>2026-04-26T11:40:53.999Z</time></trkpt><trkpt lat="42.59596525038135" lon="11.999784186256722"><ele>351.0</ele><time>2026-04-26T11:40:54.999Z</time></trkpt><trkpt lat="42.59611444543003" lon="11.99967982016192"><ele>351.0</ele><time>2026-04-26T11:40:55.999Z</time></trkpt><trkpt lat="42.596270818403376" lon="11.999581921588618"><ele>351.0</ele><time>2026-04-26T11:40:56.999Z</time></trkpt><trkpt lat="42.59642608825067" lon="11.99951280808065"><ele>351.0</ele><time>2026-04-26T11:40:57.999Z</time></trkpt><trkpt lat="42.5965937307961" lon="11.999464910965036"><ele>351.0</ele><time>2026-04-26T11:40:58.999Z</time></trkpt><trkpt lat="42.59676548708336" lon="11.999437708158322"><ele>351.0</ele><time>2026-04-26T11:40:59.999Z</time></trkpt><trkpt lat="42.59694431378634" lon="11.999425923989795"><ele>351.0</ele><time>2026-04-26T11:41:00.999Z</time></trkpt><trkpt lat="42.597134996437966" lon="11.999438168996381"><ele>350.3333333333333</ele><time>2026-04-26T11:41:01.999Z</time></trkpt><trkpt lat="42.59733346004889" lon="11.999466037266574"><ele>349.66666666666663</ele><time>2026-04-26T11:41:02.999Z</time></trkpt><trkpt lat="42.5975291469651" lon="11.999500250722278"><ele>349.0</ele><time>2026-04-26T11:41:03.999Z</time></trkpt><trkpt lat="42.597729370866205" lon="11.999533193471597"><ele>348.66666666666663</ele><time>2026-04-26T11:41:04.999Z</time></trkpt><trkpt lat="42.59792663353872" lon="11.999545063673828"><ele>348.3333333333333</ele><time>2026-04-26T11:41:05.999Z</time></trkpt><trkpt lat="42.59811964328526" lon="11.99952773539487"><ele>348.0</ele><time>2026-04-26T11:41:06.999Z</time></trkpt><trkpt lat="42.59830213254061" lon="11.999485940348594"><ele>348.0</ele><time>2026-04-26T11:41:07.999Z</time></trkpt><trkpt lat="42.598475253480736" lon="11.999423231896992"><ele>348.0</ele><time>2026-04-26T11:41:08.999Z</time></trkpt><trkpt lat="42.59863143984537" lon="11.99933695996491"><ele>348.0</ele><time>2026-04-26T11:41:09.999Z</time></trkpt><trkpt lat="42.59879407187488" lon="11.999213819780914"><ele>344.3333333333333</ele><time>2026-04-26T11:41:10.999Z</time></trkpt><trkpt lat="42.59896584752738" lon="11.999086075154201"><ele>340.66666666666663</ele><time>2026-04-26T11:41:11.999Z</time></trkpt><trkpt lat="42.59914569314465" lon="11.998969401451017"><ele>337.0</ele><time>2026-04-26T11:41:12.999Z</time></trkpt><trkpt lat="42.59931739553889" lon="11.998862603840939"><ele>337.0</ele><time>2026-04-26T11:41:13.999Z</time></trkpt><trkpt lat="42.59947240101956" lon="11.998761336943112"><ele>337.0</ele><time>2026-04-26T11:41:14.999Z</time></trkpt><trkpt lat="42.59961535438814" lon="11.998667328320504"><ele>337.0</ele><time>2026-04-26T11:41:15.999Z</time></trkpt><trkpt lat="42.599764807722885" lon="11.998589100228687"><ele>337.3333333333333</ele><time>2026-04-26T11:41:16.999Z</time></trkpt><trkpt lat="42.599927527965455" lon="11.998537316465283"><ele>337.6666666666667</ele><time>2026-04-26T11:41:17.999Z</time></trkpt><trkpt lat="42.600107232563225" lon="11.998507607633012"><ele>338.0</ele><time>2026-04-26T11:41:18.999Z</time></trkpt><trkpt lat="42.600300982701135" lon="11.99847914682836"><ele>338.6666666666667</ele><time>2026-04-26T11:41:19.999Z</time></trkpt><trkpt lat="42.6004954672198" lon="11.998439437018154"><ele>339.3333333333333</ele><time>2026-04-26T11:41:20.999Z</time></trkpt><trkpt lat="42.60069866911202" lon="11.99839415963834"><ele>340.0</ele><time>2026-04-26T11:41:21.999Z</time></trkpt><trkpt lat="42.60091199126762" lon="11.998347634542625"><ele>336.3333333333333</ele><time>2026-04-26T11:41:22.999Z</time></trkpt><trkpt lat="42.60112451051932" lon="11.998307009067426"><ele>332.6666666666667</ele><time>2026-04-26T11:41:23.999Z</time></trkpt><trkpt lat="42.6013356105519" lon="11.998275989709727"><ele>329.0</ele><time>2026-04-26T11:41:24.999Z</time></trkpt><trkpt lat="42.60153492876893" lon="11.998245385828655"><ele>329.0</ele><time>2026-04-26T11:41:25.999Z</time></trkpt><trkpt lat="42.601724726961" lon="11.998209969401824"><ele>329.0</ele><time>2026-04-26T11:41:26.999Z</time></trkpt><trkpt lat="42.60190631038416" lon="11.998176736460072"><ele>329.0</ele><time>2026-04-26T11:41:27.999Z</time></trkpt><trkpt lat="42.60208007394219" lon="11.998140344033974"><ele>328.6666666666667</ele><time>2026-04-26T11:41:28.999Z</time></trkpt><trkpt lat="42.602246767988404" lon="11.998111478761933"><ele>328.3333333333333</ele><time>2026-04-26T11:41:29.999Z</time></trkpt><trkpt lat="42.60240905649943" lon="11.998083326490814"><ele>328.0</ele><time>2026-04-26T11:41:30.999Z</time></trkpt><trkpt lat="42.60255735090224" lon="11.998062109729373"><ele>328.0</ele><time>2026-04-26T11:41:31.999Z</time></trkpt><trkpt lat="42.6027021281209" lon="11.998036344516226"><ele>328.0</ele><time>2026-04-26T11:41:32.999Z</time></trkpt><trkpt lat="42.60283800552989" lon="11.9979762824983"><ele>328.0</ele><time>2026-04-26T11:41:34.001Z</time></trkpt><trkpt lat="42.602978615847015" lon="11.997879456178289"><ele>328.0</ele><time>2026-04-26T11:41:35.001Z</time></trkpt><trkpt lat="42.60311579207867" lon="11.997758215338832"><ele>329.0</ele><time>2026-04-26T11:41:36.001Z</time></trkpt><trkpt lat="42.60325283689621" lon="11.99762512203244"><ele>330.0</ele><time>2026-04-26T11:41:37.001Z</time></trkpt><trkpt lat="42.60339141375402" lon="11.997494604328656"><ele>331.0</ele><time>2026-04-26T11:41:38.001Z</time></trkpt><trkpt lat="42.603532651968884" lon="11.997360155733865"><ele>326.66666666666663</ele><time>2026-04-26T11:41:39.001Z</time></trkpt><trkpt lat="42.60366993225112" lon="11.997238455380174"><ele>322.3333333333333</ele><time>2026-04-26T11:41:40.001Z</time></trkpt><trkpt lat="42.60381052508243" lon="11.997121373897961"><ele>318.0</ele><time>2026-04-26T11:41:41.001Z</time></trkpt><trkpt lat="42.60394812561941" lon="11.997004978721204"><ele>318.0</ele><time>2026-04-26T11:41:42.001Z</time></trkpt><trkpt lat="42.60407787718254" lon="11.99689020203327"><ele>318.0</ele><time>2026-04-26T11:41:43.001Z</time></trkpt><trkpt lat="42.604183616517766" lon="11.99678972355036"><ele>318.0</ele><time>2026-04-26T11:41:44.001Z</time></trkpt><trkpt lat="42.60425921307147" lon="11.996715076750023"><ele>318.0</ele><time>2026-04-26T11:41:45.001Z</time></trkpt><trkpt lat="42.60433442719628" lon="11.996662062006218"><ele>318.0</ele><time>2026-04-26T11:41:47.001Z</time></trkpt><trkpt lat="42.6042599607737" lon="11.996707930362186"><ele>318.0</ele><time>2026-04-26T11:41:53Z</time></trkpt><trkpt lat="42.6042698031106" lon="11.996812893204696"><ele>318.0</ele><time>2026-04-26T11:41:54Z</time></trkpt><trkpt lat="42.60431412419229" lon="11.996889164431167"><ele>318.0</ele><time>2026-04-26T11:41:55Z</time></trkpt><trkpt lat="42.60437075279166" lon="11.996944546757552"><ele>318.0</ele><time>2026-04-26T11:41:56Z</time></trkpt><trkpt lat="42.60442247956922" lon="11.997003249997556"><ele>318.0</ele><time>2026-04-26T11:41:57Z</time></trkpt><trkpt lat="42.60447859764642" lon="11.997068167563937"><ele>318.0</ele><time>2026-04-26T11:41:58Z</time></trkpt><trkpt lat="42.604534235120745" lon="11.997118565018143"><ele>319.2</ele><time>2026-04-26T11:41:59Z</time></trkpt><trkpt lat="42.60464735586653" lon="11.997134382211236"><ele>320.4</ele><time>2026-04-26T11:42:01Z</time></trkpt><trkpt lat="42.60474567146994" lon="11.997049798792139"><ele>321.59999999999997</ele><time>2026-04-26T11:42:03Z</time></trkpt><trkpt lat="42.604832919646405" lon="11.99699065117932"><ele>322.8</ele><time>2026-04-26T11:42:05Z</time></trkpt><trkpt lat="42.6049143608987" lon="11.99702064844148"><ele>324.0</ele><time>2026-04-26T11:42:07Z</time></trkpt><trkpt lat="42.60501407740698" lon="11.997115025361"><ele>324.0</ele><time>2026-04-26T11:42:09Z</time></trkpt><trkpt lat="42.60508832820748" lon="11.99725395633027"><ele>324.0</ele><time>2026-04-26T11:42:11Z</time></trkpt><trkpt lat="42.605121262193464" lon="11.99732935852354"><ele>324.0</ele><time>2026-04-26T11:42:12Z</time></trkpt><trkpt lat="42.60519663990191" lon="11.997468944085496"><ele>324.0</ele><time>2026-04-26T11:42:14Z</time></trkpt><trkpt lat="42.605238373116244" lon="11.99756299018529"><ele>324.0</ele><time>2026-04-26T11:42:15Z</time></trkpt><trkpt lat="42.60528193523063" lon="11.99766544154284"><ele>326.0</ele><time>2026-04-26T11:42:16Z</time></trkpt><trkpt lat="42.60532718077662" lon="11.99773054432632"><ele>328.0</ele><time>2026-04-26T11:42:17Z</time></trkpt><trkpt lat="42.60538257865038" lon="11.997821374737098"><ele>330.0</ele><time>2026-04-26T11:42:18Z</time></trkpt><trkpt lat="42.60542790936712" lon="11.99790612817678"><ele>332.0</ele><time>2026-04-26T11:42:19Z</time></trkpt><trkpt lat="42.605468277625874" lon="11.997986616088616"><ele>334.0</ele><time>2026-04-26T11:42:20Z</time></trkpt><trkpt lat="42.605509168622895" lon="11.998083253953506"><ele>336.0</ele><time>2026-04-26T11:42:21Z</time></trkpt><trkpt lat="42.60554738967295" lon="11.998186526574713"><ele>339.0</ele><time>2026-04-26T11:42:22Z</time></trkpt><trkpt lat="42.6055745589869" lon="11.998345029742762"><ele>342.0</ele><time>2026-04-26T11:42:24Z</time></trkpt><trkpt lat="42.60556349543156" lon="11.998496067993274"><ele>345.0</ele><time>2026-04-26T11:42:26Z</time></trkpt><trkpt lat="42.605569380886216" lon="11.998660084026115"><ele>348.0</ele><time>2026-04-26T11:42:28Z</time></trkpt><trkpt lat="42.60560919358198" lon="11.998775615687578"><ele>351.0</ele><time>2026-04-26T11:42:30Z</time></trkpt><trkpt lat="42.60569490828654" lon="11.998769585906357"><ele>351.0</ele><time>2026-04-26T11:42:32Z</time></trkpt><trkpt lat="42.60579489448136" lon="11.998748201941977"><ele>351.0</ele><time>2026-04-26T11:42:34Z</time></trkpt><trkpt lat="42.60587717322679" lon="11.998737800821326"><ele>351.0</ele><time>2026-04-26T11:42:36Z</time></trkpt><trkpt lat="42.605962519776725" lon="11.998728701125595"><ele>351.0</ele><time>2026-04-26T11:42:38Z</time></trkpt><trkpt lat="42.606052095818626" lon="11.998731294742777"><ele>351.0</ele><time>2026-04-26T11:42:40Z</time></trkpt><trkpt lat="42.606140843034474" lon="11.998761741109371"><ele>350.6666666666667</ele><time>2026-04-26T11:42:42Z</time></trkpt><trkpt lat="42.606225462221566" lon="11.998825217405425"><ele>350.3333333333333</ele><time>2026-04-26T11:42:44Z</time></trkpt><trkpt lat="42.60633408592311" lon="11.998900778159792"><ele>350.0</ele><time>2026-04-26T11:42:46Z</time></trkpt><trkpt lat="42.60638113644345" lon="11.998961751864822"><ele>349.66666666666663</ele><time>2026-04-26T11:42:47Z</time></trkpt><trkpt lat="42.60643959101471" lon="11.999061682810193"><ele>349.3333333333333</ele><time>2026-04-26T11:42:49Z</time></trkpt><trkpt lat="42.60646015831788" lon="11.999144505887228"><ele>349.0</ele><time>2026-04-26T11:42:51Z</time></trkpt><trkpt lat="42.60648109816403" lon="11.999240420234832"><ele>348.99999999999994</ele><time>2026-04-26T11:42:54Z</time></trkpt><trkpt lat="42.606512498552384" lon="11.999338882333625"><ele>349.0</ele><time>2026-04-26T11:43:03Z</time></trkpt><trkpt lat="42.60651120102749" lon="11.999435564809952"><ele>349.0</ele><time>2026-04-26T11:43:04Z</time></trkpt><trkpt lat="42.606514299391044" lon="11.999534780520543"><ele>349.0</ele><time>2026-04-26T11:43:05Z</time></trkpt><trkpt lat="42.6065288743125" lon="11.999621170201399"><ele>349.0</ele><time>2026-04-26T11:43:06Z</time></trkpt><trkpt lat="42.60654325907427" lon="11.999744364986155"><ele>348.99999999999994</ele><time>2026-04-26T11:43:07Z</time></trkpt><trkpt lat="42.60654273301369" lon="11.99983501299565"><ele>349.0</ele><time>2026-04-26T11:43:07.999Z</time></trkpt><trkpt lat="42.606547971094834" lon="11.999963989407533"><ele>349.0</ele><time>2026-04-26T11:43:08.999Z</time></trkpt><trkpt lat="42.606537745383505" lon="12.000079951474618"><ele>349.0</ele><time>2026-04-26T11:43:09.999Z</time></trkpt><trkpt lat="42.60656073613494" lon="12.000191522284286"><ele>349.0</ele><time>2026-04-26T11:43:10.999Z</time></trkpt><trkpt lat="42.606554490938656" lon="12.000315469717014"><ele>349.0</ele><time>2026-04-26T11:43:11.999Z</time></trkpt><trkpt lat="42.606545855043834" lon="12.00044732457997"><ele>349.0</ele><time>2026-04-26T11:43:12.998Z</time></trkpt><trkpt lat="42.606536139190744" lon="12.00054037100583"><ele>349.0</ele><time>2026-04-26T11:43:13.998Z</time></trkpt><trkpt lat="42.60649447631365" lon="12.000680726599176"><ele>349.0</ele><time>2026-04-26T11:43:15.998Z</time></trkpt><trkpt lat="42.60637011650484" lon="12.000725144011883"><ele>349.0</ele><time>2026-04-26T11:43:17.998Z</time></trkpt><trkpt lat="42.60628520526784" lon="12.000717294653303"><ele>349.0</ele><time>2026-04-26T11:43:18.998Z</time></trkpt><trkpt lat="42.606183985033105" lon="12.000704953333491"><ele>349.0</ele><time>2026-04-26T11:43:19.998Z</time></trkpt><trkpt lat="42.60607652560456" lon="12.000702799006104"><ele>349.0</ele><time>2026-04-26T11:43:20.998Z</time></trkpt><trkpt lat="42.6059896289646" lon="12.000707543157127"><ele>351.0</ele><time>2026-04-26T11:43:21.998Z</time></trkpt><trkpt lat="42.60589089390475" lon="12.00073029714049"><ele>353.0</ele><time>2026-04-26T11:43:23.998Z</time></trkpt><trkpt lat="42.605853809402966" lon="12.000854961524606"><ele>355.0</ele><time>2026-04-26T11:43:25.998Z</time></trkpt><trkpt lat="42.60586012102618" lon="12.000945011341598"><ele>357.0</ele><time>2026-04-26T11:43:26.998Z</time></trkpt><trkpt lat="42.60586542644402" lon="12.001045122991533"><ele>359.0</ele><time>2026-04-26T11:43:27.998Z</time></trkpt><trkpt lat="42.605881459853535" lon="12.001146648100091"><ele>361.0</ele><time>2026-04-26T11:43:28.998Z</time></trkpt><trkpt lat="42.60588991047313" lon="12.001237065714795"><ele>362.66666666666663</ele><time>2026-04-26T11:43:29.998Z</time></trkpt><trkpt lat="42.60587243558361" lon="12.00139359854393"><ele>364.3333333333333</ele><time>2026-04-26T11:43:31.998Z</time></trkpt><trkpt lat="42.60582883987274" lon="12.001458332938773"><ele>366.0</ele><time>2026-04-26T11:43:32.998Z</time></trkpt><trkpt lat="42.60577893959644" lon="12.001511834485704"><ele>367.6666666666667</ele><time>2026-04-26T11:43:33.998Z</time></trkpt><trkpt lat="42.60572276330423" lon="12.001618801275061"><ele>369.33333333333337</ele><time>2026-04-26T11:43:35.998Z</time></trkpt><trkpt lat="42.605728667130876" lon="12.00172828753881"><ele>371.0</ele><time>2026-04-26T11:43:37.998Z</time></trkpt><trkpt lat="42.60574784911265" lon="12.001837345050014"><ele>372.1666666666667</ele><time>2026-04-26T11:43:38.998Z</time></trkpt><trkpt lat="42.60577011637444" lon="12.00196328024625"><ele>373.33333333333337</ele><time>2026-04-26T11:43:39.999Z</time></trkpt><trkpt lat="42.60578561499463" lon="12.002073726653336"><ele>374.5</ele><time>2026-04-26T11:43:40.999Z</time></trkpt><trkpt lat="42.60579186668076" lon="12.002170863419826"><ele>375.6666666666667</ele><time>2026-04-26T11:43:41.999Z</time></trkpt><trkpt lat="42.60579603369609" lon="12.002259630453585"><ele>376.8333333333333</ele><time>2026-04-26T11:43:42.999Z</time></trkpt><trkpt lat="42.60579706700435" lon="12.002405061121802"><ele>378.0</ele><time>2026-04-26T11:43:44.999Z</time></trkpt><trkpt lat="42.605794609486864" lon="12.002565419448057"><ele>378.3333333333333</ele><time>2026-04-26T11:43:46.999Z</time></trkpt><trkpt lat="42.60578251356978" lon="12.002652916821136"><ele>378.6666666666667</ele><time>2026-04-26T11:43:47.999Z</time></trkpt><trkpt lat="42.60576614595612" lon="12.002824120994864"><ele>379.0</ele><time>2026-04-26T11:43:49.999Z</time></trkpt><trkpt lat="42.605766750587634" lon="12.002911138972081"><ele>379.33333333333337</ele><time>2026-04-26T11:43:50.999Z</time></trkpt><trkpt lat="42.60577050447252" lon="12.003000404947496"><ele>379.6666666666667</ele><time>2026-04-26T11:43:51.999Z</time></trkpt><trkpt lat="42.60577848482212" lon="12.003098014667929"><ele>380.0</ele><time>2026-04-26T11:43:52.999Z</time></trkpt><trkpt lat="42.605785947768574" lon="12.003198808782932"><ele>380.0</ele><time>2026-04-26T11:43:53.999Z</time></trkpt><trkpt lat="42.60580412645704" lon="12.003295350029774"><ele>380.0</ele><time>2026-04-26T11:43:54.999Z</time></trkpt><trkpt lat="42.60582518228893" lon="12.003381975885299"><ele>380.0</ele><time>2026-04-26T11:43:55.999Z</time></trkpt><trkpt lat="42.60583848415147" lon="12.003479881167012"><ele>380.0</ele><time>2026-04-26T11:43:56.999Z</time></trkpt><trkpt lat="42.60584292482207" lon="12.003574380038993"><ele>380.0</ele><time>2026-04-26T11:43:57.999Z</time></trkpt><trkpt lat="42.60585708063891" lon="12.003672937543378"><ele>380.0</ele><time>2026-04-26T11:43:58.999Z</time></trkpt><trkpt lat="42.60587760400585" lon="12.003768118912353"><ele>380.0</ele><time>2026-04-26T11:43:59.999Z</time></trkpt><trkpt lat="42.60590841862004" lon="12.00386673309552"><ele>380.83333333333337</ele><time>2026-04-26T11:44:00.999Z</time></trkpt><trkpt lat="42.605941191434816" lon="12.003969948005544"><ele>381.6666666666667</ele><time>2026-04-26T11:44:01.999Z</time></trkpt><trkpt lat="42.605964770422766" lon="12.004069932259167"><ele>382.5</ele><time>2026-04-26T11:44:02.999Z</time></trkpt><trkpt lat="42.60598641858979" lon="12.004166750707695"><ele>383.33333333333337</ele><time>2026-04-26T11:44:03.999Z</time></trkpt><trkpt lat="42.6060070462525" lon="12.004263923982705"><ele>384.1666666666667</ele><time>2026-04-26T11:44:04.999Z</time></trkpt><trkpt lat="42.60602947186911" lon="12.004357033461215"><ele>385.0</ele><time>2026-04-26T11:44:05.999Z</time></trkpt><trkpt lat="42.60606693648648" lon="12.004513304078507"><ele>385.2</ele><time>2026-04-26T11:44:07.999Z</time></trkpt><trkpt lat="42.60611079299958" lon="12.00464285113541"><ele>385.4</ele><time>2026-04-26T11:44:09.999Z</time></trkpt><trkpt lat="42.60615422792531" lon="12.004760858993011"><ele>385.6</ele><time>2026-04-26T11:44:11.999Z</time></trkpt><trkpt lat="42.60619641411304" lon="12.004887202726248"><ele>385.8</ele><time>2026-04-26T11:44:13.999Z</time></trkpt><trkpt lat="42.606243738448455" lon="12.005011050118805"><ele>386.0</ele><time>2026-04-26T11:44:15.999Z</time></trkpt><trkpt lat="42.60627680923874" lon="12.005139881641425"><ele>384.6</ele><time>2026-04-26T11:44:17.999Z</time></trkpt><trkpt lat="42.606303514648964" lon="12.005263887683437"><ele>383.20000000000005</ele><time>2026-04-26T11:44:19.999Z</time></trkpt><trkpt lat="42.60633429440695" lon="12.005372864637463"><ele>381.79999999999995</ele><time>2026-04-26T11:44:21.999Z</time></trkpt><trkpt lat="42.60637202589908" lon="12.005535615452672"><ele>380.4</ele><time>2026-04-26T11:44:23.999Z</time></trkpt><trkpt lat="42.60641641890884" lon="12.005688445034107"><ele>379.0</ele><time>2026-04-26T11:44:25.999Z</time></trkpt><trkpt lat="42.60644421065238" lon="12.005770429725905"><ele>380.14285714285717</ele><time>2026-04-26T11:44:26.999Z</time></trkpt><trkpt lat="42.606472639496424" lon="12.005861880706885"><ele>381.2857142857143</ele><time>2026-04-26T11:44:27.999Z</time></trkpt><trkpt lat="42.60649511979025" lon="12.005953311612224"><ele>382.42857142857144</ele><time>2026-04-26T11:44:28.999Z</time></trkpt><trkpt lat="42.606516310233296" lon="12.006047915009724"><ele>383.57142857142856</ele><time>2026-04-26T11:44:29.999Z</time></trkpt><trkpt lat="42.60653740678031" lon="12.006140457222916"><ele>384.7142857142857</ele><time>2026-04-26T11:44:30.999Z</time></trkpt><trkpt lat="42.606565905587615" lon="12.006230098532091"><ele>385.8571428571429</ele><time>2026-04-26T11:44:31.999Z</time></trkpt><trkpt lat="42.60659643050772" lon="12.00630658577669"><ele>387.0</ele><time>2026-04-26T11:44:32.999Z</time></trkpt><trkpt lat="42.6066270238356" lon="12.006387301349278"><ele>387.0</ele><time>2026-04-26T11:44:33.999Z</time></trkpt><trkpt lat="42.60665761552515" lon="12.00646762367134"><ele>387.0</ele><time>2026-04-26T11:44:34.999Z</time></trkpt><trkpt lat="42.606713092319936" lon="12.006611333052563"><ele>387.0</ele><time>2026-04-26T11:44:36.999Z</time></trkpt><trkpt lat="42.60675069538905" lon="12.006751215605796"><ele>387.0</ele><time>2026-04-26T11:44:38.999Z</time></trkpt><trkpt lat="42.60677773975652" lon="12.006903106869144"><ele>387.0</ele><time>2026-04-26T11:44:40.999Z</time></trkpt><trkpt lat="42.606787450036975" lon="12.007083549997944"><ele>388.42857142857144</ele><time>2026-04-26T11:44:42.999Z</time></trkpt><trkpt lat="42.6067908074254" lon="12.0071882376627"><ele>389.8571428571429</ele><time>2026-04-26T11:44:43.999Z</time></trkpt><trkpt lat="42.60680055863884" lon="12.007279144096055"><ele>391.2857142857143</ele><time>2026-04-26T11:44:44.999Z</time></trkpt><trkpt lat="42.606807164177376" lon="12.0073680036019"><ele>392.7142857142857</ele><time>2026-04-26T11:44:45.999Z</time></trkpt><trkpt lat="42.60681993224581" lon="12.007462354052935"><ele>394.1428571428571</ele><time>2026-04-26T11:44:46.999Z</time></trkpt><trkpt lat="42.606831173675936" lon="12.007556535431629"><ele>395.57142857142856</ele><time>2026-04-26T11:44:47.999Z</time></trkpt><trkpt lat="42.60684927460872" lon="12.007650712330955"><ele>397.0</ele><time>2026-04-26T11:44:48.999Z</time></trkpt><trkpt lat="42.60686605455538" lon="12.007738129175355"><ele>398.83333333333337</ele><time>2026-04-26T11:44:49.999Z</time></trkpt><trkpt lat="42.60686916308419" lon="12.007827994905048"><ele>400.6666666666667</ele><time>2026-04-26T11:44:50.999Z</time></trkpt><trkpt lat="42.606872182247116" lon="12.007978301188396"><ele>402.5</ele><time>2026-04-26T11:44:52.999Z</time></trkpt><trkpt lat="42.606893605441705" lon="12.008138242597152"><ele>404.33333333333337</ele><time>2026-04-26T11:44:54.999Z</time></trkpt><trkpt lat="42.60690367851676" lon="12.008226487637062"><ele>406.1666666666667</ele><time>2026-04-26T11:44:55.999Z</time></trkpt><trkpt lat="42.60692350068361" lon="12.008320145697535"><ele>408.0</ele><time>2026-04-26T11:44:56.999Z</time></trkpt><trkpt lat="42.60695848878153" lon="12.008475709667904"><ele>408.0</ele><time>2026-04-26T11:44:58.999Z</time></trkpt><trkpt lat="42.60698980606939" lon="12.008612980141397"><ele>408.0</ele><time>2026-04-26T11:45:00.999Z</time></trkpt><trkpt lat="42.60701369010267" lon="12.008764877158038"><ele>408.0</ele><time>2026-04-26T11:45:02.999Z</time></trkpt><trkpt lat="42.607048753282214" lon="12.008890218998468"><ele>408.0</ele><time>2026-04-26T11:45:03.999Z</time></trkpt><trkpt lat="42.60710649472908" lon="12.009073684599848"><ele>408.0</ele><time>2026-04-26T11:45:06.999Z</time></trkpt><trkpt lat="42.6071867415155" lon="12.00915443206579"><ele>408.0</ele><time>2026-04-26T11:45:08.999Z</time></trkpt><trkpt lat="42.60727093583328" lon="12.009115830974064"><ele>408.0</ele><time>2026-04-26T11:45:10.999Z</time></trkpt><trkpt lat="42.60736376371111" lon="12.009038507836964"><ele>408.0</ele><time>2026-04-26T11:45:12.999Z</time></trkpt><trkpt lat="42.60745019885157" lon="12.008954702753577"><ele>408.0</ele><time>2026-04-26T11:45:14.999Z</time></trkpt><trkpt lat="42.60750840780569" lon="12.00889841059045"><ele>408.0</ele><time>2026-04-26T11:45:15.998Z</time></trkpt><trkpt lat="42.60759564786371" lon="12.008787108602705"><ele>408.0</ele><time>2026-04-26T11:45:17.998Z</time></trkpt><trkpt lat="42.60765644691388" lon="12.008647902096845"><ele>408.0</ele><time>2026-04-26T11:45:19.998Z</time></trkpt><trkpt lat="42.60770048246393" lon="12.008578216720222"><ele>408.0</ele><time>2026-04-26T11:45:20.998Z</time></trkpt><trkpt lat="42.60777377230675" lon="12.00844665528042"><ele>408.0</ele><time>2026-04-26T11:45:22.998Z</time></trkpt><trkpt lat="42.60783870955283" lon="12.008302775938635"><ele>410.3333333333333</ele><time>2026-04-26T11:45:24.998Z</time></trkpt><trkpt lat="42.607889937445634" lon="12.008190152553393"><ele>412.66666666666663</ele><time>2026-04-26T11:45:26.998Z</time></trkpt><trkpt lat="42.60792704322514" lon="12.008117543568478"><ele>415.0</ele><time>2026-04-26T11:45:27.998Z</time></trkpt><trkpt lat="42.608014791149564" lon="12.00804481670509"><ele>417.3333333333333</ele><time>2026-04-26T11:45:29.998Z</time></trkpt><trkpt lat="42.60808314948543" lon="12.008010115169439"><ele>419.66666666666663</ele><time>2026-04-26T11:45:30.998Z</time></trkpt><trkpt lat="42.60814719656904" lon="12.00799290459573"><ele>422.0</ele><time>2026-04-26T11:45:31.998Z</time></trkpt><trkpt lat="42.60824546556258" lon="12.007991744367091"><ele>422.0</ele><time>2026-04-26T11:45:33.998Z</time></trkpt><trkpt lat="42.60832604086063" lon="12.007945254126813"><ele>422.0</ele><time>2026-04-26T11:45:34.998Z</time></trkpt><trkpt lat="42.60840384435655" lon="12.007926765637825"><ele>422.0</ele><time>2026-04-26T11:45:35.998Z</time></trkpt><trkpt lat="42.6085098840757" lon="12.007906462242966"><ele>422.0</ele><time>2026-04-26T11:45:37.998Z</time></trkpt><trkpt lat="42.6086138539229" lon="12.00784751375515"><ele>422.0</ele><time>2026-04-26T11:45:39.998Z</time></trkpt><trkpt lat="42.6087330367028" lon="12.0078064906732"><ele>423.0</ele><time>2026-04-26T11:45:41.998Z</time></trkpt><trkpt lat="42.60884947209248" lon="12.007803666498832"><ele>424.0</ele><time>2026-04-26T11:45:43.998Z</time></trkpt><trkpt lat="42.60896304566967" lon="12.00782090303524"><ele>425.00000000000006</ele><time>2026-04-26T11:45:46Z</time></trkpt><trkpt lat="42.6090681387492" lon="12.007848368267322"><ele>426.0</ele><time>2026-04-26T11:45:48Z</time></trkpt><trkpt lat="42.6091707358038" lon="12.007898941553664"><ele>427.0</ele><time>2026-04-26T11:45:50Z</time></trkpt><trkpt lat="42.609276945559685" lon="12.007915866598"><ele>427.00000000000006</ele><time>2026-04-26T11:45:52Z</time></trkpt><trkpt lat="42.60934696274433" lon="12.007916751089617"><ele>427.0</ele><time>2026-04-26T11:45:53Z</time></trkpt><trkpt lat="42.60941170675021" lon="12.007905966381543"><ele>427.0</ele><time>2026-04-26T11:45:54Z</time></trkpt><trkpt lat="42.60952873397517" lon="12.007905885052804"><ele>427.0</ele><time>2026-04-26T11:45:56Z</time></trkpt><trkpt lat="42.609597650914274" lon="12.007928463184793"><ele>427.00000000000006</ele><time>2026-04-26T11:45:57Z</time></trkpt><trkpt lat="42.60968660679569" lon="12.007949120943078"><ele>427.0</ele><time>2026-04-26T11:45:58Z</time></trkpt><trkpt lat="42.60975645143797" lon="12.00796266841061"><ele>426.6666666666667</ele><time>2026-04-26T11:45:59Z</time></trkpt><trkpt lat="42.60986841809308" lon="12.007991404744219"><ele>426.33333333333337</ele><time>2026-04-26T11:46:01Z</time></trkpt><trkpt lat="42.60998135387277" lon="12.008067428693689"><ele>426.0</ele><time>2026-04-26T11:46:03Z</time></trkpt><trkpt lat="42.61004488640979" lon="12.008103700149439"><ele>425.66666666666663</ele><time>2026-04-26T11:46:04Z</time></trkpt><trkpt lat="42.61010914683331" lon="12.00813955394018"><ele>425.3333333333333</ele><time>2026-04-26T11:46:05Z</time></trkpt><trkpt lat="42.61016864737041" lon="12.008168080833636"><ele>425.0</ele><time>2026-04-26T11:46:06Z</time></trkpt><trkpt lat="42.610234516049076" lon="12.008196089827697"><ele>424.99999999999994</ele><time>2026-04-26T11:46:07Z</time></trkpt><trkpt lat="42.61030484836865" lon="12.008222538568752"><ele>425.0</ele><time>2026-04-26T11:46:08Z</time></trkpt><trkpt lat="42.61038557765268" lon="12.008238556380553"><ele>425.0</ele><time>2026-04-26T11:46:09Z</time></trkpt><trkpt lat="42.610460094620166" lon="12.008246205862502"><ele>425.0</ele><time>2026-04-26T11:46:10Z</time></trkpt><trkpt lat="42.61053548231559" lon="12.00825160654188"><ele>424.99999999999994</ele><time>2026-04-26T11:46:11Z</time></trkpt><trkpt lat="42.61061285349383" lon="12.008264465371413"><ele>425.0</ele><time>2026-04-26T11:46:12Z</time></trkpt><trkpt lat="42.6106922651196" lon="12.008280403326829"><ele>424.66666666666663</ele><time>2026-04-26T11:46:12.999Z</time></trkpt><trkpt lat="42.61077367402071" lon="12.008291009792366"><ele>424.3333333333333</ele><time>2026-04-26T11:46:13.999Z</time></trkpt><trkpt lat="42.61085704702415" lon="12.008301062319784"><ele>424.0</ele><time>2026-04-26T11:46:14.999Z</time></trkpt><trkpt lat="42.61093797100641" lon="12.008307215729628"><ele>423.66666666666663</ele><time>2026-04-26T11:46:15.999Z</time></trkpt><trkpt lat="42.611012492471446" lon="12.008287738404807"><ele>423.3333333333333</ele><time>2026-04-26T11:46:16.999Z</time></trkpt><trkpt lat="42.61108944800697" lon="12.00826936466906"><ele>423.0</ele><time>2026-04-26T11:46:17.999Z</time></trkpt><trkpt lat="42.61115926341542" lon="12.008257715584385"><ele>423.8333333333333</ele><time>2026-04-26T11:46:18.999Z</time></trkpt><trkpt lat="42.61123627259046" lon="12.008251901432423"><ele>424.66666666666663</ele><time>2026-04-26T11:46:19.999Z</time></trkpt><trkpt lat="42.61131011941876" lon="12.008235159912251"><ele>425.5</ele><time>2026-04-26T11:46:20.999Z</time></trkpt><trkpt lat="42.611386388296566" lon="12.008201154918984"><ele>426.3333333333333</ele><time>2026-04-26T11:46:21.999Z</time></trkpt><trkpt lat="42.61146177771325" lon="12.00814406601335"><ele>427.16666666666663</ele><time>2026-04-26T11:46:22.999Z</time></trkpt><trkpt lat="42.61153810887344" lon="12.008089652051746"><ele>428.0</ele><time>2026-04-26T11:46:23.999Z</time></trkpt><trkpt lat="42.611616283105775" lon="12.00803897002889"><ele>428.0</ele><time>2026-04-26T11:46:24.999Z</time></trkpt><trkpt lat="42.61170013994149" lon="12.007998420213106"><ele>427.99999999999994</ele><time>2026-04-26T11:46:25.999Z</time></trkpt><trkpt lat="42.61178690283256" lon="12.007951524600186"><ele>427.99999999999994</ele><time>2026-04-26T11:46:26.999Z</time></trkpt><trkpt lat="42.61186898806936" lon="12.007899467806613"><ele>428.0</ele><time>2026-04-26T11:46:27.999Z</time></trkpt><trkpt lat="42.61195193435873" lon="12.007848837108147"><ele>428.0</ele><time>2026-04-26T11:46:28.999Z</time></trkpt><trkpt lat="42.612033589151444" lon="12.007804503544952"><ele>428.3333333333333</ele><time>2026-04-26T11:46:29.999Z</time></trkpt><trkpt lat="42.612106942464045" lon="12.007765116131697"><ele>428.66666666666663</ele><time>2026-04-26T11:46:30.999Z</time></trkpt><trkpt lat="42.61217329714426" lon="12.007731187427016"><ele>429.0</ele><time>2026-04-26T11:46:31.999Z</time></trkpt><trkpt lat="42.612266979005824" lon="12.00768747352884"><ele>429.33333333333337</ele><time>2026-04-26T11:46:33.999Z</time></trkpt><trkpt lat="42.612352917088174" lon="12.007614755967653"><ele>429.6666666666667</ele><time>2026-04-26T11:46:36.999Z</time></trkpt><trkpt lat="42.61240446165701" lon="12.007547210017743"><ele>430.0</ele><time>2026-04-26T11:46:37.999Z</time></trkpt><trkpt lat="42.6124641631709" lon="12.007462295167752"><ele>430.00000000000006</ele><time>2026-04-26T11:46:38.999Z</time></trkpt><trkpt lat="42.61252365624386" lon="12.007376311982059"><ele>430.0</ele><time>2026-04-26T11:46:39.999Z</time></trkpt><trkpt lat="42.61257986784669" lon="12.00729216874041"><ele>430.0</ele><time>2026-04-26T11:46:40.999Z</time></trkpt><trkpt lat="42.61264194873372" lon="12.007209517959119"><ele>430.0</ele><time>2026-04-26T11:46:41.999Z</time></trkpt><trkpt lat="42.612695620571834" lon="12.007130682861906"><ele>430.00000000000006</ele><time>2026-04-26T11:46:42.999Z</time></trkpt><trkpt lat="42.61274854376585" lon="12.007065464879675"><ele>430.0</ele><time>2026-04-26T11:46:43.999Z</time></trkpt><trkpt lat="42.612798860319806" lon="12.007006801235885"><ele>429.50000000000006</ele><time>2026-04-26T11:46:44.999Z</time></trkpt><trkpt lat="42.61285588849645" lon="12.006944672256855"><ele>429.0</ele><time>2026-04-26T11:46:45.999Z</time></trkpt><trkpt lat="42.61291447291432" lon="12.00689951212568"><ele>428.5</ele><time>2026-04-26T11:46:46.999Z</time></trkpt><trkpt lat="42.61303328937764" lon="12.006890969891657"><ele>428.0</ele><time>2026-04-26T11:46:48.999Z</time></trkpt><trkpt lat="42.613099495496925" lon="12.006916311716049"><ele>427.50000000000006</ele><time>2026-04-26T11:46:49.999Z</time></trkpt><trkpt lat="42.61318315628154" lon="12.006939763379599"><ele>427.0</ele><time>2026-04-26T11:46:50.999Z</time></trkpt><trkpt lat="42.61327573202683" lon="12.006967037322271"><ele>427.00000000000006</ele><time>2026-04-26T11:46:51.999Z</time></trkpt><trkpt lat="42.61336200781231" lon="12.00699472092585"><ele>427.0</ele><time>2026-04-26T11:46:52.999Z</time></trkpt><trkpt lat="42.61344072474648" lon="12.007018055990391"><ele>427.0</ele><time>2026-04-26T11:46:53.999Z</time></trkpt><trkpt lat="42.61351451268047" lon="12.007014111296536"><ele>427.0</ele><time>2026-04-26T11:46:54.999Z</time></trkpt><trkpt lat="42.61358960945153" lon="12.006980741111692"><ele>427.00000000000006</ele><time>2026-04-26T11:46:55.999Z</time></trkpt><trkpt lat="42.613664619572674" lon="12.00692590317199"><ele>427.0</ele><time>2026-04-26T11:46:56.999Z</time></trkpt><trkpt lat="42.613741541003535" lon="12.006855051294858"><ele>427.40000000000003</ele><time>2026-04-26T11:46:57.999Z</time></trkpt><trkpt lat="42.61382231373004" lon="12.006783884504529"><ele>427.80000000000007</ele><time>2026-04-26T11:46:58.999Z</time></trkpt><trkpt lat="42.613905120463336" lon="12.006704757309768"><ele>428.2</ele><time>2026-04-26T11:46:59.999Z</time></trkpt><trkpt lat="42.61397835013263" lon="12.006610641033273"><ele>428.6</ele><time>2026-04-26T11:47:00.999Z</time></trkpt><trkpt lat="42.61404263734372" lon="12.006498443169002"><ele>429.0</ele><time>2026-04-26T11:47:01.999Z</time></trkpt><trkpt lat="42.614094810499914" lon="12.006395050603539"><ele>426.6</ele><time>2026-04-26T11:47:02.999Z</time></trkpt><trkpt lat="42.6141395093253" lon="12.006322188848953"><ele>424.2</ele><time>2026-04-26T11:47:03.999Z</time></trkpt><trkpt lat="42.61425227879647" lon="12.006216875251756"><ele>421.8</ele><time>2026-04-26T11:47:05.999Z</time></trkpt><trkpt lat="42.61433657227368" lon="12.006161138881096"><ele>419.40000000000003</ele><time>2026-04-26T11:47:06.999Z</time></trkpt><trkpt lat="42.61442467870087" lon="12.006123198014706"><ele>417.0</ele><time>2026-04-26T11:47:07.999Z</time></trkpt><trkpt lat="42.614512596523504" lon="12.006088120133452"><ele>417.0</ele><time>2026-04-26T11:47:08.999Z</time></trkpt><trkpt lat="42.61459554928027" lon="12.006039072568548"><ele>417.0</ele><time>2026-04-26T11:47:09.999Z</time></trkpt><trkpt lat="42.61467232284415" lon="12.005966300709472"><ele>417.0</ele><time>2026-04-26T11:47:10.999Z</time></trkpt><trkpt lat="42.61474262417092" lon="12.005886329891448"><ele>417.0</ele><time>2026-04-26T11:47:11.999Z</time></trkpt><trkpt lat="42.614802611371246" lon="12.005802368469242"><ele>417.0</ele><time>2026-04-26T11:47:12.999Z</time></trkpt><trkpt lat="42.61484448440068" lon="12.005720233017867"><ele>417.0</ele><time>2026-04-26T11:47:13.999Z</time></trkpt><trkpt lat="42.61487217532797" lon="12.005637288551133"><ele>415.0</ele><time>2026-04-26T11:47:14.999Z</time></trkpt><trkpt lat="42.61489061957674" lon="12.005515607098527"><ele>413.0</ele><time>2026-04-26T11:47:15.999Z</time></trkpt><trkpt lat="42.614909765178304" lon="12.005375827751566"><ele>411.0</ele><time>2026-04-26T11:47:16.999Z</time></trkpt><trkpt lat="42.614934675376006" lon="12.005233920287012"><ele>409.0</ele><time>2026-04-26T11:47:17.999Z</time></trkpt><trkpt lat="42.61496576148848" lon="12.005104160316968"><ele>407.0</ele><time>2026-04-26T11:47:18.999Z</time></trkpt><trkpt lat="42.61499506165111" lon="12.004988321040829"><ele>404.66666666666663</ele><time>2026-04-26T11:47:19.999Z</time></trkpt><trkpt lat="42.61502100200385" lon="12.004895810350568"><ele>402.3333333333333</ele><time>2026-04-26T11:47:20.999Z</time></trkpt><trkpt lat="42.61507653239707" lon="12.004751003148478"><ele>400.0</ele><time>2026-04-26T11:47:22.999Z</time></trkpt><trkpt lat="42.61511283122805" lon="12.004678237822972"><ele>397.66666666666663</ele><time>2026-04-26T11:47:23.999Z</time></trkpt><trkpt lat="42.61516677174663" lon="12.004629726273672"><ele>395.3333333333333</ele><time>2026-04-26T11:47:24.999Z</time></trkpt><trkpt lat="42.61523962464969" lon="12.00460202783901"><ele>393.0</ele><time>2026-04-26T11:47:25.999Z</time></trkpt><trkpt lat="42.61532562168203" lon="12.004581867912803"><ele>392.4</ele><time>2026-04-26T11:47:26.999Z</time></trkpt><trkpt lat="42.615414509005404" lon="12.00454945658302"><ele>391.79999999999995</ele><time>2026-04-26T11:47:27.999Z</time></trkpt><trkpt lat="42.61550443046318" lon="12.004511318179055"><ele>391.2</ele><time>2026-04-26T11:47:28.999Z</time></trkpt><trkpt lat="42.61560010927279" lon="12.00447982904984"><ele>390.6</ele><time>2026-04-26T11:47:29.999Z</time></trkpt><trkpt lat="42.61570019099064" lon="12.00444968315156"><ele>390.0</ele><time>2026-04-26T11:47:30.999Z</time></trkpt><trkpt lat="42.61580112221892" lon="12.00441683578924"><ele>390.0</ele><time>2026-04-26T11:47:31.999Z</time></trkpt><trkpt lat="42.61590206010052" lon="12.004387677069563"><ele>390.0</ele><time>2026-04-26T11:47:32.999Z</time></trkpt><trkpt lat="42.616001435074544" lon="12.004366193165783"><ele>390.0</ele><time>2026-04-26T11:47:33.999Z</time></trkpt><trkpt lat="42.616102733618696" lon="12.004345365572313"><ele>390.0</ele><time>2026-04-26T11:47:34.998Z</time></trkpt><trkpt lat="42.6162010251222" lon="12.004309430117482"><ele>390.0</ele><time>2026-04-26T11:47:35.998Z</time></trkpt><trkpt lat="42.61630045897299" lon="12.004265119007695"><ele>390.6</ele><time>2026-04-26T11:47:36.998Z</time></trkpt><trkpt lat="42.61639843619477" lon="12.00421415632528"><ele>391.2</ele><time>2026-04-26T11:47:37.998Z</time></trkpt><trkpt lat="42.61649986872638" lon="12.00415987078461"><ele>391.79999999999995</ele><time>2026-04-26T11:47:38.998Z</time></trkpt><trkpt lat="42.61659968552865" lon="12.004095243674618"><ele>392.4</ele><time>2026-04-26T11:47:39.998Z</time></trkpt><trkpt lat="42.61669823324946" lon="12.004027296791685"><ele>393.0</ele><time>2026-04-26T11:47:40.998Z</time></trkpt><trkpt lat="42.616797085566105" lon="12.003959893241307"><ele>389.2</ele><time>2026-04-26T11:47:41.998Z</time></trkpt><trkpt lat="42.61689196959524" lon="12.003905376790879"><ele>385.4</ele><time>2026-04-26T11:47:42.998Z</time></trkpt><trkpt lat="42.61698747131602" lon="12.003864804703431"><ele>381.59999999999997</ele><time>2026-04-26T11:47:43.998Z</time></trkpt><trkpt lat="42.6170850699881" lon="12.003839129263445"><ele>377.79999999999995</ele><time>2026-04-26T11:47:44.998Z</time></trkpt><trkpt lat="42.617185313048346" lon="12.003826590782662"><ele>374.0</ele><time>2026-04-26T11:47:45.998Z</time></trkpt><trkpt lat="42.61729040082489" lon="12.003812618743213"><ele>374.0</ele><time>2026-04-26T11:47:46.998Z</time></trkpt><trkpt lat="42.61739868814322" lon="12.003793087271305"><ele>374.0</ele><time>2026-04-26T11:47:47.998Z</time></trkpt><trkpt lat="42.617501773512785" lon="12.003768601048597"><ele>374.0</ele><time>2026-04-26T11:47:48.998Z</time></trkpt><trkpt lat="42.61759285786728" lon="12.003742531136849"><ele>374.0</ele><time>2026-04-26T11:47:49.998Z</time></trkpt><trkpt lat="42.61767359763943" lon="12.003719787945782"><ele>374.0</ele><time>2026-04-26T11:47:50.998Z</time></trkpt><trkpt lat="42.61773846065487" lon="12.003703870715155"><ele>373.83333333333337</ele><time>2026-04-26T11:47:52Z</time></trkpt><trkpt lat="42.6178535165029" lon="12.00366663006271"><ele>373.6666666666667</ele><time>2026-04-26T11:47:54Z</time></trkpt><trkpt lat="42.61791625143914" lon="12.003646405997062"><ele>373.5</ele><time>2026-04-26T11:47:55Z</time></trkpt><trkpt lat="42.61798899508405" lon="12.003626250893912"><ele>373.3333333333333</ele><time>2026-04-26T11:47:56Z</time></trkpt><trkpt lat="42.618061699946686" lon="12.003599708174631"><ele>373.16666666666663</ele><time>2026-04-26T11:47:57Z</time></trkpt><trkpt lat="42.618143366419446" lon="12.003566342553517"><ele>373.0</ele><time>2026-04-26T11:47:58Z</time></trkpt><trkpt lat="42.61822783224605" lon="12.003525726575454"><ele>373.0</ele><time>2026-04-26T11:47:59Z</time></trkpt><trkpt lat="42.618311256728944" lon="12.003465529761876"><ele>373.0</ele><time>2026-04-26T11:48:00Z</time></trkpt><trkpt lat="42.618390214885245" lon="12.003377739074027"><ele>373.0</ele><time>2026-04-26T11:48:01Z</time></trkpt><trkpt lat="42.6184731993113" lon="12.003277421577335"><ele>373.0</ele><time>2026-04-26T11:48:02Z</time></trkpt><trkpt lat="42.61855594719816" lon="12.003178959646167"><ele>373.0</ele><time>2026-04-26T11:48:03Z</time></trkpt><trkpt lat="42.618629938121266" lon="12.003093675950852"><ele>371.0</ele><time>2026-04-26T11:48:04Z</time></trkpt><trkpt lat="42.61868658138343" lon="12.003030357647937"><ele>369.0</ele><time>2026-04-26T11:48:05Z</time></trkpt><trkpt lat="42.61879643137341" lon="12.002927705833818"><ele>367.0</ele><time>2026-04-26T11:48:07Z</time></trkpt><trkpt lat="42.61885917004517" lon="12.002863142188986"><ele>365.0</ele><time>2026-04-26T11:48:08Z</time></trkpt><trkpt lat="42.61892991097244" lon="12.002795979694742"><ele>363.0</ele><time>2026-04-26T11:48:09Z</time></trkpt><trkpt lat="42.6190070399039" lon="12.002714804801554"><ele>363.0</ele><time>2026-04-26T11:48:10Z</time></trkpt><trkpt lat="42.61908322794914" lon="12.002636453059583"><ele>363.0</ele><time>2026-04-26T11:48:11Z</time></trkpt><trkpt lat="42.61916565742222" lon="12.00255747286383"><ele>363.0</ele><time>2026-04-26T11:48:12Z</time></trkpt><trkpt lat="42.61924660023594" lon="12.002470749441358"><ele>363.0</ele><time>2026-04-26T11:48:13Z</time></trkpt><trkpt lat="42.61931302179887" lon="12.002383979121978"><ele>363.0</ele><time>2026-04-26T11:48:14Z</time></trkpt><trkpt lat="42.61937696101857" lon="12.002287254283361"><ele>361.59999999999997</ele><time>2026-04-26T11:48:15Z</time></trkpt><trkpt lat="42.61942426677985" lon="12.002172891197864"><ele>360.2</ele><time>2026-04-26T11:48:16Z</time></trkpt><trkpt lat="42.61947050244886" lon="12.002047042865044"><ele>358.8</ele><time>2026-04-26T11:48:17Z</time></trkpt><trkpt lat="42.61951394183309" lon="12.00191662207528"><ele>357.4</ele><time>2026-04-26T11:48:18Z</time></trkpt><trkpt lat="42.61955839430588" lon="12.001779837802552"><ele>356.0</ele><time>2026-04-26T11:48:19Z</time></trkpt><trkpt lat="42.61961109344257" lon="12.001645683868876"><ele>354.20000000000005</ele><time>2026-04-26T11:48:20Z</time></trkpt><trkpt lat="42.619649315854986" lon="12.001505657277141"><ele>352.40000000000003</ele><time>2026-04-26T11:48:21Z</time></trkpt><trkpt lat="42.61967375966944" lon="12.001366157095422"><ele>350.6</ele><time>2026-04-26T11:48:22Z</time></trkpt><trkpt lat="42.61968684745963" lon="12.001230799267928"><ele>348.8</ele><time>2026-04-26T11:48:23Z</time></trkpt><trkpt lat="42.619699461878795" lon="12.001102000272354"><ele>347.0</ele><time>2026-04-26T11:48:24Z</time></trkpt><trkpt lat="42.6197152898149" lon="12.000976495359463"><ele>347.0</ele><time>2026-04-26T11:48:24.999Z</time></trkpt><trkpt lat="42.61971947056807" lon="12.00085017537471"><ele>347.0</ele><time>2026-04-26T11:48:25.999Z</time></trkpt><trkpt lat="42.61970949986696" lon="12.000729027012968"><ele>347.0</ele><time>2026-04-26T11:48:26.999Z</time></trkpt><trkpt lat="42.619693736423685" lon="12.000622693938466"><ele>347.0</ele><time>2026-04-26T11:48:27.999Z</time></trkpt><trkpt lat="42.619675926577074" lon="12.000519389894201"><ele>347.0</ele><time>2026-04-26T11:48:28.999Z</time></trkpt><trkpt lat="42.61966486141659" lon="12.00041110452651"><ele>347.0</ele><time>2026-04-26T11:48:29.999Z</time></trkpt><trkpt lat="42.619664149754875" lon="12.000289423984157"><ele>345.40000000000003</ele><time>2026-04-26T11:48:30.999Z</time></trkpt><trkpt lat="42.61966270341336" lon="12.000164513626823"><ele>343.8</ele><time>2026-04-26T11:48:31.999Z</time></trkpt><trkpt lat="42.6196509635414" lon="12.00003714836321"><ele>342.2</ele><time>2026-04-26T11:48:32.999Z</time></trkpt><trkpt lat="42.619633522765874" lon="11.999911392422444"><ele>340.6</ele><time>2026-04-26T11:48:33.999Z</time></trkpt><trkpt lat="42.61961155703803" lon="11.99978795285227"><ele>339.0</ele><time>2026-04-26T11:48:34.999Z</time></trkpt><trkpt lat="42.61958564068699" lon="11.999655696224632"><ele>339.0</ele><time>2026-04-26T11:48:35.999Z</time></trkpt><trkpt lat="42.6195720599105" lon="11.999508437986913"><ele>339.0</ele><time>2026-04-26T11:48:36.999Z</time></trkpt><trkpt lat="42.61956624284784" lon="11.999371984680828"><ele>339.0</ele><time>2026-04-26T11:48:37.999Z</time></trkpt><trkpt lat="42.61956826470263" lon="11.999247952586451"><ele>339.0</ele><time>2026-04-26T11:48:38.999Z</time></trkpt><trkpt lat="42.6195821262041" lon="11.999141237771452"><ele>339.0</ele><time>2026-04-26T11:48:39.999Z</time></trkpt><trkpt lat="42.61960589185278" lon="11.999054938877675"><ele>339.0</ele><time>2026-04-26T11:48:40.999Z</time></trkpt><trkpt lat="42.61960973041113" lon="11.998969394014356"><ele>338.5</ele><time>2026-04-26T11:48:41.999Z</time></trkpt><trkpt lat="42.619533354411764" lon="11.998839299420972"><ele>338.0</ele><time>2026-04-26T11:48:43.999Z</time></trkpt><trkpt lat="42.61948065297363" lon="11.998784442750482"><ele>337.5</ele><time>2026-04-26T11:48:44.999Z</time></trkpt><trkpt lat="42.6194322558441" lon="11.998710480099996"><ele>337.0</ele><time>2026-04-26T11:48:45.999Z</time></trkpt><trkpt lat="42.619388077524036" lon="11.998627068662133"><ele>336.5</ele><time>2026-04-26T11:48:46.999Z</time></trkpt><trkpt lat="42.6193531735371" lon="11.99855446319123"><ele>336.0</ele><time>2026-04-26T11:48:47.999Z</time></trkpt><trkpt lat="42.619299700247716" lon="11.998451005314768"><ele>335.20000000000005</ele><time>2026-04-26T11:48:49.999Z</time></trkpt><trkpt lat="42.61931773600731" lon="11.99832824048443"><ele>334.40000000000003</ele><time>2026-04-26T11:48:51.999Z</time></trkpt><trkpt lat="42.61945318146307" lon="11.998324734917253"><ele>333.6</ele><time>2026-04-26T11:48:53.999Z</time></trkpt><trkpt lat="42.61952498621983" lon="11.998387278748883"><ele>332.8</ele><time>2026-04-26T11:48:54.999Z</time></trkpt><trkpt lat="42.61958441256149" lon="11.99846313717748"><ele>332.0</ele><time>2026-04-26T11:48:55.999Z</time></trkpt><trkpt lat="42.619645838377956" lon="11.998524236414195"><ele>332.0</ele><time>2026-04-26T11:48:56.999Z</time></trkpt><trkpt lat="42.61972873328375" lon="11.99856062794622"><ele>332.0</ele><time>2026-04-26T11:48:57.999Z</time></trkpt><trkpt lat="42.61982207977276" lon="11.998553484529152"><ele>332.0</ele><time>2026-04-26T11:48:58.999Z</time></trkpt><trkpt lat="42.619923159714986" lon="11.998511169421493"><ele>332.0</ele><time>2026-04-26T11:48:59.999Z</time></trkpt><trkpt lat="42.62001218832587" lon="11.998472928260723"><ele>332.0</ele><time>2026-04-26T11:49:00.999Z</time></trkpt><trkpt lat="42.6200990523789" lon="11.998445892427569"><ele>332.0</ele><time>2026-04-26T11:49:01.999Z</time></trkpt><trkpt lat="42.62016944537002" lon="11.99842202339985"><ele>332.0</ele><time>2026-04-26T11:49:02.999Z</time></trkpt><trkpt lat="42.620273545610694" lon="11.998357830162034"><ele>332.0</ele><time>2026-04-26T11:49:04.999Z</time></trkpt><trkpt lat="42.620316248775985" lon="11.998288499669357"><ele>332.0</ele><time>2026-04-26T11:49:05.999Z</time></trkpt><trkpt lat="42.62034780355657" lon="11.998156151896087"><ele>332.0</ele><time>2026-04-26T11:49:07.999Z</time></trkpt><trkpt lat="42.620362174478224" lon="11.998058720565437"><ele>332.0</ele><time>2026-04-26T11:49:12.999Z</time></trkpt><trkpt lat="42.620540933244484" lon="11.998050493041585"><ele>328.75</ele><time>2026-04-26T11:49:14.999Z</time></trkpt><trkpt lat="42.62066152532149" lon="11.998077116613459"><ele>325.5</ele><time>2026-04-26T11:49:15.999Z</time></trkpt><trkpt lat="42.620805138261986" lon="11.998103576373488"><ele>322.25</ele><time>2026-04-26T11:49:16.999Z</time></trkpt><trkpt lat="42.62097572747859" lon="11.998125197051762"><ele>319.0</ele><time>2026-04-26T11:49:17.999Z</time></trkpt><trkpt lat="42.621166625152895" lon="11.998135218505071"><ele>318.66666666666663</ele><time>2026-04-26T11:49:18.999Z</time></trkpt><trkpt lat="42.62137051818982" lon="11.998149723229892"><ele>318.3333333333333</ele><time>2026-04-26T11:49:19.999Z</time></trkpt><trkpt lat="42.621583255788536" lon="11.998166693450777"><ele>318.0</ele><time>2026-04-26T11:49:20.999Z</time></trkpt><trkpt lat="42.62178466854242" lon="11.998183365256907"><ele>318.0</ele><time>2026-04-26T11:49:21.999Z</time></trkpt><trkpt lat="42.621954272774225" lon="11.998199799498245"><ele>318.0</ele><time>2026-04-26T11:49:22.999Z</time></trkpt><trkpt lat="42.62210472993272" lon="11.998210880627799"><ele>318.0</ele><time>2026-04-26T11:49:23.999Z</time></trkpt><trkpt lat="42.62224447734699" lon="11.998225952916401"><ele>317.6666666666667</ele><time>2026-04-26T11:49:24.999Z</time></trkpt><trkpt lat="42.62237734722208" lon="11.998268361777125"><ele>317.33333333333337</ele><time>2026-04-26T11:49:25.999Z</time></trkpt><trkpt lat="42.62251621917567" lon="11.998353942643448"><ele>317.0</ele><time>2026-04-26T11:49:26.999Z</time></trkpt><trkpt lat="42.622652097101124" lon="11.998472711475035"><ele>317.6666666666667</ele><time>2026-04-26T11:49:27.999Z</time></trkpt><trkpt lat="42.622777792865875" lon="11.99861861083109"><ele>318.3333333333333</ele><time>2026-04-26T11:49:28.999Z</time></trkpt><trkpt lat="42.622894026041436" lon="11.998795156981581"><ele>319.0</ele><time>2026-04-26T11:49:29.999Z</time></trkpt><trkpt lat="42.623011421413096" lon="11.998967816292422"><ele>319.0</ele><time>2026-04-26T11:49:30.999Z</time></trkpt><trkpt lat="42.623136014653376" lon="11.999095910977768"><ele>319.0</ele><time>2026-04-26T11:49:31.999Z</time></trkpt><trkpt lat="42.62328157064973" lon="11.999202180342794"><ele>319.0</ele><time>2026-04-26T11:49:32.999Z</time></trkpt><trkpt lat="42.623435402743105" lon="11.999292875251687"><ele>321.0</ele><time>2026-04-26T11:49:33.999Z</time></trkpt><trkpt lat="42.623602180965094" lon="11.999360556774839"><ele>323.0</ele><time>2026-04-26T11:49:34.999Z</time></trkpt><trkpt lat="42.62378676716889" lon="11.999397247658061"><ele>325.0</ele><time>2026-04-26T11:49:35.999Z</time></trkpt><trkpt lat="42.62398842090253" lon="11.999406612606503"><ele>325.0</ele><time>2026-04-26T11:49:36.999Z</time></trkpt><trkpt lat="42.624196242184084" lon="11.999400875217738"><ele>325.0</ele><time>2026-04-26T11:49:37.999Z</time></trkpt><trkpt lat="42.62441999269085" lon="11.999391670177067"><ele>325.0</ele><time>2026-04-26T11:49:38.999Z</time></trkpt><trkpt lat="42.624639487612114" lon="11.999384599841626"><ele>328.0</ele><time>2026-04-26T11:49:39.999Z</time></trkpt><trkpt lat="42.62486701077396" lon="11.999378501968533"><ele>331.0</ele><time>2026-04-26T11:49:40.999Z</time></trkpt><trkpt lat="42.62510257244363" lon="11.999368866317987"><ele>337.0</ele><time>2026-04-26T11:49:41.999Z</time></trkpt><trkpt lat="42.62534082290881" lon="11.999354180561646"><ele>343.0</ele><time>2026-04-26T11:49:42.999Z</time></trkpt><trkpt lat="42.625561261658085" lon="11.999344000223031"><ele>343.0</ele><time>2026-04-26T11:49:43.998Z</time></trkpt><trkpt lat="42.625768311685434" lon="11.999337572667034"><ele>343.0</ele><time>2026-04-26T11:49:44.998Z</time></trkpt><trkpt lat="42.62596880415953" lon="11.999331238731438"><ele>343.0</ele><time>2026-04-26T11:49:45.998Z</time></trkpt><trkpt lat="42.62616563817829" lon="11.999322579734816"><ele>346.3333333333333</ele><time>2026-04-26T11:49:46.998Z</time></trkpt><trkpt lat="42.62635779670047" lon="11.999310141074286"><ele>349.6666666666667</ele><time>2026-04-26T11:49:47.998Z</time></trkpt><trkpt lat="42.626549539595004" lon="11.999285476853109"><ele>353.0</ele><time>2026-04-26T11:49:48.998Z</time></trkpt><trkpt lat="42.62674559282569" lon="11.999235339439739"><ele>344.33333333333337</ele><time>2026-04-26T11:49:49.998Z</time></trkpt><trkpt lat="42.62694360170601" lon="11.999157301094495"><ele>335.6666666666667</ele><time>2026-04-26T11:49:50.998Z</time></trkpt><trkpt lat="42.62714849535127" lon="11.999073265474618"><ele>327.0</ele><time>2026-04-26T11:49:51.998Z</time></trkpt><trkpt lat="42.6273538764321" lon="11.998995470053048"><ele>327.0</ele><time>2026-04-26T11:49:52.998Z</time></trkpt><trkpt lat="42.627549329874775" lon="11.998922399326494"><ele>327.0</ele><time>2026-04-26T11:49:53.998Z</time></trkpt><trkpt lat="42.62773375760738" lon="11.998844671691492"><ele>327.0</ele><time>2026-04-26T11:49:54.998Z</time></trkpt><trkpt lat="42.62791956088543" lon="11.998755791344774"><ele>329.0</ele><time>2026-04-26T11:49:55.998Z</time></trkpt><trkpt lat="42.62810968057128" lon="11.998658387076539"><ele>331.0</ele><time>2026-04-26T11:49:56.998Z</time></trkpt><trkpt lat="42.6283072805834" lon="11.998567981185328"><ele>333.0</ele><time>2026-04-26T11:49:58Z</time></trkpt><trkpt lat="42.628496170240055" lon="11.998504479225907"><ele>335.6666666666667</ele><time>2026-04-26T11:49:59Z</time></trkpt><trkpt lat="42.62867711820831" lon="11.998453044854948"><ele>338.33333333333337</ele><time>2026-04-26T11:50:00Z</time></trkpt><trkpt lat="42.628861643504756" lon="11.99841382406383"><ele>341.0</ele><time>2026-04-26T11:50:01Z</time></trkpt><trkpt lat="42.62905104791645" lon="11.998373032121277"><ele>341.0</ele><time>2026-04-26T11:50:02Z</time></trkpt><trkpt lat="42.62924937918687" lon="11.998335194831215"><ele>341.0</ele><time>2026-04-26T11:50:03Z</time></trkpt><trkpt lat="42.62945189236487" lon="11.998303101666325"><ele>341.0</ele><time>2026-04-26T11:50:04Z</time></trkpt><trkpt lat="42.62965606038141" lon="11.998284093863864"><ele>336.0</ele><time>2026-04-26T11:50:05Z</time></trkpt><trkpt lat="42.62986667596414" lon="11.998269910034242"><ele>331.0</ele><time>2026-04-26T11:50:06Z</time></trkpt><trkpt lat="42.63007502235149" lon="11.998230728577179"><ele>326.0</ele><time>2026-04-26T11:50:07Z</time></trkpt><trkpt lat="42.63028244789109" lon="11.998165428108324"><ele>330.33333333333337</ele><time>2026-04-26T11:50:08Z</time></trkpt><trkpt lat="42.63049984704256" lon="11.998092001946267"><ele>334.6666666666667</ele><time>2026-04-26T11:50:09Z</time></trkpt><trkpt lat="42.63071183581813" lon="11.998010282193142"><ele>339.0</ele><time>2026-04-26T11:50:10Z</time></trkpt><trkpt lat="42.63092531638219" lon="11.997909628482507"><ele>339.0</ele><time>2026-04-26T11:50:11Z</time></trkpt><trkpt lat="42.63113657415738" lon="11.997796813554839"><ele>339.0</ele><time>2026-04-26T11:50:12Z</time></trkpt><trkpt lat="42.6313397562796" lon="11.997678810517492"><ele>339.0</ele><time>2026-04-26T11:50:13Z</time></trkpt><trkpt lat="42.631528823396366" lon="11.997565443549938"><ele>339.3333333333333</ele><time>2026-04-26T11:50:14Z</time></trkpt><trkpt lat="42.63170810975314" lon="11.997457879390586"><ele>339.66666666666663</ele><time>2026-04-26T11:50:15Z</time></trkpt><trkpt lat="42.6318804383311" lon="11.997355450987458"><ele>340.0</ele><time>2026-04-26T11:50:16Z</time></trkpt><trkpt lat="42.632043751816084" lon="11.997255924224365"><ele>340.0</ele><time>2026-04-26T11:50:17Z</time></trkpt><trkpt lat="42.63220868148626" lon="11.99715714809455"><ele>340.0</ele><time>2026-04-26T11:50:18Z</time></trkpt><trkpt lat="42.63236793454448" lon="11.99705922324587"><ele>340.0</ele><time>2026-04-26T11:50:19Z</time></trkpt><trkpt lat="42.63253171920313" lon="11.996959483242039"><ele>340.0</ele><time>2026-04-26T11:50:20Z</time></trkpt><trkpt lat="42.63269831370854" lon="11.996846310221303"><ele>340.0</ele><time>2026-04-26T11:50:21Z</time></trkpt><trkpt lat="42.63286338313427" lon="11.996726773061745"><ele>340.0</ele><time>2026-04-26T11:50:22Z</time></trkpt><trkpt lat="42.63303194325247" lon="11.996597629536437"><ele>336.66666666666663</ele><time>2026-04-26T11:50:23Z</time></trkpt><trkpt lat="42.633195762065384" lon="11.996463512069036"><ele>333.3333333333333</ele><time>2026-04-26T11:50:24Z</time></trkpt><trkpt lat="42.63335596040293" lon="11.996327695211598"><ele>330.0</ele><time>2026-04-26T11:50:25Z</time></trkpt><trkpt lat="42.63351453393921" lon="11.99618041654353"><ele>333.0</ele><time>2026-04-26T11:50:26Z</time></trkpt><trkpt lat="42.63367100808568" lon="11.996032439409305"><ele>336.0</ele><time>2026-04-26T11:50:27Z</time></trkpt><trkpt lat="42.633829295510374" lon="11.995880959317475"><ele>339.0</ele><time>2026-04-26T11:50:27.999Z</time></trkpt><trkpt lat="42.63398668577876" lon="11.995734851315747"><ele>333.0</ele><time>2026-04-26T11:50:28.999Z</time></trkpt><trkpt lat="42.6341478380681" lon="11.995590143129562"><ele>327.0</ele><time>2026-04-26T11:50:29.999Z</time></trkpt><trkpt lat="42.63431160715897" lon="11.995449527574173"><ele>321.0</ele><time>2026-04-26T11:50:30.999Z</time></trkpt><trkpt lat="42.634471943460355" lon="11.995327716532794"><ele>321.0</ele><time>2026-04-26T11:50:31.999Z</time></trkpt><trkpt lat="42.63460123251009" lon="11.995224608406483"><ele>321.0</ele><time>2026-04-26T11:50:32.999Z</time></trkpt><trkpt lat="42.63478986251652" lon="11.99513348359989"><ele>321.0</ele><time>2026-04-26T11:50:33.999Z</time></trkpt><trkpt lat="42.634979342793855" lon="11.995093237910996"><ele>321.0</ele><time>2026-04-26T11:50:34.999Z</time></trkpt><trkpt lat="42.63517228906912" lon="11.995045398345855"><ele>321.0</ele><time>2026-04-26T11:50:35.999Z</time></trkpt><trkpt lat="42.63536623777883" lon="11.994983229720072"><ele>321.0</ele><time>2026-04-26T11:50:36.999Z</time></trkpt><trkpt lat="42.63554883679315" lon="11.9949295227744"><ele>318.6666666666667</ele><time>2026-04-26T11:50:37.999Z</time></trkpt><trkpt lat="42.63573116253124" lon="11.994881641988991"><ele>316.33333333333337</ele><time>2026-04-26T11:50:38.999Z</time></trkpt><trkpt lat="42.635908947953936" lon="11.994826684186059"><ele>314.0</ele><time>2026-04-26T11:50:39.999Z</time></trkpt><trkpt lat="42.63608707235676" lon="11.994770128239447"><ele>315.6666666666667</ele><time>2026-04-26T11:50:40.999Z</time></trkpt><trkpt lat="42.636271700647036" lon="11.99470598847821"><ele>317.3333333333333</ele><time>2026-04-26T11:50:41.999Z</time></trkpt><trkpt lat="42.63645446490804" lon="11.994632858159012"><ele>319.0</ele><time>2026-04-26T11:50:42.999Z</time></trkpt><trkpt lat="42.63663334077132" lon="11.994531207912217"><ele>319.0</ele><time>2026-04-26T11:50:43.999Z</time></trkpt><trkpt lat="42.636809384112226" lon="11.994391706812424"><ele>319.0</ele><time>2026-04-26T11:50:44.999Z</time></trkpt><trkpt lat="42.63698186732889" lon="11.99424232860486"><ele>319.0</ele><time>2026-04-26T11:50:45.999Z</time></trkpt><trkpt lat="42.63714986457015" lon="11.994083045766715"><ele>318.3333333333333</ele><time>2026-04-26T11:50:46.999Z</time></trkpt><trkpt lat="42.63732161060906" lon="11.993924751607826"><ele>317.6666666666667</ele><time>2026-04-26T11:50:47.999Z</time></trkpt><trkpt lat="42.63748530417694" lon="11.993770960365607"><ele>317.0</ele><time>2026-04-26T11:50:48.999Z</time></trkpt><trkpt lat="42.637646123884224" lon="11.993628888556303"><ele>317.6666666666667</ele><time>2026-04-26T11:50:49.999Z</time></trkpt><trkpt lat="42.637805908592746" lon="11.99349563844138"><ele>318.3333333333333</ele><time>2026-04-26T11:50:50.999Z</time></trkpt><trkpt lat="42.63795922466765" lon="11.993366214967855"><ele>319.0</ele><time>2026-04-26T11:50:51.999Z</time></trkpt><trkpt lat="42.63811305336511" lon="11.993244672281435"><ele>319.0</ele><time>2026-04-26T11:50:52.999Z</time></trkpt><trkpt lat="42.63826810576033" lon="11.993123538796485"><ele>319.0</ele><time>2026-04-26T11:50:53.999Z</time></trkpt><trkpt lat="42.63842128555982" lon="11.993004133116328"><ele>319.0</ele><time>2026-04-26T11:50:54.999Z</time></trkpt><trkpt lat="42.638566558027264" lon="11.992874943545607"><ele>320.3333333333333</ele><time>2026-04-26T11:50:55.999Z</time></trkpt><trkpt lat="42.638696220807624" lon="11.992724100996814"><ele>321.6666666666667</ele><time>2026-04-26T11:50:56.999Z</time></trkpt><trkpt lat="42.6388190632398" lon="11.992562486216546"><ele>323.0</ele><time>2026-04-26T11:50:57.999Z</time></trkpt><trkpt lat="42.638932273515735" lon="11.992404523318198"><ele>323.0</ele><time>2026-04-26T11:50:58.999Z</time></trkpt><trkpt lat="42.639038153415996" lon="11.992263935651886"><ele>323.0</ele><time>2026-04-26T11:50:59.999Z</time></trkpt><trkpt lat="42.63914052383238" lon="11.992145583505964"><ele>323.0</ele><time>2026-04-26T11:51:00.999Z</time></trkpt><trkpt lat="42.639263523747516" lon="11.992008732261633"><ele>323.0</ele><time>2026-04-26T11:51:01.999Z</time></trkpt><trkpt lat="42.639359601739876" lon="11.991890576121106"><ele>323.0</ele><time>2026-04-26T11:51:02.999Z</time></trkpt><trkpt lat="42.639453223533835" lon="11.991778112868067"><ele>323.0</ele><time>2026-04-26T11:51:03.999Z</time></trkpt><trkpt lat="42.63954231370975" lon="11.991671551088551"><ele>323.0</ele><time>2026-04-26T11:51:04.999Z</time></trkpt><trkpt lat="42.63963446395654" lon="11.991572952033136"><ele>323.0</ele><time>2026-04-26T11:51:05.999Z</time></trkpt><trkpt lat="42.63972579310667" lon="11.991485480550674"><ele>322.25</ele><time>2026-04-26T11:51:06.999Z</time></trkpt><trkpt lat="42.639818813994566" lon="11.991403834052143"><ele>321.5</ele><time>2026-04-26T11:51:07.999Z</time></trkpt><trkpt lat="42.6399106127865" lon="11.991323962854155"><ele>320.75</ele><time>2026-04-26T11:51:08.999Z</time></trkpt><trkpt lat="42.64001521079764" lon="11.991245255427753"><ele>320.0</ele><time>2026-04-26T11:51:09.999Z</time></trkpt><trkpt lat="42.64011901850403" lon="11.991158019854426"><ele>320.0</ele><time>2026-04-26T11:51:10.999Z</time></trkpt><trkpt lat="42.64022496984147" lon="11.991073018661172"><ele>320.0</ele><time>2026-04-26T11:51:11.999Z</time></trkpt><trkpt lat="42.640332052123576" lon="11.990986699115263"><ele>320.0</ele><time>2026-04-26T11:51:12.999Z</time></trkpt><trkpt lat="42.640438790284286" lon="11.990896683229918"><ele>320.0</ele><time>2026-04-26T11:51:13.999Z</time></trkpt><trkpt lat="42.64054239715064" lon="11.990813329596884"><ele>320.0</ele><time>2026-04-26T11:51:14.999Z</time></trkpt><trkpt lat="42.64064996785766" lon="11.990726361927152"><ele>320.0</ele><time>2026-04-26T11:51:15.999Z</time></trkpt><trkpt lat="42.64074856611027" lon="11.990645481301746"><ele>320.0</ele><time>2026-04-26T11:51:16.999Z</time></trkpt><trkpt lat="42.64084488050354" lon="11.990569309933374"><ele>320.0</ele><time>2026-04-26T11:51:17.999Z</time></trkpt><trkpt lat="42.64093354043591" lon="11.990497086598118"><ele>320.0</ele><time>2026-04-26T11:51:18.999Z</time></trkpt><trkpt lat="42.64102382404949" lon="11.990424760444023"><ele>320.0</ele><time>2026-04-26T11:51:19.999Z</time></trkpt><trkpt lat="42.64110098891972" lon="11.990356783134331"><ele>320.0</ele><time>2026-04-26T11:51:20.999Z</time></trkpt><trkpt lat="42.641169059090075" lon="11.990289012889866"><ele>320.0</ele><time>2026-04-26T11:51:21.999Z</time></trkpt><trkpt lat="42.64123724381487" lon="11.990198828699235"><ele>320.0</ele><time>2026-04-26T11:51:22.999Z</time></trkpt><trkpt lat="42.64130349560519" lon="11.990094758816511"><ele>320.0</ele><time>2026-04-26T11:51:23.999Z</time></trkpt><trkpt lat="42.64137144999601" lon="11.989978323564474"><ele>320.0</ele><time>2026-04-26T11:51:24.999Z</time></trkpt><trkpt lat="42.641455989830526" lon="11.989864780287547"><ele>320.0</ele><time>2026-04-26T11:51:25.999Z</time></trkpt><trkpt lat="42.64150413799841" lon="11.989770409321324"><ele>320.0</ele><time>2026-04-26T11:51:26.999Z</time></trkpt><trkpt lat="42.64155894408108" lon="11.989660066005458"><ele>320.0</ele><time>2026-04-26T11:51:27.999Z</time></trkpt><trkpt lat="42.6416194391243" lon="11.989545174985537"><ele>320.0</ele><time>2026-04-26T11:51:28.999Z</time></trkpt><trkpt lat="42.64168358753532" lon="11.989421754418332"><ele>320.0</ele><time>2026-04-26T11:51:29.999Z</time></trkpt><trkpt lat="42.641753856531615" lon="11.98929576715059"><ele>320.0</ele><time>2026-04-26T11:51:30.999Z</time></trkpt><trkpt lat="42.64183119592085" lon="11.989163973252577"><ele>320.0</ele><time>2026-04-26T11:51:31.999Z</time></trkpt><trkpt lat="42.64191499849154" lon="11.989033329973514"><ele>319.75</ele><time>2026-04-26T11:51:32.999Z</time></trkpt><trkpt lat="42.642000358714284" lon="11.988900772389186"><ele>319.5</ele><time>2026-04-26T11:51:33.999Z</time></trkpt><trkpt lat="42.64208155180591" lon="11.988759312610615"><ele>319.25</ele><time>2026-04-26T11:51:34.999Z</time></trkpt><trkpt lat="42.64216174303291" lon="11.988621291855365"><ele>319.0</ele><time>2026-04-26T11:51:35.999Z</time></trkpt><trkpt lat="42.64224573192735" lon="11.988495950696059"><ele>319.0</ele><time>2026-04-26T11:51:36.999Z</time></trkpt><trkpt lat="42.64234213732223" lon="11.988382631894538"><ele>319.0</ele><time>2026-04-26T11:51:37.999Z</time></trkpt><trkpt lat="42.64245128488203" lon="11.98828259493624"><ele>319.0</ele><time>2026-04-26T11:51:38.999Z</time></trkpt><trkpt lat="42.642560224605745" lon="11.988175515432728"><ele>319.0</ele><time>2026-04-26T11:51:39.999Z</time></trkpt><trkpt lat="42.64266776017837" lon="11.988063185920888"><ele>319.5</ele><time>2026-04-26T11:51:40.999Z</time></trkpt><trkpt lat="42.6427731852967" lon="11.987948830176249"><ele>320.0</ele><time>2026-04-26T11:51:41.999Z</time></trkpt><trkpt lat="42.642878667641156" lon="11.987839961020875"><ele>320.5</ele><time>2026-04-26T11:51:42.999Z</time></trkpt><trkpt lat="42.64298004266783" lon="11.987724336368812"><ele>321.0</ele><time>2026-04-26T11:51:43.999Z</time></trkpt><trkpt lat="42.643085057648776" lon="11.987614636241757"><ele>321.0</ele><time>2026-04-26T11:51:44.999Z</time></trkpt><trkpt lat="42.643191954251606" lon="11.987517458505128"><ele>321.0</ele><time>2026-04-26T11:51:45.999Z</time></trkpt><trkpt lat="42.64329823941979" lon="11.98741312403054"><ele>321.0</ele><time>2026-04-26T11:51:46.999Z</time></trkpt><trkpt lat="42.64339928114141" lon="11.98729677244074"><ele>321.0</ele><time>2026-04-26T11:51:47.999Z</time></trkpt><trkpt lat="42.64351362465855" lon="11.98717725852936"><ele>320.25</ele><time>2026-04-26T11:51:48.998Z</time></trkpt><trkpt lat="42.643625280073614" lon="11.987055134699395"><ele>319.5</ele><time>2026-04-26T11:51:49.998Z</time></trkpt><trkpt lat="42.64375199999268" lon="11.986934558740055"><ele>318.75</ele><time>2026-04-26T11:51:50.998Z</time></trkpt><trkpt lat="42.64381260581121" lon="11.986843072781085"><ele>318.0</ele><time>2026-04-26T11:51:51.998Z</time></trkpt><trkpt lat="42.64388773549507" lon="11.986741735263953"><ele>318.5</ele><time>2026-04-26T11:51:52.998Z</time></trkpt><trkpt lat="42.64399990657088" lon="11.986635624905649"><ele>319.0</ele><time>2026-04-26T11:51:53.998Z</time></trkpt><trkpt lat="42.644087665713364" lon="11.986531319131185"><ele>319.5</ele><time>2026-04-26T11:51:54.998Z</time></trkpt><trkpt lat="42.64416205586804" lon="11.986413150717235"><ele>320.0</ele><time>2026-04-26T11:51:55.998Z</time></trkpt><trkpt lat="42.64422484261637" lon="11.98629225041315"><ele>320.0</ele><time>2026-04-26T11:51:56.998Z</time></trkpt><trkpt lat="42.644267316459306" lon="11.986177952865091"><ele>320.0</ele><time>2026-04-26T11:51:57.998Z</time></trkpt><trkpt lat="42.64429796317446" lon="11.98605899289049"><ele>320.0</ele><time>2026-04-26T11:51:58.998Z</time></trkpt><trkpt lat="42.64433096012041" lon="11.985942616550851"><ele>320.0</ele><time>2026-04-26T11:51:59.998Z</time></trkpt><trkpt lat="42.644364880489405" lon="11.985823939683602"><ele>320.0</ele><time>2026-04-26T11:52:00.998Z</time></trkpt><trkpt lat="42.644399971807914" lon="11.985701566334928"><ele>319.5</ele><time>2026-04-26T11:52:01.998Z</time></trkpt><trkpt lat="42.644450806282286" lon="11.98558242005112"><ele>319.0</ele><time>2026-04-26T11:52:02.998Z</time></trkpt><trkpt lat="42.64452327294626" lon="11.985461984256043"><ele>318.5</ele><time>2026-04-26T11:52:04Z</time></trkpt><trkpt lat="42.64461047379572" lon="11.985341230611475"><ele>318.0</ele><time>2026-04-26T11:52:05Z</time></trkpt><trkpt lat="42.64470276518711" lon="11.985231727505813"><ele>317.75</ele><time>2026-04-26T11:52:06Z</time></trkpt><trkpt lat="42.64479472882317" lon="11.985132768093816"><ele>317.5</ele><time>2026-04-26T11:52:07Z</time></trkpt><trkpt lat="42.644887152625266" lon="11.985029794748634"><ele>317.25</ele><time>2026-04-26T11:52:08Z</time></trkpt><trkpt lat="42.644971777008806" lon="11.984931357723756"><ele>317.0</ele><time>2026-04-26T11:52:09Z</time></trkpt><trkpt lat="42.64504199304581" lon="11.984814922679998"><ele>317.0</ele><time>2026-04-26T11:52:10Z</time></trkpt><trkpt lat="42.645095765235425" lon="11.98468560715776"><ele>317.0</ele><time>2026-04-26T11:52:11Z</time></trkpt><trkpt lat="42.64514801230596" lon="11.984554204603723"><ele>317.0</ele><time>2026-04-26T11:52:12Z</time></trkpt><trkpt lat="42.645200484571305" lon="11.984422421453408"><ele>317.0</ele><time>2026-04-26T11:52:13Z</time></trkpt><trkpt lat="42.645262383813225" lon="11.984297655029371"><ele>317.0</ele><time>2026-04-26T11:52:14Z</time></trkpt><trkpt lat="42.645341410116664" lon="11.984174203552348"><ele>317.75</ele><time>2026-04-26T11:52:15Z</time></trkpt><trkpt lat="42.645441456909786" lon="11.984058842628906"><ele>318.5</ele><time>2026-04-26T11:52:16Z</time></trkpt><trkpt lat="42.645534042878346" lon="11.9839308495788"><ele>319.25</ele><time>2026-04-26T11:52:17Z</time></trkpt><trkpt lat="42.64562612610231" lon="11.983800449323983"><ele>320.0</ele><time>2026-04-26T11:52:18Z</time></trkpt><trkpt lat="42.64571416177848" lon="11.983667118309393"><ele>320.0</ele><time>2026-04-26T11:52:19Z</time></trkpt><trkpt lat="42.64580498438352" lon="11.98353836107978"><ele>320.0</ele><time>2026-04-26T11:52:20Z</time></trkpt><trkpt lat="42.645894373312125" lon="11.983415721056502"><ele>320.0</ele><time>2026-04-26T11:52:21Z</time></trkpt><trkpt lat="42.64598014486775" lon="11.983290839727443"><ele>320.0</ele><time>2026-04-26T11:52:22Z</time></trkpt><trkpt lat="42.646067789817984" lon="11.983169483223238"><ele>320.25</ele><time>2026-04-26T11:52:23Z</time></trkpt><trkpt lat="42.646150249981524" lon="11.983050042516775"><ele>320.5</ele><time>2026-04-26T11:52:24Z</time></trkpt><trkpt lat="42.64623075289195" lon="11.98292456963311"><ele>320.75</ele><time>2026-04-26T11:52:25Z</time></trkpt><trkpt lat="42.646313469211194" lon="11.982802281098333"><ele>321.0</ele><time>2026-04-26T11:52:26Z</time></trkpt><trkpt lat="42.64639060467114" lon="11.982671123953342"><ele>321.0</ele><time>2026-04-26T11:52:27Z</time></trkpt><trkpt lat="42.64645500937471" lon="11.98252891612786"><ele>321.0</ele><time>2026-04-26T11:52:28Z</time></trkpt><trkpt lat="42.64650557703296" lon="11.982381336753317"><ele>321.0</ele><time>2026-04-26T11:52:29Z</time></trkpt><trkpt lat="42.6465537702149" lon="11.982234935487817"><ele>321.0</ele><time>2026-04-26T11:52:30Z</time></trkpt><trkpt lat="42.64659400345692" lon="11.982092594677987"><ele>320.75</ele><time>2026-04-26T11:52:30.999Z</time></trkpt><trkpt lat="42.646632934733546" lon="11.98194799876602"><ele>320.5</ele><time>2026-04-26T11:52:31.999Z</time></trkpt><trkpt lat="42.64667033760638" lon="11.981802017541545"><ele>320.25</ele><time>2026-04-26T11:52:32.999Z</time></trkpt><trkpt lat="42.64670830858774" lon="11.98165895286095"><ele>320.0</ele><time>2026-04-26T11:52:33.999Z</time></trkpt><trkpt lat="42.64674781935463" lon="11.981512334214992"><ele>319.25</ele><time>2026-04-26T11:52:34.999Z</time></trkpt><trkpt lat="42.64678647182437" lon="11.981346788479886"><ele>318.5</ele><time>2026-04-26T11:52:35.999Z</time></trkpt><trkpt lat="42.64683057950378" lon="11.981157197246436"><ele>317.75</ele><time>2026-04-26T11:52:36.999Z</time></trkpt><trkpt lat="42.646880104492894" lon="11.980957739500223"><ele>317.0</ele><time>2026-04-26T11:52:37.999Z</time></trkpt><trkpt lat="42.646929126329475" lon="11.980775646187954"><ele>318.0</ele><time>2026-04-26T11:52:38.999Z</time></trkpt><trkpt lat="42.64698068982541" lon="11.980604482325727"><ele>319.0</ele><time>2026-04-26T11:52:39.999Z</time></trkpt><trkpt lat="42.64702609503593" lon="11.980436624602232"><ele>320.0</ele><time>2026-04-26T11:52:40.999Z</time></trkpt><trkpt lat="42.647064925551064" lon="11.9802782477303"><ele>321.0</ele><time>2026-04-26T11:52:41.999Z</time></trkpt><trkpt lat="42.64710768061137" lon="11.980121624111732"><ele>320.5</ele><time>2026-04-26T11:52:42.999Z</time></trkpt><trkpt lat="42.647148444775716" lon="11.979969364028085"><ele>320.0</ele><time>2026-04-26T11:52:43.999Z</time></trkpt><trkpt lat="42.64718575111511" lon="11.979814736320138"><ele>319.5</ele><time>2026-04-26T11:52:44.999Z</time></trkpt><trkpt lat="42.64722382708425" lon="11.979663224567071"><ele>319.0</ele><time>2026-04-26T11:52:45.999Z</time></trkpt><trkpt lat="42.64726567266197" lon="11.979517038837946"><ele>319.0</ele><time>2026-04-26T11:52:46.999Z</time></trkpt><trkpt lat="42.64730277748529" lon="11.979369898006562"><ele>319.0</ele><time>2026-04-26T11:52:47.999Z</time></trkpt><trkpt lat="42.64734002131442" lon="11.979209810158002"><ele>319.0</ele><time>2026-04-26T11:52:48.999Z</time></trkpt><trkpt lat="42.64737985037642" lon="11.979038895403626"><ele>319.0</ele><time>2026-04-26T11:52:49.999Z</time></trkpt><trkpt lat="42.64742473515438" lon="11.978863785286675"><ele>317.75</ele><time>2026-04-26T11:52:50.999Z</time></trkpt><trkpt lat="42.647470813041195" lon="11.978687660923944"><ele>316.5</ele><time>2026-04-26T11:52:51.999Z</time></trkpt><trkpt lat="42.64751872947394" lon="11.978505517249127"><ele>315.25</ele><time>2026-04-26T11:52:52.999Z</time></trkpt><trkpt lat="42.64756875581278" lon="11.97831830761642"><ele>314.0</ele><time>2026-04-26T11:52:53.999Z</time></trkpt><trkpt lat="42.64761464731099" lon="11.978133685077388"><ele>313.75</ele><time>2026-04-26T11:52:54.999Z</time></trkpt><trkpt lat="42.64765663716572" lon="11.977952919330793"><ele>313.5</ele><time>2026-04-26T11:52:55.999Z</time></trkpt><trkpt lat="42.64770016828632" lon="11.977775225757263"><ele>313.25</ele><time>2026-04-26T11:52:56.999Z</time></trkpt><trkpt lat="42.64774677512441" lon="11.977601060071834"><ele>313.0</ele><time>2026-04-26T11:52:57.999Z</time></trkpt><trkpt lat="42.64779033855698" lon="11.977435771480586"><ele>313.0</ele><time>2026-04-26T11:52:58.999Z</time></trkpt><trkpt lat="42.64783307797219" lon="11.977272856211362"><ele>313.0</ele><time>2026-04-26T11:52:59.999Z</time></trkpt><trkpt lat="42.647876478809984" lon="11.977113134298229"><ele>313.0</ele><time>2026-04-26T11:53:00.999Z</time></trkpt><trkpt lat="42.64791840324905" lon="11.976945741188457"><ele>313.0</ele><time>2026-04-26T11:53:01.999Z</time></trkpt><trkpt lat="42.647958817007364" lon="11.976772881943258"><ele>312.5</ele><time>2026-04-26T11:53:02.999Z</time></trkpt><trkpt lat="42.64799602403605" lon="11.976603820551805"><ele>312.0</ele><time>2026-04-26T11:53:03.999Z</time></trkpt><trkpt lat="42.648036387602495" lon="11.976442712077906"><ele>311.5</ele><time>2026-04-26T11:53:04.999Z</time></trkpt><trkpt lat="42.648076935591725" lon="11.976285042082331"><ele>311.0</ele><time>2026-04-26T11:53:05.999Z</time></trkpt><trkpt lat="42.64811756456449" lon="11.976132563661679"><ele>311.0</ele><time>2026-04-26T11:53:06.999Z</time></trkpt><trkpt lat="42.64816114615882" lon="11.975974333935245"><ele>311.0</ele><time>2026-04-26T11:53:07.999Z</time></trkpt><trkpt lat="42.6482088095173" lon="11.975791971450942"><ele>311.0</ele><time>2026-04-26T11:53:08.999Z</time></trkpt><trkpt lat="42.64825722120958" lon="11.975601947329794"><ele>311.0</ele><time>2026-04-26T11:53:09.999Z</time></trkpt><trkpt lat="42.648300658310276" lon="11.975414202753695"><ele>310.5</ele><time>2026-04-26T11:53:10.999Z</time></trkpt><trkpt lat="42.648342638618495" lon="11.975235625767278"><ele>310.0</ele><time>2026-04-26T11:53:11.999Z</time></trkpt><trkpt lat="42.64838504799845" lon="11.975060073228349"><ele>309.5</ele><time>2026-04-26T11:53:12.999Z</time></trkpt><trkpt lat="42.64842824351609" lon="11.97488522937076"><ele>309.0</ele><time>2026-04-26T11:53:13.999Z</time></trkpt><trkpt lat="42.648465978792736" lon="11.97471868060952"><ele>308.75</ele><time>2026-04-26T11:53:14.999Z</time></trkpt><trkpt lat="42.64850699104315" lon="11.97455005817204"><ele>308.5</ele><time>2026-04-26T11:53:15.999Z</time></trkpt><trkpt lat="42.6485475470254" lon="11.974387611539731"><ele>308.25</ele><time>2026-04-26T11:53:16.999Z</time></trkpt><trkpt lat="42.648585347975725" lon="11.97422237537096"><ele>308.0</ele><time>2026-04-26T11:53:17.999Z</time></trkpt><trkpt lat="42.64861988168942" lon="11.974063301605447"><ele>308.25</ele><time>2026-04-26T11:53:18.999Z</time></trkpt><trkpt lat="42.64865527875547" lon="11.973902016617938"><ele>308.5</ele><time>2026-04-26T11:53:19.999Z</time></trkpt><trkpt lat="42.64868603504003" lon="11.973749808901383"><ele>308.75</ele><time>2026-04-26T11:53:20.999Z</time></trkpt><trkpt lat="42.64871742190288" lon="11.973590781279846"><ele>309.0</ele><time>2026-04-26T11:53:21.999Z</time></trkpt><trkpt lat="42.648753741777625" lon="11.973415870114133"><ele>308.5</ele><time>2026-04-26T11:53:22.999Z</time></trkpt><trkpt lat="42.64879159130064" lon="11.973230169384664"><ele>308.0</ele><time>2026-04-26T11:53:23.999Z</time></trkpt><trkpt lat="42.64882798308887" lon="11.973037601326025"><ele>307.5</ele><time>2026-04-26T11:53:24.999Z</time></trkpt><trkpt lat="42.64886850412857" lon="11.972840683371007"><ele>307.0</ele><time>2026-04-26T11:53:25.999Z</time></trkpt><trkpt lat="42.64891189676064" lon="11.972650690744159"><ele>306.75</ele><time>2026-04-26T11:53:26.999Z</time></trkpt><trkpt lat="42.64895599561028" lon="11.972463018344579"><ele>306.5</ele><time>2026-04-26T11:53:27.999Z</time></trkpt><trkpt lat="42.64899704256792" lon="11.972277159616507"><ele>306.25</ele><time>2026-04-26T11:53:28.999Z</time></trkpt><trkpt lat="42.6490376972642" lon="11.972089161970226"><ele>306.0</ele><time>2026-04-26T11:53:29.999Z</time></trkpt><trkpt lat="42.649081715578916" lon="11.971903150497734"><ele>306.0</ele><time>2026-04-26T11:53:30.999Z</time></trkpt><trkpt lat="42.649127524107314" lon="11.97172320950262"><ele>306.0</ele><time>2026-04-26T11:53:31.999Z</time></trkpt><trkpt lat="42.649174455288694" lon="11.97155050323708"><ele>306.0</ele><time>2026-04-26T11:53:32.999Z</time></trkpt><trkpt lat="42.64921649891192" lon="11.971385299677936"><ele>306.0</ele><time>2026-04-26T11:53:33.999Z</time></trkpt><trkpt lat="42.64925500307083" lon="11.971231450326702"><ele>306.0</ele><time>2026-04-26T11:53:34.999Z</time></trkpt><trkpt lat="42.64929216199325" lon="11.971089828158357"><ele>306.0</ele><time>2026-04-26T11:53:35.999Z</time></trkpt><trkpt lat="42.64932580981363" lon="11.970960054600264"><ele>306.0</ele><time>2026-04-26T11:53:36.999Z</time></trkpt><trkpt lat="42.649348267359265" lon="11.970858489236434"><ele>306.0</ele><time>2026-04-26T11:53:37.999Z</time></trkpt><trkpt lat="42.649380186214444" lon="11.970719338170301"><ele>306.0</ele><time>2026-04-26T11:53:39.999Z</time></trkpt><trkpt lat="42.64941647980705" lon="11.970586521677559"><ele>306.0</ele><time>2026-04-26T11:53:41.999Z</time></trkpt><trkpt lat="42.64943746244701" lon="11.970504518988303"><ele>306.0</ele><time>2026-04-26T11:53:42.999Z</time></trkpt><trkpt lat="42.64946702038553" lon="11.970384061945486"><ele>306.0</ele><time>2026-04-26T11:53:43.999Z</time></trkpt><trkpt lat="42.64949611517974" lon="11.970265911899956"><ele>306.0</ele><time>2026-04-26T11:53:44.999Z</time></trkpt><trkpt lat="42.64952793060383" lon="11.97014796358599"><ele>306.0</ele><time>2026-04-26T11:53:45.999Z</time></trkpt><trkpt lat="42.64956126292399" lon="11.970023641172006"><ele>306.0</ele><time>2026-04-26T11:53:46.999Z</time></trkpt><trkpt lat="42.64959346767897" lon="11.96989941579657"><ele>306.0</ele><time>2026-04-26T11:53:47.999Z</time></trkpt><trkpt lat="42.64962032523548" lon="11.969772303747574"><ele>306.0</ele><time>2026-04-26T11:53:48.999Z</time></trkpt><trkpt lat="42.64964949445095" lon="11.969647555318655"><ele>306.0</ele><time>2026-04-26T11:53:49.999Z</time></trkpt><trkpt lat="42.64968086778121" lon="11.969518915953952"><ele>306.0</ele><time>2026-04-26T11:53:50.999Z</time></trkpt><trkpt lat="42.64971412393429" lon="11.969378398075241"><ele>306.0</ele><time>2026-04-26T11:53:51.999Z</time></trkpt><trkpt lat="42.64975235711564" lon="11.969240070559593"><ele>306.2</ele><time>2026-04-26T11:53:52.998Z</time></trkpt><trkpt lat="42.64979583164294" lon="11.969100045500692"><ele>306.40000000000003</ele><time>2026-04-26T11:53:53.998Z</time></trkpt><trkpt lat="42.64983494431237" lon="11.968962994762546"><ele>306.6</ele><time>2026-04-26T11:53:54.998Z</time></trkpt><trkpt lat="42.64986230778022" lon="11.968838213325034"><ele>306.8</ele><time>2026-04-26T11:53:55.998Z</time></trkpt><trkpt lat="42.64988655106154" lon="11.968732771893379"><ele>307.0</ele><time>2026-04-26T11:53:56.998Z</time></trkpt><trkpt lat="42.64992871090884" lon="11.968600057259062"><ele>307.0</ele><time>2026-04-26T11:53:58.998Z</time></trkpt><trkpt lat="42.649960603281" lon="11.968516029123819"><ele>307.0</ele><time>2026-04-26T11:54:00.998Z</time></trkpt><trkpt lat="42.64997306669354" lon="11.968430221046214"><ele>307.0</ele><time>2026-04-26T11:54:10Z</time></trkpt><trkpt lat="42.649970701944746" lon="11.968303341444262"><ele>307.0</ele><time>2026-04-26T11:54:12Z</time></trkpt><trkpt lat="42.64998817923291" lon="11.968213668080486"><ele>307.0</ele><time>2026-04-26T11:54:13Z</time></trkpt><trkpt lat="42.65002158205986" lon="11.968061109533956"><ele>307.0</ele><time>2026-04-26T11:54:15Z</time></trkpt><trkpt lat="42.65004994715332" lon="11.967925907871305"><ele>307.0</ele><time>2026-04-26T11:54:17Z</time></trkpt><trkpt lat="42.65007693653266" lon="11.967794436438355"><ele>307.0</ele><time>2026-04-26T11:54:19Z</time></trkpt><trkpt lat="42.650098761662925" lon="11.967662208675826"><ele>307.0</ele><time>2026-04-26T11:54:21Z</time></trkpt><trkpt lat="42.650121087686664" lon="11.96751229091622"><ele>307.0</ele><time>2026-04-26T11:54:23Z</time></trkpt><trkpt lat="42.65014953514344" lon="11.967368704923027"><ele>307.0</ele><time>2026-04-26T11:54:25Z</time></trkpt><trkpt lat="42.650170441628816" lon="11.967233563442953"><ele>307.0</ele><time>2026-04-26T11:54:27Z</time></trkpt><trkpt lat="42.6501954764952" lon="11.967111584863375"><ele>307.0</ele><time>2026-04-26T11:54:29Z</time></trkpt><trkpt lat="42.65026990295223" lon="11.96704163645046"><ele>307.0</ele><time>2026-04-26T11:54:31Z</time></trkpt><trkpt lat="42.65039046710334" lon="11.967055000889363"><ele>307.0</ele><time>2026-04-26T11:54:33Z</time></trkpt><trkpt lat="42.65047261831153" lon="11.967076301417107"><ele>307.0</ele><time>2026-04-26T11:54:34Z</time></trkpt><trkpt lat="42.65055886569517" lon="11.967098400972365"><ele>307.2</ele><time>2026-04-26T11:54:35Z</time></trkpt><trkpt lat="42.65066126690259" lon="11.967117552483417"><ele>307.4</ele><time>2026-04-26T11:54:36Z</time></trkpt><trkpt lat="42.650766855843194" lon="11.967139154062671"><ele>307.6</ele><time>2026-04-26T11:54:37Z</time></trkpt><trkpt lat="42.65087106127706" lon="11.967161878434556"><ele>307.8</ele><time>2026-04-26T11:54:38Z</time></trkpt><trkpt lat="42.65097640931858" lon="11.967185849065489"><ele>308.0</ele><time>2026-04-26T11:54:39Z</time></trkpt><trkpt lat="42.65108824525661" lon="11.967220663486625"><ele>308.25</ele><time>2026-04-26T11:54:40Z</time></trkpt><trkpt lat="42.65120196448108" lon="11.967268408394979"><ele>308.5</ele><time>2026-04-26T11:54:41Z</time></trkpt><trkpt lat="42.65131764169175" lon="11.967324608584597"><ele>308.75</ele><time>2026-04-26T11:54:42Z</time></trkpt><trkpt lat="42.65143637563292" lon="11.9673792164833"><ele>309.0</ele><time>2026-04-26T11:54:43Z</time></trkpt><trkpt lat="42.6515519302123" lon="11.967429425534567"><ele>309.0</ele><time>2026-04-26T11:54:44Z</time></trkpt><trkpt lat="42.651667742442804" lon="11.967481778537252"><ele>309.0</ele><time>2026-04-26T11:54:45Z</time></trkpt><trkpt lat="42.651777543549" lon="11.967535473488962"><ele>309.0</ele><time>2026-04-26T11:54:46Z</time></trkpt><trkpt lat="42.651886681798025" lon="11.967587271330972"><ele>309.0</ele><time>2026-04-26T11:54:47Z</time></trkpt><trkpt lat="42.651983142042425" lon="11.967649831568934"><ele>309.5</ele><time>2026-04-26T11:54:48Z</time></trkpt><trkpt lat="42.65206239531279" lon="11.967728751252569"><ele>310.0</ele><time>2026-04-26T11:54:48.999Z</time></trkpt><trkpt lat="42.652136077013594" lon="11.967802302712686"><ele>310.5</ele><time>2026-04-26T11:54:49.999Z</time></trkpt><trkpt lat="42.65220868112088" lon="11.967854572453417"><ele>311.0</ele><time>2026-04-26T11:54:50.999Z</time></trkpt><trkpt lat="42.65228249508181" lon="11.967858823034458"><ele>311.5</ele><time>2026-04-26T11:54:51.999Z</time></trkpt><trkpt lat="42.652349222714676" lon="11.967806146895809"><ele>312.0</ele><time>2026-04-26T11:54:52.999Z</time></trkpt><trkpt lat="42.65239384897919" lon="11.967705862474052"><ele>312.0</ele><time>2026-04-26T11:54:53.999Z</time></trkpt><trkpt lat="42.65242152509594" lon="11.967562932119378"><ele>312.0</ele><time>2026-04-26T11:54:54.999Z</time></trkpt><trkpt lat="42.65244116123658" lon="11.967405213005383"><ele>312.0</ele><time>2026-04-26T11:54:55.999Z</time></trkpt><trkpt lat="42.65246754565336" lon="11.967249014456776"><ele>312.0</ele><time>2026-04-26T11:54:56.999Z</time></trkpt><trkpt lat="42.65250029789037" lon="11.967107001105068"><ele>312.0</ele><time>2026-04-26T11:54:57.999Z</time></trkpt><trkpt lat="42.65254166385147" lon="11.966974591272248"><ele>312.0</ele><time>2026-04-26T11:54:58.999Z</time></trkpt><trkpt lat="42.65257749102856" lon="11.966863140388188"><ele>312.0</ele><time>2026-04-26T11:54:59.999Z</time></trkpt><trkpt lat="42.652618219559606" lon="11.966774542805018"><ele>312.0</ele><time>2026-04-26T11:55:00.999Z</time></trkpt><trkpt lat="42.652702097103045" lon="11.966681950552577"><ele>312.0</ele><time>2026-04-26T11:55:02.999Z</time></trkpt><trkpt lat="42.65283149657694" lon="11.966648872075329"><ele>312.0</ele><time>2026-04-26T11:55:04.999Z</time></trkpt><trkpt lat="42.65291831169261" lon="11.966645145480022"><ele>312.0</ele><time>2026-04-26T11:55:05.999Z</time></trkpt><trkpt lat="42.653016869163416" lon="11.966658129681951"><ele>312.0</ele><time>2026-04-26T11:55:06.999Z</time></trkpt><trkpt lat="42.653130578062715" lon="11.966685146762226"><ele>312.0</ele><time>2026-04-26T11:55:07.999Z</time></trkpt><trkpt lat="42.6532453250236" lon="11.9667149475776"><ele>312.0</ele><time>2026-04-26T11:55:08.999Z</time></trkpt><trkpt lat="42.65334903477311" lon="11.966737997176576"><ele>312.1666666666667</ele><time>2026-04-26T11:55:09.999Z</time></trkpt><trkpt lat="42.653444564841664" lon="11.96675985443058"><ele>312.3333333333333</ele><time>2026-04-26T11:55:10.999Z</time></trkpt><trkpt lat="42.653532848406485" lon="11.966773630485255"><ele>312.5</ele><time>2026-04-26T11:55:11.999Z</time></trkpt><trkpt lat="42.65361680487278" lon="11.966773868255526"><ele>312.66666666666663</ele><time>2026-04-26T11:55:12.999Z</time></trkpt><trkpt lat="42.6536901994715" lon="11.96678985707787"><ele>312.8333333333333</ele><time>2026-04-26T11:55:13.999Z</time></trkpt><trkpt lat="42.65377991033647" lon="11.966785288264354"><ele>313.0</ele><time>2026-04-26T11:55:15.999Z</time></trkpt><trkpt lat="42.65383779620891" lon="11.966833817001554"><ele>315.4</ele><time>2026-04-26T11:55:19.999Z</time></trkpt><trkpt lat="42.653797889451624" lon="11.966983561132746"><ele>317.8</ele><time>2026-04-26T11:55:20.999Z</time></trkpt><trkpt lat="42.65377386772526" lon="11.967083330323645"><ele>320.2</ele><time>2026-04-26T11:55:21.999Z</time></trkpt><trkpt lat="42.65375158490167" lon="11.967187153048808"><ele>322.6</ele><time>2026-04-26T11:55:22.999Z</time></trkpt><trkpt lat="42.65372971591901" lon="11.967317692872745"><ele>325.0</ele><time>2026-04-26T11:55:23.999Z</time></trkpt><trkpt lat="42.65370783273225" lon="11.967433041742568"><ele>326.0</ele><time>2026-04-26T11:55:24.999Z</time></trkpt><trkpt lat="42.653681177897404" lon="11.967540127149856"><ele>327.0</ele><time>2026-04-26T11:55:25.999Z</time></trkpt><trkpt lat="42.65364959423533" lon="11.967645600059363"><ele>328.0</ele><time>2026-04-26T11:55:26.999Z</time></trkpt><trkpt lat="42.65362374678492" lon="11.967751854544606"><ele>329.0</ele><time>2026-04-26T11:55:27.999Z</time></trkpt><trkpt lat="42.65360333060239" lon="11.96785805873535"><ele>330.0</ele><time>2026-04-26T11:55:28.999Z</time></trkpt><trkpt lat="42.65358523384071" lon="11.967956572827033"><ele>331.0</ele><time>2026-04-26T11:55:29.999Z</time></trkpt><trkpt lat="42.65356184780597" lon="11.968075018889163"><ele>329.16666666666663</ele><time>2026-04-26T11:55:30.999Z</time></trkpt><trkpt lat="42.65354363083213" lon="11.968181920100085"><ele>327.3333333333333</ele><time>2026-04-26T11:55:31.999Z</time></trkpt><trkpt lat="42.653521393394655" lon="11.968303788391653"><ele>325.5</ele><time>2026-04-26T11:55:32.999Z</time></trkpt><trkpt lat="42.65351095665058" lon="11.96842275817034"><ele>323.6666666666667</ele><time>2026-04-26T11:55:33.999Z</time></trkpt><trkpt lat="42.65349453715726" lon="11.968535811578882"><ele>321.83333333333337</ele><time>2026-04-26T11:55:34.999Z</time></trkpt><trkpt lat="42.65347567248319" lon="11.968636298819042"><ele>320.0</ele><time>2026-04-26T11:55:35.999Z</time></trkpt><trkpt lat="42.653451549099195" lon="11.968726796108015"><ele>320.0</ele><time>2026-04-26T11:55:36.999Z</time></trkpt><trkpt lat="42.65342024460261" lon="11.968823202212523"><ele>320.0</ele><time>2026-04-26T11:55:37.999Z</time></trkpt><trkpt lat="42.653385241878375" lon="11.968915895875615"><ele>320.0</ele><time>2026-04-26T11:55:38.999Z</time></trkpt><trkpt lat="42.65333872384366" lon="11.969014996053861"><ele>320.0</ele><time>2026-04-26T11:55:39.999Z</time></trkpt><trkpt lat="42.65329914197078" lon="11.969115130963438"><ele>320.0</ele><time>2026-04-26T11:55:40.999Z</time></trkpt><trkpt lat="42.65326802345175" lon="11.96922959429841"><ele>320.0</ele><time>2026-04-26T11:55:41.999Z</time></trkpt><trkpt lat="42.65323595444603" lon="11.969346428505782"><ele>320.6</ele><time>2026-04-26T11:55:42.999Z</time></trkpt><trkpt lat="42.65320872433373" lon="11.969450911376448"><ele>321.2</ele><time>2026-04-26T11:55:43.999Z</time></trkpt><trkpt lat="42.65314587016348" lon="11.969659716989522"><ele>321.79999999999995</ele><time>2026-04-26T11:55:45.999Z</time></trkpt><trkpt lat="42.65311555713638" lon="11.969757212943117"><ele>322.4</ele><time>2026-04-26T11:55:46.999Z</time></trkpt><trkpt lat="42.653081194656046" lon="11.969855244705203"><ele>323.0</ele><time>2026-04-26T11:55:47.999Z</time></trkpt><trkpt lat="42.65304689814274" lon="11.96994913610738"><ele>323.6666666666667</ele><time>2026-04-26T11:55:48.999Z</time></trkpt><trkpt lat="42.653013139801274" lon="11.970038927957145"><ele>324.33333333333337</ele><time>2026-04-26T11:55:49.999Z</time></trkpt><trkpt lat="42.65298314001578" lon="11.970128355071433"><ele>325.0</ele><time>2026-04-26T11:55:50.999Z</time></trkpt><trkpt lat="42.65294562200308" lon="11.970220751475388"><ele>325.6666666666667</ele><time>2026-04-26T11:55:51.999Z</time></trkpt><trkpt lat="42.65290448433428" lon="11.97031863452862"><ele>326.3333333333333</ele><time>2026-04-26T11:55:52.999Z</time></trkpt><trkpt lat="42.65286281721152" lon="11.97040926562998"><ele>327.0</ele><time>2026-04-26T11:55:53.999Z</time></trkpt><trkpt lat="42.65281528701406" lon="11.970501300126156"><ele>325.5</ele><time>2026-04-26T11:55:54.999Z</time></trkpt><trkpt lat="42.652777666586104" lon="11.970599155211428"><ele>324.0</ele><time>2026-04-26T11:55:55.999Z</time></trkpt><trkpt lat="42.65274835646976" lon="11.970702520149636"><ele>322.5</ele><time>2026-04-26T11:55:56.999Z</time></trkpt><trkpt lat="42.65271850066569" lon="11.970807406943809"><ele>321.0</ele><time>2026-04-26T11:55:57.999Z</time></trkpt><trkpt lat="42.65269343836408" lon="11.970915591725173"><ele>319.5</ele><time>2026-04-26T11:55:58.999Z</time></trkpt><trkpt lat="42.65266445809021" lon="11.97104473830148"><ele>318.0</ele><time>2026-04-26T11:55:59.999Z</time></trkpt><trkpt lat="42.652640412202786" lon="11.97118635855881"><ele>318.0</ele><time>2026-04-26T11:56:00.999Z</time></trkpt><trkpt lat="42.65261743183198" lon="11.971319187026516"><ele>318.0</ele><time>2026-04-26T11:56:01.999Z</time></trkpt><trkpt lat="42.65259432582655" lon="11.971442740215204"><ele>318.0</ele><time>2026-04-26T11:56:02.999Z</time></trkpt><trkpt lat="42.652569230386376" lon="11.971557494858077"><ele>318.0</ele><time>2026-04-26T11:56:03.999Z</time></trkpt><trkpt lat="42.65254384337987" lon="11.971660136430257"><ele>318.0</ele><time>2026-04-26T11:56:04.999Z</time></trkpt><trkpt lat="42.65251675189028" lon="11.971746781647521"><ele>318.0</ele><time>2026-04-26T11:56:05.999Z</time></trkpt><trkpt lat="42.65247949855527" lon="11.971831353143061"><ele>318.6666666666667</ele><time>2026-04-26T11:56:06.999Z</time></trkpt><trkpt lat="42.65242160834653" lon="11.971901039313453"><ele>319.3333333333333</ele><time>2026-04-26T11:56:07.999Z</time></trkpt><trkpt lat="42.652385305160806" lon="11.972003000151812"><ele>320.0</ele><time>2026-04-26T11:56:08.999Z</time></trkpt><trkpt lat="42.652333705998565" lon="11.972086354939266"><ele>320.66666666666663</ele><time>2026-04-26T11:56:09.999Z</time></trkpt><trkpt lat="42.65229521921131" lon="11.972179837726555"><ele>321.3333333333333</ele><time>2026-04-26T11:56:10.999Z</time></trkpt><trkpt lat="42.65225566647939" lon="11.972270426053983"><ele>322.0</ele><time>2026-04-26T11:56:11.998Z</time></trkpt><trkpt lat="42.652220336842944" lon="11.97237896742229"><ele>322.0</ele><time>2026-04-26T11:56:12.998Z</time></trkpt><trkpt lat="42.65218709081273" lon="11.972485609985469"><ele>322.0</ele><time>2026-04-26T11:56:14Z</time></trkpt><trkpt lat="42.65213633795032" lon="11.972570275194474"><ele>322.0</ele><time>2026-04-26T11:56:15Z</time></trkpt><trkpt lat="42.65212526914871" lon="11.972661694686277"><ele>322.0</ele><time>2026-04-26T11:56:16Z</time></trkpt><trkpt lat="42.65211399479739" lon="11.97279483024057"><ele>322.0</ele><time>2026-04-26T11:56:18Z</time></trkpt><trkpt lat="42.652149127002026" lon="11.972886840443524"><ele>322.0</ele><time>2026-04-26T11:56:20Z</time></trkpt><trkpt lat="42.652197830146555" lon="11.972947504235519"><ele>322.8</ele><time>2026-04-26T11:56:21Z</time></trkpt><trkpt lat="42.652275327703066" lon="11.973042667208794"><ele>323.6</ele><time>2026-04-26T11:56:23Z</time></trkpt><trkpt lat="42.65232433326013" lon="11.973172011715201"><ele>324.40000000000003</ele><time>2026-04-26T11:56:25Z</time></trkpt><trkpt lat="42.652290501841" lon="11.973287496577013"><ele>325.20000000000005</ele><time>2026-04-26T11:56:26Z</time></trkpt><trkpt lat="42.65228256128252" lon="11.973406062948175"><ele>326.0</ele><time>2026-04-26T11:56:27Z</time></trkpt><trkpt lat="42.65224441446946" lon="11.973525960338122"><ele>327.33333333333337</ele><time>2026-04-26T11:56:28Z</time></trkpt><trkpt lat="42.652212025132734" lon="11.973639804059165"><ele>328.6666666666667</ele><time>2026-04-26T11:56:29Z</time></trkpt><trkpt lat="42.652195301820676" lon="11.973725795899101"><ele>330.0</ele><time>2026-04-26T11:56:30Z</time></trkpt><trkpt lat="42.652174616228905" lon="11.973852563074994"><ele>331.3333333333333</ele><time>2026-04-26T11:56:32Z</time></trkpt><trkpt lat="42.65215875869246" lon="11.97394353541784"><ele>332.66666666666663</ele><time>2026-04-26T11:56:34Z</time></trkpt><trkpt lat="42.65224494663219" lon="11.973963055816302"><ele>334.0</ele><time>2026-04-26T11:56:37Z</time></trkpt><trkpt lat="42.65231340598176" lon="11.973878223923828"><ele>334.0</ele><time>2026-04-26T11:56:38Z</time></trkpt><trkpt lat="42.65241010424921" lon="11.973834891226085"><ele>334.0</ele><time>2026-04-26T11:56:39Z</time></trkpt><trkpt lat="42.65250717134338" lon="11.97378469286332"><ele>334.0</ele><time>2026-04-26T11:56:40Z</time></trkpt><trkpt lat="42.652614487743534" lon="11.97374607321835"><ele>334.0</ele><time>2026-04-26T11:56:41Z</time></trkpt><trkpt lat="42.65273167386633" lon="11.973714250602805"><ele>334.0</ele><time>2026-04-26T11:56:42Z</time></trkpt><trkpt lat="42.652881137521376" lon="11.973693487512737"><ele>337.25</ele><time>2026-04-26T11:56:43Z</time></trkpt><trkpt lat="42.65302357208115" lon="11.973649946414671"><ele>340.5</ele><time>2026-04-26T11:56:44Z</time></trkpt><trkpt lat="42.65315891307398" lon="11.973588817951493"><ele>343.75</ele><time>2026-04-26T11:56:45Z</time></trkpt><trkpt lat="42.65329184696547" lon="11.973519268125859"><ele>347.0</ele><time>2026-04-26T11:56:46Z</time></trkpt><trkpt lat="42.653421043281874" lon="11.973440163827458"><ele>347.0</ele><time>2026-04-26T11:56:47Z</time></trkpt><trkpt lat="42.65353495961749" lon="11.973368349619223"><ele>347.0</ele><time>2026-04-26T11:56:48Z</time></trkpt><trkpt lat="42.65365738284191" lon="11.97329870466101"><ele>347.0</ele><time>2026-04-26T11:56:49Z</time></trkpt><trkpt lat="42.65378047067903" lon="11.973244321837903"><ele>347.0</ele><time>2026-04-26T11:56:50Z</time></trkpt><trkpt lat="42.65389026923825" lon="11.973213092406812"><ele>347.75</ele><time>2026-04-26T11:56:51Z</time></trkpt><trkpt lat="42.654000243586374" lon="11.973187337917773"><ele>348.5</ele><time>2026-04-26T11:56:52Z</time></trkpt><trkpt lat="42.65410500134473" lon="11.973148112332163"><ele>349.25</ele><time>2026-04-26T11:56:52.999Z</time></trkpt><trkpt lat="42.65420247698485" lon="11.973082427418841"><ele>350.0</ele><time>2026-04-26T11:56:53.999Z</time></trkpt><trkpt lat="42.65427409947178" lon="11.972936272733886"><ele>350.0</ele><time>2026-04-26T11:56:54.999Z</time></trkpt><trkpt lat="42.6543672162427" lon="11.972821789025545"><ele>350.0</ele><time>2026-04-26T11:56:55.999Z</time></trkpt><trkpt lat="42.654458193622744" lon="11.972710594455938"><ele>350.0</ele><time>2026-04-26T11:56:56.999Z</time></trkpt><trkpt lat="42.654558889009955" lon="11.9726008171894"><ele>350.0</ele><time>2026-04-26T11:56:57.999Z</time></trkpt><trkpt lat="42.654674525635514" lon="11.972499182139455"><ele>351.0</ele><time>2026-04-26T11:56:58.999Z</time></trkpt><trkpt lat="42.65479778705707" lon="11.972401692595062"><ele>352.0</ele><time>2026-04-26T11:56:59.999Z</time></trkpt><trkpt lat="42.65491504130593" lon="11.972311909102887"><ele>353.0</ele><time>2026-04-26T11:57:00.999Z</time></trkpt><trkpt lat="42.655019550393106" lon="11.972217951212892"><ele>354.0</ele><time>2026-04-26T11:57:01.999Z</time></trkpt><trkpt lat="42.655112705546" lon="11.972110615611545"><ele>354.0</ele><time>2026-04-26T11:57:02.999Z</time></trkpt><trkpt lat="42.655185643610224" lon="11.971976188002445"><ele>354.0</ele><time>2026-04-26T11:57:03.999Z</time></trkpt><trkpt lat="42.65524607411523" lon="11.971858331305958"><ele>354.0</ele><time>2026-04-26T11:57:04.999Z</time></trkpt><trkpt lat="42.65529385519381" lon="11.971775534666426"><ele>354.0</ele><time>2026-04-26T11:57:05.999Z</time></trkpt><trkpt lat="42.65533878091025" lon="11.971700541851298"><ele>354.0</ele><time>2026-04-26T11:57:06.999Z</time></trkpt><trkpt lat="42.65542931428832" lon="11.971690163785372"><ele>354.5</ele><time>2026-04-26T11:57:07.999Z</time></trkpt><trkpt lat="42.65553071220859" lon="11.971645503966233"><ele>355.0</ele><time>2026-04-26T11:57:08.999Z</time></trkpt><trkpt lat="42.65561724810183" lon="11.971595020352774"><ele>355.5</ele><time>2026-04-26T11:57:09.999Z</time></trkpt><trkpt lat="42.655695158167305" lon="11.971544648580517"><ele>356.0</ele><time>2026-04-26T11:57:10.999Z</time></trkpt><trkpt lat="42.65576226760803" lon="11.971501259814774"><ele>356.5</ele><time>2026-04-26T11:57:11.999Z</time></trkpt><trkpt lat="42.65583923344491" lon="11.971454330534948"><ele>357.0</ele><time>2026-04-26T11:57:12.999Z</time></trkpt><trkpt lat="42.6559349162112" lon="11.971401011640948"><ele>357.0</ele><time>2026-04-26T11:57:13.999Z</time></trkpt><trkpt lat="42.65602990854898" lon="11.971350814437603"><ele>357.0</ele><time>2026-04-26T11:57:14.999Z</time></trkpt><trkpt lat="42.6561174934939" lon="11.97128149270978"><ele>357.0</ele><time>2026-04-26T11:57:15.999Z</time></trkpt><trkpt lat="42.65621554198058" lon="11.971240747179987"><ele>357.0</ele><time>2026-04-26T11:57:16.999Z</time></trkpt><trkpt lat="42.65631489725123" lon="11.971209798339238"><ele>357.0</ele><time>2026-04-26T11:57:17.999Z</time></trkpt><trkpt lat="42.656406240906854" lon="11.971173304964152"><ele>358.40000000000003</ele><time>2026-04-26T11:57:18.999Z</time></trkpt><trkpt lat="42.65650846338743" lon="11.97113747414646"><ele>359.8</ele><time>2026-04-26T11:57:19.999Z</time></trkpt><trkpt lat="42.65662243483874" lon="11.971108487824978"><ele>361.2</ele><time>2026-04-26T11:57:20.999Z</time></trkpt><trkpt lat="42.656723694054264" lon="11.971087377530496"><ele>362.6</ele><time>2026-04-26T11:57:21.999Z</time></trkpt><trkpt lat="42.65681836197012" lon="11.971069755709808"><ele>364.0</ele><time>2026-04-26T11:57:22.999Z</time></trkpt><trkpt lat="42.656923107129835" lon="11.971053285057025"><ele>366.25</ele><time>2026-04-26T11:57:23.999Z</time></trkpt><trkpt lat="42.65703573752636" lon="11.971037357388285"><ele>368.5</ele><time>2026-04-26T11:57:24.999Z</time></trkpt><trkpt lat="42.65714822413336" lon="11.971021764410535"><ele>370.75</ele><time>2026-04-26T11:57:25.999Z</time></trkpt><trkpt lat="42.65726323417378" lon="11.971005520320983"><ele>373.0</ele><time>2026-04-26T11:57:26.999Z</time></trkpt><trkpt lat="42.657379076332255" lon="11.970966580642221"><ele>373.0</ele><time>2026-04-26T11:57:27.999Z</time></trkpt><trkpt lat="42.657487581405" lon="11.970965704165842"><ele>373.0</ele><time>2026-04-26T11:57:28.999Z</time></trkpt><trkpt lat="42.65759318742061" lon="11.970951971069034"><ele>373.0</ele><time>2026-04-26T11:57:29.999Z</time></trkpt><trkpt lat="42.65769766466097" lon="11.970950912620008"><ele>373.0</ele><time>2026-04-26T11:57:30.999Z</time></trkpt><trkpt lat="42.657804829737444" lon="11.97094337999067"><ele>373.0</ele><time>2026-04-26T11:57:31.999Z</time></trkpt><trkpt lat="42.65790424056651" lon="11.970930451156205"><ele>373.8333333333333</ele><time>2026-04-26T11:57:32.999Z</time></trkpt><trkpt lat="42.65800837440166" lon="11.970926899186924"><ele>374.66666666666663</ele><time>2026-04-26T11:57:33.999Z</time></trkpt><trkpt lat="42.658096875204805" lon="11.97090967554313"><ele>375.5</ele><time>2026-04-26T11:57:34.999Z</time></trkpt><trkpt lat="42.658181860863785" lon="11.97089552785986"><ele>376.3333333333333</ele><time>2026-04-26T11:57:35.999Z</time></trkpt><trkpt lat="42.658266741560226" lon="11.970886311609126"><ele>377.1666666666667</ele><time>2026-04-26T11:57:36.999Z</time></trkpt><trkpt lat="42.6583487938021" lon="11.970911704027449"><ele>378.0</ele><time>2026-04-26T11:57:37.999Z</time></trkpt><trkpt lat="42.65843478770362" lon="11.970925529987746"><ele>378.0</ele><time>2026-04-26T11:57:38.999Z</time></trkpt><trkpt lat="42.65852608821956" lon="11.970944914294773"><ele>378.0</ele><time>2026-04-26T11:57:39.999Z</time></trkpt><trkpt lat="42.65861549778008" lon="11.9709666096923"><ele>378.0</ele><time>2026-04-26T11:57:40.999Z</time></trkpt><trkpt lat="42.65870414528887" lon="11.970989162430431"><ele>378.0</ele><time>2026-04-26T11:57:41.999Z</time></trkpt><trkpt lat="42.65879828923862" lon="11.97101324916202"><ele>378.0</ele><time>2026-04-26T11:57:42.999Z</time></trkpt><trkpt lat="42.65890722362047" lon="11.971030681201682"><ele>379.0</ele><time>2026-04-26T11:57:43.999Z</time></trkpt><trkpt lat="42.6590166273212" lon="11.971070996609914"><ele>380.0</ele><time>2026-04-26T11:57:44.999Z</time></trkpt><trkpt lat="42.65911711973893" lon="11.971111213593877"><ele>381.0</ele><time>2026-04-26T11:57:45.999Z</time></trkpt><trkpt lat="42.6592100083962" lon="11.971141868079322"><ele>382.0</ele><time>2026-04-26T11:57:46.999Z</time></trkpt><trkpt lat="42.65929159917315" lon="11.971175783510539"><ele>383.0</ele><time>2026-04-26T11:57:47.999Z</time></trkpt><trkpt lat="42.65937172648749" lon="11.971207640550869"><ele>383.0</ele><time>2026-04-26T11:57:48.999Z</time></trkpt><trkpt lat="42.65944658241251" lon="11.971245352820306"><ele>383.0</ele><time>2026-04-26T11:57:49.999Z</time></trkpt><trkpt lat="42.65950596781086" lon="11.971311214604771"><ele>383.0</ele><time>2026-04-26T11:57:50.999Z</time></trkpt><trkpt lat="42.65958711033355" lon="11.971351490375858"><ele>383.0</ele><time>2026-04-26T11:57:51.999Z</time></trkpt><trkpt lat="42.659660406044985" lon="11.971437337017587"><ele>383.0</ele><time>2026-04-26T11:57:52.999Z</time></trkpt><trkpt lat="42.65974144471899" lon="11.971539595165705"><ele>383.4</ele><time>2026-04-26T11:57:53.999Z</time></trkpt><trkpt lat="42.659828660629366" lon="11.97163894792209"><ele>383.79999999999995</ele><time>2026-04-26T11:57:54.999Z</time></trkpt><trkpt lat="42.65991944775439" lon="11.971703863867095"><ele>384.2</ele><time>2026-04-26T11:57:55.999Z</time></trkpt><trkpt lat="42.660014521957194" lon="11.971756521402376"><ele>384.6</ele><time>2026-04-26T11:57:56.999Z</time></trkpt><trkpt lat="42.66012565038853" lon="11.97178729276983"><ele>385.0</ele><time>2026-04-26T11:57:57.999Z</time></trkpt><trkpt lat="42.66023942717531" lon="11.97180817219967"><ele>385.4</ele><time>2026-04-26T11:57:58.999Z</time></trkpt><trkpt lat="42.660340990649324" lon="11.971852815020702"><ele>385.8</ele><time>2026-04-26T11:57:59.999Z</time></trkpt><trkpt lat="42.66044274486205" lon="11.971891937459423"><ele>386.20000000000005</ele><time>2026-04-26T11:58:00.999Z</time></trkpt><trkpt lat="42.6605386874337" lon="11.971928825418939"><ele>386.6</ele><time>2026-04-26T11:58:01.999Z</time></trkpt><trkpt lat="42.66063474865477" lon="11.971942794925726"><ele>387.0</ele><time>2026-04-26T11:58:02.999Z</time></trkpt><trkpt lat="42.66071230034758" lon="11.971987467920806"><ele>387.0</ele><time>2026-04-26T11:58:03.999Z</time></trkpt><trkpt lat="42.66078510618243" lon="11.972014417906104"><ele>387.0</ele><time>2026-04-26T11:58:04.999Z</time></trkpt><trkpt lat="42.66086140203573" lon="11.972037286314487"><ele>387.0</ele><time>2026-04-26T11:58:05.999Z</time></trkpt><trkpt lat="42.660937604545296" lon="11.97207399045436"><ele>387.0</ele><time>2026-04-26T11:58:06.999Z</time></trkpt><trkpt lat="42.66100969864978" lon="11.972107964635844"><ele>387.0</ele><time>2026-04-26T11:58:07.999Z</time></trkpt><trkpt lat="42.66108367975264" lon="11.972141394915667"><ele>387.0</ele><time>2026-04-26T11:58:08.999Z</time></trkpt><trkpt lat="42.66116161399167" lon="11.972175400732521"><ele>387.5</ele><time>2026-04-26T11:58:09.999Z</time></trkpt><trkpt lat="42.661233613739995" lon="11.972205546259149"><ele>388.0</ele><time>2026-04-26T11:58:10.999Z</time></trkpt><trkpt lat="42.6613060585416" lon="11.972232689655376"><ele>388.5</ele><time>2026-04-26T11:58:11.999Z</time></trkpt><trkpt lat="42.66137094289924" lon="11.97226543738262"><ele>389.0</ele><time>2026-04-26T11:58:12.999Z</time></trkpt><trkpt lat="42.66146568425009" lon="11.97229752146961"><ele>389.5</ele><time>2026-04-26T11:58:14.998Z</time></trkpt><trkpt lat="42.66153126626864" lon="11.972345404382219"><ele>390.0</ele><time>2026-04-26T11:58:17.998Z</time></trkpt><trkpt lat="42.661608272394034" lon="11.972192494882423"><ele>390.0</ele><time>2026-04-26T11:58:18.998Z</time></trkpt><trkpt lat="42.66162669833631" lon="11.9721026960156"><ele>390.0</ele><time>2026-04-26T11:58:20Z</time></trkpt><trkpt lat="42.66163543355456" lon="11.97199812333893"><ele>390.0</ele><time>2026-04-26T11:58:21Z</time></trkpt><trkpt lat="42.661649303999" lon="11.971866610594832"><ele>390.0</ele><time>2026-04-26T11:58:22Z</time></trkpt><trkpt lat="42.661663736879326" lon="11.971745846920452"><ele>390.0</ele><time>2026-04-26T11:58:23Z</time></trkpt><trkpt lat="42.66167647756683" lon="11.971633027171304"><ele>390.0</ele><time>2026-04-26T11:58:24Z</time></trkpt><trkpt lat="42.66168987382462" lon="11.971510557136035"><ele>390.1666666666667</ele><time>2026-04-26T11:58:25Z</time></trkpt><trkpt lat="42.661703692205435" lon="11.971384228010283"><ele>390.33333333333337</ele><time>2026-04-26T11:58:26Z</time></trkpt><trkpt lat="42.6617015322608" lon="11.971254680629382"><ele>390.5</ele><time>2026-04-26T11:58:27Z</time></trkpt><trkpt lat="42.66171492050854" lon="11.971138179381645"><ele>390.6666666666667</ele><time>2026-04-26T11:58:28Z</time></trkpt><trkpt lat="42.661723882849955" lon="11.971047295017792"><ele>390.83333333333337</ele><time>2026-04-26T11:58:29Z</time></trkpt><trkpt lat="42.661733685184124" lon="11.970958963070848"><ele>391.0</ele><time>2026-04-26T11:58:31Z</time></trkpt><trkpt lat="42.66176226153684" lon="11.970849357299382"><ele>392.00000000000006</ele><time>2026-04-26T11:58:34Z</time></trkpt><trkpt lat="42.661771381557614" lon="11.970762242501142"><ele>393.0</ele><time>2026-04-26T11:58:36Z</time></trkpt><trkpt lat="42.66178153366315" lon="11.970651964016884"><ele>394.0</ele><time>2026-04-26T11:58:38Z</time></trkpt><trkpt lat="42.661786496666245" lon="11.970545793426101"><ele>395.0</ele><time>2026-04-26T11:58:40Z</time></trkpt><trkpt lat="42.66179266986967" lon="11.970446145977544"><ele>396.00000000000006</ele><time>2026-04-26T11:58:42Z</time></trkpt><trkpt lat="42.661808680122746" lon="11.970309175160622"><ele>397.0</ele><time>2026-04-26T11:58:44Z</time></trkpt><trkpt lat="42.66184222604523" lon="11.97015624290109"><ele>397.20000000000005</ele><time>2026-04-26T11:58:46Z</time></trkpt><trkpt lat="42.66188012232845" lon="11.970013838122249"><ele>397.4</ele><time>2026-04-26T11:58:48Z</time></trkpt><trkpt lat="42.66192575538159" lon="11.96986739356812"><ele>397.6</ele><time>2026-04-26T11:58:50Z</time></trkpt><trkpt lat="42.66197867850558" lon="11.969712961124786"><ele>397.79999999999995</ele><time>2026-04-26T11:58:52Z</time></trkpt><trkpt lat="42.66200906278303" lon="11.969636938754721"><ele>398.0</ele><time>2026-04-26T11:58:53Z</time></trkpt><trkpt lat="42.662041682660806" lon="11.969557343242101"><ele>398.0</ele><time>2026-04-26T11:58:54Z</time></trkpt><trkpt lat="42.66208674913587" lon="11.96945229141735"><ele>398.0</ele><time>2026-04-26T11:58:55.999Z</time></trkpt><trkpt lat="42.662121727267156" lon="11.969371408410588"><ele>398.0</ele><time>2026-04-26T11:58:57.999Z</time></trkpt><trkpt lat="42.6621693641213" lon="11.969260719578886"><ele>398.0</ele><time>2026-04-26T11:59:00.999Z</time></trkpt><trkpt lat="42.66221308788451" lon="11.9691572196447"><ele>398.0</ele><time>2026-04-26T11:59:02.999Z</time></trkpt><trkpt lat="42.66226892128827" lon="11.969006214329685"><ele>397.66666666666663</ele><time>2026-04-26T11:59:04.999Z</time></trkpt><trkpt lat="42.66229661328643" lon="11.968925699695216"><ele>397.3333333333333</ele><time>2026-04-26T11:59:05.999Z</time></trkpt><trkpt lat="42.66231751424966" lon="11.968843979297732"><ele>397.0</ele><time>2026-04-26T11:59:06.999Z</time></trkpt><trkpt lat="42.66233800093762" lon="11.968759842423292"><ele>396.66666666666663</ele><time>2026-04-26T11:59:07.999Z</time></trkpt><trkpt lat="42.66237641789441" lon="11.968597970080554"><ele>396.3333333333333</ele><time>2026-04-26T11:59:09.999Z</time></trkpt><trkpt lat="42.66241331664024" lon="11.968444101553576"><ele>396.0</ele><time>2026-04-26T11:59:11.999Z</time></trkpt><trkpt lat="42.6624330869018" lon="11.968299260187433"><ele>395.8333333333333</ele><time>2026-04-26T11:59:13.999Z</time></trkpt><trkpt lat="42.66245563242082" lon="11.96821924718176"><ele>395.66666666666663</ele><time>2026-04-26T11:59:14.999Z</time></trkpt><trkpt lat="42.66247071521838" lon="11.96812498925508"><ele>395.5</ele><time>2026-04-26T11:59:15.999Z</time></trkpt><trkpt lat="42.662495145082005" lon="11.968040794101183"><ele>395.3333333333333</ele><time>2026-04-26T11:59:16.999Z</time></trkpt><trkpt lat="42.66252049170668" lon="11.967918910546208"><ele>395.16666666666663</ele><time>2026-04-26T11:59:18.999Z</time></trkpt><trkpt lat="42.662513436624025" lon="11.967776119944373"><ele>395.0</ele><time>2026-04-26T11:59:21.999Z</time></trkpt><trkpt lat="42.66249001049351" lon="11.967675388220028"><ele>395.0</ele><time>2026-04-26T11:59:23.999Z</time></trkpt><trkpt lat="42.66248639602916" lon="11.967557325080332"><ele>395.0</ele><time>2026-04-26T11:59:25.999Z</time></trkpt><trkpt lat="42.66249085916256" lon="11.967437247755267"><ele>395.0</ele><time>2026-04-26T11:59:27.999Z</time></trkpt><trkpt lat="42.66251283773127" lon="11.967320416488995"><ele>395.0</ele><time>2026-04-26T11:59:29.999Z</time></trkpt><trkpt lat="42.662553644240745" lon="11.967198156153335"><ele>395.0</ele><time>2026-04-26T11:59:31.999Z</time></trkpt><trkpt lat="42.662602921279586" lon="11.967087080824587"><ele>394.8333333333333</ele><time>2026-04-26T11:59:33.999Z</time></trkpt><trkpt lat="42.66265811554383" lon="11.966984871577123"><ele>394.66666666666663</ele><time>2026-04-26T11:59:35.999Z</time></trkpt><trkpt lat="42.662703372660346" lon="11.966886062091149"><ele>394.5</ele><time>2026-04-26T11:59:37.999Z</time></trkpt><trkpt lat="42.66273416551252" lon="11.966798836282683"><ele>394.33333333333337</ele><time>2026-04-26T11:59:38.999Z</time></trkpt><trkpt lat="42.662763948088" lon="11.966700868856158"><ele>394.1666666666667</ele><time>2026-04-26T11:59:39.999Z</time></trkpt><trkpt lat="42.66279176019502" lon="11.9666124756588"><ele>394.0</ele><time>2026-04-26T11:59:40.999Z</time></trkpt><trkpt lat="42.66281824294189" lon="11.966528305789762"><ele>394.4</ele><time>2026-04-26T11:59:41.999Z</time></trkpt><trkpt lat="42.662869394433365" lon="11.966396361101742"><ele>394.79999999999995</ele><time>2026-04-26T11:59:43.999Z</time></trkpt><trkpt lat="42.66293868325899" lon="11.966266830998467"><ele>395.20000000000005</ele><time>2026-04-26T11:59:45.999Z</time></trkpt><trkpt lat="42.6630186980904" lon="11.966138955318034"><ele>395.6</ele><time>2026-04-26T11:59:47.999Z</time></trkpt><trkpt lat="42.6630784651659" lon="11.966051049388406"><ele>396.0</ele><time>2026-04-26T11:59:49.999Z</time></trkpt><trkpt lat="42.66314166226011" lon="11.965968216508333"><ele>396.0</ele><time>2026-04-26T11:59:52.999Z</time></trkpt><trkpt lat="42.663201164229726" lon="11.965900005170003"><ele>396.0</ele><time>2026-04-26T11:59:55.999Z</time></trkpt><trkpt lat="42.66325559158201" lon="11.965839877531876"><ele>396.0</ele><time>2026-04-26T11:59:57.999Z</time></trkpt><trkpt lat="42.66334878182431" lon="11.965738571208973"><ele>396.0</ele><time>2026-04-26T11:59:59.999Z</time></trkpt><trkpt lat="42.663403026804296" lon="11.965681598354914"><ele>396.0</ele><time>2026-04-26T12:00:00.999Z</time></trkpt><trkpt lat="42.663455116539595" lon="11.965625334178023"><ele>396.0</ele><time>2026-04-26T12:00:01.999Z</time></trkpt><trkpt lat="42.663502759336495" lon="11.965568475866469"><ele>396.0</ele><time>2026-04-26T12:00:02.999Z</time></trkpt><trkpt lat="42.66358091780496" lon="11.965453492454843"><ele>396.0</ele><time>2026-04-26T12:00:04.999Z</time></trkpt><trkpt lat="42.66363530724596" lon="11.965329885614958"><ele>396.0</ele><time>2026-04-26T12:00:06.999Z</time></trkpt><trkpt lat="42.66366779770541" lon="11.965165929554983"><ele>396.0</ele><time>2026-04-26T12:00:08.999Z</time></trkpt><trkpt lat="42.66368716037371" lon="11.965000487638223"><ele>396.4</ele><time>2026-04-26T12:00:10.999Z</time></trkpt><trkpt lat="42.663715742585815" lon="11.964869740174368"><ele>396.8</ele><time>2026-04-26T12:00:12.999Z</time></trkpt><trkpt lat="42.66375440373318" lon="11.964769947034798"><ele>397.2</ele><time>2026-04-26T12:00:14.998Z</time></trkpt><trkpt lat="42.663801992282046" lon="11.964672820850746"><ele>397.59999999999997</ele><time>2026-04-26T12:00:16.998Z</time></trkpt><trkpt lat="42.66386200139222" lon="11.964565225139992"><ele>398.0</ele><time>2026-04-26T12:00:18.998Z</time></trkpt><trkpt lat="42.66393600619075" lon="11.96445735172543"><ele>398.0</ele><time>2026-04-26T12:00:20.998Z</time></trkpt><trkpt lat="42.664023973558976" lon="11.964354589855077"><ele>398.0</ele><time>2026-04-26T12:00:22.998Z</time></trkpt><trkpt lat="42.66407819076047" lon="11.964241193241051"><ele>398.0</ele><time>2026-04-26T12:00:24.998Z</time></trkpt><trkpt lat="42.66408215269782" lon="11.964106750822447"><ele>398.0</ele><time>2026-04-26T12:00:27Z</time></trkpt><trkpt lat="42.66403599395035" lon="11.964013043687187"><ele>398.0</ele><time>2026-04-26T12:00:29Z</time></trkpt><trkpt lat="42.6640358501815" lon="11.96391823458305"><ele>397.99999999999994</ele><time>2026-04-26T12:00:31Z</time></trkpt><trkpt lat="42.66402284239731" lon="11.963792413627486"><ele>398.0</ele><time>2026-04-26T12:00:34Z</time></trkpt><trkpt lat="42.66402405269507" lon="11.96370385935987"><ele>398.0</ele><time>2026-04-26T12:00:36Z</time></trkpt><trkpt lat="42.664034988055135" lon="11.963601320477572"><ele>398.0</ele><time>2026-04-26T12:00:38Z</time></trkpt><trkpt lat="42.664048574301894" lon="11.963498734660769"><ele>397.99999999999994</ele><time>2026-04-26T12:00:40Z</time></trkpt><trkpt lat="42.66407827466672" lon="11.963369825906925"><ele>398.0</ele><time>2026-04-26T12:00:42Z</time></trkpt><trkpt lat="42.66411838600064" lon="11.963245584551562"><ele>398.16666666666663</ele><time>2026-04-26T12:00:44Z</time></trkpt><trkpt lat="42.66416503347705" lon="11.963149600279904"><ele>398.3333333333333</ele><time>2026-04-26T12:00:46Z</time></trkpt><trkpt lat="42.66422750506414" lon="11.963049504982502"><ele>398.5</ele><time>2026-04-26T12:00:48Z</time></trkpt><trkpt lat="42.66429221869834" lon="11.96297279667767"><ele>398.66666666666663</ele><time>2026-04-26T12:00:50Z</time></trkpt><trkpt lat="42.664346961141405" lon="11.962924936048102"><ele>398.8333333333333</ele><time>2026-04-26T12:00:52Z</time></trkpt><trkpt lat="42.664430418612326" lon="11.962873893596061"><ele>399.0</ele><time>2026-04-26T12:00:55Z</time></trkpt><trkpt lat="42.66450527499942" lon="11.962835154244663"><ele>399.0</ele><time>2026-04-26T12:00:57Z</time></trkpt><trkpt lat="42.66458297942395" lon="11.96279678605194"><ele>399.0</ele><time>2026-04-26T12:00:59Z</time></trkpt><trkpt lat="42.664679201397284" lon="11.962751009243629"><ele>399.0</ele><time>2026-04-26T12:01:01Z</time></trkpt><trkpt lat="42.66476834023301" lon="11.962708081884427"><ele>399.0</ele><time>2026-04-26T12:01:03Z</time></trkpt><trkpt lat="42.6648501097831" lon="11.962668830279444"><ele>399.0</ele><time>2026-04-26T12:01:05Z</time></trkpt><trkpt lat="42.664948067474754" lon="11.962633008897928"><ele>399.0</ele><time>2026-04-26T12:01:07Z</time></trkpt><trkpt lat="42.66505417133587" lon="11.962577942312382"><ele>399.0</ele><time>2026-04-26T12:01:09Z</time></trkpt><trkpt lat="42.665156595003424" lon="11.96251085174031"><ele>399.0</ele><time>2026-04-26T12:01:11Z</time></trkpt><trkpt lat="42.665223543636515" lon="11.962445035283265"><ele>399.0</ele><time>2026-04-26T12:01:13Z</time></trkpt><trkpt lat="42.665295968249886" lon="11.962337081768943"><ele>399.0</ele><time>2026-04-26T12:01:15Z</time></trkpt><trkpt lat="42.66532972115333" lon="11.962200375856826"><ele>397.4</ele><time>2026-04-26T12:01:17Z</time></trkpt><trkpt lat="42.66529268097112" lon="11.962052213215328"><ele>395.79999999999995</ele><time>2026-04-26T12:01:19Z</time></trkpt><trkpt lat="42.665250123574396" lon="11.961924016986195"><ele>394.20000000000005</ele><time>2026-04-26T12:01:20.999Z</time></trkpt><trkpt lat="42.665203746622474" lon="11.961793106209758"><ele>392.6</ele><time>2026-04-26T12:01:22.999Z</time></trkpt><trkpt lat="42.66515668163343" lon="11.961667470030363"><ele>391.0</ele><time>2026-04-26T12:01:24.999Z</time></trkpt><trkpt lat="42.665091677295834" lon="11.961561787804634"><ele>390.20000000000005</ele><time>2026-04-26T12:01:26.999Z</time></trkpt><trkpt lat="42.665014553238656" lon="11.961432329471144"><ele>389.40000000000003</ele><time>2026-04-26T12:01:28.999Z</time></trkpt><trkpt lat="42.66496632895323" lon="11.961364826206355"><ele>388.6</ele><time>2026-04-26T12:01:29.999Z</time></trkpt><trkpt lat="42.66491773750004" lon="11.961308467852383"><ele>387.8</ele><time>2026-04-26T12:01:30.999Z</time></trkpt><trkpt lat="42.66481478092629" lon="11.961217443498205"><ele>387.0</ele><time>2026-04-26T12:01:32.999Z</time></trkpt><trkpt lat="42.66471357946864" lon="11.96116010785799"><ele>387.0</ele><time>2026-04-26T12:01:34.999Z</time></trkpt><trkpt lat="42.664610052780965" lon="11.961121094373398"><ele>387.0</ele><time>2026-04-26T12:01:36.999Z</time></trkpt><trkpt lat="42.66450395271644" lon="11.96109848241617"><ele>387.0</ele><time>2026-04-26T12:01:38.999Z</time></trkpt><trkpt lat="42.664424108078784" lon="11.961094495631114"><ele>387.0</ele><time>2026-04-26T12:01:40.999Z</time></trkpt><trkpt lat="42.66434755127131" lon="11.96109997713691"><ele>387.0</ele><time>2026-04-26T12:01:42.999Z</time></trkpt><trkpt lat="42.6642768979953" lon="11.961107293394608"><ele>387.0</ele><time>2026-04-26T12:01:44.999Z</time></trkpt><trkpt lat="42.66420381306041" lon="11.961136077513688"><ele>386.1666666666667</ele><time>2026-04-26T12:01:46.999Z</time></trkpt><trkpt lat="42.66413403135499" lon="11.9611252188547"><ele>385.3333333333333</ele><time>2026-04-26T12:01:48.999Z</time></trkpt><trkpt lat="42.66404542184006" lon="11.961118885303756"><ele>384.5</ele><time>2026-04-26T12:01:51.999Z</time></trkpt><trkpt lat="42.6639754231246" lon="11.961112814053626"><ele>383.66666666666663</ele><time>2026-04-26T12:01:53.999Z</time></trkpt><trkpt lat="42.66388244599043" lon="11.961103229023756"><ele>382.8333333333333</ele><time>2026-04-26T12:01:55.999Z</time></trkpt><trkpt lat="42.663785137392864" lon="11.961088949220914"><ele>382.0</ele><time>2026-04-26T12:01:57.999Z</time></trkpt><trkpt lat="42.66368002786209" lon="11.96107218856735"><ele>380.75</ele><time>2026-04-26T12:01:59.999Z</time></trkpt><trkpt lat="42.66356573593241" lon="11.961049626380134"><ele>379.5</ele><time>2026-04-26T12:02:01.999Z</time></trkpt><trkpt lat="42.66345632448962" lon="11.961016856791078"><ele>378.25</ele><time>2026-04-26T12:02:03.999Z</time></trkpt><trkpt lat="42.6633543309144" lon="11.960949045127615"><ele>377.0</ele><time>2026-04-26T12:02:05.999Z</time></trkpt><trkpt lat="42.66324388345043" lon="11.960913974499622"><ele>377.0</ele><time>2026-04-26T12:02:07.999Z</time></trkpt><trkpt lat="42.663179713561185" lon="11.960911055680656"><ele>377.0</ele><time>2026-04-26T12:02:08.999Z</time></trkpt><trkpt lat="42.66311186312296" lon="11.960917812503574"><ele>377.0</ele><time>2026-04-26T12:02:09.999Z</time></trkpt><trkpt lat="42.663042791880706" lon="11.9609282101352"><ele>377.0</ele><time>2026-04-26T12:02:10.999Z</time></trkpt><trkpt lat="42.66297135287757" lon="11.960944684843586"><ele>377.0</ele><time>2026-04-26T12:02:11.999Z</time></trkpt><trkpt lat="42.662855991936425" lon="11.960969119914527"><ele>377.0</ele><time>2026-04-26T12:02:13.999Z</time></trkpt><trkpt lat="42.6627892987873" lon="11.960958628083953"><ele>376.6666666666667</ele><time>2026-04-26T12:02:14.999Z</time></trkpt><trkpt lat="42.66269575637893" lon="11.960937192951981"><ele>376.33333333333337</ele><time>2026-04-26T12:02:15.999Z</time></trkpt><trkpt lat="42.662614468412826" lon="11.960919074504528"><ele>376.0</ele><time>2026-04-26T12:02:16.999Z</time></trkpt><trkpt lat="42.66252836981435" lon="11.960898564221571"><ele>375.6666666666667</ele><time>2026-04-26T12:02:18.999Z</time></trkpt><trkpt lat="42.66245271252032" lon="11.960883251541594"><ele>375.3333333333333</ele><time>2026-04-26T12:02:20.999Z</time></trkpt><trkpt lat="42.662374593328046" lon="11.960868501221752"><ele>375.0</ele><time>2026-04-26T12:02:22.999Z</time></trkpt><trkpt lat="42.662254862087835" lon="11.96083163934803"><ele>375.5</ele><time>2026-04-26T12:02:24.999Z</time></trkpt><trkpt lat="42.662184965802744" lon="11.960807556063049"><ele>376.0</ele><time>2026-04-26T12:02:25.999Z</time></trkpt><trkpt lat="42.66211235270865" lon="11.960784445628573"><ele>376.5</ele><time>2026-04-26T12:02:26.999Z</time></trkpt><trkpt lat="42.6620434261766" lon="11.960760197832094"><ele>377.0</ele><time>2026-04-26T12:02:27.999Z</time></trkpt><trkpt lat="42.661943953475685" lon="11.96072366615188"><ele>377.5</ele><time>2026-04-26T12:02:29.999Z</time></trkpt><trkpt lat="42.661866905309026" lon="11.960672976594704"><ele>378.0</ele><time>2026-04-26T12:02:32Z</time></trkpt><trkpt lat="42.6618169723666" lon="11.960597615798891"><ele>378.0</ele><time>2026-04-26T12:02:34Z</time></trkpt><trkpt lat="42.66177512004831" lon="11.960520517895956"><ele>378.0</ele><time>2026-04-26T12:02:36Z</time></trkpt><trkpt lat="42.661766895870514" lon="11.960412427198492"><ele>378.0</ele><time>2026-04-26T12:02:38Z</time></trkpt><trkpt lat="42.66173942954793" lon="11.96027700102346"><ele>378.0</ele><time>2026-04-26T12:02:40Z</time></trkpt><trkpt lat="42.661720305233594" lon="11.960121199382488"><ele>378.0</ele><time>2026-04-26T12:02:42Z</time></trkpt><trkpt lat="42.66169820458044" lon="11.959965804326917"><ele>377.6666666666667</ele><time>2026-04-26T12:02:44Z</time></trkpt><trkpt lat="42.66169512156693" lon="11.95985704323187"><ele>377.3333333333333</ele><time>2026-04-26T12:02:46Z</time></trkpt><trkpt lat="42.66166491930205" lon="11.959766460822665"><ele>377.0</ele><time>2026-04-26T12:02:48Z</time></trkpt><trkpt lat="42.66165930898283" lon="11.95965138175083"><ele>376.66666666666663</ele><time>2026-04-26T12:02:50Z</time></trkpt><trkpt lat="42.66165193711272" lon="11.959560430746766"><ele>376.3333333333333</ele><time>2026-04-26T12:02:52Z</time></trkpt><trkpt lat="42.661660534431846" lon="11.95945181378249"><ele>376.0</ele><time>2026-04-26T12:02:54Z</time></trkpt><trkpt lat="42.661671922099224" lon="11.959357710818294"><ele>376.0</ele><time>2026-04-26T12:02:56Z</time></trkpt><trkpt lat="42.661628701120385" lon="11.959271813914743"><ele>376.0</ele><time>2026-04-26T12:02:59Z</time></trkpt><trkpt lat="42.66171647820538" lon="11.959207744657094"><ele>376.0</ele><time>2026-04-26T12:03:00Z</time></trkpt><trkpt lat="42.66179148229858" lon="11.959208739894384"><ele>376.0</ele><time>2026-04-26T12:03:01Z</time></trkpt><trkpt lat="42.66187482634355" lon="11.959135833245115"><ele>376.0</ele><time>2026-04-26T12:03:02Z</time></trkpt><trkpt lat="42.66196286247549" lon="11.95905882214821"><ele>377.0</ele><time>2026-04-26T12:03:03Z</time></trkpt><trkpt lat="42.662049080269924" lon="11.958984923751412"><ele>378.0</ele><time>2026-04-26T12:03:04Z</time></trkpt><trkpt lat="42.66212210167886" lon="11.95890153150875"><ele>379.0</ele><time>2026-04-26T12:03:05Z</time></trkpt><trkpt lat="42.66221741319352" lon="11.958854049763376"><ele>380.0</ele><time>2026-04-26T12:03:06Z</time></trkpt><trkpt lat="42.662307572296925" lon="11.95879164499667"><ele>381.0</ele><time>2026-04-26T12:03:07Z</time></trkpt><trkpt lat="42.66239402410277" lon="11.95873180582759"><ele>381.0</ele><time>2026-04-26T12:03:08Z</time></trkpt><trkpt lat="42.662475493920915" lon="11.958675415250719"><ele>381.0</ele><time>2026-04-26T12:03:09Z</time></trkpt><trkpt lat="42.662556183161506" lon="11.958619564985725"><ele>381.0</ele><time>2026-04-26T12:03:10Z</time></trkpt><trkpt lat="42.66263673533804" lon="11.958569672157301"><ele>381.0</ele><time>2026-04-26T12:03:11Z</time></trkpt><trkpt lat="42.66271654533785" lon="11.958491569584528"><ele>381.0</ele><time>2026-04-26T12:03:12Z</time></trkpt><trkpt lat="42.66281143115508" lon="11.958474078135579"><ele>382.3333333333333</ele><time>2026-04-26T12:03:13Z</time></trkpt><trkpt lat="42.66288724819802" lon="11.958435785512625"><ele>383.66666666666663</ele><time>2026-04-26T12:03:14Z</time></trkpt><trkpt lat="42.66295691832728" lon="11.958410519582964"><ele>385.0</ele><time>2026-04-26T12:03:15Z</time></trkpt><trkpt lat="42.66306268874401" lon="11.958420688633797"><ele>386.3333333333333</ele><time>2026-04-26T12:03:17Z</time></trkpt><trkpt lat="42.66312265422244" lon="11.958465248005474"><ele>387.66666666666663</ele><time>2026-04-26T12:03:20Z</time></trkpt><trkpt lat="42.66305234060091" lon="11.958426853402617"><ele>389.0</ele><time>2026-04-26T12:03:26Z</time></trkpt><trkpt lat="42.662926743881684" lon="11.95839404120707"><ele>388.99999999999994</ele><time>2026-04-26T12:03:28.999Z</time></trkpt><trkpt lat="42.66282962264677" lon="11.95844551024605"><ele>389.0</ele><time>2026-04-26T12:03:30.999Z</time></trkpt><trkpt lat="42.66275898922585" lon="11.95846574619944"><ele>389.0</ele><time>2026-04-26T12:03:33.999Z</time></trkpt><trkpt lat="42.66273876916292" lon="11.958371017815004"><ele>389.0</ele><time>2026-04-26T12:03:36.999Z</time></trkpt><trkpt lat="42.66278318925693" lon="11.95826212459059"><ele>388.99999999999994</ele><time>2026-04-26T12:03:38.999Z</time></trkpt><trkpt lat="42.662825895107304" lon="11.958128842943246"><ele>389.0</ele><time>2026-04-26T12:03:40.999Z</time></trkpt><trkpt lat="42.66288016536763" lon="11.958015251301255"><ele>388.2</ele><time>2026-04-26T12:03:42.999Z</time></trkpt><trkpt lat="42.662946967182556" lon="11.957944007922874"><ele>387.4</ele><time>2026-04-26T12:03:44.999Z</time></trkpt><trkpt lat="42.66305541392176" lon="11.957899627674614"><ele>386.6</ele><time>2026-04-26T12:03:46.999Z</time></trkpt><trkpt lat="42.66317329125463" lon="11.957899894638281"><ele>385.8</ele><time>2026-04-26T12:03:48.999Z</time></trkpt><trkpt lat="42.663274500266965" lon="11.957901770261879"><ele>385.0</ele><time>2026-04-26T12:03:50.999Z</time></trkpt><trkpt lat="42.66336430649275" lon="11.957894458693099"><ele>385.00000000000006</ele><time>2026-04-26T12:03:52.999Z</time></trkpt><trkpt lat="42.66345109015715" lon="11.957839669621547"><ele>385.0</ele><time>2026-04-26T12:03:54.999Z</time></trkpt><trkpt lat="42.66351395598037" lon="11.957726765818592"><ele>385.0</ele><time>2026-04-26T12:03:56.999Z</time></trkpt><trkpt lat="42.66354132244466" lon="11.957645952816437"><ele>385.0</ele><time>2026-04-26T12:03:57.999Z</time></trkpt><trkpt lat="42.66356060977173" lon="11.957556962329846"><ele>385.00000000000006</ele><time>2026-04-26T12:03:58.999Z</time></trkpt><trkpt lat="42.66357951666626" lon="11.957466214156456"><ele>385.0</ele><time>2026-04-26T12:03:59.999Z</time></trkpt><trkpt lat="42.663597808305035" lon="11.957371548089602"><ele>385.0</ele><time>2026-04-26T12:04:00.999Z</time></trkpt><trkpt lat="42.663645209532994" lon="11.957233020049555"><ele>385.0</ele><time>2026-04-26T12:04:02.999Z</time></trkpt><trkpt lat="42.66367602485037" lon="11.957108800001276"><ele>385.0</ele><time>2026-04-26T12:04:04.999Z</time></trkpt><trkpt lat="42.66372544724516" lon="11.957042432766478"><ele>385.0</ele><time>2026-04-26T12:04:06.999Z</time></trkpt><trkpt lat="42.66380819908319" lon="11.95703054401532"><ele>385.0</ele><time>2026-04-26T12:04:08.999Z</time></trkpt><trkpt lat="42.66390581985142" lon="11.957001152077122"><ele>385.0</ele><time>2026-04-26T12:04:10.999Z</time></trkpt><trkpt lat="42.66401332117627" lon="11.956904994136613"><ele>385.0</ele><time>2026-04-26T12:04:12.999Z</time></trkpt><trkpt lat="42.66405734718163" lon="11.956745948233314"><ele>385.0</ele><time>2026-04-26T12:04:14.999Z</time></trkpt><trkpt lat="42.66409570952934" lon="11.956597856523237"><ele>385.0</ele><time>2026-04-26T12:04:16.999Z</time></trkpt><trkpt lat="42.66411386078888" lon="11.956458112439025"><ele>384.83333333333337</ele><time>2026-04-26T12:04:18.999Z</time></trkpt><trkpt lat="42.66412513483973" lon="11.956347123741079"><ele>384.6666666666667</ele><time>2026-04-26T12:04:20.999Z</time></trkpt><trkpt lat="42.66410044528046" lon="11.956257957898913"><ele>384.5</ele><time>2026-04-26T12:04:22.999Z</time></trkpt><trkpt lat="42.664026631975254" lon="11.956185253509103"><ele>384.33333333333337</ele><time>2026-04-26T12:04:24.999Z</time></trkpt><trkpt lat="42.6639673962022" lon="11.956084337519526"><ele>384.1666666666667</ele><time>2026-04-26T12:04:26.999Z</time></trkpt><trkpt lat="42.663913957106104" lon="11.956009225623554"><ele>384.0</ele><time>2026-04-26T12:04:28.999Z</time></trkpt><trkpt lat="42.66388004995983" lon="11.955885348665054"><ele>383.1666666666667</ele><time>2026-04-26T12:04:31.999Z</time></trkpt><trkpt lat="42.66391012778771" lon="11.95576814899362"><ele>382.3333333333333</ele><time>2026-04-26T12:04:34.999Z</time></trkpt><trkpt lat="42.66393961243143" lon="11.955665401680482"><ele>381.5</ele><time>2026-04-26T12:04:38Z</time></trkpt><trkpt lat="42.66396580464875" lon="11.95555098795168"><ele>380.66666666666663</ele><time>2026-04-26T12:04:40Z</time></trkpt><trkpt lat="42.66402576987992" lon="11.955454757388868"><ele>379.8333333333333</ele><time>2026-04-26T12:04:42Z</time></trkpt><trkpt lat="42.66407170157355" lon="11.955360825893257"><ele>379.0</ele><time>2026-04-26T12:04:44Z</time></trkpt><trkpt lat="42.66411877963233" lon="11.955277259200631"><ele>379.0</ele><time>2026-04-26T12:04:46Z</time></trkpt><trkpt lat="42.66419575781702" lon="11.955205832645479"><ele>379.0</ele><time>2026-04-26T12:04:49Z</time></trkpt><trkpt lat="42.66425877044113" lon="11.955205537595305"><ele>379.0</ele><time>2026-04-26T12:04:51Z</time></trkpt><trkpt lat="42.6643450597022" lon="11.955154803706776"><ele>379.0</ele><time>2026-04-26T12:04:53Z</time></trkpt><trkpt lat="42.66440112121258" lon="11.955040177440848"><ele>379.0</ele><time>2026-04-26T12:04:55Z</time></trkpt><trkpt lat="42.664380737558936" lon="11.954930362214876"><ele>379.0</ele><time>2026-04-26T12:04:56Z</time></trkpt><trkpt lat="42.664324484887956" lon="11.954885586414791"><ele>378.0</ele><time>2026-04-26T12:04:57Z</time></trkpt><trkpt lat="42.664183725341324" lon="11.954819177260916"><ele>377.0</ele><time>2026-04-26T12:04:59Z</time></trkpt><trkpt lat="42.664111041864885" lon="11.954785519132415"><ele>376.0</ele><time>2026-04-26T12:05:00Z</time></trkpt><trkpt lat="42.66404745926847" lon="11.95475032489967"><ele>375.0</ele><time>2026-04-26T12:05:01Z</time></trkpt><trkpt lat="42.663988244014135" lon="11.954703079750523"><ele>374.0</ele><time>2026-04-26T12:05:02Z</time></trkpt><trkpt lat="42.663927193746055" lon="11.954644623348521"><ele>373.0</ele><time>2026-04-26T12:05:03Z</time></trkpt><trkpt lat="42.663853681526454" lon="11.95457023614712"><ele>373.0</ele><time>2026-04-26T12:05:04Z</time></trkpt><trkpt lat="42.66378616550874" lon="11.954498139270731"><ele>373.0</ele><time>2026-04-26T12:05:05Z</time></trkpt><trkpt lat="42.66373245558774" lon="11.954423886161969"><ele>373.0</ele><time>2026-04-26T12:05:06Z</time></trkpt><trkpt lat="42.66369226685898" lon="11.954354676980865"><ele>373.0</ele><time>2026-04-26T12:05:07Z</time></trkpt><trkpt lat="42.66365943458954" lon="11.954278388225026"><ele>373.0</ele><time>2026-04-26T12:05:08Z</time></trkpt><trkpt lat="42.66363102052968" lon="11.95419095068611"><ele>373.0</ele><time>2026-04-26T12:05:09Z</time></trkpt><trkpt lat="42.663613067107946" lon="11.954100921678357"><ele>373.0</ele><time>2026-04-26T12:05:10Z</time></trkpt><trkpt lat="42.663647182679085" lon="11.953951594186346"><ele>373.2</ele><time>2026-04-26T12:05:12Z</time></trkpt><trkpt lat="42.663703063086494" lon="11.953855563936006"><ele>373.4</ele><time>2026-04-26T12:05:14Z</time></trkpt><trkpt lat="42.66379846883028" lon="11.95382460675301"><ele>373.59999999999997</ele><time>2026-04-26T12:05:16Z</time></trkpt><trkpt lat="42.66390584110907" lon="11.953878385382144"><ele>373.79999999999995</ele><time>2026-04-26T12:05:18Z</time></trkpt><trkpt lat="42.66398455723176" lon="11.953903786216577"><ele>374.0</ele><time>2026-04-26T12:05:19Z</time></trkpt><trkpt lat="42.664072755051386" lon="11.953926210730835"><ele>374.0</ele><time>2026-04-26T12:05:20Z</time></trkpt><trkpt lat="42.66413585793902" lon="11.9539406892153"><ele>374.0</ele><time>2026-04-26T12:05:21Z</time></trkpt><trkpt lat="42.66423951257617" lon="11.953921581986888"><ele>374.0</ele><time>2026-04-26T12:05:23Z</time></trkpt><trkpt lat="42.66428309761264" lon="11.953786496790897"><ele>374.0</ele><time>2026-04-26T12:05:25Z</time></trkpt><trkpt lat="42.664334690784976" lon="11.953723874061664"><ele>374.0</ele><time>2026-04-26T12:05:26Z</time></trkpt><trkpt lat="42.6643902222349" lon="11.953655605592399"><ele>374.0</ele><time>2026-04-26T12:05:27Z</time></trkpt><trkpt lat="42.66446178508653" lon="11.953555734801425"><ele>375.0</ele><time>2026-04-26T12:05:28Z</time></trkpt><trkpt lat="42.66452502795758" lon="11.953453996336096"><ele>376.0</ele><time>2026-04-26T12:05:29Z</time></trkpt><trkpt lat="42.664577995416195" lon="11.953354566183991"><ele>377.0</ele><time>2026-04-26T12:05:30Z</time></trkpt><trkpt lat="42.66461658861472" lon="11.953262354381263"><ele>378.0</ele><time>2026-04-26T12:05:31Z</time></trkpt><trkpt lat="42.6646520910414" lon="11.953102218094108"><ele>379.0</ele><time>2026-04-26T12:05:33Z</time></trkpt><trkpt lat="42.66462948038292" lon="11.953004620296348"><ele>379.0</ele><time>2026-04-26T12:05:34Z</time></trkpt><trkpt lat="42.66459733573157" lon="11.952919502663661"><ele>379.0</ele><time>2026-04-26T12:05:35Z</time></trkpt><trkpt lat="42.66454582813471" lon="11.952853686948131"><ele>379.0</ele><time>2026-04-26T12:05:36Z</time></trkpt><trkpt lat="42.66447670958112" lon="11.9527839305055"><ele>379.0</ele><time>2026-04-26T12:05:37Z</time></trkpt><trkpt lat="42.66439805363926" lon="11.95272343517531"><ele>379.0</ele><time>2026-04-26T12:05:37.999Z</time></trkpt><trkpt lat="42.66432064952315" lon="11.952672754855321"><ele>379.0</ele><time>2026-04-26T12:05:38.999Z</time></trkpt><trkpt lat="42.664260720029574" lon="11.952622085816465"><ele>378.2</ele><time>2026-04-26T12:05:39.999Z</time></trkpt><trkpt lat="42.66417955851815" lon="11.952529571661504"><ele>377.4</ele><time>2026-04-26T12:05:41.999Z</time></trkpt><trkpt lat="42.66415592218742" lon="11.952422618923489"><ele>376.6</ele><time>2026-04-26T12:05:43.999Z</time></trkpt><trkpt lat="42.664174827307235" lon="11.952298570365233"><ele>375.8</ele><time>2026-04-26T12:05:45.999Z</time></trkpt><trkpt lat="42.66424459978793" lon="11.952190327179189"><ele>375.0</ele><time>2026-04-26T12:05:47.999Z</time></trkpt><trkpt lat="42.66434186717076" lon="11.952118814658638"><ele>376.2</ele><time>2026-04-26T12:05:49.999Z</time></trkpt><trkpt lat="42.66445796453298" lon="11.952103445470291"><ele>377.4</ele><time>2026-04-26T12:05:51.999Z</time></trkpt><trkpt lat="42.664552729277986" lon="11.952108064233387"><ele>378.6</ele><time>2026-04-26T12:05:52.999Z</time></trkpt><trkpt lat="42.664635564502056" lon="11.952092727575204"><ele>379.8</ele><time>2026-04-26T12:05:53.999Z</time></trkpt><trkpt lat="42.66469960201758" lon="11.952091487778189"><ele>381.0</ele><time>2026-04-26T12:05:54.999Z</time></trkpt><trkpt lat="42.66479838123706" lon="11.95207867941755"><ele>381.0</ele><time>2026-04-26T12:05:56.999Z</time></trkpt><trkpt lat="42.664853120401425" lon="11.951929942095958"><ele>381.0</ele><time>2026-04-26T12:05:58.999Z</time></trkpt><trkpt lat="42.664844847637625" lon="11.951817918726393"><ele>381.0</ele><time>2026-04-26T12:05:59.999Z</time></trkpt><trkpt lat="42.66487137627687" lon="11.95170816932962"><ele>381.0</ele><time>2026-04-26T12:06:00.999Z</time></trkpt><trkpt lat="42.66488280046542" lon="11.951609963963657"><ele>381.0</ele><time>2026-04-26T12:06:01.999Z</time></trkpt><trkpt lat="42.66489603222325" lon="11.951503156691594"><ele>381.0</ele><time>2026-04-26T12:06:02.999Z</time></trkpt><trkpt lat="42.6649111420313" lon="11.951396499897372"><ele>381.1666666666667</ele><time>2026-04-26T12:06:03.999Z</time></trkpt><trkpt lat="42.664929767382105" lon="11.951286101127979"><ele>381.3333333333333</ele><time>2026-04-26T12:06:04.999Z</time></trkpt><trkpt lat="42.66495079190439" lon="11.951172509536077"><ele>381.5</ele><time>2026-04-26T12:06:05.999Z</time></trkpt><trkpt lat="42.664974351442716" lon="11.951052511982914"><ele>381.66666666666663</ele><time>2026-04-26T12:06:06.999Z</time></trkpt><trkpt lat="42.66499846376385" lon="11.950931570160025"><ele>381.8333333333333</ele><time>2026-04-26T12:06:07.999Z</time></trkpt><trkpt lat="42.66502456531247" lon="11.950805299826138"><ele>382.0</ele><time>2026-04-26T12:06:08.999Z</time></trkpt><trkpt lat="42.6650500630719" lon="11.950682206133601"><ele>381.0</ele><time>2026-04-26T12:06:09.999Z</time></trkpt><trkpt lat="42.66507350038992" lon="11.950569059391851"><ele>380.0</ele><time>2026-04-26T12:06:10.999Z</time></trkpt><trkpt lat="42.665093272244825" lon="11.950467437555806"><ele>379.0</ele><time>2026-04-26T12:06:11.999Z</time></trkpt><trkpt lat="42.66509184751332" lon="11.950379379237189"><ele>378.0</ele><time>2026-04-26T12:06:12.999Z</time></trkpt><trkpt lat="42.665104733289645" lon="11.950221334597847"><ele>377.0</ele><time>2026-04-26T12:06:14.999Z</time></trkpt><trkpt lat="42.66512367036203" lon="11.950121667819396"><ele>376.0</ele><time>2026-04-26T12:06:17.999Z</time></trkpt><trkpt lat="42.665185153157424" lon="11.950145819259188"><ele>377.6</ele><time>2026-04-26T12:06:19.999Z</time></trkpt><trkpt lat="42.6653101571683" lon="11.95015760014732"><ele>379.20000000000005</ele><time>2026-04-26T12:06:21.999Z</time></trkpt><trkpt lat="42.66538773495116" lon="11.950170277767562"><ele>380.79999999999995</ele><time>2026-04-26T12:06:22.999Z</time></trkpt><trkpt lat="42.66548737430863" lon="11.950188795095983"><ele>382.4</ele><time>2026-04-26T12:06:23.999Z</time></trkpt><trkpt lat="42.665594631712956" lon="11.950212432472975"><ele>384.0</ele><time>2026-04-26T12:06:24.999Z</time></trkpt><trkpt lat="42.66568602813173" lon="11.95023632148632"><ele>384.0</ele><time>2026-04-26T12:06:25.999Z</time></trkpt><trkpt lat="42.665778860036006" lon="11.950262544153217"><ele>384.0</ele><time>2026-04-26T12:06:26.999Z</time></trkpt><trkpt lat="42.665864425102114" lon="11.950286714140681"><ele>384.0</ele><time>2026-04-26T12:06:27.999Z</time></trkpt><trkpt lat="42.665945784154474" lon="11.950309696023497"><ele>384.0</ele><time>2026-04-26T12:06:28.999Z</time></trkpt><trkpt lat="42.666033727475785" lon="11.950330519063149"><ele>384.0</ele><time>2026-04-26T12:06:29.999Z</time></trkpt><trkpt lat="42.666116176652615" lon="11.950347222578793"><ele>384.0</ele><time>2026-04-26T12:06:30.999Z</time></trkpt><trkpt lat="42.6661940388848" lon="11.950355702784186"><ele>385.1666666666667</ele><time>2026-04-26T12:06:31.999Z</time></trkpt><trkpt lat="42.666277511199645" lon="11.950347538295365"><ele>386.33333333333337</ele><time>2026-04-26T12:06:32.999Z</time></trkpt><trkpt lat="42.66635925567145" lon="11.950330752385439"><ele>387.5</ele><time>2026-04-26T12:06:33.999Z</time></trkpt><trkpt lat="42.66644794196134" lon="11.950307367256983"><ele>388.6666666666667</ele><time>2026-04-26T12:06:34.999Z</time></trkpt><trkpt lat="42.66653281248721" lon="11.950283795861019"><ele>389.83333333333337</ele><time>2026-04-26T12:06:35.999Z</time></trkpt><trkpt lat="42.66660893481411" lon="11.950255188603892"><ele>391.0</ele><time>2026-04-26T12:06:36.999Z</time></trkpt><trkpt lat="42.66667373356381" lon="11.950242926348064"><ele>391.0</ele><time>2026-04-26T12:06:37.999Z</time></trkpt><trkpt lat="42.66676758789324" lon="11.950265504612458"><ele>391.0</ele><time>2026-04-26T12:06:39.999Z</time></trkpt><trkpt lat="42.66687546553744" lon="11.95029513250711"><ele>391.0</ele><time>2026-04-26T12:06:41.999Z</time></trkpt><trkpt lat="42.66695331075508" lon="11.950318094867189"><ele>391.0</ele><time>2026-04-26T12:06:42.999Z</time></trkpt><trkpt lat="42.66703408066071" lon="11.950341919937976"><ele>391.0</ele><time>2026-04-26T12:06:44Z</time></trkpt><trkpt lat="42.66712121198147" lon="11.950367621479746"><ele>392.4</ele><time>2026-04-26T12:06:45Z</time></trkpt><trkpt lat="42.66721776083825" lon="11.950396103074803"><ele>393.8</ele><time>2026-04-26T12:06:46Z</time></trkpt><trkpt lat="42.66731876959519" lon="11.95042755672329"><ele>395.2</ele><time>2026-04-26T12:06:47Z</time></trkpt><trkpt lat="42.66741360785226" lon="11.95045710739731"><ele>396.59999999999997</ele><time>2026-04-26T12:06:48Z</time></trkpt><trkpt lat="42.667504248317414" lon="11.950485898174195"><ele>398.0</ele><time>2026-04-26T12:06:49Z</time></trkpt><trkpt lat="42.66760936697698" lon="11.950519287779377"><ele>398.0</ele><time>2026-04-26T12:06:50Z</time></trkpt><trkpt lat="42.66770647530089" lon="11.950550133003357"><ele>398.0</ele><time>2026-04-26T12:06:51Z</time></trkpt><trkpt lat="42.66779365350256" lon="11.950577280792869"><ele>398.0</ele><time>2026-04-26T12:06:52Z</time></trkpt><trkpt lat="42.667892649623376" lon="11.950607783796327"><ele>398.0</ele><time>2026-04-26T12:06:53Z</time></trkpt><trkpt lat="42.6679933807356" lon="11.95063695948146"><ele>398.0</ele><time>2026-04-26T12:06:54Z</time></trkpt><trkpt lat="42.66808129021383" lon="11.95066149421625"><ele>399.2</ele><time>2026-04-26T12:06:55Z</time></trkpt><trkpt lat="42.668171443022565" lon="11.950684344041106"><ele>400.4</ele><time>2026-04-26T12:06:56Z</time></trkpt><trkpt lat="42.66827008403354" lon="11.950709345200988"><ele>401.59999999999997</ele><time>2026-04-26T12:06:57Z</time></trkpt><trkpt lat="42.66837274955983" lon="11.950735221410287"><ele>402.79999999999995</ele><time>2026-04-26T12:06:58Z</time></trkpt><trkpt lat="42.6684657432208" lon="11.95076239840865"><ele>404.0</ele><time>2026-04-26T12:06:59Z</time></trkpt><trkpt lat="42.66863901834578" lon="11.950810004500559"><ele>405.99999999999994</ele><time>2026-04-26T12:07:01Z</time></trkpt><trkpt lat="42.66871477623728" lon="11.950822850425174"><ele>408.0</ele><time>2026-04-26T12:07:02Z</time></trkpt><trkpt lat="42.6687854722265" lon="11.950834999800179"><ele>410.0</ele><time>2026-04-26T12:07:03Z</time></trkpt><trkpt lat="42.66889260580555" lon="11.950819834719331"><ele>412.0</ele><time>2026-04-26T12:07:05Z</time></trkpt><trkpt lat="42.66894948008105" lon="11.950771391003363"><ele>413.99999999999994</ele><time>2026-04-26T12:07:06Z</time></trkpt><trkpt lat="42.66898972725264" lon="11.950690765551967"><ele>416.0</ele><time>2026-04-26T12:07:07Z</time></trkpt><trkpt lat="42.66897882433114" lon="11.950568204303215"><ele>416.0</ele><time>2026-04-26T12:07:08Z</time></trkpt><trkpt lat="42.66900232567963" lon="11.950460233512024"><ele>416.0</ele><time>2026-04-26T12:07:09Z</time></trkpt><trkpt lat="42.66902599968601" lon="11.950323817567616"><ele>416.0</ele><time>2026-04-26T12:07:10Z</time></trkpt><trkpt lat="42.66904774326871" lon="11.950174312574232"><ele>416.0</ele><time>2026-04-26T12:07:11Z</time></trkpt><trkpt lat="42.66907075740112" lon="11.95002593069507"><ele>416.0</ele><time>2026-04-26T12:07:12Z</time></trkpt><trkpt lat="42.669091637551" lon="11.949883076967598"><ele>415.20000000000005</ele><time>2026-04-26T12:07:13Z</time></trkpt><trkpt lat="42.66913033686628" lon="11.94974389951916"><ele>414.40000000000003</ele><time>2026-04-26T12:07:14Z</time></trkpt><trkpt lat="42.669153715924914" lon="11.949599741241263"><ele>413.6</ele><time>2026-04-26T12:07:15Z</time></trkpt><trkpt lat="42.66917716602644" lon="11.949455144565414"><ele>412.8</ele><time>2026-04-26T12:07:16Z</time></trkpt><trkpt lat="42.669199538132325" lon="11.949317194878606"><ele>412.0</ele><time>2026-04-26T12:07:17Z</time></trkpt><trkpt lat="42.66922195013676" lon="11.949178975588273"><ele>412.00000000000006</ele><time>2026-04-26T12:07:18Z</time></trkpt><trkpt lat="42.669243065472116" lon="11.949048139649783"><ele>412.0</ele><time>2026-04-26T12:07:19Z</time></trkpt><trkpt lat="42.66926124414175" lon="11.948935500114292"><ele>412.0</ele><time>2026-04-26T12:07:20Z</time></trkpt><trkpt lat="42.66927849814704" lon="11.948828589923671"><ele>412.0</ele><time>2026-04-26T12:07:21Z</time></trkpt><trkpt lat="42.669279944975386" lon="11.94871930971218"><ele>412.00000000000006</ele><time>2026-04-26T12:07:22Z</time></trkpt><trkpt lat="42.66930108793876" lon="11.948618408714585"><ele>412.0</ele><time>2026-04-26T12:07:23Z</time></trkpt><trkpt lat="42.66931793351888" lon="11.94851422510843"><ele>411.99999999999994</ele><time>2026-04-26T12:07:24Z</time></trkpt><trkpt lat="42.669332739356165" lon="11.948408442443274"><ele>412.0</ele><time>2026-04-26T12:07:25Z</time></trkpt><trkpt lat="42.669351640235405" lon="11.948310853707397"><ele>412.0</ele><time>2026-04-26T12:07:26Z</time></trkpt><trkpt lat="42.669388858011736" lon="11.948215527185928"><ele>412.0</ele><time>2026-04-26T12:07:27Z</time></trkpt><trkpt lat="42.66940910730079" lon="11.948120333898261"><ele>412.0</ele><time>2026-04-26T12:07:28Z</time></trkpt><trkpt lat="42.6694281353364" lon="11.948028273173849"><ele>411.99999999999994</ele><time>2026-04-26T12:07:29Z</time></trkpt><trkpt lat="42.66944572636315" lon="11.947939010558077"><ele>412.0</ele><time>2026-04-26T12:07:30Z</time></trkpt><trkpt lat="42.66946207393161" lon="11.947851925698753"><ele>412.8</ele><time>2026-04-26T12:07:31Z</time></trkpt><trkpt lat="42.66947799012766" lon="11.947765315204709"><ele>413.6</ele><time>2026-04-26T12:07:32Z</time></trkpt><trkpt lat="42.66949335313718" lon="11.947681714867969"><ele>414.40000000000003</ele><time>2026-04-26T12:07:33Z</time></trkpt><trkpt lat="42.66952223611977" lon="11.947524543582064"><ele>415.20000000000005</ele><time>2026-04-26T12:07:35Z</time></trkpt><trkpt lat="42.66955074950709" lon="11.947367619221804"><ele>416.0</ele><time>2026-04-26T12:07:37Z</time></trkpt><trkpt lat="42.669578565500295" lon="11.947210249365284"><ele>416.0</ele><time>2026-04-26T12:07:39Z</time></trkpt><trkpt lat="42.669602149019354" lon="11.94705747436254"><ele>416.0</ele><time>2026-04-26T12:07:41Z</time></trkpt><trkpt lat="42.669623115278426" lon="11.94692121532929"><ele>416.0</ele><time>2026-04-26T12:07:43Z</time></trkpt><trkpt lat="42.66964426523443" lon="11.946784787128836"><ele>416.0</ele><time>2026-04-26T12:07:44.999Z</time></trkpt><trkpt lat="42.66965826069273" lon="11.946694686289398"><ele>416.0</ele><time>2026-04-26T12:07:45.999Z</time></trkpt><trkpt lat="42.669674179949006" lon="11.946592200377504"><ele>416.0</ele><time>2026-04-26T12:07:46.999Z</time></trkpt><trkpt lat="42.66969584135057" lon="11.946462625410144"><ele>416.0</ele><time>2026-04-26T12:07:47.999Z</time></trkpt><trkpt lat="42.66972029689218" lon="11.946320205538582"><ele>416.0</ele><time>2026-04-26T12:07:48.999Z</time></trkpt><trkpt lat="42.66974787253197" lon="11.946156425425624"><ele>416.0</ele><time>2026-04-26T12:07:49.999Z</time></trkpt><trkpt lat="42.669773077328735" lon="11.945996413485707"><ele>416.0</ele><time>2026-04-26T12:07:50.999Z</time></trkpt><trkpt lat="42.669794229238406" lon="11.94585263767094"><ele>415.99999999999994</ele><time>2026-04-26T12:07:51.999Z</time></trkpt><trkpt lat="42.66981285336665" lon="11.945720654743937"><ele>416.0</ele><time>2026-04-26T12:07:52.999Z</time></trkpt><trkpt lat="42.669830545772164" lon="11.945594323461004"><ele>416.0</ele><time>2026-04-26T12:07:53.999Z</time></trkpt><trkpt lat="42.66983162262587" lon="11.94546775505217"><ele>416.0</ele><time>2026-04-26T12:07:54.999Z</time></trkpt><trkpt lat="42.66986323940517" lon="11.945360877384921"><ele>415.99999999999994</ele><time>2026-04-26T12:07:55.999Z</time></trkpt><trkpt lat="42.6698777478958" lon="11.945257280611855"><ele>416.0</ele><time>2026-04-26T12:07:56.999Z</time></trkpt><trkpt lat="42.669894180944155" lon="11.945145874098026"><ele>415.8</ele><time>2026-04-26T12:07:57.999Z</time></trkpt><trkpt lat="42.66990906259308" lon="11.945031488552788"><ele>415.6</ele><time>2026-04-26T12:07:58.999Z</time></trkpt><trkpt lat="42.66991555930288" lon="11.944919257321752"><ele>415.4</ele><time>2026-04-26T12:07:59.999Z</time></trkpt><trkpt lat="42.66990654013453" lon="11.944794054049297"><ele>415.2</ele><time>2026-04-26T12:08:00.999Z</time></trkpt><trkpt lat="42.669891508938186" lon="11.944655896880311"><ele>415.0</ele><time>2026-04-26T12:08:01.999Z</time></trkpt><trkpt lat="42.66991866318565" lon="11.944518478051396"><ele>415.0</ele><time>2026-04-26T12:08:02.999Z</time></trkpt><trkpt lat="42.66993436671811" lon="11.94437653858459"><ele>415.0</ele><time>2026-04-26T12:08:03.999Z</time></trkpt><trkpt lat="42.66995192519081" lon="11.944233542380358"><ele>415.0</ele><time>2026-04-26T12:08:04.999Z</time></trkpt><trkpt lat="42.669971315341314" lon="11.94408475127071"><ele>415.0</ele><time>2026-04-26T12:08:05.999Z</time></trkpt><trkpt lat="42.66999049018048" lon="11.943937612480987"><ele>415.0</ele><time>2026-04-26T12:08:06.999Z</time></trkpt><trkpt lat="42.67000938510669" lon="11.943789380556286"><ele>414.4</ele><time>2026-04-26T12:08:07.999Z</time></trkpt><trkpt lat="42.67002586176553" lon="11.943649208843619"><ele>413.8</ele><time>2026-04-26T12:08:08.999Z</time></trkpt><trkpt lat="42.67003857184167" lon="11.943514403394603"><ele>413.20000000000005</ele><time>2026-04-26T12:08:09.999Z</time></trkpt><trkpt lat="42.67004712495168" lon="11.943381530667322"><ele>412.6</ele><time>2026-04-26T12:08:10.999Z</time></trkpt><trkpt lat="42.67005416023916" lon="11.94324957151798"><ele>412.0</ele><time>2026-04-26T12:08:11.999Z</time></trkpt><trkpt lat="42.6700476872275" lon="11.943108927971737"><ele>411.8</ele><time>2026-04-26T12:08:12.999Z</time></trkpt><trkpt lat="42.67005860454051" lon="11.942971846775107"><ele>411.6</ele><time>2026-04-26T12:08:13.999Z</time></trkpt><trkpt lat="42.67008800649268" lon="11.94282868648255"><ele>411.40000000000003</ele><time>2026-04-26T12:08:14.999Z</time></trkpt><trkpt lat="42.6701030552981" lon="11.942673663702227"><ele>411.20000000000005</ele><time>2026-04-26T12:08:15.999Z</time></trkpt><trkpt lat="42.67011673082266" lon="11.942524524282355"><ele>411.0</ele><time>2026-04-26T12:08:16.999Z</time></trkpt><trkpt lat="42.67012763519697" lon="11.942388456634724"><ele>411.0</ele><time>2026-04-26T12:08:17.999Z</time></trkpt><trkpt lat="42.67012161555884" lon="11.942255196539708"><ele>411.0</ele><time>2026-04-26T12:08:18.999Z</time></trkpt><trkpt lat="42.670132067388074" lon="11.94212574829172"><ele>411.0</ele><time>2026-04-26T12:08:19.999Z</time></trkpt><trkpt lat="42.67014332314069" lon="11.941992571223686"><ele>411.0</ele><time>2026-04-26T12:08:20.999Z</time></trkpt><trkpt lat="42.67017294483274" lon="11.941867165272082"><ele>411.0</ele><time>2026-04-26T12:08:21.999Z</time></trkpt><trkpt lat="42.67018767953507" lon="11.941728523106752"><ele>411.0</ele><time>2026-04-26T12:08:22.999Z</time></trkpt><trkpt lat="42.67020211678049" lon="11.94160431580301"><ele>411.0</ele><time>2026-04-26T12:08:23.999Z</time></trkpt><trkpt lat="42.67021588305122" lon="11.941494207190757"><ele>411.0</ele><time>2026-04-26T12:08:24.999Z</time></trkpt><trkpt lat="42.670230766642234" lon="11.941398549692414"><ele>411.0</ele><time>2026-04-26T12:08:25.999Z</time></trkpt><trkpt lat="42.670248220539385" lon="11.941302181301523"><ele>411.0</ele><time>2026-04-26T12:08:26.999Z</time></trkpt><trkpt lat="42.6702705539134" lon="11.941205157560077"><ele>411.0</ele><time>2026-04-26T12:08:27.999Z</time></trkpt><trkpt lat="42.67029676289232" lon="11.941120286421151"><ele>411.6</ele><time>2026-04-26T12:08:28.999Z</time></trkpt><trkpt lat="42.67036508391773" lon="11.940978114525583"><ele>412.20000000000005</ele><time>2026-04-26T12:08:30.999Z</time></trkpt><trkpt lat="42.6704244817549" lon="11.940843066442401"><ele>412.79999999999995</ele><time>2026-04-26T12:08:32.999Z</time></trkpt><trkpt lat="42.67045953786666" lon="11.940758126105568"><ele>413.4</ele><time>2026-04-26T12:08:33.999Z</time></trkpt><trkpt lat="42.67049230890776" lon="11.940662365811042"><ele>414.0</ele><time>2026-04-26T12:08:34.999Z</time></trkpt><trkpt lat="42.67052001814022" lon="11.940566985624335"><ele>414.0</ele><time>2026-04-26T12:08:35.999Z</time></trkpt><trkpt lat="42.67054540797709" lon="11.940476318690907"><ele>414.0</ele><time>2026-04-26T12:08:36.999Z</time></trkpt><trkpt lat="42.67056930874674" lon="11.94039024254047"><ele>414.0</ele><time>2026-04-26T12:08:37.999Z</time></trkpt><trkpt lat="42.67059461729373" lon="11.940299096371842"><ele>414.0</ele><time>2026-04-26T12:08:38.999Z</time></trkpt><trkpt lat="42.67063690196687" lon="11.940146812425118"><ele>414.0</ele><time>2026-04-26T12:08:40.999Z</time></trkpt><trkpt lat="42.67067438677749" lon="11.940014530632796"><ele>414.0</ele><time>2026-04-26T12:08:42.999Z</time></trkpt><trkpt lat="42.67071571322967" lon="11.939896893537057"><ele>413.0</ele><time>2026-04-26T12:08:44.999Z</time></trkpt><trkpt lat="42.67078596951815" lon="11.939777150426728"><ele>412.0</ele><time>2026-04-26T12:08:46.999Z</time></trkpt><trkpt lat="42.67086124125596" lon="11.939638312608084"><ele>411.0</ele><time>2026-04-26T12:08:48.999Z</time></trkpt><trkpt lat="42.670895451158955" lon="11.939540694299595"><ele>410.0</ele><time>2026-04-26T12:08:50Z</time></trkpt><trkpt lat="42.67092417131847" lon="11.93942519239505"><ele>409.0</ele><time>2026-04-26T12:08:51Z</time></trkpt><trkpt lat="42.67094886798525" lon="11.939323685498703"><ele>407.83333333333337</ele><time>2026-04-26T12:08:52Z</time></trkpt><trkpt lat="42.670974847646725" lon="11.939216905425258"><ele>406.6666666666667</ele><time>2026-04-26T12:08:53Z</time></trkpt><trkpt lat="42.6709996047846" lon="11.939115150231142"><ele>405.5</ele><time>2026-04-26T12:08:54Z</time></trkpt><trkpt lat="42.67102608122131" lon="11.939006328232463"><ele>404.33333333333337</ele><time>2026-04-26T12:08:55Z</time></trkpt><trkpt lat="42.67104803367182" lon="11.938916100461405"><ele>403.1666666666667</ele><time>2026-04-26T12:08:56Z</time></trkpt><trkpt lat="42.67107252844211" lon="11.938815423363895"><ele>402.0</ele><time>2026-04-26T12:08:57Z</time></trkpt><trkpt lat="42.671095784888756" lon="11.93872045756534"><ele>402.3333333333333</ele><time>2026-04-26T12:08:58Z</time></trkpt><trkpt lat="42.67112078904773" lon="11.938628342558086"><ele>402.66666666666663</ele><time>2026-04-26T12:08:59Z</time></trkpt><trkpt lat="42.67114410313327" lon="11.938542453500757"><ele>403.0</ele><time>2026-04-26T12:09:00Z</time></trkpt><trkpt lat="42.67116619241269" lon="11.938461076384954"><ele>403.3333333333333</ele><time>2026-04-26T12:09:01Z</time></trkpt><trkpt lat="42.67120278535566" lon="11.938318206958163"><ele>403.66666666666663</ele><time>2026-04-26T12:09:03Z</time></trkpt><trkpt lat="42.67122844275357" lon="11.938201430020317"><ele>404.0</ele><time>2026-04-26T12:09:05Z</time></trkpt><trkpt lat="42.67125609232255" lon="11.938093726717808"><ele>403.99999999999994</ele><time>2026-04-26T12:09:07Z</time></trkpt><trkpt lat="42.67129658079561" lon="11.938006804812346"><ele>404.0</ele><time>2026-04-26T12:09:09Z</time></trkpt><trkpt lat="42.67134961735686" lon="11.937933980805376"><ele>404.0</ele><time>2026-04-26T12:09:11Z</time></trkpt><trkpt lat="42.67143081963588" lon="11.93786887956717"><ele>404.0</ele><time>2026-04-26T12:09:13Z</time></trkpt><trkpt lat="42.6714902977926" lon="11.937837313928904"><ele>403.99999999999994</ele><time>2026-04-26T12:09:14Z</time></trkpt><trkpt lat="42.67155463894724" lon="11.937804730733552"><ele>404.0</ele><time>2026-04-26T12:09:15Z</time></trkpt><trkpt lat="42.6716343382904" lon="11.937764752774333"><ele>404.0</ele><time>2026-04-26T12:09:16Z</time></trkpt><trkpt lat="42.67170830991161" lon="11.937729965787149"><ele>404.0</ele><time>2026-04-26T12:09:17Z</time></trkpt><trkpt lat="42.671776529639935" lon="11.93769788368621"><ele>404.0</ele><time>2026-04-26T12:09:18Z</time></trkpt><trkpt lat="42.6718399392842" lon="11.937657440903783"><ele>404.0</ele><time>2026-04-26T12:09:19Z</time></trkpt><trkpt lat="42.671905178854516" lon="11.937627640359885"><ele>404.0</ele><time>2026-04-26T12:09:20Z</time></trkpt><trkpt lat="42.671973779495886" lon="11.937592327702875"><ele>404.0</ele><time>2026-04-26T12:09:21Z</time></trkpt><trkpt lat="42.67204854205833" lon="11.937561945178262"><ele>404.0</ele><time>2026-04-26T12:09:22Z</time></trkpt><trkpt lat="42.67211557645739" lon="11.93755240244723"><ele>403.0</ele><time>2026-04-26T12:09:23Z</time></trkpt><trkpt lat="42.67222989382417" lon="11.937509808669406"><ele>402.0</ele><time>2026-04-26T12:09:25Z</time></trkpt><trkpt lat="42.67232056417768" lon="11.937475247948345"><ele>401.0</ele><time>2026-04-26T12:09:27Z</time></trkpt><trkpt lat="42.6724054998859" lon="11.937430116646775"><ele>400.0</ele><time>2026-04-26T12:09:29Z</time></trkpt><trkpt lat="42.67253059361034" lon="11.937382142315315"><ele>399.0</ele><time>2026-04-26T12:09:31Z</time></trkpt><trkpt lat="42.67262092108195" lon="11.93733891487794"><ele>399.0</ele><time>2026-04-26T12:09:32Z</time></trkpt><trkpt lat="42.67274098218176" lon="11.937286975064454"><ele>399.0</ele><time>2026-04-26T12:09:33Z</time></trkpt><trkpt lat="42.67287281253851" lon="11.93723399936045"><ele>399.0</ele><time>2026-04-26T12:09:34Z</time></trkpt><trkpt lat="42.672999336235385" lon="11.937194153438316"><ele>399.0</ele><time>2026-04-26T12:09:35Z</time></trkpt><trkpt lat="42.67309658425762" lon="11.937160794078322"><ele>400.3333333333333</ele><time>2026-04-26T12:09:36Z</time></trkpt><trkpt lat="42.673179411155125" lon="11.93716941448077"><ele>401.66666666666663</ele><time>2026-04-26T12:09:37Z</time></trkpt><trkpt lat="42.67324382034382" lon="11.937141201297509"><ele>403.0</ele><time>2026-04-26T12:09:38Z</time></trkpt><trkpt lat="42.67332945852953" lon="11.93708913174532"><ele>404.3333333333333</ele><time>2026-04-26T12:09:40Z</time></trkpt><trkpt lat="42.673352202040846" lon="11.936923891882367"><ele>405.66666666666663</ele><time>2026-04-26T12:09:42Z</time></trkpt><trkpt lat="42.67336245263959" lon="11.93681501653117"><ele>407.0</ele><time>2026-04-26T12:09:43Z</time></trkpt><trkpt lat="42.673362452645286" lon="11.936695750349953"><ele>407.00000000000006</ele><time>2026-04-26T12:09:44Z</time></trkpt><trkpt lat="42.673359475622284" lon="11.936583050748279"><ele>407.0</ele><time>2026-04-26T12:09:45Z</time></trkpt><trkpt lat="42.67334020868777" lon="11.936488537481688"><ele>407.0</ele><time>2026-04-26T12:09:46Z</time></trkpt><trkpt lat="42.67333883680596" lon="11.936394806669549"><ele>407.0</ele><time>2026-04-26T12:09:47Z</time></trkpt><trkpt lat="42.67332461357874" lon="11.936300534558903"><ele>407.0</ele><time>2026-04-26T12:09:48Z</time></trkpt><trkpt lat="42.67329851545326" lon="11.936205218391482"><ele>407.00000000000006</ele><time>2026-04-26T12:09:49Z</time></trkpt><trkpt lat="42.67326913641615" lon="11.936113071800508"><ele>407.0</ele><time>2026-04-26T12:09:50Z</time></trkpt><trkpt lat="42.67326106315545" lon="11.936018720072534"><ele>407.00000000000006</ele><time>2026-04-26T12:09:50.999Z</time></trkpt><trkpt lat="42.67324626397707" lon="11.935932084797006"><ele>407.0</ele><time>2026-04-26T12:09:51.999Z</time></trkpt><trkpt lat="42.673228387268466" lon="11.935824958997792"><ele>407.0</ele><time>2026-04-26T12:09:53.999Z</time></trkpt><trkpt lat="42.67322445286499" lon="11.935718741279622"><ele>407.0</ele><time>2026-04-26T12:09:55.999Z</time></trkpt><trkpt lat="42.67322976574494" lon="11.935620706174479"><ele>407.0</ele><time>2026-04-26T12:09:57.999Z</time></trkpt><trkpt lat="42.67322923468997" lon="11.935523488244161"><ele>407.00000000000006</ele><time>2026-04-26T12:09:59.999Z</time></trkpt><trkpt lat="42.67322756880398" lon="11.935422877702228"><ele>407.0</ele><time>2026-04-26T12:10:01.999Z</time></trkpt><trkpt lat="42.67322488079196" lon="11.935308789378729"><ele>405.6</ele><time>2026-04-26T12:10:03.999Z</time></trkpt><trkpt lat="42.67322183238331" lon="11.935220517215"><ele>404.20000000000005</ele><time>2026-04-26T12:10:04.999Z</time></trkpt><trkpt lat="42.67321729090106" lon="11.935101924694136"><ele>402.8</ele><time>2026-04-26T12:10:05.999Z</time></trkpt><trkpt lat="42.67320803832657" lon="11.934957575311788"><ele>401.4</ele><time>2026-04-26T12:10:06.999Z</time></trkpt><trkpt lat="42.67321010451339" lon="11.934793485580979"><ele>400.0</ele><time>2026-04-26T12:10:07.999Z</time></trkpt><trkpt lat="42.67319848485515" lon="11.934616087450996"><ele>400.0</ele><time>2026-04-26T12:10:08.999Z</time></trkpt><trkpt lat="42.67318892036859" lon="11.934285560012416"><ele>400.0</ele><time>2026-04-26T12:10:10.999Z</time></trkpt><trkpt lat="42.67319893714113" lon="11.93412175501486"><ele>400.0</ele><time>2026-04-26T12:10:11.999Z</time></trkpt><trkpt lat="42.673193775532106" lon="11.93396627183425"><ele>400.6</ele><time>2026-04-26T12:10:12.999Z</time></trkpt><trkpt lat="42.6731886747484" lon="11.933810893224639"><ele>401.2</ele><time>2026-04-26T12:10:13.999Z</time></trkpt><trkpt lat="42.67318508791272" lon="11.933679375870188"><ele>401.79999999999995</ele><time>2026-04-26T12:10:14.999Z</time></trkpt><trkpt lat="42.6731825565261" lon="11.933551882137856"><ele>402.4</ele><time>2026-04-26T12:10:15.999Z</time></trkpt><trkpt lat="42.67318155699023" lon="11.93342699310359"><ele>403.0</ele><time>2026-04-26T12:10:16.999Z</time></trkpt><trkpt lat="42.67318067843087" lon="11.93330678156276"><ele>403.4</ele><time>2026-04-26T12:10:17.999Z</time></trkpt><trkpt lat="42.6731799683972" lon="11.933198217858136"><ele>403.79999999999995</ele><time>2026-04-26T12:10:18.999Z</time></trkpt><trkpt lat="42.67317919696119" lon="11.933080265448561"><ele>404.2</ele><time>2026-04-26T12:10:19.999Z</time></trkpt><trkpt lat="42.673178345904766" lon="11.932950139733281"><ele>404.6</ele><time>2026-04-26T12:10:20.999Z</time></trkpt><trkpt lat="42.67317642681705" lon="11.932804838894864"><ele>405.0</ele><time>2026-04-26T12:10:21.999Z</time></trkpt><trkpt lat="42.673170708828614" lon="11.93265322433176"><ele>407.0</ele><time>2026-04-26T12:10:22.999Z</time></trkpt><trkpt lat="42.67316090655026" lon="11.93249011113098"><ele>409.0</ele><time>2026-04-26T12:10:23.999Z</time></trkpt><trkpt lat="42.67314907489136" lon="11.932315306217669"><ele>411.0</ele><time>2026-04-26T12:10:24.999Z</time></trkpt><trkpt lat="42.67313999775277" lon="11.932150359968867"><ele>413.0</ele><time>2026-04-26T12:10:25.999Z</time></trkpt><trkpt lat="42.67313407099404" lon="11.93198598458311"><ele>413.0</ele><time>2026-04-26T12:10:26.999Z</time></trkpt><trkpt lat="42.673128128553365" lon="11.931821174261156"><ele>413.0</ele><time>2026-04-26T12:10:27.999Z</time></trkpt><trkpt lat="42.67312289673075" lon="11.931676193476177"><ele>413.0</ele><time>2026-04-26T12:10:28.999Z</time></trkpt><trkpt lat="42.67311879273974" lon="11.93155446447764"><ele>413.0</ele><time>2026-04-26T12:10:29.999Z</time></trkpt><trkpt lat="42.6731149655495" lon="11.931440946569236"><ele>413.0</ele><time>2026-04-26T12:10:30.999Z</time></trkpt><trkpt lat="42.673111207135975" lon="11.931329468089945"><ele>414.16666666666663</ele><time>2026-04-26T12:10:31.999Z</time></trkpt><trkpt lat="42.67310666490255" lon="11.931216280548991"><ele>415.3333333333333</ele><time>2026-04-26T12:10:32.999Z</time></trkpt><trkpt lat="42.67310263826068" lon="11.931117988172167"><ele>416.5</ele><time>2026-04-26T12:10:33.999Z</time></trkpt><trkpt lat="42.673097843375096" lon="11.931003840637057"><ele>417.66666666666663</ele><time>2026-04-26T12:10:34.999Z</time></trkpt><trkpt lat="42.673080924608534" lon="11.930886026356143"><ele>418.8333333333333</ele><time>2026-04-26T12:10:35.999Z</time></trkpt><trkpt lat="42.67309104515771" lon="11.930770501851365"><ele>420.0</ele><time>2026-04-26T12:10:36.999Z</time></trkpt><trkpt lat="42.67311118000302" lon="11.93057424392051"><ele>421.2</ele><time>2026-04-26T12:10:38.999Z</time></trkpt><trkpt lat="42.67317436066541" lon="11.930447577272375"><ele>422.4</ele><time>2026-04-26T12:10:40.999Z</time></trkpt><trkpt lat="42.67324401358366" lon="11.930403076849474"><ele>423.6</ele><time>2026-04-26T12:10:42.999Z</time></trkpt><trkpt lat="42.67332284444487" lon="11.930282730024755"><ele>424.8</ele><time>2026-04-26T12:12:02.999Z</time></trkpt><trkpt lat="42.67334238700374" lon="11.930170207704595"><ele>426.0</ele><time>2026-04-26T12:12:03.999Z</time></trkpt><trkpt lat="42.67334696309685" lon="11.930055129842515"><ele>427.4</ele><time>2026-04-26T12:12:04.999Z</time></trkpt><trkpt lat="42.67334498641875" lon="11.929928687836862"><ele>428.8</ele><time>2026-04-26T12:12:05.999Z</time></trkpt><trkpt lat="42.673344834731076" lon="11.929799145719764"><ele>430.19999999999993</ele><time>2026-04-26T12:12:06.999Z</time></trkpt><trkpt lat="42.67334417510067" lon="11.929679744914935"><ele>431.59999999999997</ele><time>2026-04-26T12:12:07.999Z</time></trkpt><trkpt lat="42.67334707675094" lon="11.929535972601007"><ele>433.0</ele><time>2026-04-26T12:12:08.999Z</time></trkpt><trkpt lat="42.67335318809825" lon="11.929379447906006"><ele>434.25</ele><time>2026-04-26T12:12:09.999Z</time></trkpt><trkpt lat="42.67335667139406" lon="11.9292157060434"><ele>435.5</ele><time>2026-04-26T12:12:10.999Z</time></trkpt><trkpt lat="42.673356740272894" lon="11.929069281404942"><ele>436.75</ele><time>2026-04-26T12:12:11.999Z</time></trkpt><trkpt lat="42.67335877721148" lon="11.928915696782664"><ele>438.0</ele><time>2026-04-26T12:12:12.999Z</time></trkpt><trkpt lat="42.673367006122454" lon="11.928761146813278"><ele>438.0</ele><time>2026-04-26T12:12:13.999Z</time></trkpt><trkpt lat="42.67337994923225" lon="11.928608052289157"><ele>437.99999999999994</ele><time>2026-04-26T12:12:14.999Z</time></trkpt><trkpt lat="42.67339508971896" lon="11.92846050282477"><ele>437.99999999999994</ele><time>2026-04-26T12:12:15.999Z</time></trkpt><trkpt lat="42.67341151003511" lon="11.928326381832457"><ele>438.0</ele><time>2026-04-26T12:12:16.999Z</time></trkpt><trkpt lat="42.67343393793381" lon="11.928192307081618"><ele>438.0</ele><time>2026-04-26T12:12:17.999Z</time></trkpt><trkpt lat="42.67346888779771" lon="11.928072193499752"><ele>438.0</ele><time>2026-04-26T12:12:18.999Z</time></trkpt><trkpt lat="42.67351036160133" lon="11.927985272345664"><ele>437.99999999999994</ele><time>2026-04-26T12:12:19.999Z</time></trkpt><trkpt lat="42.67355930341973" lon="11.927919993287578"><ele>437.99999999999994</ele><time>2026-04-26T12:12:20.999Z</time></trkpt><trkpt lat="42.67367902999079" lon="11.927870814908456"><ele>438.0</ele><time>2026-04-26T12:12:22.999Z</time></trkpt><trkpt lat="42.673799043081786" lon="11.927779152958648"><ele>438.0</ele><time>2026-04-26T12:12:24.999Z</time></trkpt><trkpt lat="42.67388110186065" lon="11.927758230711945"><ele>441.79999999999995</ele><time>2026-04-26T12:12:25.999Z</time></trkpt><trkpt lat="42.67397597514332" lon="11.927727933148216"><ele>445.59999999999997</ele><time>2026-04-26T12:12:26.999Z</time></trkpt><trkpt lat="42.67406710897236" lon="11.927703439728921"><ele>449.40000000000003</ele><time>2026-04-26T12:12:27.999Z</time></trkpt><trkpt lat="42.674164585655625" lon="11.92768140955718"><ele>453.20000000000005</ele><time>2026-04-26T12:12:28.999Z</time></trkpt><trkpt lat="42.67426363535963" lon="11.927657923451877"><ele>457.0</ele><time>2026-04-26T12:12:29.999Z</time></trkpt><trkpt lat="42.67436764196471" lon="11.927647853976314"><ele>458.25</ele><time>2026-04-26T12:12:30.999Z</time></trkpt><trkpt lat="42.67447409093824" lon="11.927649722911294"><ele>459.5</ele><time>2026-04-26T12:12:31.999Z</time></trkpt><trkpt lat="42.674576282881404" lon="11.927645305696918"><ele>460.75</ele><time>2026-04-26T12:12:32.999Z</time></trkpt><trkpt lat="42.67477765918945" lon="11.927656291853179"><ele>462.0</ele><time>2026-04-26T12:12:34.999Z</time></trkpt><trkpt lat="42.67487247728177" lon="11.927665235519349"><ele>462.0</ele><time>2026-04-26T12:12:35.999Z</time></trkpt><trkpt lat="42.674964181518476" lon="11.927672259902918"><ele>462.0</ele><time>2026-04-26T12:12:36.999Z</time></trkpt><trkpt lat="42.675039221570756" lon="11.92767935012906"><ele>462.0</ele><time>2026-04-26T12:12:37.999Z</time></trkpt><trkpt lat="42.67512504830716" lon="11.927690196173373"><ele>462.0</ele><time>2026-04-26T12:12:38.999Z</time></trkpt><trkpt lat="42.6752045332149" lon="11.927702534009825"><ele>462.0</ele><time>2026-04-26T12:12:39.999Z</time></trkpt><trkpt lat="42.675288308847776" lon="11.927720955374914"><ele>462.0</ele><time>2026-04-26T12:12:40.999Z</time></trkpt><trkpt lat="42.67536780811355" lon="11.927745091175217"><ele>459.6666666666667</ele><time>2026-04-26T12:12:41.999Z</time></trkpt><trkpt lat="42.67544300298892" lon="11.927774995257005"><ele>457.33333333333337</ele><time>2026-04-26T12:12:42.999Z</time></trkpt><trkpt lat="42.67551048134409" lon="11.927817205762848"><ele>455.0</ele><time>2026-04-26T12:12:43.999Z</time></trkpt><trkpt lat="42.67557600369687" lon="11.927868857996893"><ele>452.6666666666667</ele><time>2026-04-26T12:12:44.999Z</time></trkpt><trkpt lat="42.675641973353066" lon="11.927942257400362"><ele>450.33333333333337</ele><time>2026-04-26T12:12:45.999Z</time></trkpt><trkpt lat="42.67570480394706" lon="11.928015210031294"><ele>448.0</ele><time>2026-04-26T12:12:46.999Z</time></trkpt><trkpt lat="42.675770031987696" lon="11.928086779848956"><ele>448.00000000000006</ele><time>2026-04-26T12:12:47.999Z</time></trkpt><trkpt lat="42.675835238791805" lon="11.928151765738345"><ele>448.0</ele><time>2026-04-26T12:12:48.999Z</time></trkpt><trkpt lat="42.67590073732158" lon="11.928222085824272"><ele>448.0</ele><time>2026-04-26T12:12:49.999Z</time></trkpt><trkpt lat="42.67595551766086" lon="11.928276550638811"><ele>448.0</ele><time>2026-04-26T12:12:50.999Z</time></trkpt><trkpt lat="42.67600510533931" lon="11.928348437660155"><ele>448.00000000000006</ele><time>2026-04-26T12:12:51.999Z</time></trkpt><trkpt lat="42.67606278520699" lon="11.92840428193748"><ele>448.0</ele><time>2026-04-26T12:12:52.999Z</time></trkpt><trkpt lat="42.676128635083415" lon="11.928465474928542"><ele>448.1666666666667</ele><time>2026-04-26T12:12:53.999Z</time></trkpt><trkpt lat="42.67618430640761" lon="11.92851720960556"><ele>448.33333333333337</ele><time>2026-04-26T12:12:54.999Z</time></trkpt><trkpt lat="42.67623976419513" lon="11.928565534784742"><ele>448.5</ele><time>2026-04-26T12:12:55.999Z</time></trkpt><trkpt lat="42.67629643737552" lon="11.92861121621365"><ele>448.66666666666663</ele><time>2026-04-26T12:12:56.999Z</time></trkpt><trkpt lat="42.67639951934445" lon="11.928679470459915"><ele>448.8333333333333</ele><time>2026-04-26T12:12:58.999Z</time></trkpt><trkpt lat="42.67649481549418" lon="11.92872225522505"><ele>449.0</ele><time>2026-04-26T12:13:00.999Z</time></trkpt><trkpt lat="42.676608587926964" lon="11.928724366352094"><ele>448.99999999999994</ele><time>2026-04-26T12:13:03Z</time></trkpt><trkpt lat="42.67667527322871" lon="11.928692426770866"><ele>449.0</ele><time>2026-04-26T12:13:04Z</time></trkpt><trkpt lat="42.67673133892305" lon="11.928624230993114"><ele>449.0</ele><time>2026-04-26T12:13:05Z</time></trkpt><trkpt lat="42.676763345492205" lon="11.9285161694602"><ele>449.0</ele><time>2026-04-26T12:13:06Z</time></trkpt><trkpt lat="42.67677653206242" lon="11.92840698176818"><ele>448.99999999999994</ele><time>2026-04-26T12:13:07Z</time></trkpt><trkpt lat="42.67681646196919" lon="11.92830662025056"><ele>449.0</ele><time>2026-04-26T12:13:07.999Z</time></trkpt><trkpt lat="42.67683647757107" lon="11.928195490016652"><ele>448.99999999999994</ele><time>2026-04-26T12:13:08.999Z</time></trkpt><trkpt lat="42.676856108967264" lon="11.928082470807546"><ele>449.0</ele><time>2026-04-26T12:13:09.999Z</time></trkpt><trkpt lat="42.67687700433226" lon="11.927960734316834"><ele>449.0</ele><time>2026-04-26T12:13:10.999Z</time></trkpt><trkpt lat="42.676898486914574" lon="11.927846448769658"><ele>449.0</ele><time>2026-04-26T12:13:11.999Z</time></trkpt><trkpt lat="42.67692060752156" lon="11.927743789647902"><ele>448.99999999999994</ele><time>2026-04-26T12:13:12.999Z</time></trkpt><trkpt lat="42.676944285787386" lon="11.927646107641571"><ele>449.0</ele><time>2026-04-26T12:13:13.999Z</time></trkpt><trkpt lat="42.67697371364861" lon="11.92753118767258"><ele>447.79999999999995</ele><time>2026-04-26T12:13:14.999Z</time></trkpt><trkpt lat="42.67699409476846" lon="11.927396591379248"><ele>446.59999999999997</ele><time>2026-04-26T12:13:15.999Z</time></trkpt><trkpt lat="42.67704569401531" lon="11.927268197382494"><ele>445.4</ele><time>2026-04-26T12:13:17Z</time></trkpt><trkpt lat="42.67708264823876" lon="11.92714654274954"><ele>444.2</ele><time>2026-04-26T12:13:18Z</time></trkpt><trkpt lat="42.67711920896837" lon="11.927036436032962"><ele>443.0</ele><time>2026-04-26T12:13:19Z</time></trkpt><trkpt lat="42.67716543275812" lon="11.926915581076855"><ele>443.0</ele><time>2026-04-26T12:13:20Z</time></trkpt><trkpt lat="42.677220754391385" lon="11.926789066580247"><ele>442.99999999999994</ele><time>2026-04-26T12:13:21Z</time></trkpt><trkpt lat="42.677281083287866" lon="11.926667926431085"><ele>442.99999999999994</ele><time>2026-04-26T12:13:22Z</time></trkpt><trkpt lat="42.677342117529236" lon="11.92655525172114"><ele>443.0</ele><time>2026-04-26T12:13:23Z</time></trkpt><trkpt lat="42.677405759527495" lon="11.926444713824946"><ele>443.0</ele><time>2026-04-26T12:13:24Z</time></trkpt><trkpt lat="42.67747171498245" lon="11.926338789050765"><ele>442.59999999999997</ele><time>2026-04-26T12:13:25Z</time></trkpt><trkpt lat="42.67753998078517" lon="11.926231938301273"><ele>442.19999999999993</ele><time>2026-04-26T12:13:26Z</time></trkpt><trkpt lat="42.6776117665991" lon="11.926123145253696"><ele>441.8</ele><time>2026-04-26T12:13:27Z</time></trkpt><trkpt lat="42.67768011128919" lon="11.926026667193387"><ele>441.4</ele><time>2026-04-26T12:13:28Z</time></trkpt><trkpt lat="42.677740729988955" lon="11.925948930829003"><ele>441.0</ele><time>2026-04-26T12:13:29Z</time></trkpt><trkpt lat="42.67779001308218" lon="11.925875626000769"><ele>441.0</ele><time>2026-04-26T12:13:30Z</time></trkpt><trkpt lat="42.67784686402384" lon="11.925817482265915"><ele>441.0</ele><time>2026-04-26T12:13:31Z</time></trkpt><trkpt lat="42.6779086441311" lon="11.925778616136004"><ele>441.0</ele><time>2026-04-26T12:13:32Z</time></trkpt><trkpt lat="42.67798290335288" lon="11.925757698577048"><ele>441.0</ele><time>2026-04-26T12:13:33Z</time></trkpt><trkpt lat="42.67807050534827" lon="11.925753744541428"><ele>441.0</ele><time>2026-04-26T12:13:34Z</time></trkpt><trkpt lat="42.678170013469796" lon="11.925752818659886"><ele>441.0</ele><time>2026-04-26T12:13:35Z</time></trkpt><trkpt lat="42.6782683789038" lon="11.925757956704196"><ele>441.0</ele><time>2026-04-26T12:13:36Z</time></trkpt><trkpt lat="42.67836054558024" lon="11.92575858727646"><ele>441.0</ele><time>2026-04-26T12:13:37Z</time></trkpt><trkpt lat="42.67844558469365" lon="11.92578749868529"><ele>441.0</ele><time>2026-04-26T12:13:38Z</time></trkpt><trkpt lat="42.678523507013196" lon="11.925748617590607"><ele>441.0</ele><time>2026-04-26T12:13:39Z</time></trkpt><trkpt lat="42.678588262892056" lon="11.925734968591895"><ele>441.0</ele><time>2026-04-26T12:13:40Z</time></trkpt><trkpt lat="42.67866599868379" lon="11.925689930502886"><ele>441.0</ele><time>2026-04-26T12:13:40.999Z</time></trkpt><trkpt lat="42.67873963524307" lon="11.925624820361666"><ele>443.1666666666667</ele><time>2026-04-26T12:13:41.999Z</time></trkpt><trkpt lat="42.67879872629936" lon="11.925553903560363"><ele>445.33333333333337</ele><time>2026-04-26T12:13:42.999Z</time></trkpt><trkpt lat="42.678838609800515" lon="11.925465491374208"><ele>447.5</ele><time>2026-04-26T12:13:43.999Z</time></trkpt><trkpt lat="42.67887894914279" lon="11.92537638973915"><ele>449.6666666666667</ele><time>2026-04-26T12:13:44.999Z</time></trkpt><trkpt lat="42.67890717801961" lon="11.92527516887422"><ele>451.83333333333337</ele><time>2026-04-26T12:13:45.999Z</time></trkpt><trkpt lat="42.6789182318833" lon="11.925187708722454"><ele>454.0</ele><time>2026-04-26T12:13:46.999Z</time></trkpt><trkpt lat="42.67891783510777" lon="11.925034330799631"><ele>454.0</ele><time>2026-04-26T12:13:48.999Z</time></trkpt><trkpt lat="42.67893412121626" lon="11.924906431403876"><ele>454.0</ele><time>2026-04-26T12:13:50.999Z</time></trkpt><trkpt lat="42.67892284710732" lon="11.9247733224281"><ele>454.0</ele><time>2026-04-26T12:13:52.999Z</time></trkpt><trkpt lat="42.678916354246894" lon="11.924644304728082"><ele>454.0</ele><time>2026-04-26T12:13:54.999Z</time></trkpt><trkpt lat="42.67890109896132" lon="11.924503118038977"><ele>454.0</ele><time>2026-04-26T12:13:56.999Z</time></trkpt><trkpt lat="42.67888077765723" lon="11.92434907502777"><ele>452.79999999999995</ele><time>2026-04-26T12:13:58.999Z</time></trkpt><trkpt lat="42.67887968379934" lon="11.924183658328866"><ele>451.59999999999997</ele><time>2026-04-26T12:14:00.999Z</time></trkpt><trkpt lat="42.67886853682537" lon="11.924038762168033"><ele>450.4</ele><time>2026-04-26T12:14:02.999Z</time></trkpt><trkpt lat="42.67884896694181" lon="11.923922922083982"><ele>449.2</ele><time>2026-04-26T12:14:04.999Z</time></trkpt><trkpt lat="42.678857547639716" lon="11.923791453755998"><ele>448.0</ele><time>2026-04-26T12:14:06.999Z</time></trkpt><trkpt lat="42.67890743798232" lon="11.923661801744021"><ele>448.0</ele><time>2026-04-26T12:14:08.999Z</time></trkpt><trkpt lat="42.67896951731679" lon="11.92352223810239"><ele>448.0</ele><time>2026-04-26T12:14:10.999Z</time></trkpt><trkpt lat="42.67903566279273" lon="11.923388625914662"><ele>448.0</ele><time>2026-04-26T12:14:12.999Z</time></trkpt><trkpt lat="42.6791021524072" lon="11.923257449642461"><ele>448.0</ele><time>2026-04-26T12:14:14.999Z</time></trkpt><trkpt lat="42.67916088375569" lon="11.923140543272856"><ele>445.59999999999997</ele><time>2026-04-26T12:14:16.999Z</time></trkpt><trkpt lat="42.67920500176358" lon="11.92301431386354"><ele>443.19999999999993</ele><time>2026-04-26T12:14:18.999Z</time></trkpt><trkpt lat="42.67926150653365" lon="11.922913342471464"><ele>440.8</ele><time>2026-04-26T12:14:20.999Z</time></trkpt><trkpt lat="42.679311662293316" lon="11.922805325275492"><ele>438.4</ele><time>2026-04-26T12:14:22.999Z</time></trkpt><trkpt lat="42.67936907138821" lon="11.9227010091486"><ele>436.0</ele><time>2026-04-26T12:14:24.999Z</time></trkpt><trkpt lat="42.67941931946691" lon="11.922605854546232"><ele>434.8</ele><time>2026-04-26T12:14:26.999Z</time></trkpt><trkpt lat="42.67946036367774" lon="11.9225001848159"><ele>433.6</ele><time>2026-04-26T12:14:28.999Z</time></trkpt><trkpt lat="42.67952327882057" lon="11.92239845830273"><ele>432.4</ele><time>2026-04-26T12:14:30.999Z</time></trkpt><trkpt lat="42.679561402848975" lon="11.922263747204118"><ele>431.2</ele><time>2026-04-26T12:14:32.999Z</time></trkpt><trkpt lat="42.67960827323326" lon="11.922110576367047"><ele>430.0</ele><time>2026-04-26T12:14:34.999Z</time></trkpt><trkpt lat="42.67962458594134" lon="11.92201823202824"><ele>430.00000000000006</ele><time>2026-04-26T12:14:35.999Z</time></trkpt><trkpt lat="42.67963351939752" lon="11.921918073327651"><ele>430.0</ele><time>2026-04-26T12:14:36.999Z</time></trkpt><trkpt lat="42.679632364963716" lon="11.921828179527434"><ele>430.0</ele><time>2026-04-26T12:14:37.999Z</time></trkpt><trkpt lat="42.67961972370707" lon="11.921730758451806"><ele>430.0</ele><time>2026-04-26T12:14:38.999Z</time></trkpt><trkpt lat="42.679596447250844" lon="11.921625382757787"><ele>430.00000000000006</ele><time>2026-04-26T12:14:39.999Z</time></trkpt><trkpt lat="42.67956215860277" lon="11.921521475474776"><ele>430.0</ele><time>2026-04-26T12:14:40.999Z</time></trkpt><trkpt lat="42.67951260651784" lon="11.921413996615643"><ele>429.1666666666667</ele><time>2026-04-26T12:14:41.999Z</time></trkpt><trkpt lat="42.67946618742182" lon="11.921324456524669"><ele>428.33333333333337</ele><time>2026-04-26T12:14:42.999Z</time></trkpt><trkpt lat="42.67942213273071" lon="11.92122882330462"><ele>427.5</ele><time>2026-04-26T12:14:43.999Z</time></trkpt><trkpt lat="42.679377674061975" lon="11.921134015630546"><ele>426.66666666666663</ele><time>2026-04-26T12:14:44.999Z</time></trkpt><trkpt lat="42.67932254265108" lon="11.921048811916878"><ele>425.8333333333333</ele><time>2026-04-26T12:14:45.999Z</time></trkpt><trkpt lat="42.67925638708391" lon="11.920970606180106"><ele>425.0</ele><time>2026-04-26T12:14:46.999Z</time></trkpt><trkpt lat="42.6792058459669" lon="11.920869449940103"><ele>423.42857142857144</ele><time>2026-04-26T12:14:47.999Z</time></trkpt><trkpt lat="42.679152091335524" lon="11.92079577774657"><ele>421.85714285714283</ele><time>2026-04-26T12:14:48.999Z</time></trkpt><trkpt lat="42.6790947526471" lon="11.920744143720091"><ele>420.28571428571433</ele><time>2026-04-26T12:14:49.999Z</time></trkpt><trkpt lat="42.67905767600392" lon="11.920671315179176"><ele>418.7142857142857</ele><time>2026-04-26T12:14:50.999Z</time></trkpt><trkpt lat="42.679030025839886" lon="11.920589462359978"><ele>417.14285714285717</ele><time>2026-04-26T12:14:51.999Z</time></trkpt><trkpt lat="42.679010789301195" lon="11.920495343788112"><ele>415.5714285714286</ele><time>2026-04-26T12:14:52.999Z</time></trkpt><trkpt lat="42.67899816909564" lon="11.920399363276116"><ele>414.0</ele><time>2026-04-26T12:14:53.999Z</time></trkpt><trkpt lat="42.67899933371856" lon="11.92029592105204"><ele>414.0</ele><time>2026-04-26T12:14:54.999Z</time></trkpt><trkpt lat="42.679031715163575" lon="11.920210144809039"><ele>414.0</ele><time>2026-04-26T12:14:55.999Z</time></trkpt><trkpt lat="42.679056260772356" lon="11.920125113414255"><ele>414.0</ele><time>2026-04-26T12:14:56.999Z</time></trkpt><trkpt lat="42.679085563587606" lon="11.920033059432075"><ele>414.0</ele><time>2026-04-26T12:14:57.999Z</time></trkpt><trkpt lat="42.67911722866177" lon="11.91994504240485"><ele>414.0</ele><time>2026-04-26T12:14:58.999Z</time></trkpt><trkpt lat="42.679160417916606" lon="11.919843710104255"><ele>414.0</ele><time>2026-04-26T12:14:59.999Z</time></trkpt><trkpt lat="42.67921792399583" lon="11.919741069608484"><ele>414.6</ele><time>2026-04-26T12:15:00.999Z</time></trkpt><trkpt lat="42.67928897495268" lon="11.919637308756062"><ele>415.2</ele><time>2026-04-26T12:15:01.999Z</time></trkpt><trkpt lat="42.67936505879645" lon="11.919549269039047"><ele>415.8</ele><time>2026-04-26T12:15:02.999Z</time></trkpt><trkpt lat="42.679444136034256" lon="11.919446387708076"><ele>416.40000000000003</ele><time>2026-04-26T12:15:03.999Z</time></trkpt><trkpt lat="42.679516353856485" lon="11.919334951089454"><ele>417.0</ele><time>2026-04-26T12:15:04.999Z</time></trkpt><trkpt lat="42.67958256328324" lon="11.919230937822837"><ele>419.0</ele><time>2026-04-26T12:15:05.999Z</time></trkpt><trkpt lat="42.67963723793988" lon="11.919138333309292"><ele>421.0</ele><time>2026-04-26T12:15:06.999Z</time></trkpt><trkpt lat="42.679668986291425" lon="11.91903156899026"><ele>423.00000000000006</ele><time>2026-04-26T12:15:08Z</time></trkpt><trkpt lat="42.67972683683597" lon="11.918946090478988"><ele>425.0</ele><time>2026-04-26T12:15:09Z</time></trkpt><trkpt lat="42.679755903751484" lon="11.918823083621936"><ele>427.0</ele><time>2026-04-26T12:15:10Z</time></trkpt><trkpt lat="42.679765787397976" lon="11.918680787154733"><ele>427.00000000000006</ele><time>2026-04-26T12:15:11Z</time></trkpt><trkpt lat="42.679754433802486" lon="11.918539385924694"><ele>427.0</ele><time>2026-04-26T12:15:12Z</time></trkpt><trkpt lat="42.67975491371619" lon="11.91841420194437"><ele>427.0</ele><time>2026-04-26T12:15:13Z</time></trkpt><trkpt lat="42.67975590450654" lon="11.918301857194438"><ele>427.0</ele><time>2026-04-26T12:15:14Z</time></trkpt><trkpt lat="42.67974836520769" lon="11.918201859511724"><ele>427.00000000000006</ele><time>2026-04-26T12:15:15Z</time></trkpt><trkpt lat="42.67975020382882" lon="11.918077703207324"><ele>427.0</ele><time>2026-04-26T12:15:17Z</time></trkpt><trkpt lat="42.679743278184766" lon="11.917968353059408"><ele>426.75</ele><time>2026-04-26T12:15:19Z</time></trkpt><trkpt lat="42.67981611792511" lon="11.91788121544911"><ele>426.5</ele><time>2026-04-26T12:15:20Z</time></trkpt><trkpt lat="42.67989372939143" lon="11.917781233348116"><ele>426.25</ele><time>2026-04-26T12:15:21Z</time></trkpt><trkpt lat="42.68000028203242" lon="11.917661045519802"><ele>426.0</ele><time>2026-04-26T12:15:22Z</time></trkpt><trkpt lat="42.6801080492018" lon="11.917529932903046"><ele>425.0</ele><time>2026-04-26T12:15:23Z</time></trkpt><trkpt lat="42.680206238573824" lon="11.9173488753376"><ele>424.0</ele><time>2026-04-26T12:15:24Z</time></trkpt><trkpt lat="42.68028957590126" lon="11.917143218580208"><ele>423.0</ele><time>2026-04-26T12:15:25Z</time></trkpt><trkpt lat="42.68038317052232" lon="11.916934354909463"><ele>427.0</ele><time>2026-04-26T12:15:26Z</time></trkpt><trkpt lat="42.680488098251416" lon="11.916755448781013"><ele>431.0</ele><time>2026-04-26T12:15:27Z</time></trkpt><trkpt lat="42.68060094632378" lon="11.916611876685225"><ele>435.0</ele><time>2026-04-26T12:15:28Z</time></trkpt><trkpt lat="42.680732283041706" lon="11.916471168718129"><ele>435.0</ele><time>2026-04-26T12:15:29Z</time></trkpt><trkpt lat="42.68087848417327" lon="11.916351061387608"><ele>435.0</ele><time>2026-04-26T12:15:30Z</time></trkpt><trkpt lat="42.68101668192098" lon="11.916259327441177"><ele>435.0</ele><time>2026-04-26T12:15:31Z</time></trkpt><trkpt lat="42.6811579548541" lon="11.916229834081678"><ele>437.66666666666663</ele><time>2026-04-26T12:15:32Z</time></trkpt><trkpt lat="42.68129880531198" lon="11.91617835817793"><ele>440.3333333333333</ele><time>2026-04-26T12:15:33Z</time></trkpt><trkpt lat="42.68145970519717" lon="11.916170652477822"><ele>443.0</ele><time>2026-04-26T12:15:34Z</time></trkpt><trkpt lat="42.68162443785975" lon="11.91619796122414"><ele>443.0</ele><time>2026-04-26T12:15:35Z</time></trkpt><trkpt lat="42.68179154365621" lon="11.916256007635448"><ele>443.0</ele><time>2026-04-26T12:15:36Z</time></trkpt><trkpt lat="42.68195962883435" lon="11.916338306016117"><ele>443.0</ele><time>2026-04-26T12:15:37Z</time></trkpt><trkpt lat="42.682132616037755" lon="11.916451092544005"><ele>443.0</ele><time>2026-04-26T12:15:38Z</time></trkpt><trkpt lat="42.68231265766373" lon="11.916578891704686"><ele>443.0</ele><time>2026-04-26T12:15:39Z</time></trkpt><trkpt lat="42.68249888231366" lon="11.916698368307264"><ele>443.0</ele><time>2026-04-26T12:15:40Z</time></trkpt><trkpt lat="42.682666466786664" lon="11.916790435037326"><ele>443.5</ele><time>2026-04-26T12:15:41Z</time></trkpt><trkpt lat="42.682808470658216" lon="11.916858770181289"><ele>444.0</ele><time>2026-04-26T12:15:42Z</time></trkpt><trkpt lat="42.682946140414536" lon="11.916924733472433"><ele>444.5</ele><time>2026-04-26T12:15:43Z</time></trkpt><trkpt lat="42.68307976438625" lon="11.91696637931315"><ele>445.0</ele><time>2026-04-26T12:15:44Z</time></trkpt><trkpt lat="42.68321765973588" lon="11.916981516015253"><ele>445.0</ele><time>2026-04-26T12:15:45Z</time></trkpt><trkpt lat="42.68335708087976" lon="11.916955483986015"><ele>445.0</ele><time>2026-04-26T12:15:46Z</time></trkpt><trkpt lat="42.68348800798025" lon="11.916884598420124"><ele>445.0</ele><time>2026-04-26T12:15:47Z</time></trkpt><trkpt lat="42.683613396962116" lon="11.916768064065897"><ele>445.0</ele><time>2026-04-26T12:15:48Z</time></trkpt><trkpt lat="42.68372618675034" lon="11.916609167004099"><ele>446.33333333333337</ele><time>2026-04-26T12:15:49Z</time></trkpt><trkpt lat="42.68383905595252" lon="11.916427456168178"><ele>447.66666666666663</ele><time>2026-04-26T12:15:50Z</time></trkpt><trkpt lat="42.683972571757344" lon="11.916249778191204"><ele>449.0</ele><time>2026-04-26T12:15:51Z</time></trkpt><trkpt lat="42.684104557016035" lon="11.916052388915025"><ele>449.0</ele><time>2026-04-26T12:15:52Z</time></trkpt><trkpt lat="42.68423431876389" lon="11.91583449706631"><ele>449.0</ele><time>2026-04-26T12:15:53Z</time></trkpt><trkpt lat="42.68437677429331" lon="11.915622288879012"><ele>449.0</ele><time>2026-04-26T12:15:54Z</time></trkpt><trkpt lat="42.684503679384015" lon="11.91541762104977"><ele>454.0</ele><time>2026-04-26T12:15:55Z</time></trkpt><trkpt lat="42.684625903301" lon="11.915238114452263"><ele>459.0</ele><time>2026-04-26T12:15:56Z</time></trkpt><trkpt lat="42.684736574712495" lon="11.915069459509926"><ele>464.0</ele><time>2026-04-26T12:15:57Z</time></trkpt><trkpt lat="42.684825151353714" lon="11.91488130699765"><ele>464.0</ele><time>2026-04-26T12:15:57.999Z</time></trkpt><trkpt lat="42.68490776331259" lon="11.914651584462757"><ele>464.0</ele><time>2026-04-26T12:15:58.999Z</time></trkpt><trkpt lat="42.684941474061354" lon="11.914396923814625"><ele>464.0</ele><time>2026-04-26T12:15:59.999Z</time></trkpt><trkpt lat="42.68496504792419" lon="11.914134109405529"><ele>466.3333333333333</ele><time>2026-04-26T12:16:00.999Z</time></trkpt><trkpt lat="42.684967461225845" lon="11.913866575100485"><ele>468.66666666666663</ele><time>2026-04-26T12:16:01.999Z</time></trkpt><trkpt lat="42.68492493781496" lon="11.913601949726516"><ele>471.0</ele><time>2026-04-26T12:16:02.999Z</time></trkpt><trkpt lat="42.684868998754276" lon="11.913331726238676"><ele>473.33333333333337</ele><time>2026-04-26T12:16:03.999Z</time></trkpt><trkpt lat="42.68481757946961" lon="11.913057414573235"><ele>475.6666666666667</ele><time>2026-04-26T12:16:04.999Z</time></trkpt><trkpt lat="42.6847861583296" lon="11.91278024812125"><ele>478.0</ele><time>2026-04-26T12:16:05.999Z</time></trkpt><trkpt lat="42.68473974100496" lon="11.912505987463051"><ele>479.6666666666667</ele><time>2026-04-26T12:16:06.999Z</time></trkpt><trkpt lat="42.68469925342569" lon="11.91226473520933"><ele>481.33333333333337</ele><time>2026-04-26T12:16:07.999Z</time></trkpt><trkpt lat="42.684651726442155" lon="11.912048299422976"><ele>483.0</ele><time>2026-04-26T12:16:08.999Z</time></trkpt><trkpt lat="42.684630590134596" lon="11.911815450722631"><ele>484.0</ele><time>2026-04-26T12:16:09.999Z</time></trkpt><trkpt lat="42.68461424067185" lon="11.911581558615676"><ele>485.0</ele><time>2026-04-26T12:16:10.999Z</time></trkpt><trkpt lat="42.684608388387986" lon="11.911344457250618"><ele>486.0</ele><time>2026-04-26T12:16:11.999Z</time></trkpt><trkpt lat="42.68460307114456" lon="11.911117275291259"><ele>486.33333333333337</ele><time>2026-04-26T12:16:12.999Z</time></trkpt><trkpt lat="42.68460189973048" lon="11.910896316040725"><ele>486.6666666666667</ele><time>2026-04-26T12:16:13.999Z</time></trkpt><trkpt lat="42.68460625056798" lon="11.910690115352205"><ele>487.0</ele><time>2026-04-26T12:16:14.999Z</time></trkpt><trkpt lat="42.68459728619297" lon="11.910501070267067"><ele>487.0</ele><time>2026-04-26T12:16:15.999Z</time></trkpt><trkpt lat="42.6845738621476" lon="11.910300545943855"><ele>487.0</ele><time>2026-04-26T12:16:16.999Z</time></trkpt><trkpt lat="42.68453762844495" lon="11.910099636549578"><ele>487.0</ele><time>2026-04-26T12:16:17.999Z</time></trkpt><trkpt lat="42.68449177105954" lon="11.909904783193047"><ele>485.6666666666667</ele><time>2026-04-26T12:16:18.999Z</time></trkpt><trkpt lat="42.68443671381566" lon="11.909695083430828"><ele>484.33333333333337</ele><time>2026-04-26T12:16:19.999Z</time></trkpt><trkpt lat="42.684374805774354" lon="11.909493147136942"><ele>483.0</ele><time>2026-04-26T12:16:20.999Z</time></trkpt><trkpt lat="42.684310184795606" lon="11.909290531781105"><ele>480.33333333333337</ele><time>2026-04-26T12:16:21.999Z</time></trkpt><trkpt lat="42.68423383118391" lon="11.909090141698975"><ele>477.6666666666667</ele><time>2026-04-26T12:16:22.999Z</time></trkpt><trkpt lat="42.68416711883444" lon="11.908881306342487"><ele>475.0</ele><time>2026-04-26T12:16:23.999Z</time></trkpt><trkpt lat="42.684113463537805" lon="11.908699551027226"><ele>475.0</ele><time>2026-04-26T12:16:24.999Z</time></trkpt><trkpt lat="42.68406917983285" lon="11.90852386565112"><ele>475.0</ele><time>2026-04-26T12:16:25.999Z</time></trkpt><trkpt lat="42.684043706428305" lon="11.908334828529213"><ele>475.0</ele><time>2026-04-26T12:16:26.999Z</time></trkpt><trkpt lat="42.68405041143799" lon="11.908124316545896"><ele>475.0</ele><time>2026-04-26T12:16:27.999Z</time></trkpt><trkpt lat="42.6841067855426" lon="11.907928371868266"><ele>477.0</ele><time>2026-04-26T12:16:28.999Z</time></trkpt><trkpt lat="42.6841538650449" lon="11.907732089824917"><ele>479.0</ele><time>2026-04-26T12:16:29.999Z</time></trkpt><trkpt lat="42.68423558014269" lon="11.907570692670793"><ele>481.0</ele><time>2026-04-26T12:16:30.999Z</time></trkpt><trkpt lat="42.68431977136691" lon="11.907437514489958"><ele>483.0</ele><time>2026-04-26T12:16:31.999Z</time></trkpt><trkpt lat="42.684418012115295" lon="11.907347347501968"><ele>485.75</ele><time>2026-04-26T12:16:32.999Z</time></trkpt><trkpt lat="42.68452148632966" lon="11.907255035483903"><ele>488.5</ele><time>2026-04-26T12:16:33.999Z</time></trkpt><trkpt lat="42.684627437738655" lon="11.907148114606592"><ele>491.25</ele><time>2026-04-26T12:16:34.999Z</time></trkpt><trkpt lat="42.68473582581432" lon="11.90708398315221"><ele>494.0</ele><time>2026-04-26T12:16:35.999Z</time></trkpt><trkpt lat="42.684826985877066" lon="11.907015062503808"><ele>494.0</ele><time>2026-04-26T12:16:36.999Z</time></trkpt><trkpt lat="42.68492040611742" lon="11.906939957399224"><ele>494.0</ele><time>2026-04-26T12:16:37.999Z</time></trkpt><trkpt lat="42.685028186944024" lon="11.906863293605504"><ele>494.0</ele><time>2026-04-26T12:16:38.999Z</time></trkpt><trkpt lat="42.68515002369442" lon="11.906782534587713"><ele>494.0</ele><time>2026-04-26T12:16:39.999Z</time></trkpt><trkpt lat="42.68527849255036" lon="11.906694618908746"><ele>494.25</ele><time>2026-04-26T12:16:40.999Z</time></trkpt><trkpt lat="42.685399819203326" lon="11.906605013210145"><ele>494.5</ele><time>2026-04-26T12:16:41.999Z</time></trkpt><trkpt lat="42.68552582006405" lon="11.906509668787333"><ele>494.75</ele><time>2026-04-26T12:16:42.999Z</time></trkpt><trkpt lat="42.68565892504108" lon="11.90641429628637"><ele>495.0</ele><time>2026-04-26T12:16:43.999Z</time></trkpt><trkpt lat="42.68578358775912" lon="11.906324924020108"><ele>495.0</ele><time>2026-04-26T12:16:44.999Z</time></trkpt><trkpt lat="42.68589971768401" lon="11.906238750331154"><ele>495.0</ele><time>2026-04-26T12:16:45.999Z</time></trkpt><trkpt lat="42.68601076256356" lon="11.90616292524886"><ele>495.0</ele><time>2026-04-26T12:16:46.999Z</time></trkpt><trkpt lat="42.68611204363906" lon="11.906096779223114"><ele>495.0</ele><time>2026-04-26T12:16:47.999Z</time></trkpt><trkpt lat="42.68620884613827" lon="11.906027501517816"><ele>495.25</ele><time>2026-04-26T12:16:48.999Z</time></trkpt><trkpt lat="42.68631729085992" lon="11.905949721995809"><ele>495.5</ele><time>2026-04-26T12:16:49.999Z</time></trkpt><trkpt lat="42.68643619658272" lon="11.90586138449308"><ele>495.75</ele><time>2026-04-26T12:16:50.999Z</time></trkpt><trkpt lat="42.686565592148426" lon="11.905768237717163"><ele>496.0</ele><time>2026-04-26T12:16:51.999Z</time></trkpt><trkpt lat="42.686700929934666" lon="11.905671981839344"><ele>495.33333333333337</ele><time>2026-04-26T12:16:52.999Z</time></trkpt><trkpt lat="42.68684385263554" lon="11.905568006907918"><ele>494.66666666666663</ele><time>2026-04-26T12:16:53.999Z</time></trkpt><trkpt lat="42.68698691086684" lon="11.90546747101158"><ele>494.0</ele><time>2026-04-26T12:16:54.999Z</time></trkpt><trkpt lat="42.687128776986" lon="11.905364774336407"><ele>493.0</ele><time>2026-04-26T12:16:55.999Z</time></trkpt><trkpt lat="42.68726964992561" lon="11.905265730139869"><ele>492.0</ele><time>2026-04-26T12:16:56.999Z</time></trkpt><trkpt lat="42.68741368086541" lon="11.905169188932172"><ele>491.0</ele><time>2026-04-26T12:16:57.999Z</time></trkpt><trkpt lat="42.68755242136698" lon="11.905072097840794"><ele>490.0</ele><time>2026-04-26T12:16:58.999Z</time></trkpt><trkpt lat="42.687687527623325" lon="11.904972702877984"><ele>489.0</ele><time>2026-04-26T12:16:59.999Z</time></trkpt><trkpt lat="42.68781813428654" lon="11.904877191103578"><ele>488.0</ele><time>2026-04-26T12:17:00.999Z</time></trkpt><trkpt lat="42.68794875204231" lon="11.904788214534188"><ele>487.0</ele><time>2026-04-26T12:17:01.999Z</time></trkpt><trkpt lat="42.68807837789745" lon="11.904697410756599"><ele>487.0</ele><time>2026-04-26T12:17:02.999Z</time></trkpt><trkpt lat="42.68820299790276" lon="11.904604215983861"><ele>487.0</ele><time>2026-04-26T12:17:03.999Z</time></trkpt><trkpt lat="42.68833104637478" lon="11.904527618555164"><ele>487.0</ele><time>2026-04-26T12:17:04.999Z</time></trkpt><trkpt lat="42.68845824833094" lon="11.90443768384811"><ele>487.0</ele><time>2026-04-26T12:17:05.999Z</time></trkpt><trkpt lat="42.68857941315153" lon="11.904352017264356"><ele>486.75</ele><time>2026-04-26T12:17:06.999Z</time></trkpt><trkpt lat="42.68870084352157" lon="11.904266878313532"><ele>486.5</ele><time>2026-04-26T12:17:07.999Z</time></trkpt><trkpt lat="42.688816367267265" lon="11.904182439277397"><ele>486.25</ele><time>2026-04-26T12:17:08.999Z</time></trkpt><trkpt lat="42.688943953699855" lon="11.904126371228786"><ele>486.0</ele><time>2026-04-26T12:17:09.999Z</time></trkpt><trkpt lat="42.68907990361069" lon="11.904088430132921"><ele>484.33333333333337</ele><time>2026-04-26T12:17:10.999Z</time></trkpt><trkpt lat="42.68922889992639" lon="11.904102706114235"><ele>482.6666666666667</ele><time>2026-04-26T12:17:11.999Z</time></trkpt><trkpt lat="42.6893871819331" lon="11.904112633792035"><ele>481.0</ele><time>2026-04-26T12:17:12.999Z</time></trkpt><trkpt lat="42.68954750260885" lon="11.904102225111641"><ele>480.0</ele><time>2026-04-26T12:17:14Z</time></trkpt><trkpt lat="42.68969761869291" lon="11.904111231642355"><ele>479.0</ele><time>2026-04-26T12:17:15Z</time></trkpt><trkpt lat="42.68984197749852" lon="11.904100486105904"><ele>478.0</ele><time>2026-04-26T12:17:16Z</time></trkpt><trkpt lat="42.689988266340784" lon="11.904053265555842"><ele>477.0</ele><time>2026-04-26T12:17:17Z</time></trkpt><trkpt lat="42.69014240854809" lon="11.90398165284086"><ele>475.0</ele><time>2026-04-26T12:17:18Z</time></trkpt><trkpt lat="42.69029774540389" lon="11.903896323369976"><ele>473.0</ele><time>2026-04-26T12:17:19Z</time></trkpt><trkpt lat="42.69045934159933" lon="11.903828675714628"><ele>471.0</ele><time>2026-04-26T12:17:20Z</time></trkpt><trkpt lat="42.690618153418505" lon="11.903718509733455"><ele>471.0</ele><time>2026-04-26T12:17:21Z</time></trkpt><trkpt lat="42.69077966358626" lon="11.903632962925709"><ele>471.0</ele><time>2026-04-26T12:17:22Z</time></trkpt><trkpt lat="42.690942926648894" lon="11.903548855726847"><ele>471.0</ele><time>2026-04-26T12:17:23Z</time></trkpt><trkpt lat="42.69110698494858" lon="11.903462104116777"><ele>471.33333333333337</ele><time>2026-04-26T12:17:24Z</time></trkpt><trkpt lat="42.6912782637795" lon="11.903411819847056"><ele>471.6666666666667</ele><time>2026-04-26T12:17:25Z</time></trkpt><trkpt lat="42.691454299862805" lon="11.903363109317707"><ele>472.0</ele><time>2026-04-26T12:17:26Z</time></trkpt><trkpt lat="42.69163905016075" lon="11.903330069253265"><ele>472.0</ele><time>2026-04-26T12:17:27Z</time></trkpt><trkpt lat="42.69182864205473" lon="11.903273121086528"><ele>472.0</ele><time>2026-04-26T12:17:28Z</time></trkpt><trkpt lat="42.69201889148855" lon="11.903243135036892"><ele>472.0</ele><time>2026-04-26T12:17:29Z</time></trkpt><trkpt lat="42.69219817124177" lon="11.903209286089561"><ele>470.6666666666667</ele><time>2026-04-26T12:17:30Z</time></trkpt><trkpt lat="42.69236868009042" lon="11.903173692567751"><ele>469.33333333333337</ele><time>2026-04-26T12:17:31Z</time></trkpt><trkpt lat="42.692542405198125" lon="11.90313959068152"><ele>468.0</ele><time>2026-04-26T12:17:32Z</time></trkpt><trkpt lat="42.69272556390635" lon="11.90311035905728"><ele>467.66666666666663</ele><time>2026-04-26T12:17:33Z</time></trkpt><trkpt lat="42.69289841590938" lon="11.903082230868183"><ele>467.3333333333333</ele><time>2026-04-26T12:17:34Z</time></trkpt><trkpt lat="42.69307130663155" lon="11.903050885520424"><ele>467.0</ele><time>2026-04-26T12:17:35Z</time></trkpt><trkpt lat="42.69324678504629" lon="11.90301301627186"><ele>467.0</ele><time>2026-04-26T12:17:36Z</time></trkpt><trkpt lat="42.693416500368414" lon="11.902973556503165"><ele>467.0</ele><time>2026-04-26T12:17:37Z</time></trkpt><trkpt lat="42.693588935067346" lon="11.90296318555893"><ele>467.0</ele><time>2026-04-26T12:17:38Z</time></trkpt><trkpt lat="42.69376026887835" lon="11.90291039364327"><ele>466.66666666666663</ele><time>2026-04-26T12:17:39Z</time></trkpt><trkpt lat="42.6939278960558" lon="11.90288183108895"><ele>466.33333333333337</ele><time>2026-04-26T12:17:40Z</time></trkpt><trkpt lat="42.69409298905271" lon="11.90285481579747"><ele>466.0</ele><time>2026-04-26T12:17:41Z</time></trkpt><trkpt lat="42.694260902594124" lon="11.902822092177917"><ele>465.33333333333337</ele><time>2026-04-26T12:17:42Z</time></trkpt><trkpt lat="42.69442712966006" lon="11.902787132031346"><ele>464.66666666666663</ele><time>2026-04-26T12:17:43Z</time></trkpt><trkpt lat="42.694595850242024" lon="11.902752524614641"><ele>464.0</ele><time>2026-04-26T12:17:44Z</time></trkpt><trkpt lat="42.69477090513116" lon="11.902722949112343"><ele>464.0</ele><time>2026-04-26T12:17:45Z</time></trkpt><trkpt lat="42.694944516205965" lon="11.902695237482568"><ele>464.0</ele><time>2026-04-26T12:17:46Z</time></trkpt><trkpt lat="42.695126248563575" lon="11.902665710693801"><ele>464.0</ele><time>2026-04-26T12:17:47Z</time></trkpt><trkpt lat="42.69531091990007" lon="11.902671456234945"><ele>464.0</ele><time>2026-04-26T12:17:48Z</time></trkpt><trkpt lat="42.69549686830743" lon="11.90266521554403"><ele>464.0</ele><time>2026-04-26T12:17:49Z</time></trkpt><trkpt lat="42.695881167006675" lon="11.902639174105325"><ele>464.0</ele><time>2026-04-26T12:17:51Z</time></trkpt><trkpt lat="42.696082303964154" lon="11.902640136342217"><ele>464.0</ele><time>2026-04-26T12:17:52Z</time></trkpt><trkpt lat="42.69628328356397" lon="11.902638239982341"><ele>464.0</ele><time>2026-04-26T12:17:53Z</time></trkpt><trkpt lat="42.69649002048703" lon="11.902622792124294"><ele>463.66666666666663</ele><time>2026-04-26T12:17:54Z</time></trkpt><trkpt lat="42.69669709862349" lon="11.902587846982103"><ele>463.33333333333337</ele><time>2026-04-26T12:17:55Z</time></trkpt><trkpt lat="42.69690491785457" lon="11.902528769068647"><ele>463.0</ele><time>2026-04-26T12:17:56Z</time></trkpt><trkpt lat="42.69711102415464" lon="11.902442187761896"><ele>462.0</ele><time>2026-04-26T12:17:57Z</time></trkpt><trkpt lat="42.697312161463806" lon="11.90234466629612"><ele>461.0</ele><time>2026-04-26T12:17:58Z</time></trkpt><trkpt lat="42.697517790523136" lon="11.902247716617232"><ele>460.0</ele><time>2026-04-26T12:17:59Z</time></trkpt><trkpt lat="42.697711754424056" lon="11.902156541655046"><ele>461.33333333333337</ele><time>2026-04-26T12:18:00Z</time></trkpt><trkpt lat="42.697903028766255" lon="11.902067326844863"><ele>462.66666666666663</ele><time>2026-04-26T12:18:01Z</time></trkpt><trkpt lat="42.69809539552299" lon="11.901979794155858"><ele>464.0</ele><time>2026-04-26T12:18:02Z</time></trkpt><trkpt lat="42.698290791116605" lon="11.901897454999077"><ele>464.0</ele><time>2026-04-26T12:18:03Z</time></trkpt><trkpt lat="42.69849472306328" lon="11.901824595898168"><ele>464.0</ele><time>2026-04-26T12:18:04Z</time></trkpt><trkpt lat="42.698706137300015" lon="11.901794710863381"><ele>464.0</ele><time>2026-04-26T12:18:05Z</time></trkpt><trkpt lat="42.698921722164" lon="11.901762169905858"><ele>462.3333333333333</ele><time>2026-04-26T12:18:06Z</time></trkpt><trkpt lat="42.69912738403217" lon="11.901714393281209"><ele>460.66666666666663</ele><time>2026-04-26T12:18:07Z</time></trkpt><trkpt lat="42.69932272819369" lon="11.901682769562466"><ele>459.0</ele><time>2026-04-26T12:18:08Z</time></trkpt><trkpt lat="42.699710448863826" lon="11.901547000273085"><ele>458.33333333333337</ele><time>2026-04-26T12:18:10Z</time></trkpt><trkpt lat="42.69991137974353" lon="11.901464229504194"><ele>457.6666666666667</ele><time>2026-04-26T12:18:11Z</time></trkpt><trkpt lat="42.70011159392335" lon="11.901391589312901"><ele>457.0</ele><time>2026-04-26T12:18:12Z</time></trkpt><trkpt lat="42.70030794482332" lon="11.901328025845167"><ele>456.6666666666667</ele><time>2026-04-26T12:18:13Z</time></trkpt><trkpt lat="42.700505004255675" lon="11.901266792761588"><ele>456.33333333333337</ele><time>2026-04-26T12:18:14Z</time></trkpt><trkpt lat="42.70070245183841" lon="11.901209110969114"><ele>456.0</ele><time>2026-04-26T12:18:15Z</time></trkpt><trkpt lat="42.70090380901181" lon="11.901159559947349"><ele>456.0</ele><time>2026-04-26T12:18:16Z</time></trkpt><trkpt lat="42.701109260516475" lon="11.901120813750953"><ele>456.0</ele><time>2026-04-26T12:18:17Z</time></trkpt><trkpt lat="42.70131834946609" lon="11.901086794191972"><ele>456.0</ele><time>2026-04-26T12:18:18Z</time></trkpt><trkpt lat="42.70152827344744" lon="11.901060401123344"><ele>456.0</ele><time>2026-04-26T12:18:19Z</time></trkpt><trkpt lat="42.701737844359734" lon="11.90104484765847"><ele>456.0</ele><time>2026-04-26T12:18:20Z</time></trkpt><trkpt lat="42.70195131539007" lon="11.901064185829357"><ele>456.0</ele><time>2026-04-26T12:18:21Z</time></trkpt><trkpt lat="42.70216101596448" lon="11.901070301823838"><ele>456.0</ele><time>2026-04-26T12:18:22Z</time></trkpt><trkpt lat="42.702371455444506" lon="11.901054519387873"><ele>456.0</ele><time>2026-04-26T12:18:23Z</time></trkpt><trkpt lat="42.702571580950035" lon="11.90105827916887"><ele>456.0</ele><time>2026-04-26T12:18:24Z</time></trkpt><trkpt lat="42.702762920261186" lon="11.901060184310527"><ele>456.0</ele><time>2026-04-26T12:18:25Z</time></trkpt><trkpt lat="42.70294852978316" lon="11.901057855283982"><ele>456.0</ele><time>2026-04-26T12:18:26Z</time></trkpt><trkpt lat="42.7031226370215" lon="11.901046807141753"><ele>456.0</ele><time>2026-04-26T12:18:27Z</time></trkpt><trkpt lat="42.70329066928687" lon="11.901054872166599"><ele>456.0</ele><time>2026-04-26T12:18:28Z</time></trkpt><trkpt lat="42.70346544011376" lon="11.901001548766434"><ele>456.0</ele><time>2026-04-26T12:18:29Z</time></trkpt><trkpt lat="42.703647678776456" lon="11.900957402955184"><ele>456.0</ele><time>2026-04-26T12:18:30Z</time></trkpt><trkpt lat="42.70383459543199" lon="11.900896318450014"><ele>455.33333333333337</ele><time>2026-04-26T12:18:31Z</time></trkpt><trkpt lat="42.70402534408747" lon="11.900823184529104"><ele>454.6666666666667</ele><time>2026-04-26T12:18:32Z</time></trkpt><trkpt lat="42.70422094436655" lon="11.900744329231998"><ele>454.0</ele><time>2026-04-26T12:18:33Z</time></trkpt><trkpt lat="42.70441809185777" lon="11.900660661020304"><ele>453.0</ele><time>2026-04-26T12:18:34Z</time></trkpt><trkpt lat="42.70461961357522" lon="11.900574516355583"><ele>452.0</ele><time>2026-04-26T12:18:35Z</time></trkpt><trkpt lat="42.70482249528286" lon="11.900497143997011"><ele>451.0</ele><time>2026-04-26T12:18:36Z</time></trkpt><trkpt lat="42.705035791879084" lon="11.90043267656074"><ele>450.5</ele><time>2026-04-26T12:18:37Z</time></trkpt><trkpt lat="42.705253994073" lon="11.900383190033743"><ele>450.0</ele><time>2026-04-26T12:18:37.999Z</time></trkpt><trkpt lat="42.70548102613496" lon="11.900341133057994"><ele>450.0</ele><time>2026-04-26T12:18:38.999Z</time></trkpt><trkpt lat="42.70571007848949" lon="11.900294202638046"><ele>450.0</ele><time>2026-04-26T12:18:39.999Z</time></trkpt><trkpt lat="42.70592841965195" lon="11.90024449203898"><ele>449.5</ele><time>2026-04-26T12:18:40.999Z</time></trkpt><trkpt lat="42.706154737613296" lon="11.900192629090595"><ele>449.0</ele><time>2026-04-26T12:18:41.999Z</time></trkpt><trkpt lat="42.70638715086435" lon="11.900141155662778"><ele>449.0</ele><time>2026-04-26T12:18:42.999Z</time></trkpt><trkpt lat="42.706625470325925" lon="11.900088138929025"><ele>449.0</ele><time>2026-04-26T12:18:43.999Z</time></trkpt><trkpt lat="42.70686731116032" lon="11.90003390465493"><ele>449.0</ele><time>2026-04-26T12:18:44.999Z</time></trkpt><trkpt lat="42.70710801946929" lon="11.899971442166079"><ele>449.0</ele><time>2026-04-26T12:18:45.999Z</time></trkpt><trkpt lat="42.707342242701905" lon="11.899893980197128"><ele>449.0</ele><time>2026-04-26T12:18:46.999Z</time></trkpt><trkpt lat="42.70756986868887" lon="11.899796261453846"><ele>449.0</ele><time>2026-04-26T12:18:47.999Z</time></trkpt><trkpt lat="42.70779773618152" lon="11.899670177790261"><ele>448.5</ele><time>2026-04-26T12:18:48.999Z</time></trkpt><trkpt lat="42.708027851568964" lon="11.899535986916582"><ele>448.0</ele><time>2026-04-26T12:18:49.999Z</time></trkpt><trkpt lat="42.70826375766046" lon="11.899402431475162"><ele>448.0</ele><time>2026-04-26T12:18:50.999Z</time></trkpt><trkpt lat="42.70850462961917" lon="11.899262384401444"><ele>448.0</ele><time>2026-04-26T12:18:51.999Z</time></trkpt><trkpt lat="42.708746750684085" lon="11.899114572487617"><ele>448.5</ele><time>2026-04-26T12:18:52.999Z</time></trkpt><trkpt lat="42.708993906217266" lon="11.898969111756028"><ele>449.0</ele><time>2026-04-26T12:18:53.999Z</time></trkpt><trkpt lat="42.7092417052274" lon="11.898824055860597"><ele>447.5</ele><time>2026-04-26T12:18:54.999Z</time></trkpt><trkpt lat="42.709489499243645" lon="11.898678043578071"><ele>446.0</ele><time>2026-04-26T12:18:55.999Z</time></trkpt><trkpt lat="42.70974191231805" lon="11.898531124617943"><ele>446.5</ele><time>2026-04-26T12:18:56.999Z</time></trkpt><trkpt lat="42.709997089621226" lon="11.898389016200776"><ele>447.0</ele><time>2026-04-26T12:18:57.999Z</time></trkpt><trkpt lat="42.710258106271056" lon="11.898253537905681"><ele>446.0</ele><time>2026-04-26T12:18:58.999Z</time></trkpt><trkpt lat="42.71051713167721" lon="11.8981285198879"><ele>445.0</ele><time>2026-04-26T12:18:59.999Z</time></trkpt><trkpt lat="42.71076248339247" lon="11.89801920663658"><ele>445.0</ele><time>2026-04-26T12:19:00.999Z</time></trkpt><trkpt lat="42.71120662098028" lon="11.897825060173052"><ele>445.0</ele><time>2026-04-26T12:19:02.999Z</time></trkpt><trkpt lat="42.711413734553794" lon="11.897723645529366"><ele>445.0</ele><time>2026-04-26T12:19:03.999Z</time></trkpt><trkpt lat="42.71160513682681" lon="11.897619616089564"><ele>445.0</ele><time>2026-04-26T12:19:04.999Z</time></trkpt><trkpt lat="42.71179000568486" lon="11.89751605918379"><ele>445.33333333333337</ele><time>2026-04-26T12:19:05.999Z</time></trkpt><trkpt lat="42.71196894564252" lon="11.897420789676456"><ele>445.66666666666663</ele><time>2026-04-26T12:19:06.999Z</time></trkpt><trkpt lat="42.712143193541436" lon="11.897328592973075"><ele>446.0</ele><time>2026-04-26T12:19:07.999Z</time></trkpt><trkpt lat="42.71230854914195" lon="11.897239192622468"><ele>446.0</ele><time>2026-04-26T12:19:08.999Z</time></trkpt><trkpt lat="42.71247865260009" lon="11.897146974821203"><ele>446.0</ele><time>2026-04-26T12:19:09.999Z</time></trkpt><trkpt lat="42.712648919179436" lon="11.89705258253735"><ele>446.0</ele><time>2026-04-26T12:19:10.999Z</time></trkpt><trkpt lat="42.712817776029844" lon="11.896956808395684"><ele>446.3333333333333</ele><time>2026-04-26T12:19:11.999Z</time></trkpt><trkpt lat="42.71299099803968" lon="11.896860785279578"><ele>446.66666666666663</ele><time>2026-04-26T12:19:12.999Z</time></trkpt><trkpt lat="42.7131523076355" lon="11.896768964930375"><ele>447.0</ele><time>2026-04-26T12:19:13.999Z</time></trkpt><trkpt lat="42.7132974918275" lon="11.896685299784744"><ele>447.0</ele><time>2026-04-26T12:19:14.999Z</time></trkpt><trkpt lat="42.71341960394758" lon="11.896619300134002"><ele>447.00000000000006</ele><time>2026-04-26T12:19:15.999Z</time></trkpt><trkpt lat="42.71351730358075" lon="11.896562743781036"><ele>447.00000000000006</ele><time>2026-04-26T12:19:16.999Z</time></trkpt><trkpt lat="42.71359829329731" lon="11.896518579049697"><ele>447.0</ele><time>2026-04-26T12:19:17.999Z</time></trkpt><trkpt lat="42.71367001869254" lon="11.896484515352832"><ele>447.0</ele><time>2026-04-26T12:19:18.999Z</time></trkpt><trkpt lat="42.713738280891405" lon="11.896446451050535"><ele>447.0</ele><time>2026-04-26T12:19:20.001Z</time></trkpt><trkpt lat="42.71379565690034" lon="11.896409470520831"><ele>447.0</ele><time>2026-04-26T12:19:21.001Z</time></trkpt><trkpt lat="42.713853013687825" lon="11.896335393982039"><ele>447.0</ele><time>2026-04-26T12:19:23.001Z</time></trkpt><trkpt lat="42.713826632896314" lon="11.896202673718072"><ele>447.0</ele><time>2026-04-26T12:19:25.001Z</time></trkpt><trkpt lat="42.71378290468363" lon="11.896108938216061"><ele>447.0</ele><time>2026-04-26T12:19:26.001Z</time></trkpt><trkpt lat="42.71373093889591" lon="11.896000537895741"><ele>447.0</ele><time>2026-04-26T12:19:27.001Z</time></trkpt><trkpt lat="42.71368374935996" lon="11.895879485017899"><ele>447.0</ele><time>2026-04-26T12:19:28.001Z</time></trkpt><trkpt lat="42.7136370152215" lon="11.89572406873312"><ele>447.0</ele><time>2026-04-26T12:19:29.001Z</time></trkpt><trkpt lat="42.71359074306025" lon="11.895551668816827"><ele>447.0</ele><time>2026-04-26T12:19:30.001Z</time></trkpt><trkpt lat="42.7135389682674" lon="11.895392946500163"><ele>447.0</ele><time>2026-04-26T12:19:31.001Z</time></trkpt><trkpt lat="42.71348994944313" lon="11.895243291976309"><ele>446.8</ele><time>2026-04-26T12:19:32.001Z</time></trkpt><trkpt lat="42.71344353658987" lon="11.895102020403955"><ele>446.6</ele><time>2026-04-26T12:19:33.001Z</time></trkpt><trkpt lat="42.713401370239616" lon="11.89496944340462"><ele>446.40000000000003</ele><time>2026-04-26T12:19:34.001Z</time></trkpt><trkpt lat="42.71336272908155" lon="11.894834497816765"><ele>446.20000000000005</ele><time>2026-04-26T12:19:35Z</time></trkpt><trkpt lat="42.713320325539655" lon="11.894694756127121"><ele>446.0</ele><time>2026-04-26T12:19:36Z</time></trkpt><trkpt lat="42.713267146999584" lon="11.894539640519177"><ele>445.75</ele><time>2026-04-26T12:19:37Z</time></trkpt><trkpt lat="42.7132101034003" lon="11.894372774310888"><ele>445.5</ele><time>2026-04-26T12:19:38Z</time></trkpt><trkpt lat="42.71314968054837" lon="11.89419935246717"><ele>445.25</ele><time>2026-04-26T12:19:39Z</time></trkpt><trkpt lat="42.71309337463455" lon="11.894027510740864"><ele>445.0</ele><time>2026-04-26T12:19:40Z</time></trkpt><trkpt lat="42.71304060769973" lon="11.89384926920438"><ele>444.75</ele><time>2026-04-26T12:19:41Z</time></trkpt><trkpt lat="42.712989503091016" lon="11.893672294117982"><ele>444.5</ele><time>2026-04-26T12:19:42Z</time></trkpt><trkpt lat="42.7129372173127" lon="11.893501705689635"><ele>444.25</ele><time>2026-04-26T12:19:43Z</time></trkpt><trkpt lat="42.7128833713878" lon="11.893326166844547"><ele>444.0</ele><time>2026-04-26T12:19:44Z</time></trkpt><trkpt lat="42.71283062510057" lon="11.893154433356539"><ele>443.75</ele><time>2026-04-26T12:19:45Z</time></trkpt><trkpt lat="42.71277342878869" lon="11.892978320642294"><ele>443.5</ele><time>2026-04-26T12:19:46Z</time></trkpt><trkpt lat="42.712717826492245" lon="11.892800798677305"><ele>443.25</ele><time>2026-04-26T12:19:47Z</time></trkpt><trkpt lat="42.712661693622685" lon="11.892621701771766"><ele>443.0</ele><time>2026-04-26T12:19:48Z</time></trkpt><trkpt lat="42.712603643525185" lon="11.892437920179171"><ele>443.0</ele><time>2026-04-26T12:19:49Z</time></trkpt><trkpt lat="42.71254347386623" lon="11.892254699223427"><ele>443.0</ele><time>2026-04-26T12:19:50Z</time></trkpt><trkpt lat="42.71248619916407" lon="11.892075314923103"><ele>443.0</ele><time>2026-04-26T12:19:51Z</time></trkpt><trkpt lat="42.71243153451872" lon="11.891903461890255"><ele>443.0</ele><time>2026-04-26T12:19:52Z</time></trkpt><trkpt lat="42.71237754089319" lon="11.89173690083368"><ele>442.75</ele><time>2026-04-26T12:19:53Z</time></trkpt><trkpt lat="42.71232687206557" lon="11.89156554782235"><ele>442.5</ele><time>2026-04-26T12:19:54Z</time></trkpt><trkpt lat="42.71227583260891" lon="11.891397571617484"><ele>442.25</ele><time>2026-04-26T12:19:55Z</time></trkpt><trkpt lat="42.71221344803881" lon="11.891226263249981"><ele>442.0</ele><time>2026-04-26T12:19:56Z</time></trkpt><trkpt lat="42.71215273100927" lon="11.891051013737954"><ele>442.0</ele><time>2026-04-26T12:19:57Z</time></trkpt><trkpt lat="42.71209259512415" lon="11.890872544052234"><ele>442.0</ele><time>2026-04-26T12:19:58Z</time></trkpt><trkpt lat="42.71203224807597" lon="11.8906882981167"><ele>442.0</ele><time>2026-04-26T12:19:59Z</time></trkpt><trkpt lat="42.711980379905555" lon="11.890493075662944"><ele>442.0</ele><time>2026-04-26T12:20:00Z</time></trkpt><trkpt lat="42.71195080812694" lon="11.890295881648935"><ele>442.0</ele><time>2026-04-26T12:20:01Z</time></trkpt><trkpt lat="42.71193260188203" lon="11.890085880957875"><ele>442.0</ele><time>2026-04-26T12:20:02Z</time></trkpt><trkpt lat="42.7119286595785" lon="11.889869518919854"><ele>442.0</ele><time>2026-04-26T12:20:03Z</time></trkpt><trkpt lat="42.71192704384093" lon="11.889648936735925"><ele>442.0</ele><time>2026-04-26T12:20:04Z</time></trkpt><trkpt lat="42.71191101946305" lon="11.889425914506733"><ele>442.0</ele><time>2026-04-26T12:20:05Z</time></trkpt><trkpt lat="42.71191200267464" lon="11.889189083124016"><ele>442.0</ele><time>2026-04-26T12:20:06Z</time></trkpt><trkpt lat="42.71190834838502" lon="11.88895628472228"><ele>442.33333333333337</ele><time>2026-04-26T12:20:07Z</time></trkpt><trkpt lat="42.711923777160976" lon="11.888720429934914"><ele>442.66666666666663</ele><time>2026-04-26T12:20:08Z</time></trkpt><trkpt lat="42.71192295912355" lon="11.888487914701424"><ele>443.0</ele><time>2026-04-26T12:20:09Z</time></trkpt><trkpt lat="42.71192215778086" lon="11.888260144575291"><ele>443.25</ele><time>2026-04-26T12:20:10Z</time></trkpt><trkpt lat="42.71192139073675" lon="11.888042123167523"><ele>443.5</ele><time>2026-04-26T12:20:11Z</time></trkpt><trkpt lat="42.71192067490519" lon="11.887838658449798"><ele>443.75</ele><time>2026-04-26T12:20:12Z</time></trkpt><trkpt lat="42.71192001113775" lon="11.88764999196659"><ele>444.0</ele><time>2026-04-26T12:20:13Z</time></trkpt><trkpt lat="42.71191936868199" lon="11.887467383019894"><ele>444.5</ele><time>2026-04-26T12:20:14Z</time></trkpt><trkpt lat="42.71190242307315" lon="11.88729417503788"><ele>445.0</ele><time>2026-04-26T12:20:15Z</time></trkpt><trkpt lat="42.71190484633052" lon="11.887127491282635"><ele>445.5</ele><time>2026-04-26T12:20:16Z</time></trkpt><trkpt lat="42.71190740593568" lon="11.8869719103095"><ele>446.0</ele><time>2026-04-26T12:20:17Z</time></trkpt><trkpt lat="42.7119042007077" lon="11.88682719475896"><ele>446.49999999999994</ele><time>2026-04-26T12:20:18Z</time></trkpt><trkpt lat="42.71190181902707" lon="11.886690987100256"><ele>447.0</ele><time>2026-04-26T12:20:19Z</time></trkpt><trkpt lat="42.71190183593094" lon="11.886564392115563"><ele>447.5</ele><time>2026-04-26T12:20:20Z</time></trkpt><trkpt lat="42.711906866925155" lon="11.886446932615645"><ele>448.0</ele><time>2026-04-26T12:20:21Z</time></trkpt><trkpt lat="42.71189867968638" lon="11.886337203118421"><ele>448.49999999999994</ele><time>2026-04-26T12:20:22Z</time></trkpt><trkpt lat="42.71189981895578" lon="11.886231994825485"><ele>449.0</ele><time>2026-04-26T12:20:23Z</time></trkpt><trkpt lat="42.711902236861356" lon="11.886060993518283"><ele>449.0</ele><time>2026-04-26T12:20:25Z</time></trkpt><trkpt lat="42.71190461030566" lon="11.88594860965235"><ele>449.0</ele><time>2026-04-26T12:20:27Z</time></trkpt><trkpt lat="42.71193195351507" lon="11.885848465061311"><ele>449.0</ele><time>2026-04-26T12:20:30Z</time></trkpt><trkpt lat="42.71206476585198" lon="11.88582612717983"><ele>449.0</ele><time>2026-04-26T12:20:31Z</time></trkpt><trkpt lat="42.7121635930842" lon="11.885804703356378"><ele>449.0</ele><time>2026-04-26T12:20:32Z</time></trkpt><trkpt lat="42.71227731016339" lon="11.88581570080765"><ele>448.6</ele><time>2026-04-26T12:20:33Z</time></trkpt><trkpt lat="42.71238368013713" lon="11.885808126681821"><ele>448.2</ele><time>2026-04-26T12:20:34Z</time></trkpt><trkpt lat="42.712482869330124" lon="11.88580106386802"><ele>447.80000000000007</ele><time>2026-04-26T12:20:35Z</time></trkpt><trkpt lat="42.712583908491276" lon="11.885792661573221"><ele>447.40000000000003</ele><time>2026-04-26T12:20:36Z</time></trkpt><trkpt lat="42.71268120227318" lon="11.885783903983457"><ele>447.0</ele><time>2026-04-26T12:20:37Z</time></trkpt><trkpt lat="42.712774801101716" lon="11.885764313172025"><ele>446.6</ele><time>2026-04-26T12:20:38Z</time></trkpt><trkpt lat="42.71286430670172" lon="11.885743421765788"><ele>446.20000000000005</ele><time>2026-04-26T12:20:39Z</time></trkpt><trkpt lat="42.71295504425509" lon="11.885746551636268"><ele>445.8</ele><time>2026-04-26T12:20:40Z</time></trkpt><trkpt lat="42.71304365930216" lon="11.88571845657995"><ele>445.4</ele><time>2026-04-26T12:20:41Z</time></trkpt><trkpt lat="42.71313564329443" lon="11.885667693365626"><ele>445.0</ele><time>2026-04-26T12:20:42Z</time></trkpt><trkpt lat="42.71321965435338" lon="11.885601942825046"><ele>445.0</ele><time>2026-04-26T12:20:43Z</time></trkpt><trkpt lat="42.71330761786479" lon="11.885525196168256"><ele>445.0</ele><time>2026-04-26T12:20:44Z</time></trkpt><trkpt lat="42.71340676553182" lon="11.8854320722952"><ele>445.0</ele><time>2026-04-26T12:20:45Z</time></trkpt><trkpt lat="42.713504405219126" lon="11.885338481372795"><ele>445.0</ele><time>2026-04-26T12:20:46Z</time></trkpt><trkpt lat="42.71360181622095" lon="11.885243795511679"><ele>444.5</ele><time>2026-04-26T12:20:47Z</time></trkpt><trkpt lat="42.71369814149004" lon="11.885150164997164"><ele>444.0</ele><time>2026-04-26T12:20:48Z</time></trkpt><trkpt lat="42.71379244147244" lon="11.885058503111917"><ele>443.5</ele><time>2026-04-26T12:20:49Z</time></trkpt><trkpt lat="42.713887193081" lon="11.884966317675119"><ele>443.0</ele><time>2026-04-26T12:20:50Z</time></trkpt><trkpt lat="42.713979221989334" lon="11.884875954135154"><ele>442.79999999999995</ele><time>2026-04-26T12:20:51Z</time></trkpt><trkpt lat="42.71406502883646" lon="11.884789046192473"><ele>442.59999999999997</ele><time>2026-04-26T12:20:52Z</time></trkpt><trkpt lat="42.71413651680753" lon="11.884686258164065"><ele>442.40000000000003</ele><time>2026-04-26T12:20:53Z</time></trkpt><trkpt lat="42.71421751478864" lon="11.884611181764807"><ele>442.20000000000005</ele><time>2026-04-26T12:20:54Z</time></trkpt><trkpt lat="42.714287532469164" lon="11.884533403509243"><ele>442.0</ele><time>2026-04-26T12:20:54.999Z</time></trkpt><trkpt lat="42.714350536836314" lon="11.884469040802895"><ele>441.8</ele><time>2026-04-26T12:20:55.999Z</time></trkpt><trkpt lat="42.71444442555599" lon="11.884395598348934"><ele>441.6</ele><time>2026-04-26T12:20:57.999Z</time></trkpt><trkpt lat="42.71457097100239" lon="11.884381927511713"><ele>441.40000000000003</ele><time>2026-04-26T12:20:59.999Z</time></trkpt><trkpt lat="42.71466092588304" lon="11.88440149223318"><ele>441.20000000000005</ele><time>2026-04-26T12:21:00.999Z</time></trkpt><trkpt lat="42.714766538365446" lon="11.884430297850868"><ele>441.0</ele><time>2026-04-26T12:21:01.999Z</time></trkpt><trkpt lat="42.71488707869669" lon="11.884456533903064"><ele>441.0</ele><time>2026-04-26T12:21:02.999Z</time></trkpt><trkpt lat="42.71502104889068" lon="11.88447975391517"><ele>441.0</ele><time>2026-04-26T12:21:03.999Z</time></trkpt><trkpt lat="42.71515404015843" lon="11.884505334630903"><ele>441.0</ele><time>2026-04-26T12:21:04.999Z</time></trkpt><trkpt lat="42.715285523485775" lon="11.884533745105587"><ele>441.0</ele><time>2026-04-26T12:21:05.999Z</time></trkpt><trkpt lat="42.71540585881014" lon="11.884555130746286"><ele>441.5</ele><time>2026-04-26T12:21:06.999Z</time></trkpt><trkpt lat="42.715518761106075" lon="11.884573830422395"><ele>442.0</ele><time>2026-04-26T12:21:07.999Z</time></trkpt><trkpt lat="42.715631223669334" lon="11.884597215352645"><ele>442.5</ele><time>2026-04-26T12:21:08.999Z</time></trkpt><trkpt lat="42.71574557798697" lon="11.884624201974225"><ele>443.0</ele><time>2026-04-26T12:21:09.999Z</time></trkpt><trkpt lat="42.71585833362638" lon="11.884651822518448"><ele>443.0</ele><time>2026-04-26T12:21:10.999Z</time></trkpt><trkpt lat="42.715978847617656" lon="11.88468101069755"><ele>443.0</ele><time>2026-04-26T12:21:11.999Z</time></trkpt><trkpt lat="42.71609772048112" lon="11.88471347055892"><ele>443.0</ele><time>2026-04-26T12:21:12.999Z</time></trkpt><trkpt lat="42.7162250967201" lon="11.884752380461574"><ele>443.0</ele><time>2026-04-26T12:21:13.999Z</time></trkpt><trkpt lat="42.716357673190814" lon="11.884795269926009"><ele>443.5</ele><time>2026-04-26T12:21:14.999Z</time></trkpt><trkpt lat="42.71649141119133" lon="11.884840038339656"><ele>444.0</ele><time>2026-04-26T12:21:15.999Z</time></trkpt><trkpt lat="42.71661392392223" lon="11.88487703149643"><ele>444.5</ele><time>2026-04-26T12:21:16.999Z</time></trkpt><trkpt lat="42.71672871584598" lon="11.884911300084813"><ele>445.0</ele><time>2026-04-26T12:21:17.999Z</time></trkpt><trkpt lat="42.71683477916306" lon="11.88494429936249"><ele>445.0</ele><time>2026-04-26T12:21:18.999Z</time></trkpt><trkpt lat="42.716928329396275" lon="11.885002098854306"><ele>445.0</ele><time>2026-04-26T12:21:19.999Z</time></trkpt><trkpt lat="42.71703010490899" lon="11.885024983477319"><ele>445.0</ele><time>2026-04-26T12:21:20.999Z</time></trkpt><trkpt lat="42.71711487111872" lon="11.88508789904575"><ele>445.0</ele><time>2026-04-26T12:21:21.999Z</time></trkpt><trkpt lat="42.71721609095888" lon="11.885121854761035"><ele>445.0</ele><time>2026-04-26T12:21:22.999Z</time></trkpt><trkpt lat="42.717311375236875" lon="11.885181698008193"><ele>445.2</ele><time>2026-04-26T12:21:23.999Z</time></trkpt><trkpt lat="42.71740779357144" lon="11.885236243885764"><ele>445.4</ele><time>2026-04-26T12:21:24.999Z</time></trkpt><trkpt lat="42.717502454417456" lon="11.8852951182095"><ele>445.6</ele><time>2026-04-26T12:21:26.001Z</time></trkpt><trkpt lat="42.717596076754326" lon="11.885355223026078"><ele>445.8</ele><time>2026-04-26T12:21:27.001Z</time></trkpt><trkpt lat="42.71769249921812" lon="11.885412720877662"><ele>446.0</ele><time>2026-04-26T12:21:28.001Z</time></trkpt><trkpt lat="42.71778898360319" lon="11.885463776665892"><ele>445.6</ele><time>2026-04-26T12:21:29.001Z</time></trkpt><trkpt lat="42.71788899340839" lon="11.885510201162719"><ele>445.20000000000005</ele><time>2026-04-26T12:21:30.001Z</time></trkpt><trkpt lat="42.71798524698675" lon="11.885571175636928"><ele>444.79999999999995</ele><time>2026-04-26T12:21:31.001Z</time></trkpt><trkpt lat="42.71809469422488" lon="11.885592111177044"><ele>444.4</ele><time>2026-04-26T12:21:32.001Z</time></trkpt><trkpt lat="42.71819710218635" lon="11.885633421082323"><ele>444.0</ele><time>2026-04-26T12:21:33.001Z</time></trkpt><trkpt lat="42.7182977028609" lon="11.885677523227468"><ele>444.0</ele><time>2026-04-26T12:21:34.001Z</time></trkpt><trkpt lat="42.71839943043563" lon="11.88571874149272"><ele>444.0</ele><time>2026-04-26T12:21:35.001Z</time></trkpt><trkpt lat="42.71850187611435" lon="11.885759766534045"><ele>444.0</ele><time>2026-04-26T12:21:36.001Z</time></trkpt><trkpt lat="42.71860132448729" lon="11.885786852902582"><ele>444.0</ele><time>2026-04-26T12:21:37.001Z</time></trkpt><trkpt lat="42.718698513285226" lon="11.885820929964153"><ele>444.0</ele><time>2026-04-26T12:21:38.001Z</time></trkpt><trkpt lat="42.71880483658852" lon="11.885851429807584"><ele>444.2</ele><time>2026-04-26T12:21:39.001Z</time></trkpt><trkpt lat="42.71890283675476" lon="11.885891224898044"><ele>444.4</ele><time>2026-04-26T12:21:40.001Z</time></trkpt><trkpt lat="42.71900129612293" lon="11.885930587817573"><ele>444.6</ele><time>2026-04-26T12:21:41.001Z</time></trkpt><trkpt lat="42.71910538024924" lon="11.88597018209779"><ele>444.8</ele><time>2026-04-26T12:21:42.001Z</time></trkpt><trkpt lat="42.719208501940045" lon="11.886009284452749"><ele>445.0</ele><time>2026-04-26T12:21:43.001Z</time></trkpt><trkpt lat="42.7193066431765" lon="11.88605245823488"><ele>444.6</ele><time>2026-04-26T12:21:44.001Z</time></trkpt><trkpt lat="42.719401929038945" lon="11.886089762152636"><ele>444.2</ele><time>2026-04-26T12:21:45.001Z</time></trkpt><trkpt lat="42.71949142588508" lon="11.886125455007925"><ele>443.79999999999995</ele><time>2026-04-26T12:21:46.001Z</time></trkpt><trkpt lat="42.71958107540969" lon="11.886159713518987"><ele>443.4</ele><time>2026-04-26T12:21:47.001Z</time></trkpt><trkpt lat="42.71967684031398" lon="11.886200953875843"><ele>443.0</ele><time>2026-04-26T12:21:48.001Z</time></trkpt><trkpt lat="42.719779171734245" lon="11.886242661847255"><ele>443.0</ele><time>2026-04-26T12:21:49.001Z</time></trkpt><trkpt lat="42.71987930132112" lon="11.88627704046007"><ele>442.99999999999994</ele><time>2026-04-26T12:21:50.001Z</time></trkpt><trkpt lat="42.71997406364184" lon="11.886314729591625"><ele>442.99999999999994</ele><time>2026-04-26T12:21:51.001Z</time></trkpt><trkpt lat="42.72006408182922" lon="11.88635544903523"><ele>443.0</ele><time>2026-04-26T12:21:52Z</time></trkpt><trkpt lat="42.720152983813506" lon="11.886391664281712"><ele>443.0</ele><time>2026-04-26T12:21:53Z</time></trkpt><trkpt lat="42.720239703537835" lon="11.886425613982729"><ele>442.8333333333333</ele><time>2026-04-26T12:21:54Z</time></trkpt><trkpt lat="42.72032741865389" lon="11.88645761738029"><ele>442.66666666666663</ele><time>2026-04-26T12:21:55Z</time></trkpt><trkpt lat="42.72040919582925" lon="11.886487461511202"><ele>442.5</ele><time>2026-04-26T12:21:56Z</time></trkpt><trkpt lat="42.7204917194859" lon="11.886517748093874"><ele>442.33333333333337</ele><time>2026-04-26T12:21:57Z</time></trkpt><trkpt lat="42.72057893626376" lon="11.886548047803135"><ele>442.1666666666667</ele><time>2026-04-26T12:21:58Z</time></trkpt><trkpt lat="42.72066444836358" lon="11.886578432224868"><ele>442.0</ele><time>2026-04-26T12:21:59Z</time></trkpt><trkpt lat="42.72075474147061" lon="11.886603393098712"><ele>442.0</ele><time>2026-04-26T12:22:00Z</time></trkpt><trkpt lat="42.72084282771925" lon="11.886623051332995"><ele>442.00000000000006</ele><time>2026-04-26T12:22:01Z</time></trkpt><trkpt lat="42.72093538396697" lon="11.886644294994914"><ele>442.00000000000006</ele><time>2026-04-26T12:22:02Z</time></trkpt><trkpt lat="42.72102453379728" lon="11.886658481648324"><ele>442.0</ele><time>2026-04-26T12:22:03Z</time></trkpt><trkpt lat="42.72111503264452" lon="11.886668523154519"><ele>442.0</ele><time>2026-04-26T12:22:04Z</time></trkpt><trkpt lat="42.721206646915846" lon="11.886678888363358"><ele>442.00000000000006</ele><time>2026-04-26T12:22:05Z</time></trkpt><trkpt lat="42.72128562186639" lon="11.886685658780493"><ele>442.0</ele><time>2026-04-26T12:22:06Z</time></trkpt><trkpt lat="42.72136629992495" lon="11.886695157424613"><ele>442.0</ele><time>2026-04-26T12:22:07Z</time></trkpt><trkpt lat="42.72144373129508" lon="11.886704456287164"><ele>442.0</ele><time>2026-04-26T12:22:08Z</time></trkpt><trkpt lat="42.72151944453901" lon="11.886706630438486"><ele>442.00000000000006</ele><time>2026-04-26T12:22:09Z</time></trkpt><trkpt lat="42.7215982752173" lon="11.88669410029007"><ele>442.0</ele><time>2026-04-26T12:22:10Z</time></trkpt><trkpt lat="42.721668834772075" lon="11.886672933819344"><ele>442.00000000000006</ele><time>2026-04-26T12:22:11Z</time></trkpt><trkpt lat="42.721742483522874" lon="11.886631711620034"><ele>442.0</ele><time>2026-04-26T12:22:12Z</time></trkpt><trkpt lat="42.72182035449216" lon="11.886614216833614"><ele>442.0</ele><time>2026-04-26T12:22:13Z</time></trkpt><trkpt lat="42.72190005791406" lon="11.886594061628044"><ele>442.0</ele><time>2026-04-26T12:22:14Z</time></trkpt><trkpt lat="42.72198136146304" lon="11.88657350360387"><ele>442.00000000000006</ele><time>2026-04-26T12:22:15Z</time></trkpt><trkpt lat="42.7220637553956" lon="11.88655499380128"><ele>442.0</ele><time>2026-04-26T12:22:16Z</time></trkpt><trkpt lat="42.72214293554751" lon="11.886538298083488"><ele>441.83333333333337</ele><time>2026-04-26T12:22:17Z</time></trkpt><trkpt lat="42.72221428435022" lon="11.886529253652954"><ele>441.6666666666667</ele><time>2026-04-26T12:22:18Z</time></trkpt><trkpt lat="42.72228677574748" lon="11.886528910318669"><ele>441.5</ele><time>2026-04-26T12:22:19Z</time></trkpt><trkpt lat="42.722359051162165" lon="11.886532341574693"><ele>441.33333333333337</ele><time>2026-04-26T12:22:20Z</time></trkpt><trkpt lat="42.72243675213821" lon="11.886544709479184"><ele>441.1666666666667</ele><time>2026-04-26T12:22:21Z</time></trkpt><trkpt lat="42.72251681564071" lon="11.88655263361524"><ele>441.0</ele><time>2026-04-26T12:22:22Z</time></trkpt><trkpt lat="42.72259702679822" lon="11.886591451915141"><ele>441.0</ele><time>2026-04-26T12:22:23Z</time></trkpt><trkpt lat="42.72266900024347" lon="11.88665349080941"><ele>441.0</ele><time>2026-04-26T12:22:24Z</time></trkpt><trkpt lat="42.72274011197586" lon="11.886703150081823"><ele>441.0</ele><time>2026-04-26T12:22:25Z</time></trkpt><trkpt lat="42.722805799499305" lon="11.886757200850944"><ele>441.0</ele><time>2026-04-26T12:22:26Z</time></trkpt><trkpt lat="42.7228721697107" lon="11.88681388883441"><ele>441.0</ele><time>2026-04-26T12:22:27Z</time></trkpt><trkpt lat="42.72292839735878" lon="11.886863743560392"><ele>441.0</ele><time>2026-04-26T12:22:28Z</time></trkpt><trkpt lat="42.722988478563146" lon="11.886919203804514"><ele>440.6666666666667</ele><time>2026-04-26T12:22:29Z</time></trkpt><trkpt lat="42.72304627972353" lon="11.886963490469038"><ele>440.33333333333337</ele><time>2026-04-26T12:22:30Z</time></trkpt><trkpt lat="42.723091062679025" lon="11.887026017725452"><ele>440.0</ele><time>2026-04-26T12:22:31Z</time></trkpt><trkpt lat="42.72317811922611" lon="11.887116206146281"><ele>439.6666666666667</ele><time>2026-04-26T12:22:33Z</time></trkpt><trkpt lat="42.723236121442724" lon="11.887177735022885"><ele>439.33333333333337</ele><time>2026-04-26T12:22:35Z</time></trkpt><trkpt lat="42.723276588202815" lon="11.887257277375351"><ele>439.0</ele><time>2026-04-26T12:22:38Z</time></trkpt><trkpt lat="42.72338162659746" lon="11.88726732171969"><ele>439.0</ele><time>2026-04-26T12:22:50Z</time></trkpt><trkpt lat="42.72333721317604" lon="11.88734511540574"><ele>439.0</ele><time>2026-04-26T12:22:51Z</time></trkpt><trkpt lat="42.72346675110211" lon="11.887275748473641"><ele>439.0</ele><time>2026-04-26T12:22:52Z</time></trkpt><trkpt lat="42.72360035199213" lon="11.887332292106839"><ele>439.0</ele><time>2026-04-26T12:22:54Z</time></trkpt><trkpt lat="42.72368540021177" lon="11.88736233260692"><ele>439.0</ele><time>2026-04-26T12:22:55Z</time></trkpt><trkpt lat="42.72376654330533" lon="11.887387550338854"><ele>439.0</ele><time>2026-04-26T12:22:56Z</time></trkpt><trkpt lat="42.7238532945805" lon="11.887423060148452"><ele>439.0</ele><time>2026-04-26T12:22:57Z</time></trkpt><trkpt lat="42.72394161096531" lon="11.887447793291699"><ele>439.0</ele><time>2026-04-26T12:22:58Z</time></trkpt><trkpt lat="42.724033242444285" lon="11.887465139215315"><ele>439.0</ele><time>2026-04-26T12:22:59Z</time></trkpt><trkpt lat="42.72413133608422" lon="11.887474244829363"><ele>439.0</ele><time>2026-04-26T12:23:00Z</time></trkpt><trkpt lat="42.724226321818136" lon="11.887483867987918"><ele>439.0</ele><time>2026-04-26T12:23:01Z</time></trkpt><trkpt lat="42.72432709128962" lon="11.887487794112449"><ele>439.0</ele><time>2026-04-26T12:23:02Z</time></trkpt><trkpt lat="42.72442167065324" lon="11.887486106446936"><ele>439.0</ele><time>2026-04-26T12:23:02.999Z</time></trkpt><trkpt lat="42.72451585787355" lon="11.887504297171533"><ele>439.0</ele><time>2026-04-26T12:23:03.999Z</time></trkpt><trkpt lat="42.7246032170722" lon="11.887478661454598"><ele>439.0</ele><time>2026-04-26T12:23:04.999Z</time></trkpt><trkpt lat="42.72468606954341" lon="11.887494235574819"><ele>438.6</ele><time>2026-04-26T12:23:05.999Z</time></trkpt><trkpt lat="42.72477544407369" lon="11.887488391631928"><ele>438.2</ele><time>2026-04-26T12:23:06.999Z</time></trkpt><trkpt lat="42.724863068056685" lon="11.88746311167675"><ele>437.80000000000007</ele><time>2026-04-26T12:23:07.999Z</time></trkpt><trkpt lat="42.72495678762505" lon="11.887477932927009"><ele>437.40000000000003</ele><time>2026-04-26T12:23:08.999Z</time></trkpt><trkpt lat="42.725049308261575" lon="11.88747391909941"><ele>437.0</ele><time>2026-04-26T12:23:09.999Z</time></trkpt><trkpt lat="42.725150270867715" lon="11.887470756131973"><ele>436.8</ele><time>2026-04-26T12:23:10.999Z</time></trkpt><trkpt lat="42.72524697437251" lon="11.887467726592101"><ele>436.6</ele><time>2026-04-26T12:23:11.999Z</time></trkpt><trkpt lat="42.725348977217315" lon="11.887464531040054"><ele>436.40000000000003</ele><time>2026-04-26T12:23:12.999Z</time></trkpt><trkpt lat="42.725443873755495" lon="11.887461558112197"><ele>436.20000000000005</ele><time>2026-04-26T12:23:13.999Z</time></trkpt><trkpt lat="42.725544322321255" lon="11.887458411248845"><ele>436.0</ele><time>2026-04-26T12:23:14.999Z</time></trkpt><trkpt lat="42.725640080435106" lon="11.887435298107226"><ele>436.0</ele><time>2026-04-26T12:23:15.999Z</time></trkpt><trkpt lat="42.72573474408487" lon="11.887436732970208"><ele>436.0</ele><time>2026-04-26T12:23:16.999Z</time></trkpt><trkpt lat="42.72582750365443" lon="11.887436075692019"><ele>436.0</ele><time>2026-04-26T12:23:17.999Z</time></trkpt><trkpt lat="42.72591697443479" lon="11.887426007305253"><ele>436.0</ele><time>2026-04-26T12:23:18.999Z</time></trkpt><trkpt lat="42.72600375819134" lon="11.887419966788302"><ele>436.0</ele><time>2026-04-26T12:23:19.999Z</time></trkpt><trkpt lat="42.72609947899992" lon="11.88741381075872"><ele>436.0</ele><time>2026-04-26T12:23:20.999Z</time></trkpt><trkpt lat="42.72619379040139" lon="11.887391228955467"><ele>436.0</ele><time>2026-04-26T12:23:21.999Z</time></trkpt><trkpt lat="42.726283360529365" lon="11.887362173058548"><ele>436.0</ele><time>2026-04-26T12:23:22.999Z</time></trkpt><trkpt lat="42.7263735296288" lon="11.887322801682895"><ele>436.0</ele><time>2026-04-26T12:23:23.999Z</time></trkpt><trkpt lat="42.72646108736013" lon="11.887285979080046"><ele>436.0</ele><time>2026-04-26T12:23:24.999Z</time></trkpt><trkpt lat="42.7265433479725" lon="11.887248700941688"><ele>436.00000000000006</ele><time>2026-04-26T12:23:25.999Z</time></trkpt><trkpt lat="42.72661861548702" lon="11.88721063391341"><ele>436.0</ele><time>2026-04-26T12:23:26.999Z</time></trkpt><trkpt lat="42.72669579549739" lon="11.887173706585427"><ele>436.0</ele><time>2026-04-26T12:23:27.999Z</time></trkpt><trkpt lat="42.726771376178725" lon="11.887167872623282"><ele>436.0</ele><time>2026-04-26T12:23:28.999Z</time></trkpt><trkpt lat="42.72685178526404" lon="11.887127832948488"><ele>436.00000000000006</ele><time>2026-04-26T12:23:29.999Z</time></trkpt><trkpt lat="42.726924736514825" lon="11.887108474610692"><ele>436.0</ele><time>2026-04-26T12:23:31.001Z</time></trkpt><trkpt lat="42.72699424868784" lon="11.887105335361495"><ele>436.20000000000005</ele><time>2026-04-26T12:23:32.001Z</time></trkpt><trkpt lat="42.72706365350756" lon="11.887098411692708"><ele>436.40000000000003</ele><time>2026-04-26T12:23:33.001Z</time></trkpt><trkpt lat="42.727129644713045" lon="11.887118173142495"><ele>436.6</ele><time>2026-04-26T12:23:34.001Z</time></trkpt><trkpt lat="42.72722436528564" lon="11.887131291798415"><ele>436.8</ele><time>2026-04-26T12:23:36.001Z</time></trkpt><trkpt lat="42.72730364259079" lon="11.887173013844306"><ele>437.0</ele><time>2026-04-26T12:23:39.001Z</time></trkpt><trkpt lat="42.727231303438806" lon="11.887327556527987"><ele>437.0</ele><time>2026-04-26T12:23:42.001Z</time></trkpt><trkpt lat="42.72713582415026" lon="11.887422665672215"><ele>437.0</ele><time>2026-04-26T12:23:43.001Z</time></trkpt><trkpt lat="42.72703926754893" lon="11.887531843102813"><ele>437.0</ele><time>2026-04-26T12:23:44.001Z</time></trkpt><trkpt lat="42.72694660349286" lon="11.887655052508997"><ele>437.0</ele><time>2026-04-26T12:23:45.001Z</time></trkpt><trkpt lat="42.72686197425861" lon="11.887764421701695"><ele>438.0</ele><time>2026-04-26T12:23:46.001Z</time></trkpt><trkpt lat="42.72676895613231" lon="11.887874288961283"><ele>439.0</ele><time>2026-04-26T12:23:47.001Z</time></trkpt><trkpt lat="42.72666728591308" lon="11.887985046248726"><ele>440.0</ele><time>2026-04-26T12:23:48.001Z</time></trkpt><trkpt lat="42.72657180772497" lon="11.888098430121765"><ele>441.0</ele><time>2026-04-26T12:23:49.001Z</time></trkpt><trkpt lat="42.726487560603466" lon="11.888212481872976"><ele>441.0</ele><time>2026-04-26T12:23:50.001Z</time></trkpt><trkpt lat="42.72640820326671" lon="11.888322398578815"><ele>441.0</ele><time>2026-04-26T12:23:51Z</time></trkpt><trkpt lat="42.72633126450152" lon="11.888422349832824"><ele>441.0</ele><time>2026-04-26T12:23:52Z</time></trkpt><trkpt lat="42.726261358460775" lon="11.888512713621752"><ele>441.0</ele><time>2026-04-26T12:23:53Z</time></trkpt><trkpt lat="42.72620077888782" lon="11.888603565101356"><ele>441.0</ele><time>2026-04-26T12:23:54Z</time></trkpt><trkpt lat="42.72615007531242" lon="11.888683824364813"><ele>441.0</ele><time>2026-04-26T12:23:55Z</time></trkpt><trkpt lat="42.726099359499315" lon="11.888746393554358"><ele>441.0</ele><time>2026-04-26T12:23:57Z</time></trkpt><trkpt lat="42.72615545431614" lon="11.888680258332776"><ele>441.0</ele><time>2026-04-26T12:24:00Z</time></trkpt><trkpt lat="42.7262432895263" lon="11.888620011797515"><ele>441.0</ele><time>2026-04-26T12:24:01Z</time></trkpt><trkpt lat="42.726302257994675" lon="11.888515864980848"><ele>441.0</ele><time>2026-04-26T12:24:02Z</time></trkpt><trkpt lat="42.72636841328602" lon="11.888430631771"><ele>441.0</ele><time>2026-04-26T12:24:03Z</time></trkpt><trkpt lat="42.72645380558337" lon="11.888326664068666"><ele>441.0</ele><time>2026-04-26T12:24:04Z</time></trkpt><trkpt lat="42.72653961607434" lon="11.88824244813981"><ele>441.0</ele><time>2026-04-26T12:24:05Z</time></trkpt><trkpt lat="42.72663821435017" lon="11.888128774348047"><ele>441.0</ele><time>2026-04-26T12:24:06Z</time></trkpt><trkpt lat="42.72673361432536" lon="11.888037170362056"><ele>441.0</ele><time>2026-04-26T12:24:07Z</time></trkpt><trkpt lat="42.72683827673477" lon="11.887873239937678"><ele>441.0</ele><time>2026-04-26T12:24:08Z</time></trkpt><trkpt lat="42.72692444110996" lon="11.887757419677305"><ele>441.0</ele><time>2026-04-26T12:24:09Z</time></trkpt><trkpt lat="42.72705352133661" lon="11.887536608782325"><ele>441.0</ele><time>2026-04-26T12:24:10Z</time></trkpt><trkpt lat="42.727148454349255" lon="11.887420236241741"><ele>440.0</ele><time>2026-04-26T12:24:11Z</time></trkpt><trkpt lat="42.72723928819796" lon="11.887277296727552"><ele>439.0</ele><time>2026-04-26T12:24:12Z</time></trkpt><trkpt lat="42.72731917276339" lon="11.887229316272776"><ele>438.0</ele><time>2026-04-26T12:24:13Z</time></trkpt><trkpt lat="42.72744991342369" lon="11.887103563255865"><ele>437.0</ele><time>2026-04-26T12:24:15Z</time></trkpt><trkpt lat="42.727571595764054" lon="11.887097602896349"><ele>437.0</ele><time>2026-04-26T12:24:16Z</time></trkpt><trkpt lat="42.72761953899657" lon="11.887206108377148"><ele>437.0</ele><time>2026-04-26T12:24:21Z</time></trkpt><trkpt lat="42.727856796349805" lon="11.887323101726784"><ele>437.0</ele><time>2026-04-26T12:24:23Z</time></trkpt><trkpt lat="42.72792762842959" lon="11.887384899242498"><ele>437.0</ele><time>2026-04-26T12:24:24Z</time></trkpt><trkpt lat="42.727987755319354" lon="11.887470809948361"><ele>437.40000000000003</ele><time>2026-04-26T12:24:25Z</time></trkpt><trkpt lat="42.72806950253963" lon="11.887534779783387"><ele>437.80000000000007</ele><time>2026-04-26T12:24:26Z</time></trkpt><trkpt lat="42.72813698945755" lon="11.887617526036994"><ele>438.2</ele><time>2026-04-26T12:24:27Z</time></trkpt><trkpt lat="42.72820704926732" lon="11.88770299296943"><ele>438.6</ele><time>2026-04-26T12:24:28Z</time></trkpt><trkpt lat="42.728286797554595" lon="11.887789241027924"><ele>439.0</ele><time>2026-04-26T12:24:29Z</time></trkpt><trkpt lat="42.728366237731215" lon="11.887867847031888"><ele>439.0</ele><time>2026-04-26T12:24:30Z</time></trkpt><trkpt lat="42.728444881057946" lon="11.887945525089766"><ele>439.0</ele><time>2026-04-26T12:24:31Z</time></trkpt><trkpt lat="42.728525554616496" lon="11.888024332881065"><ele>439.0</ele><time>2026-04-26T12:24:32Z</time></trkpt><trkpt lat="42.72860512133069" lon="11.88810188272163"><ele>439.0</ele><time>2026-04-26T12:24:33Z</time></trkpt><trkpt lat="42.72868336794324" lon="11.888180400210297"><ele>439.0</ele><time>2026-04-26T12:24:34Z</time></trkpt><trkpt lat="42.728761098239666" lon="11.888257219878234"><ele>438.79999999999995</ele><time>2026-04-26T12:24:35Z</time></trkpt><trkpt lat="42.72884063374425" lon="11.888334494226028"><ele>438.59999999999997</ele><time>2026-04-26T12:24:36Z</time></trkpt><trkpt lat="42.72892141449058" lon="11.888407017016265"><ele>438.4</ele><time>2026-04-26T12:24:37Z</time></trkpt><trkpt lat="42.72899929982479" lon="11.888478330882501"><ele>438.2</ele><time>2026-04-26T12:24:38Z</time></trkpt><trkpt lat="42.729071245547615" lon="11.888549052657156"><ele>438.0</ele><time>2026-04-26T12:24:39Z</time></trkpt><trkpt lat="42.72913868227925" lon="11.88861422027264"><ele>438.59999999999997</ele><time>2026-04-26T12:24:40Z</time></trkpt><trkpt lat="42.729193957080874" lon="11.888668564493821"><ele>439.19999999999993</ele><time>2026-04-26T12:24:41Z</time></trkpt><trkpt lat="42.72925451642011" lon="11.888732014041008"><ele>439.8</ele><time>2026-04-26T12:24:42Z</time></trkpt><trkpt lat="42.729335212314844" lon="11.888826964204688"><ele>440.4</ele><time>2026-04-26T12:24:44Z</time></trkpt><trkpt lat="42.72936875914182" lon="11.888947098670997"><ele>441.0</ele><time>2026-04-26T12:24:46Z</time></trkpt><trkpt lat="42.72936511704304" lon="11.889111820872813"><ele>441.0</ele><time>2026-04-26T12:24:48Z</time></trkpt><trkpt lat="42.72934581906425" lon="11.889220540241157"><ele>441.0</ele><time>2026-04-26T12:24:49Z</time></trkpt><trkpt lat="42.729325012087756" lon="11.889342462902372"><ele>441.0</ele><time>2026-04-26T12:24:50Z</time></trkpt><trkpt lat="42.72930670134395" lon="11.889464160427986"><ele>441.0</ele><time>2026-04-26T12:24:51Z</time></trkpt><trkpt lat="42.72928808967448" lon="11.889587484851766"><ele>441.0</ele><time>2026-04-26T12:24:52Z</time></trkpt><trkpt lat="42.72926926660296" lon="11.889706363841466"><ele>441.0</ele><time>2026-04-26T12:24:53Z</time></trkpt><trkpt lat="42.72925157637947" lon="11.889818447325652"><ele>441.0</ele><time>2026-04-26T12:24:54Z</time></trkpt><trkpt lat="42.729235860572366" lon="11.889928312046209"><ele>441.0</ele><time>2026-04-26T12:24:55Z</time></trkpt><trkpt lat="42.729221290480936" lon="11.890026303267154"><ele>441.0</ele><time>2026-04-26T12:24:56Z</time></trkpt><trkpt lat="42.729206171158054" lon="11.89011597096396"><ele>441.0</ele><time>2026-04-26T12:24:57Z</time></trkpt><trkpt lat="42.72918478190929" lon="11.890274377017596"><ele>441.0</ele><time>2026-04-26T12:24:59Z</time></trkpt><trkpt lat="42.7291685931259" lon="11.89042987979997"><ele>440.8</ele><time>2026-04-26T12:25:01Z</time></trkpt><trkpt lat="42.72926059370411" lon="11.89054484928449"><ele>440.6</ele><time>2026-04-26T12:25:03Z</time></trkpt><trkpt lat="42.729320630377934" lon="11.890585927481965"><ele>440.4</ele><time>2026-04-26T12:25:03.999Z</time></trkpt><trkpt lat="42.72939680626146" lon="11.890623515719037"><ele>440.2</ele><time>2026-04-26T12:25:04.999Z</time></trkpt><trkpt lat="42.7294847479743" lon="11.890675166248329"><ele>440.0</ele><time>2026-04-26T12:25:05.999Z</time></trkpt><trkpt lat="42.72957209720609" lon="11.890722049445005"><ele>439.4</ele><time>2026-04-26T12:25:06.999Z</time></trkpt><trkpt lat="42.72966620453073" lon="11.89077337984689"><ele>438.8</ele><time>2026-04-26T12:25:07.999Z</time></trkpt><trkpt lat="42.729753751103004" lon="11.890827490506465"><ele>438.20000000000005</ele><time>2026-04-26T12:25:08.999Z</time></trkpt><trkpt lat="42.72983367853489" lon="11.89087818221448"><ele>437.6</ele><time>2026-04-26T12:25:09.999Z</time></trkpt><trkpt lat="42.729915931916054" lon="11.890938663917474"><ele>437.0</ele><time>2026-04-26T12:25:10.999Z</time></trkpt><trkpt lat="42.72998900247983" lon="11.891002258128843"><ele>437.0</ele><time>2026-04-26T12:25:11.999Z</time></trkpt><trkpt lat="42.73005992652386" lon="11.891076928947834"><ele>437.00000000000006</ele><time>2026-04-26T12:25:12.999Z</time></trkpt><trkpt lat="42.73012941194962" lon="11.891151370013848"><ele>437.00000000000006</ele><time>2026-04-26T12:25:13.999Z</time></trkpt><trkpt lat="42.73020173256966" lon="11.891227213647236"><ele>437.0</ele><time>2026-04-26T12:25:14.999Z</time></trkpt><trkpt lat="42.730278463728006" lon="11.891297388610178"><ele>437.0</ele><time>2026-04-26T12:25:15.999Z</time></trkpt><trkpt lat="42.73036434117403" lon="11.891362066322882"><ele>437.40000000000003</ele><time>2026-04-26T12:25:16.999Z</time></trkpt><trkpt lat="42.73045687220706" lon="11.891411912561498"><ele>437.80000000000007</ele><time>2026-04-26T12:25:17.999Z</time></trkpt><trkpt lat="42.73055598629891" lon="11.891455938297513"><ele>438.2</ele><time>2026-04-26T12:25:18.999Z</time></trkpt><trkpt lat="42.73064321796327" lon="11.8915221523131"><ele>438.6</ele><time>2026-04-26T12:25:19.999Z</time></trkpt><trkpt lat="42.73074748064609" lon="11.89156572072824"><ele>439.0</ele><time>2026-04-26T12:25:20.999Z</time></trkpt><trkpt lat="42.73085004420584" lon="11.89160112215011"><ele>439.0</ele><time>2026-04-26T12:25:21.999Z</time></trkpt><trkpt lat="42.730953682071444" lon="11.891636597458234"><ele>439.0</ele><time>2026-04-26T12:25:22.999Z</time></trkpt><trkpt lat="42.7310561315036" lon="11.89167402856607"><ele>439.0</ele><time>2026-04-26T12:25:23.999Z</time></trkpt><trkpt lat="42.73115417032105" lon="11.891714990048065"><ele>439.0</ele><time>2026-04-26T12:25:24.999Z</time></trkpt><trkpt lat="42.73124873773108" lon="11.891755971103153"><ele>439.0</ele><time>2026-04-26T12:25:25.999Z</time></trkpt><trkpt lat="42.73135721552839" lon="11.891756534856556"><ele>439.0</ele><time>2026-04-26T12:25:26.999Z</time></trkpt><trkpt lat="42.73146252535638" lon="11.891805860460186"><ele>439.0</ele><time>2026-04-26T12:25:27.999Z</time></trkpt><trkpt lat="42.73156808941768" lon="11.891860546407692"><ele>439.0</ele><time>2026-04-26T12:25:28.999Z</time></trkpt><trkpt lat="42.731674255084926" lon="11.891913354597786"><ele>439.0</ele><time>2026-04-26T12:25:29.999Z</time></trkpt><trkpt lat="42.73176774943422" lon="11.891988747902248"><ele>439.0</ele><time>2026-04-26T12:25:30.999Z</time></trkpt><trkpt lat="42.73186156750892" lon="11.892031499709754"><ele>439.6</ele><time>2026-04-26T12:25:31.999Z</time></trkpt><trkpt lat="42.73195256930359" lon="11.892072966484479"><ele>440.2</ele><time>2026-04-26T12:25:32.999Z</time></trkpt><trkpt lat="42.7320384872556" lon="11.892113329752558"><ele>440.80000000000007</ele><time>2026-04-26T12:25:33.999Z</time></trkpt><trkpt lat="42.73212184987235" lon="11.892153111475862"><ele>441.40000000000003</ele><time>2026-04-26T12:25:34.999Z</time></trkpt><trkpt lat="42.732203765795944" lon="11.892192202878169"><ele>442.0</ele><time>2026-04-26T12:25:36Z</time></trkpt><trkpt lat="42.73228673284108" lon="11.892232630877206"><ele>442.0</ele><time>2026-04-26T12:25:37Z</time></trkpt><trkpt lat="42.73237522534171" lon="11.89227697888443"><ele>442.00000000000006</ele><time>2026-04-26T12:25:38Z</time></trkpt><trkpt lat="42.732464901804086" lon="11.892321920297881"><ele>442.00000000000006</ele><time>2026-04-26T12:25:39Z</time></trkpt><trkpt lat="42.732556527475765" lon="11.892367838488067"><ele>442.0</ele><time>2026-04-26T12:25:40Z</time></trkpt><trkpt lat="42.73265048838216" lon="11.8924146880652"><ele>442.0</ele><time>2026-04-26T12:25:41Z</time></trkpt><trkpt lat="42.732748223327626" lon="11.892462690640809"><ele>442.0</ele><time>2026-04-26T12:25:42Z</time></trkpt><trkpt lat="42.73284515512406" lon="11.892508465602424"><ele>442.00000000000006</ele><time>2026-04-26T12:25:43Z</time></trkpt><trkpt lat="42.73293945660476" lon="11.892552208214333"><ele>442.00000000000006</ele><time>2026-04-26T12:25:44Z</time></trkpt><trkpt lat="42.73303285940387" lon="11.892593587067319"><ele>442.0</ele><time>2026-04-26T12:25:45Z</time></trkpt><trkpt lat="42.733123550183926" lon="11.892633041858254"><ele>442.0</ele><time>2026-04-26T12:25:46Z</time></trkpt><trkpt lat="42.733212638874406" lon="11.892669456645327"><ele>441.40000000000003</ele><time>2026-04-26T12:25:47Z</time></trkpt><trkpt lat="42.73330196476822" lon="11.892705916991547"><ele>440.80000000000007</ele><time>2026-04-26T12:25:48Z</time></trkpt><trkpt lat="42.73339041906944" lon="11.892742021569449"><ele>440.2</ele><time>2026-04-26T12:25:49Z</time></trkpt><trkpt lat="42.73347289539272" lon="11.892775686095078"><ele>439.6</ele><time>2026-04-26T12:25:50Z</time></trkpt><trkpt lat="42.7335499857826" lon="11.892807152268224"><ele>439.0</ele><time>2026-04-26T12:25:51Z</time></trkpt><trkpt lat="42.73369699476078" lon="11.892869883200767"><ele>439.00000000000006</ele><time>2026-04-26T12:25:53Z</time></trkpt><trkpt lat="42.73377169299494" lon="11.892905496142674"><ele>439.0</ele><time>2026-04-26T12:25:54Z</time></trkpt><trkpt lat="42.73384426022532" lon="11.892941512310484"><ele>439.0</ele><time>2026-04-26T12:25:55Z</time></trkpt><trkpt lat="42.733920678606175" lon="11.892981766848985"><ele>439.0</ele><time>2026-04-26T12:25:56Z</time></trkpt><trkpt lat="42.73400036446575" lon="11.89302647038452"><ele>439.00000000000006</ele><time>2026-04-26T12:25:57Z</time></trkpt><trkpt lat="42.73407708222964" lon="11.89307200408743"><ele>439.0</ele><time>2026-04-26T12:25:58Z</time></trkpt><trkpt lat="42.73415501151135" lon="11.893118895427579"><ele>439.0</ele><time>2026-04-26T12:25:59Z</time></trkpt><trkpt lat="42.73423647908921" lon="11.89316856234937"><ele>439.0</ele><time>2026-04-26T12:26:00Z</time></trkpt><trkpt lat="42.734316780239006" lon="11.893219559646687"><ele>439.0</ele><time>2026-04-26T12:26:01Z</time></trkpt><trkpt lat="42.734399627090035" lon="11.893260769842396"><ele>439.0</ele><time>2026-04-26T12:26:02Z</time></trkpt><trkpt lat="42.73448708861536" lon="11.89332115793371"><ele>439.0</ele><time>2026-04-26T12:26:03Z</time></trkpt><trkpt lat="42.73457650127751" lon="11.893376993552305"><ele>438.4</ele><time>2026-04-26T12:26:04Z</time></trkpt><trkpt lat="42.73466694132778" lon="11.89343430100822"><ele>437.79999999999995</ele><time>2026-04-26T12:26:05Z</time></trkpt><trkpt lat="42.73475417226765" lon="11.893491519440486"><ele>437.20000000000005</ele><time>2026-04-26T12:26:06Z</time></trkpt><trkpt lat="42.7348408791352" lon="11.89354593958745"><ele>436.6</ele><time>2026-04-26T12:26:07Z</time></trkpt><trkpt lat="42.73492338111001" lon="11.893597654899104"><ele>436.0</ele><time>2026-04-26T12:26:08Z</time></trkpt><trkpt lat="42.734993718665855" lon="11.893669266966189"><ele>436.00000000000006</ele><time>2026-04-26T12:26:09Z</time></trkpt><trkpt lat="42.73506755986375" lon="11.89372086277434"><ele>436.0</ele><time>2026-04-26T12:26:10Z</time></trkpt><trkpt lat="42.73514099034751" lon="11.893772593208894"><ele>436.0</ele><time>2026-04-26T12:26:11Z</time></trkpt><trkpt lat="42.73521535080314" lon="11.893827673925852"><ele>436.0</ele><time>2026-04-26T12:26:12Z</time></trkpt><trkpt lat="42.735285450616125" lon="11.893903883933165"><ele>436.00000000000006</ele><time>2026-04-26T12:26:13Z</time></trkpt><trkpt lat="42.73537007197367" lon="11.893965582708727"><ele>436.0</ele><time>2026-04-26T12:26:14Z</time></trkpt><trkpt lat="42.73546305176332" lon="11.894030321083195"><ele>435.8</ele><time>2026-04-26T12:26:15Z</time></trkpt><trkpt lat="42.735550445786586" lon="11.894105343721655"><ele>435.6</ele><time>2026-04-26T12:26:16Z</time></trkpt><trkpt lat="42.735636200300206" lon="11.894170803573886"><ele>435.4</ele><time>2026-04-26T12:26:17Z</time></trkpt><trkpt lat="42.735713716998795" lon="11.894241135232352"><ele>435.2</ele><time>2026-04-26T12:26:18Z</time></trkpt><trkpt lat="42.73579310158153" lon="11.894297912248271"><ele>435.0</ele><time>2026-04-26T12:26:19Z</time></trkpt><trkpt lat="42.7358732373925" lon="11.89434874968198"><ele>435.0</ele><time>2026-04-26T12:26:20Z</time></trkpt><trkpt lat="42.73594997335441" lon="11.894411548912561"><ele>435.0</ele><time>2026-04-26T12:26:21Z</time></trkpt><trkpt lat="42.736046170065705" lon="11.894443566423366"><ele>435.0</ele><time>2026-04-26T12:26:22Z</time></trkpt><trkpt lat="42.73614251576786" lon="11.894439205550363"><ele>435.0</ele><time>2026-04-26T12:26:23Z</time></trkpt><trkpt lat="42.736224585059794" lon="11.894403851735962"><ele>435.0</ele><time>2026-04-26T12:26:24Z</time></trkpt><trkpt lat="42.73630349082931" lon="11.894380316690118"><ele>435.5</ele><time>2026-04-26T12:26:25Z</time></trkpt><trkpt lat="42.7363799291179" lon="11.894378159892959"><ele>436.0</ele><time>2026-04-26T12:26:26Z</time></trkpt><trkpt lat="42.73645257305451" lon="11.894357681581353"><ele>436.5</ele><time>2026-04-26T12:26:27Z</time></trkpt><trkpt lat="42.73652338302589" lon="11.894324502095147"><ele>437.0</ele><time>2026-04-26T12:26:28Z</time></trkpt><trkpt lat="42.73659028266765" lon="11.894327142353228"><ele>437.5</ele><time>2026-04-26T12:26:29Z</time></trkpt><trkpt lat="42.736653039861835" lon="11.89436056215678"><ele>438.0</ele><time>2026-04-26T12:26:30Z</time></trkpt><trkpt lat="42.73677372633097" lon="11.89438580489158"><ele>438.0</ele><time>2026-04-26T12:26:32Z</time></trkpt><trkpt lat="42.736866226385466" lon="11.89440301621757"><ele>438.0</ele><time>2026-04-26T12:26:34Z</time></trkpt><trkpt lat="42.736978166197225" lon="11.894283231633704"><ele>438.0</ele><time>2026-04-26T12:26:36Z</time></trkpt><trkpt lat="42.737046722745575" lon="11.89417282055091"><ele>438.0</ele><time>2026-04-26T12:26:37Z</time></trkpt><trkpt lat="42.73712788341389" lon="11.894040534905757"><ele>436.75</ele><time>2026-04-26T12:26:38Z</time></trkpt><trkpt lat="42.73721145207272" lon="11.893901115949594"><ele>435.5</ele><time>2026-04-26T12:26:39Z</time></trkpt><trkpt lat="42.737290133400286" lon="11.893771454802456"><ele>434.25</ele><time>2026-04-26T12:26:40Z</time></trkpt><trkpt lat="42.73736970143298" lon="11.89364733719638"><ele>433.0</ele><time>2026-04-26T12:26:41Z</time></trkpt><trkpt lat="42.737453105956305" lon="11.893529807070799"><ele>433.0</ele><time>2026-04-26T12:26:42Z</time></trkpt><trkpt lat="42.73754064925512" lon="11.893425048530855"><ele>432.99999999999994</ele><time>2026-04-26T12:26:43Z</time></trkpt><trkpt lat="42.73762504964995" lon="11.893326785111832"><ele>432.99999999999994</ele><time>2026-04-26T12:26:44Z</time></trkpt><trkpt lat="42.73770836356389" lon="11.893232242809718"><ele>433.0</ele><time>2026-04-26T12:26:45Z</time></trkpt><trkpt lat="42.73778825948793" lon="11.893143148391067"><ele>433.0</ele><time>2026-04-26T12:26:46Z</time></trkpt><trkpt lat="42.73785899046483" lon="11.893043936474598"><ele>433.00000000000006</ele><time>2026-04-26T12:26:47Z</time></trkpt><trkpt lat="42.737945287007506" lon="11.892986744154323"><ele>433.0</ele><time>2026-04-26T12:26:48Z</time></trkpt><trkpt lat="42.738022258605426" lon="11.892917938625855"><ele>433.0</ele><time>2026-04-26T12:26:49Z</time></trkpt><trkpt lat="42.73809416052892" lon="11.892854695774586"><ele>433.0</ele><time>2026-04-26T12:26:50Z</time></trkpt><trkpt lat="42.73816527580434" lon="11.892792144861929"><ele>433.00000000000006</ele><time>2026-04-26T12:26:51Z</time></trkpt><trkpt lat="42.738234575452495" lon="11.892731190879463"><ele>433.0</ele><time>2026-04-26T12:26:52Z</time></trkpt><trkpt lat="42.73829828262225" lon="11.892675155936839"><ele>433.0</ele><time>2026-04-26T12:26:53Z</time></trkpt><trkpt lat="42.73836263275204" lon="11.892612011829847"><ele>432.99999999999994</ele><time>2026-04-26T12:26:54Z</time></trkpt><trkpt lat="42.73842973427963" lon="11.892538270341888"><ele>432.99999999999994</ele><time>2026-04-26T12:26:55Z</time></trkpt><trkpt lat="42.73850576364506" lon="11.892450402797163"><ele>433.0</ele><time>2026-04-26T12:26:55.999Z</time></trkpt><trkpt lat="42.73859328494645" lon="11.892342586832916"><ele>433.0</ele><time>2026-04-26T12:26:56.999Z</time></trkpt><trkpt lat="42.738683584298855" lon="11.892228454567396"><ele>433.4</ele><time>2026-04-26T12:26:57.999Z</time></trkpt><trkpt lat="42.73877209668051" lon="11.892117297334337"><ele>433.79999999999995</ele><time>2026-04-26T12:26:58.999Z</time></trkpt><trkpt lat="42.73885785170921" lon="11.892012002097031"><ele>434.2</ele><time>2026-04-26T12:26:59.999Z</time></trkpt><trkpt lat="42.73893636010854" lon="11.891915604756864"><ele>434.6</ele><time>2026-04-26T12:27:00.999Z</time></trkpt><trkpt lat="42.739009122348016" lon="11.891824517779186"><ele>435.0</ele><time>2026-04-26T12:27:01.999Z</time></trkpt><trkpt lat="42.73908076850753" lon="11.891736558375042"><ele>435.6666666666667</ele><time>2026-04-26T12:27:02.999Z</time></trkpt><trkpt lat="42.73914500657612" lon="11.891659101874465"><ele>436.33333333333337</ele><time>2026-04-26T12:27:03.999Z</time></trkpt><trkpt lat="42.73920212605707" lon="11.891591120028323"><ele>437.0</ele><time>2026-04-26T12:27:04.999Z</time></trkpt><trkpt lat="42.739270151700936" lon="11.891521007384759"><ele>437.6666666666667</ele><time>2026-04-26T12:27:06.999Z</time></trkpt><trkpt lat="42.73932770716175" lon="11.891468877570404"><ele>438.33333333333337</ele><time>2026-04-26T12:27:09.999Z</time></trkpt><trkpt lat="42.73938668582127" lon="11.891415398232178"><ele>439.0</ele><time>2026-04-26T12:27:12.999Z</time></trkpt><trkpt lat="42.73945937260049" lon="11.891432933259688"><ele>439.33333333333337</ele><time>2026-04-26T12:28:11Z</time></trkpt><trkpt lat="42.73950068543992" lon="11.891097287114286"><ele>439.66666666666663</ele><time>2026-04-26T12:28:13Z</time></trkpt><trkpt lat="42.73952924612977" lon="11.890951342960703"><ele>440.0</ele><time>2026-04-26T12:28:14Z</time></trkpt><trkpt lat="42.73955803404642" lon="11.89079758329047"><ele>439.75</ele><time>2026-04-26T12:28:15Z</time></trkpt><trkpt lat="42.73959427856947" lon="11.890623700203594"><ele>439.5</ele><time>2026-04-26T12:28:16Z</time></trkpt><trkpt lat="42.73963523831404" lon="11.89044790740489"><ele>439.25</ele><time>2026-04-26T12:28:17Z</time></trkpt><trkpt lat="42.73967211922844" lon="11.890275769274053"><ele>439.0</ele><time>2026-04-26T12:28:18Z</time></trkpt><trkpt lat="42.73970949571808" lon="11.89008554089672"><ele>439.0</ele><time>2026-04-26T12:28:19Z</time></trkpt><trkpt lat="42.739758302292955" lon="11.889874501532669"><ele>439.0</ele><time>2026-04-26T12:28:20Z</time></trkpt><trkpt lat="42.73981446939647" lon="11.889652208322802"><ele>439.0</ele><time>2026-04-26T12:28:21Z</time></trkpt><trkpt lat="42.73986523626758" lon="11.889420305508615"><ele>437.6666666666667</ele><time>2026-04-26T12:28:22Z</time></trkpt><trkpt lat="42.739913392647225" lon="11.889179607118024"><ele>436.33333333333337</ele><time>2026-04-26T12:28:23Z</time></trkpt><trkpt lat="42.73996149260752" lon="11.888943356866658"><ele>435.0</ele><time>2026-04-26T12:28:24Z</time></trkpt><trkpt lat="42.74001141370524" lon="11.88870227483238"><ele>435.0</ele><time>2026-04-26T12:28:25Z</time></trkpt><trkpt lat="42.740060870962985" lon="11.888468274722147"><ele>435.0</ele><time>2026-04-26T12:28:26Z</time></trkpt><trkpt lat="42.74010908409043" lon="11.888247031912801"><ele>435.0</ele><time>2026-04-26T12:28:27Z</time></trkpt><trkpt lat="42.740156102758" lon="11.888025549343743"><ele>432.33333333333337</ele><time>2026-04-26T12:28:28Z</time></trkpt><trkpt lat="42.74020241665022" lon="11.887808402409286"><ele>429.6666666666667</ele><time>2026-04-26T12:28:29Z</time></trkpt><trkpt lat="42.74026466367068" lon="11.887594291916972"><ele>427.0</ele><time>2026-04-26T12:28:30Z</time></trkpt><trkpt lat="42.74029881550595" lon="11.887365708031298"><ele>425.0</ele><time>2026-04-26T12:28:31Z</time></trkpt><trkpt lat="42.74035277836874" lon="11.887140589198022"><ele>423.0</ele><time>2026-04-26T12:28:32Z</time></trkpt><trkpt lat="42.74040193468622" lon="11.886916450865312"><ele>421.0</ele><time>2026-04-26T12:28:33Z</time></trkpt><trkpt lat="42.740448272622714" lon="11.886686507234863"><ele>420.0</ele><time>2026-04-26T12:28:34Z</time></trkpt><trkpt lat="42.74049615458213" lon="11.886460277440833"><ele>419.0</ele><time>2026-04-26T12:28:35Z</time></trkpt><trkpt lat="42.74054923999774" lon="11.886229912966177"><ele>418.0</ele><time>2026-04-26T12:28:36Z</time></trkpt><trkpt lat="42.740599683760415" lon="11.88600232879981"><ele>417.0</ele><time>2026-04-26T12:28:37Z</time></trkpt><trkpt lat="42.740650987886255" lon="11.885767597326135"><ele>416.0</ele><time>2026-04-26T12:28:38Z</time></trkpt><trkpt lat="42.74070143673634" lon="11.885536554585942"><ele>415.0</ele><time>2026-04-26T12:28:39Z</time></trkpt><trkpt lat="42.74075075387211" lon="11.885301020042244"><ele>413.33333333333337</ele><time>2026-04-26T12:28:40Z</time></trkpt><trkpt lat="42.740801370201744" lon="11.885062096753407"><ele>411.66666666666663</ele><time>2026-04-26T12:28:41Z</time></trkpt><trkpt lat="42.74085213190115" lon="11.884823490224921"><ele>410.0</ele><time>2026-04-26T12:28:42Z</time></trkpt><trkpt lat="42.740917863204366" lon="11.884593128477706"><ele>410.0</ele><time>2026-04-26T12:28:43Z</time></trkpt><trkpt lat="42.7409536436321" lon="11.88435193226275"><ele>410.0</ele><time>2026-04-26T12:28:44Z</time></trkpt><trkpt lat="42.74100441849525" lon="11.88411725417755"><ele>410.0</ele><time>2026-04-26T12:28:45Z</time></trkpt><trkpt lat="42.74105573927293" lon="11.883882090108953"><ele>408.0</ele><time>2026-04-26T12:28:46Z</time></trkpt><trkpt lat="42.74110360642222" lon="11.883660021906197"><ele>406.0</ele><time>2026-04-26T12:28:47Z</time></trkpt><trkpt lat="42.74115255091428" lon="11.883444244297406"><ele>404.0</ele><time>2026-04-26T12:28:48Z</time></trkpt><trkpt lat="42.74121907299582" lon="11.883238071025104"><ele>404.0</ele><time>2026-04-26T12:28:49Z</time></trkpt><trkpt lat="42.741281828908235" lon="11.883032208419825"><ele>404.0</ele><time>2026-04-26T12:28:50Z</time></trkpt><trkpt lat="42.74136085228837" lon="11.882833497041904"><ele>404.0</ele><time>2026-04-26T12:28:51Z</time></trkpt><trkpt lat="42.74143759990024" lon="11.882641271565866"><ele>404.0</ele><time>2026-04-26T12:28:52Z</time></trkpt><trkpt lat="42.74150152388533" lon="11.882442132218078"><ele>404.0</ele><time>2026-04-26T12:28:53Z</time></trkpt><trkpt lat="42.741566358928004" lon="11.88224301299659"><ele>404.0</ele><time>2026-04-26T12:28:54Z</time></trkpt><trkpt lat="42.74162001514411" lon="11.882027134017603"><ele>404.0</ele><time>2026-04-26T12:28:55Z</time></trkpt><trkpt lat="42.741661558973945" lon="11.88180978528266"><ele>404.0</ele><time>2026-04-26T12:28:55.999Z</time></trkpt><trkpt lat="42.74169324536046" lon="11.881581965395716"><ele>404.0</ele><time>2026-04-26T12:28:56.999Z</time></trkpt><trkpt lat="42.741722544370205" lon="11.881358055910656"><ele>404.3333333333333</ele><time>2026-04-26T12:28:57.999Z</time></trkpt><trkpt lat="42.74175234537805" lon="11.88113889083126"><ele>404.66666666666663</ele><time>2026-04-26T12:28:58.999Z</time></trkpt><trkpt lat="42.74179076994069" lon="11.880915043449088"><ele>405.0</ele><time>2026-04-26T12:28:59.999Z</time></trkpt><trkpt lat="42.741826466201296" lon="11.880700469617178"><ele>404.66666666666663</ele><time>2026-04-26T12:29:00.999Z</time></trkpt><trkpt lat="42.74186094131535" lon="11.880486832295395"><ele>404.3333333333333</ele><time>2026-04-26T12:29:01.999Z</time></trkpt><trkpt lat="42.74188764568699" lon="11.880290157834999"><ele>404.0</ele><time>2026-04-26T12:29:02.999Z</time></trkpt><trkpt lat="42.74190908690835" lon="11.880097861147542"><ele>404.0</ele><time>2026-04-26T12:29:03.999Z</time></trkpt><trkpt lat="42.74191321255979" lon="11.879913617820552"><ele>404.0</ele><time>2026-04-26T12:29:04.999Z</time></trkpt><trkpt lat="42.741893807906074" lon="11.879729511191996"><ele>404.0</ele><time>2026-04-26T12:29:05.999Z</time></trkpt><trkpt lat="42.74184889065573" lon="11.879553948362236"><ele>404.0</ele><time>2026-04-26T12:29:06.999Z</time></trkpt><trkpt lat="42.74177640131494" lon="11.879397567017737"><ele>405.0</ele><time>2026-04-26T12:29:07.999Z</time></trkpt><trkpt lat="42.74168864420991" lon="11.879250916360645"><ele>406.0</ele><time>2026-04-26T12:29:08.999Z</time></trkpt><trkpt lat="42.74159900058604" lon="11.879106850101438"><ele>407.0</ele><time>2026-04-26T12:29:09.999Z</time></trkpt><trkpt lat="42.741513094498146" lon="11.878973209026764"><ele>408.0</ele><time>2026-04-26T12:29:10.999Z</time></trkpt><trkpt lat="42.74145120570422" lon="11.878867685791388"><ele>408.0</ele><time>2026-04-26T12:29:11.999Z</time></trkpt><trkpt lat="42.741409908369995" lon="11.878787974948494"><ele>408.0</ele><time>2026-04-26T12:29:12.999Z</time></trkpt><trkpt lat="42.741347149597374" lon="11.878659311501695"><ele>408.0</ele><time>2026-04-26T12:29:14.999Z</time></trkpt><trkpt lat="42.74123152050618" lon="11.878454533008055"><ele>408.0</ele><time>2026-04-26T12:29:17.999Z</time></trkpt><trkpt lat="42.74119819981917" lon="11.878348645991105"><ele>408.2</ele><time>2026-04-26T12:29:18.999Z</time></trkpt><trkpt lat="42.74118561108867" lon="11.87826451440445"><ele>408.4</ele><time>2026-04-26T12:29:19.999Z</time></trkpt><trkpt lat="42.74117379423901" lon="11.878123930092565"><ele>408.59999999999997</ele><time>2026-04-26T12:29:21.999Z</time></trkpt><trkpt lat="42.74117023661913" lon="11.878020717045091"><ele>408.79999999999995</ele><time>2026-04-26T12:29:22.999Z</time></trkpt><trkpt lat="42.7411723077626" lon="11.877882611090392"><ele>409.0</ele><time>2026-04-26T12:29:23.999Z</time></trkpt><trkpt lat="42.74119367974121" lon="11.877724694584577"><ele>408.5</ele><time>2026-04-26T12:29:24.999Z</time></trkpt><trkpt lat="42.741221301042145" lon="11.877562313263104"><ele>408.0</ele><time>2026-04-26T12:29:25.999Z</time></trkpt><trkpt lat="42.741255931485654" lon="11.877390801822079"><ele>407.5</ele><time>2026-04-26T12:29:26.999Z</time></trkpt><trkpt lat="42.741287716611566" lon="11.877205495692223"><ele>407.0</ele><time>2026-04-26T12:29:27.999Z</time></trkpt><trkpt lat="42.74131433410018" lon="11.877027853745982"><ele>407.0</ele><time>2026-04-26T12:29:28.999Z</time></trkpt><trkpt lat="42.74133802289213" lon="11.87685370915675"><ele>407.0</ele><time>2026-04-26T12:29:29.999Z</time></trkpt><trkpt lat="42.741367293889766" lon="11.876678039067851"><ele>407.0</ele><time>2026-04-26T12:29:30.999Z</time></trkpt><trkpt lat="42.74139186440698" lon="11.876504888014729"><ele>407.0</ele><time>2026-04-26T12:29:31.999Z</time></trkpt><trkpt lat="42.74141877396426" lon="11.876342707998868"><ele>406.40000000000003</ele><time>2026-04-26T12:29:32.999Z</time></trkpt><trkpt lat="42.74144315216017" lon="11.876185987398298"><ele>405.8</ele><time>2026-04-26T12:29:33.999Z</time></trkpt><trkpt lat="42.74146737894145" lon="11.876040748953473"><ele>405.2</ele><time>2026-04-26T12:29:34.999Z</time></trkpt><trkpt lat="42.741490876516494" lon="11.875916350331284"><ele>404.6</ele><time>2026-04-26T12:29:35.999Z</time></trkpt><trkpt lat="42.74150390210489" lon="11.875807568868689"><ele>404.0</ele><time>2026-04-26T12:29:36.999Z</time></trkpt><trkpt lat="42.74151464598295" lon="11.875716544225757"><ele>404.0</ele><time>2026-04-26T12:29:37.999Z</time></trkpt><trkpt lat="42.74154277473096" lon="11.875553182616141"><ele>404.0</ele><time>2026-04-26T12:29:39.999Z</time></trkpt><trkpt lat="42.74156458190352" lon="11.875400504940332"><ele>404.0</ele><time>2026-04-26T12:29:41.999Z</time></trkpt><trkpt lat="42.74158118005099" lon="11.875311481750156"><ele>404.0</ele><time>2026-04-26T12:29:42.999Z</time></trkpt><trkpt lat="42.741602664670495" lon="11.875197324915026"><ele>404.0</ele><time>2026-04-26T12:29:43.999Z</time></trkpt><trkpt lat="42.74162162128692" lon="11.875058026778326"><ele>403.5</ele><time>2026-04-26T12:29:44.999Z</time></trkpt><trkpt lat="42.74165319870768" lon="11.874906449503836"><ele>403.0</ele><time>2026-04-26T12:29:45.999Z</time></trkpt><trkpt lat="42.74167933605566" lon="11.874749652066567"><ele>402.5</ele><time>2026-04-26T12:29:46.999Z</time></trkpt><trkpt lat="42.741705524630255" lon="11.87458186234361"><ele>402.0</ele><time>2026-04-26T12:29:48Z</time></trkpt><trkpt lat="42.741732307020605" lon="11.874399817260436"><ele>399.75</ele><time>2026-04-26T12:29:49Z</time></trkpt><trkpt lat="42.741758139187695" lon="11.874214467690383"><ele>397.5</ele><time>2026-04-26T12:29:50Z</time></trkpt><trkpt lat="42.741789470465584" lon="11.87402523177253"><ele>395.25</ele><time>2026-04-26T12:29:51Z</time></trkpt><trkpt lat="42.74182120302916" lon="11.873835566890708"><ele>393.0</ele><time>2026-04-26T12:29:52Z</time></trkpt><trkpt lat="42.74185379953957" lon="11.873641886958408"><ele>393.75</ele><time>2026-04-26T12:29:52.999Z</time></trkpt><trkpt lat="42.74188680553866" lon="11.873444468225655"><ele>394.5</ele><time>2026-04-26T12:29:53.999Z</time></trkpt><trkpt lat="42.74191374739521" lon="11.873254002668435"><ele>395.25</ele><time>2026-04-26T12:29:54.999Z</time></trkpt><trkpt lat="42.74194298010091" lon="11.87306506521495"><ele>396.0</ele><time>2026-04-26T12:29:55.999Z</time></trkpt><trkpt lat="42.74197169471989" lon="11.87288326710831"><ele>396.0</ele><time>2026-04-26T12:29:56.999Z</time></trkpt><trkpt lat="42.74200326141506" lon="11.872702196632796"><ele>396.0</ele><time>2026-04-26T12:29:57.999Z</time></trkpt><trkpt lat="42.74203046790106" lon="11.872529070245546"><ele>396.0</ele><time>2026-04-26T12:29:58.999Z</time></trkpt><trkpt lat="42.74205578273132" lon="11.872357697776263"><ele>396.0</ele><time>2026-04-26T12:29:59.999Z</time></trkpt><trkpt lat="42.74208193412569" lon="11.872188232690648"><ele>394.5</ele><time>2026-04-26T12:30:00.999Z</time></trkpt><trkpt lat="42.74211153530963" lon="11.872022381140706"><ele>393.0</ele><time>2026-04-26T12:30:01.999Z</time></trkpt><trkpt lat="42.742152666341184" lon="11.871856313596883"><ele>391.5</ele><time>2026-04-26T12:30:02.999Z</time></trkpt><trkpt lat="42.74219999650549" lon="11.871687373092676"><ele>390.0</ele><time>2026-04-26T12:30:03.999Z</time></trkpt><trkpt lat="42.74225667156937" lon="11.871519874556077"><ele>389.75</ele><time>2026-04-26T12:30:04.999Z</time></trkpt><trkpt lat="42.74232637991902" lon="11.871355201247686"><ele>389.5</ele><time>2026-04-26T12:30:05.999Z</time></trkpt><trkpt lat="42.74239537873602" lon="11.871203313024992"><ele>389.25</ele><time>2026-04-26T12:30:06.999Z</time></trkpt><trkpt lat="42.74246437385294" lon="11.871044813333132"><ele>389.0</ele><time>2026-04-26T12:30:07.999Z</time></trkpt><trkpt lat="42.74252745810991" lon="11.870885948344949"><ele>389.0</ele><time>2026-04-26T12:30:08.999Z</time></trkpt><trkpt lat="42.74257841077541" lon="11.870722674459083"><ele>389.0</ele><time>2026-04-26T12:30:09.999Z</time></trkpt><trkpt lat="42.74261762964696" lon="11.870552863576982"><ele>389.0</ele><time>2026-04-26T12:30:10.999Z</time></trkpt><trkpt lat="42.74263397116669" lon="11.870376631853045"><ele>389.0</ele><time>2026-04-26T12:30:11.999Z</time></trkpt><trkpt lat="42.742625385127305" lon="11.870183728804717"><ele>390.0</ele><time>2026-04-26T12:30:12.999Z</time></trkpt><trkpt lat="42.74259501393387" lon="11.869985028987044"><ele>391.0</ele><time>2026-04-26T12:30:13.999Z</time></trkpt><trkpt lat="42.74255226187096" lon="11.869792344300299"><ele>392.0</ele><time>2026-04-26T12:30:14.999Z</time></trkpt><trkpt lat="42.74250043898692" lon="11.869608652250317"><ele>393.0</ele><time>2026-04-26T12:30:15.999Z</time></trkpt><trkpt lat="42.742437190091124" lon="11.869429218003352"><ele>392.5</ele><time>2026-04-26T12:30:16.999Z</time></trkpt><trkpt lat="42.74236636660005" lon="11.869264570970167"><ele>392.0</ele><time>2026-04-26T12:30:17.999Z</time></trkpt><trkpt lat="42.74229365194171" lon="11.869111572184211"><ele>391.5</ele><time>2026-04-26T12:30:18.999Z</time></trkpt><trkpt lat="42.742224423571564" lon="11.868960693489583"><ele>391.0</ele><time>2026-04-26T12:30:19.999Z</time></trkpt><trkpt lat="42.742159299683046" lon="11.868807694798688"><ele>391.0</ele><time>2026-04-26T12:30:20.999Z</time></trkpt><trkpt lat="42.74209593792097" lon="11.868655891151684"><ele>391.0</ele><time>2026-04-26T12:30:21.999Z</time></trkpt><trkpt lat="42.742032772690315" lon="11.868503557204766"><ele>391.0</ele><time>2026-04-26T12:30:22.999Z</time></trkpt><trkpt lat="42.74197582036385" lon="11.868325674670812"><ele>391.0</ele><time>2026-04-26T12:30:23.999Z</time></trkpt><trkpt lat="42.741923567565166" lon="11.868128482254884"><ele>389.0</ele><time>2026-04-26T12:30:24.999Z</time></trkpt><trkpt lat="42.74187752083269" lon="11.867924637276914"><ele>387.0</ele><time>2026-04-26T12:30:25.999Z</time></trkpt><trkpt lat="42.74184123566773" lon="11.867725598924718"><ele>385.0</ele><time>2026-04-26T12:30:26.999Z</time></trkpt><trkpt lat="42.74180615736495" lon="11.867526287296442"><ele>384.75</ele><time>2026-04-26T12:30:27.999Z</time></trkpt><trkpt lat="42.74177116792627" lon="11.867329187118607"><ele>384.5</ele><time>2026-04-26T12:30:28.999Z</time></trkpt><trkpt lat="42.7417342741153" lon="11.867132338241072"><ele>384.25</ele><time>2026-04-26T12:30:29.999Z</time></trkpt><trkpt lat="42.741694510690266" lon="11.866939570649498"><ele>384.0</ele><time>2026-04-26T12:30:30.999Z</time></trkpt><trkpt lat="42.74165901967678" lon="11.866776657479397"><ele>383.6666666666667</ele><time>2026-04-26T12:30:31.999Z</time></trkpt><trkpt lat="42.74160631784788" lon="11.866571198279372"><ele>383.33333333333337</ele><time>2026-04-26T12:30:32.999Z</time></trkpt><trkpt lat="42.74158256335386" lon="11.866367786042115"><ele>383.0</ele><time>2026-04-26T12:30:33.999Z</time></trkpt><trkpt lat="42.7415291114512" lon="11.866173014762946"><ele>383.0</ele><time>2026-04-26T12:30:34.999Z</time></trkpt><trkpt lat="42.74149333146514" lon="11.865980747409223"><ele>383.0</ele><time>2026-04-26T12:30:35.999Z</time></trkpt><trkpt lat="42.74145580901223" lon="11.865792696466562"><ele>383.0</ele><time>2026-04-26T12:30:36.999Z</time></trkpt><trkpt lat="42.74141827027888" lon="11.865609578999829"><ele>383.0</ele><time>2026-04-26T12:30:37.999Z</time></trkpt><trkpt lat="42.741392019357086" lon="11.865434300784257"><ele>383.5</ele><time>2026-04-26T12:30:38.999Z</time></trkpt><trkpt lat="42.74136292405519" lon="11.865254212324304"><ele>384.0</ele><time>2026-04-26T12:30:39.999Z</time></trkpt><trkpt lat="42.741333999093946" lon="11.865063389793901"><ele>384.5</ele><time>2026-04-26T12:30:40.999Z</time></trkpt><trkpt lat="42.7413244903312" lon="11.864878603111574"><ele>385.0</ele><time>2026-04-26T12:30:41.999Z</time></trkpt><trkpt lat="42.74134741075002" lon="11.864715202750126"><ele>385.8</ele><time>2026-04-26T12:30:42.999Z</time></trkpt><trkpt lat="42.74139478300075" lon="11.864569092132314"><ele>386.6</ele><time>2026-04-26T12:30:43.999Z</time></trkpt><trkpt lat="42.74150074636624" lon="11.864506240927165"><ele>387.4</ele><time>2026-04-26T12:30:44.999Z</time></trkpt><trkpt lat="42.74159168853309" lon="11.864475066279478"><ele>388.2</ele><time>2026-04-26T12:30:45.999Z</time></trkpt><trkpt lat="42.74169458085845" lon="11.864484865279243"><ele>389.0</ele><time>2026-04-26T12:30:46.999Z</time></trkpt><trkpt lat="42.7418059290654" lon="11.86452549531534"><ele>389.2</ele><time>2026-04-26T12:30:47.999Z</time></trkpt><trkpt lat="42.74192859724483" lon="11.864577443850681"><ele>389.4</ele><time>2026-04-26T12:30:48.999Z</time></trkpt><trkpt lat="42.74203512219608" lon="11.86460960093093"><ele>389.6</ele><time>2026-04-26T12:30:49.999Z</time></trkpt><trkpt lat="42.742131380088146" lon="11.864647086068867"><ele>389.8</ele><time>2026-04-26T12:30:50.999Z</time></trkpt><trkpt lat="42.74223478135426" lon="11.864661441438829"><ele>390.0</ele><time>2026-04-26T12:30:51.999Z</time></trkpt><trkpt lat="42.742328255241134" lon="11.864635085740948"><ele>390.0</ele><time>2026-04-26T12:30:52.999Z</time></trkpt><trkpt lat="42.74240052932749" lon="11.864557455671132"><ele>390.0</ele><time>2026-04-26T12:30:53.999Z</time></trkpt><trkpt lat="42.74243701888983" lon="11.864434103574341"><ele>390.0</ele><time>2026-04-26T12:30:54.999Z</time></trkpt><trkpt lat="42.742420000441456" lon="11.864254822032484"><ele>390.0</ele><time>2026-04-26T12:30:55.999Z</time></trkpt><trkpt lat="42.74241278534468" lon="11.864091145634182"><ele>390.0</ele><time>2026-04-26T12:30:56.999Z</time></trkpt><trkpt lat="42.742429673602444" lon="11.86394181677462"><ele>390.8</ele><time>2026-04-26T12:30:57.999Z</time></trkpt><trkpt lat="42.742476934177766" lon="11.863825401010605"><ele>391.6</ele><time>2026-04-26T12:30:58.999Z</time></trkpt><trkpt lat="42.742568675258966" lon="11.863775996002804"><ele>392.4</ele><time>2026-04-26T12:30:59.999Z</time></trkpt><trkpt lat="42.74265401859072" lon="11.863729345559793"><ele>393.2</ele><time>2026-04-26T12:31:00.999Z</time></trkpt><trkpt lat="42.742748336859755" lon="11.86368640573944"><ele>394.0</ele><time>2026-04-26T12:31:01.999Z</time></trkpt><trkpt lat="42.74284309068394" lon="11.863620811640457"><ele>394.0</ele><time>2026-04-26T12:31:02.999Z</time></trkpt><trkpt lat="42.742942070858696" lon="11.863562220955794"><ele>394.0</ele><time>2026-04-26T12:31:03.999Z</time></trkpt><trkpt lat="42.74303910627664" lon="11.863496787681745"><ele>394.0</ele><time>2026-04-26T12:31:04.999Z</time></trkpt><trkpt lat="42.74314586273687" lon="11.863452484302433"><ele>394.0</ele><time>2026-04-26T12:31:05.999Z</time></trkpt><trkpt lat="42.74323738381949" lon="11.863360660222497"><ele>394.0</ele><time>2026-04-26T12:31:06.999Z</time></trkpt><trkpt lat="42.74333957954813" lon="11.863292706408085"><ele>394.00000000000006</ele><time>2026-04-26T12:31:07.999Z</time></trkpt><trkpt lat="42.74344035323645" lon="11.863234179852107"><ele>394.0</ele><time>2026-04-26T12:31:08.999Z</time></trkpt><trkpt lat="42.743528812666455" lon="11.863191596203066"><ele>394.0</ele><time>2026-04-26T12:31:09.999Z</time></trkpt><trkpt lat="42.74361280340915" lon="11.863160583961184"><ele>394.0</ele><time>2026-04-26T12:31:10.999Z</time></trkpt><trkpt lat="42.7436849091949" lon="11.863126250850934"><ele>394.00000000000006</ele><time>2026-04-26T12:31:11.998Z</time></trkpt><trkpt lat="42.7437586460386" lon="11.863086054604672"><ele>394.0</ele><time>2026-04-26T12:31:12.998Z</time></trkpt><trkpt lat="42.74385152372474" lon="11.863052577255287"><ele>394.0</ele><time>2026-04-26T12:31:13.998Z</time></trkpt><trkpt lat="42.743964885528115" lon="11.86303133982842"><ele>394.0</ele><time>2026-04-26T12:31:14.998Z</time></trkpt><trkpt lat="42.74409197013615" lon="11.863055386979756"><ele>394.0</ele><time>2026-04-26T12:31:15.998Z</time></trkpt><trkpt lat="42.7442287723565" lon="11.86304424432657"><ele>394.0</ele><time>2026-04-26T12:31:16.998Z</time></trkpt><trkpt lat="42.744370937571446" lon="11.863055168315732"><ele>392.0</ele><time>2026-04-26T12:31:17.998Z</time></trkpt><trkpt lat="42.744522605730644" lon="11.863056781034498"><ele>390.0</ele><time>2026-04-26T12:31:18.998Z</time></trkpt><trkpt lat="42.7446761320772" lon="11.86306103547052"><ele>388.0</ele><time>2026-04-26T12:31:19.998Z</time></trkpt><trkpt lat="42.74482957587486" lon="11.863083766536592"><ele>388.0</ele><time>2026-04-26T12:31:20.998Z</time></trkpt><trkpt lat="42.744983217806734" lon="11.863090883356364"><ele>388.0</ele><time>2026-04-26T12:31:21.998Z</time></trkpt><trkpt lat="42.74513913756559" lon="11.863082090080741"><ele>388.0</ele><time>2026-04-26T12:31:22.998Z</time></trkpt><trkpt lat="42.745284555926915" lon="11.863086145734014"><ele>386.0</ele><time>2026-04-26T12:31:23.998Z</time></trkpt><trkpt lat="42.745430760204485" lon="11.863106400403124"><ele>384.0</ele><time>2026-04-26T12:31:24.998Z</time></trkpt><trkpt lat="42.74557630793908" lon="11.863091023200202"><ele>382.0</ele><time>2026-04-26T12:31:25.998Z</time></trkpt><trkpt lat="42.74571780510438" lon="11.86310449459192"><ele>380.0</ele><time>2026-04-26T12:31:26.998Z</time></trkpt><trkpt lat="42.74585682072064" lon="11.863115722857517"><ele>380.0</ele><time>2026-04-26T12:31:27.998Z</time></trkpt><trkpt lat="42.745995289203414" lon="11.863125096097926"><ele>380.0</ele><time>2026-04-26T12:31:28.998Z</time></trkpt><trkpt lat="42.74613417856022" lon="11.863152807067031"><ele>380.0</ele><time>2026-04-26T12:31:29.998Z</time></trkpt><trkpt lat="42.7462692660629" lon="11.863181318888268"><ele>380.0</ele><time>2026-04-26T12:31:30.998Z</time></trkpt><trkpt lat="42.74640015347085" lon="11.863202115343775"><ele>379.25</ele><time>2026-04-26T12:31:31.998Z</time></trkpt><trkpt lat="42.746532566768636" lon="11.863216099616537"><ele>378.5</ele><time>2026-04-26T12:31:32.998Z</time></trkpt><trkpt lat="42.74666383823066" lon="11.863212195305572"><ele>377.75</ele><time>2026-04-26T12:31:33.998Z</time></trkpt><trkpt lat="42.746801341169686" lon="11.86319973788215"><ele>377.0</ele><time>2026-04-26T12:31:34.998Z</time></trkpt><trkpt lat="42.746943058104016" lon="11.863176290262802"><ele>370.0</ele><time>2026-04-26T12:31:35.998Z</time></trkpt><trkpt lat="42.74709275431323" lon="11.863136421898883"><ele>363.0</ele><time>2026-04-26T12:31:36.998Z</time></trkpt><trkpt lat="42.74739333091698" lon="11.863096532775389"><ele>363.0</ele><time>2026-04-26T12:31:38.998Z</time></trkpt><trkpt lat="42.74753244781969" lon="11.863047519819496"><ele>363.0</ele><time>2026-04-26T12:31:39.998Z</time></trkpt><trkpt lat="42.74767599052011" lon="11.863015161773648"><ele>363.0</ele><time>2026-04-26T12:31:40.998Z</time></trkpt><trkpt lat="42.74782608690286" lon="11.8630065488875"><ele>363.0</ele><time>2026-04-26T12:31:41.998Z</time></trkpt><trkpt lat="42.747973414236505" lon="11.86297586450038"><ele>360.3333333333333</ele><time>2026-04-26T12:31:42.998Z</time></trkpt><trkpt lat="42.74812148456055" lon="11.862945025401043"><ele>357.66666666666663</ele><time>2026-04-26T12:31:43.998Z</time></trkpt><trkpt lat="42.748269196252885" lon="11.862914260921425"><ele>355.0</ele><time>2026-04-26T12:31:44.998Z</time></trkpt><trkpt lat="42.74841922325995" lon="11.862883617194381"><ele>355.25</ele><time>2026-04-26T12:31:45.998Z</time></trkpt><trkpt lat="42.7485696902416" lon="11.862853173221255"><ele>355.5</ele><time>2026-04-26T12:31:46.998Z</time></trkpt><trkpt lat="42.74871711157459" lon="11.862823345514103"><ele>355.75</ele><time>2026-04-26T12:31:47.998Z</time></trkpt><trkpt lat="42.74886291007998" lon="11.862793846101782"><ele>356.0</ele><time>2026-04-26T12:31:48.998Z</time></trkpt><trkpt lat="42.74900652877837" lon="11.862764787768933"><ele>356.0</ele><time>2026-04-26T12:31:49.998Z</time></trkpt><trkpt lat="42.74914957228382" lon="11.862735820321292"><ele>356.0</ele><time>2026-04-26T12:31:50.998Z</time></trkpt><trkpt lat="42.74928960946429" lon="11.86270681733042"><ele>356.0</ele><time>2026-04-26T12:31:51.998Z</time></trkpt><trkpt lat="42.74942683348171" lon="11.862677214080136"><ele>356.0</ele><time>2026-04-26T12:31:52.998Z</time></trkpt><trkpt lat="42.74956344990321" lon="11.862647741947844"><ele>357.75</ele><time>2026-04-26T12:31:54Z</time></trkpt><trkpt lat="42.7497010672798" lon="11.862618628177055"><ele>359.5</ele><time>2026-04-26T12:31:55Z</time></trkpt><trkpt lat="42.74983976813621" lon="11.862590757249723"><ele>361.25</ele><time>2026-04-26T12:31:56Z</time></trkpt><trkpt lat="42.749978176912634" lon="11.862565218530657"><ele>363.0</ele><time>2026-04-26T12:31:57Z</time></trkpt><trkpt lat="42.75011591409229" lon="11.862542280247983"><ele>360.5</ele><time>2026-04-26T12:31:58Z</time></trkpt><trkpt lat="42.750259957417946" lon="11.862522946338578"><ele>358.0</ele><time>2026-04-26T12:31:59Z</time></trkpt><trkpt lat="42.75040431545758" lon="11.862514931483116"><ele>355.5</ele><time>2026-04-26T12:32:00Z</time></trkpt><trkpt lat="42.75055237321472" lon="11.86251213530611"><ele>353.0</ele><time>2026-04-26T12:32:01Z</time></trkpt><trkpt lat="42.75086232053482" lon="11.862483778148293"><ele>353.0</ele><time>2026-04-26T12:32:03Z</time></trkpt><trkpt lat="42.75102134793068" lon="11.862487824229406"><ele>353.0</ele><time>2026-04-26T12:32:04Z</time></trkpt><trkpt lat="42.751174153048" lon="11.8624875861152"><ele>353.0</ele><time>2026-04-26T12:32:05Z</time></trkpt><trkpt lat="42.751329491027775" lon="11.86250170718514"><ele>350.5</ele><time>2026-04-26T12:32:06Z</time></trkpt><trkpt lat="42.751473636244974" lon="11.862523839318554"><ele>348.0</ele><time>2026-04-26T12:32:07Z</time></trkpt><trkpt lat="42.75160738986274" lon="11.862550364075535"><ele>345.5</ele><time>2026-04-26T12:32:08Z</time></trkpt><trkpt lat="42.751738009301576" lon="11.86257576792321"><ele>343.0</ele><time>2026-04-26T12:32:09Z</time></trkpt><trkpt lat="42.75183636483741" lon="11.862598438917702"><ele>340.8333333333333</ele><time>2026-04-26T12:32:10Z</time></trkpt><trkpt lat="42.75191555366762" lon="11.862620068314275"><ele>338.66666666666663</ele><time>2026-04-26T12:32:11Z</time></trkpt><trkpt lat="42.751991370564994" lon="11.862650245923497"><ele>336.5</ele><time>2026-04-26T12:32:12Z</time></trkpt><trkpt lat="42.75205079975413" lon="11.862734866537332"><ele>334.3333333333333</ele><time>2026-04-26T12:32:13Z</time></trkpt><trkpt lat="42.75209924087403" lon="11.862798723956768"><ele>332.1666666666667</ele><time>2026-04-26T12:32:14Z</time></trkpt><trkpt lat="42.7521443656757" lon="11.862879685252382"><ele>330.0</ele><time>2026-04-26T12:32:15Z</time></trkpt><trkpt lat="42.75214472545112" lon="11.863001715386368"><ele>330.0</ele><time>2026-04-26T12:32:15.999Z</time></trkpt><trkpt lat="42.752107272078156" lon="11.863120222026915"><ele>330.0</ele><time>2026-04-26T12:32:16.999Z</time></trkpt><trkpt lat="42.75204060121596" lon="11.86321231745332"><ele>330.0</ele><time>2026-04-26T12:32:17.999Z</time></trkpt><trkpt lat="42.75195418872153" lon="11.863264395892292"><ele>330.0</ele><time>2026-04-26T12:32:18.999Z</time></trkpt><trkpt lat="42.75184999159137" lon="11.8632812123128"><ele>330.0</ele><time>2026-04-26T12:32:19.999Z</time></trkpt><trkpt lat="42.751734392890825" lon="11.863263163843186"><ele>329.75</ele><time>2026-04-26T12:32:20.999Z</time></trkpt><trkpt lat="42.75161167250808" lon="11.863245642876493"><ele>329.5</ele><time>2026-04-26T12:32:21.999Z</time></trkpt><trkpt lat="42.75147710780016" lon="11.863242375700255"><ele>329.25</ele><time>2026-04-26T12:32:22.999Z</time></trkpt><trkpt lat="42.751340464256785" lon="11.86324888609018"><ele>329.0</ele><time>2026-04-26T12:32:23.999Z</time></trkpt><trkpt lat="42.751203920427905" lon="11.863256276986348"><ele>329.0</ele><time>2026-04-26T12:32:24.999Z</time></trkpt><trkpt lat="42.75107192558314" lon="11.863274568801621"><ele>329.0</ele><time>2026-04-26T12:32:25.999Z</time></trkpt><trkpt lat="42.750943381407325" lon="11.863312639369427"><ele>329.0</ele><time>2026-04-26T12:32:26.999Z</time></trkpt><trkpt lat="42.750819749152555" lon="11.8634030180142"><ele>329.0</ele><time>2026-04-26T12:32:27.999Z</time></trkpt><trkpt lat="42.75069410547744" lon="11.863524389103967"><ele>326.0</ele><time>2026-04-26T12:32:28.999Z</time></trkpt><trkpt lat="42.75055680232548" lon="11.86367062977309"><ele>323.0</ele><time>2026-04-26T12:32:29.999Z</time></trkpt><trkpt lat="42.75041732017797" lon="11.863809360302454"><ele>320.0</ele><time>2026-04-26T12:32:30.999Z</time></trkpt><trkpt lat="42.750278985154395" lon="11.863951105013513"><ele>318.6666666666667</ele><time>2026-04-26T12:32:31.999Z</time></trkpt><trkpt lat="42.75014019060872" lon="11.864096667669351"><ele>317.3333333333333</ele><time>2026-04-26T12:32:32.999Z</time></trkpt><trkpt lat="42.75002516254599" lon="11.864224094592146"><ele>316.0</ele><time>2026-04-26T12:32:33.999Z</time></trkpt><trkpt lat="42.74991927917861" lon="11.86432667760487"><ele>316.0</ele><time>2026-04-26T12:32:34.999Z</time></trkpt><trkpt lat="42.749826138352475" lon="11.864409903354474"><ele>316.0</ele><time>2026-04-26T12:32:35.999Z</time></trkpt><trkpt lat="42.74974566240669" lon="11.864502825972986"><ele>316.0</ele><time>2026-04-26T12:32:36.999Z</time></trkpt><trkpt lat="42.7496899208116" lon="11.864616548028089"><ele>316.0</ele><time>2026-04-26T12:32:37.999Z</time></trkpt><trkpt lat="42.74967499019788" lon="11.864742866155698"><ele>316.0</ele><time>2026-04-26T12:32:38.999Z</time></trkpt><trkpt lat="42.7496945355352" lon="11.864860871083993"><ele>316.0</ele><time>2026-04-26T12:32:39.999Z</time></trkpt><trkpt lat="42.74975281723189" lon="11.864955158887593"><ele>316.0</ele><time>2026-04-26T12:32:40.999Z</time></trkpt><trkpt lat="42.74984088661736" lon="11.865012395064612"><ele>316.0</ele><time>2026-04-26T12:32:41.999Z</time></trkpt><trkpt lat="42.74995177859279" lon="11.86501773376866"><ele>316.0</ele><time>2026-04-26T12:32:42.999Z</time></trkpt><trkpt lat="42.75007358660208" lon="11.864982490380921"><ele>316.0</ele><time>2026-04-26T12:32:43.999Z</time></trkpt><trkpt lat="42.750201537506534" lon="11.864970279107444"><ele>313.0</ele><time>2026-04-26T12:32:44.999Z</time></trkpt><trkpt lat="42.75034795310043" lon="11.864943712946102"><ele>310.0</ele><time>2026-04-26T12:32:45.999Z</time></trkpt><trkpt lat="42.75050330134693" lon="11.864896049207967"><ele>307.0</ele><time>2026-04-26T12:32:46.999Z</time></trkpt><trkpt lat="42.75067740319275" lon="11.864862784666101"><ele>307.0</ele><time>2026-04-26T12:32:47.999Z</time></trkpt><trkpt lat="42.75085303185948" lon="11.864816831818535"><ele>307.0</ele><time>2026-04-26T12:32:48.999Z</time></trkpt><trkpt lat="42.75103299533688" lon="11.864790301989895"><ele>307.0</ele><time>2026-04-26T12:32:49.999Z</time></trkpt><trkpt lat="42.751203924207005" lon="11.864748195309815"><ele>304.3333333333333</ele><time>2026-04-26T12:32:50.999Z</time></trkpt><trkpt lat="42.75136726193325" lon="11.86470494128708"><ele>301.6666666666667</ele><time>2026-04-26T12:32:51.999Z</time></trkpt><trkpt lat="42.751522500552745" lon="11.864663832364322"><ele>299.0</ele><time>2026-04-26T12:32:52.999Z</time></trkpt><trkpt lat="42.75167332576859" lon="11.86460742698405"><ele>299.0</ele><time>2026-04-26T12:32:53.999Z</time></trkpt><trkpt lat="42.75182016257464" lon="11.864618082277588"><ele>299.0</ele><time>2026-04-26T12:32:54.999Z</time></trkpt><trkpt lat="42.7519595985081" lon="11.864623615123755"><ele>299.0</ele><time>2026-04-26T12:32:55.999Z</time></trkpt><trkpt lat="42.75209025762723" lon="11.864646418870738"><ele>299.0</ele><time>2026-04-26T12:32:56.999Z</time></trkpt><trkpt lat="42.75221664498647" lon="11.864700570968324"><ele>299.33333333333337</ele><time>2026-04-26T12:32:57.999Z</time></trkpt><trkpt lat="42.752348505771344" lon="11.864788180964865"><ele>299.6666666666667</ele><time>2026-04-26T12:32:58.999Z</time></trkpt><trkpt lat="42.75248734934054" lon="11.86489629744915"><ele>300.0</ele><time>2026-04-26T12:32:59.999Z</time></trkpt><trkpt lat="42.7526240110794" lon="11.865021536631577"><ele>296.6666666666667</ele><time>2026-04-26T12:33:00.999Z</time></trkpt><trkpt lat="42.75277048422643" lon="11.865132423774678"><ele>293.33333333333337</ele><time>2026-04-26T12:33:01.999Z</time></trkpt><trkpt lat="42.75290148641114" lon="11.86524833395107"><ele>290.0</ele><time>2026-04-26T12:33:02.999Z</time></trkpt><trkpt lat="42.75303322033889" lon="11.865338520536378"><ele>290.0</ele><time>2026-04-26T12:33:03.999Z</time></trkpt><trkpt lat="42.753168765525125" lon="11.865409752479493"><ele>290.0</ele><time>2026-04-26T12:33:04.999Z</time></trkpt><trkpt lat="42.75332037025402" lon="11.865445115863622"><ele>290.0</ele><time>2026-04-26T12:33:05.999Z</time></trkpt><trkpt lat="42.753481420998675" lon="11.865454172077396"><ele>290.33333333333337</ele><time>2026-04-26T12:33:06.999Z</time></trkpt><trkpt lat="42.75364359885099" lon="11.865488406107138"><ele>290.6666666666667</ele><time>2026-04-26T12:33:07.999Z</time></trkpt><trkpt lat="42.75380741585342" lon="11.865511682351764"><ele>291.0</ele><time>2026-04-26T12:33:08.999Z</time></trkpt><trkpt lat="42.753969094053005" lon="11.865509021333962"><ele>291.0</ele><time>2026-04-26T12:33:09.999Z</time></trkpt><trkpt lat="42.754123324540814" lon="11.865530567016489"><ele>291.0</ele><time>2026-04-26T12:33:10.999Z</time></trkpt><trkpt lat="42.75427840491331" lon="11.86554379732398"><ele>291.0</ele><time>2026-04-26T12:33:11.999Z</time></trkpt><trkpt lat="42.75443090059021" lon="11.865543872308786"><ele>290.0</ele><time>2026-04-26T12:33:12.999Z</time></trkpt><trkpt lat="42.754590319419414" lon="11.865547131187542"><ele>289.0</ele><time>2026-04-26T12:33:13.999Z</time></trkpt><trkpt lat="42.75473934870967" lon="11.865557009476762"><ele>288.0</ele><time>2026-04-26T12:33:14.999Z</time></trkpt><trkpt lat="42.75489192732875" lon="11.86556936205142"><ele>288.0</ele><time>2026-04-26T12:33:15.999Z</time></trkpt><trkpt lat="42.75505362515597" lon="11.865573226684287"><ele>288.0</ele><time>2026-04-26T12:33:16.999Z</time></trkpt><trkpt lat="42.75521544369007" lon="11.865565768479994"><ele>288.0</ele><time>2026-04-26T12:33:17.999Z</time></trkpt><trkpt lat="42.75538621999428" lon="11.865553399176024"><ele>284.6666666666667</ele><time>2026-04-26T12:33:18.999Z</time></trkpt><trkpt lat="42.75556154430504" lon="11.865543481352484"><ele>281.33333333333337</ele><time>2026-04-26T12:33:19.999Z</time></trkpt><trkpt lat="42.75573392299766" lon="11.86557808318154"><ele>278.0</ele><time>2026-04-26T12:33:20.999Z</time></trkpt><trkpt lat="42.75590325607665" lon="11.865593551117968"><ele>276.33333333333337</ele><time>2026-04-26T12:33:21.999Z</time></trkpt><trkpt lat="42.756073205219366" lon="11.86558642555014"><ele>274.6666666666667</ele><time>2026-04-26T12:33:22.999Z</time></trkpt><trkpt lat="42.75623914039525" lon="11.865603550915667"><ele>273.0</ele><time>2026-04-26T12:33:23.999Z</time></trkpt><trkpt lat="42.75640329749413" lon="11.865618058886055"><ele>273.0</ele><time>2026-04-26T12:33:24.999Z</time></trkpt><trkpt lat="42.75656345437397" lon="11.8656316145476"><ele>273.0</ele><time>2026-04-26T12:33:25.999Z</time></trkpt><trkpt lat="42.75672359191202" lon="11.865642823389882"><ele>273.0</ele><time>2026-04-26T12:33:26.999Z</time></trkpt><trkpt lat="42.75687814714816" lon="11.865653386369745"><ele>270.5</ele><time>2026-04-26T12:33:27.999Z</time></trkpt><trkpt lat="42.757028819650195" lon="11.865680389600568"><ele>268.0</ele><time>2026-04-26T12:33:28.999Z</time></trkpt><trkpt lat="42.75717629614187" lon="11.865651969861016"><ele>265.5</ele><time>2026-04-26T12:33:29.999Z</time></trkpt><trkpt lat="42.75731996707013" lon="11.865635533503957"><ele>263.0</ele><time>2026-04-26T12:33:30.999Z</time></trkpt><trkpt lat="42.75745031483471" lon="11.865599147561351"><ele>263.0</ele><time>2026-04-26T12:33:31.999Z</time></trkpt><trkpt lat="42.75757390119258" lon="11.865531175430242"><ele>263.0</ele><time>2026-04-26T12:33:32.999Z</time></trkpt><trkpt lat="42.757687218822" lon="11.865430555332354"><ele>263.0</ele><time>2026-04-26T12:33:33.999Z</time></trkpt><trkpt lat="42.757791391088794" lon="11.86528480786815"><ele>263.0</ele><time>2026-04-26T12:33:34.999Z</time></trkpt><trkpt lat="42.757897695939434" lon="11.865133777837146"><ele>261.5</ele><time>2026-04-26T12:33:35.999Z</time></trkpt><trkpt lat="42.75797225988773" lon="11.864979382790098"><ele>260.0</ele><time>2026-04-26T12:33:36.999Z</time></trkpt><trkpt lat="42.758034722194445" lon="11.864843923582136"><ele>258.5</ele><time>2026-04-26T12:33:37.999Z</time></trkpt><trkpt lat="42.758101502938565" lon="11.86472293520815"><ele>257.0</ele><time>2026-04-26T12:33:38.999Z</time></trkpt><trkpt lat="42.75818778972964" lon="11.86461698250269"><ele>257.0</ele><time>2026-04-26T12:33:39.999Z</time></trkpt><trkpt lat="42.75830129180754" lon="11.86453352219225"><ele>257.0</ele><time>2026-04-26T12:33:40.999Z</time></trkpt><trkpt lat="42.7584419947388" lon="11.864459062453221"><ele>257.0</ele><time>2026-04-26T12:33:41.998Z</time></trkpt><trkpt lat="42.75859805239033" lon="11.864406105677107"><ele>257.0</ele><time>2026-04-26T12:33:42.998Z</time></trkpt><trkpt lat="42.7587633714876" lon="11.864352554572685"><ele>257.0</ele><time>2026-04-26T12:33:43.998Z</time></trkpt><trkpt lat="42.75893322569667" lon="11.864298774293319"><ele>257.0</ele><time>2026-04-26T12:33:44.998Z</time></trkpt><trkpt lat="42.759103795556264" lon="11.864232183594318"><ele>257.0</ele><time>2026-04-26T12:33:45.998Z</time></trkpt><trkpt lat="42.75928401894162" lon="11.864146566400672"><ele>255.33333333333334</ele><time>2026-04-26T12:33:46.998Z</time></trkpt><trkpt lat="42.759458823364305" lon="11.864059520313901"><ele>253.66666666666669</ele><time>2026-04-26T12:33:47.998Z</time></trkpt><trkpt lat="42.759639975810025" lon="11.863969400612604"><ele>252.0</ele><time>2026-04-26T12:33:48.998Z</time></trkpt><trkpt lat="42.75981172891235" lon="11.863884067388588"><ele>252.0</ele><time>2026-04-26T12:33:49.998Z</time></trkpt><trkpt lat="42.759975059466825" lon="11.863805801447713"><ele>252.0</ele><time>2026-04-26T12:33:50.998Z</time></trkpt><trkpt lat="42.76012764327678" lon="11.86373522151789"><ele>252.0</ele><time>2026-04-26T12:33:51.998Z</time></trkpt><trkpt lat="42.76026713606821" lon="11.863645179435393"><ele>251.66666666666669</ele><time>2026-04-26T12:33:52.998Z</time></trkpt><trkpt lat="42.760406915622106" lon="11.86356069376361"><ele>251.33333333333334</ele><time>2026-04-26T12:33:53.998Z</time></trkpt><trkpt lat="42.76054067591618" lon="11.863482009993959"><ele>251.0</ele><time>2026-04-26T12:33:54.998Z</time></trkpt><trkpt lat="42.76064453602431" lon="11.863329232236785"><ele>251.0</ele><time>2026-04-26T12:33:55.998Z</time></trkpt><trkpt lat="42.760735128983505" lon="11.863159836093194"><ele>251.0</ele><time>2026-04-26T12:33:56.998Z</time></trkpt><trkpt lat="42.76081705076269" lon="11.862958289284277"><ele>251.0</ele><time>2026-04-26T12:33:57.998Z</time></trkpt><trkpt lat="42.76087311211868" lon="11.862731103705004"><ele>251.0</ele><time>2026-04-26T12:33:58.998Z</time></trkpt><trkpt lat="42.76091238655904" lon="11.862487824564589"><ele>251.0</ele><time>2026-04-26T12:34:00Z</time></trkpt><trkpt lat="42.76095203705544" lon="11.8622435640475"><ele>251.0</ele><time>2026-04-26T12:34:01Z</time></trkpt><trkpt lat="42.761012336949165" lon="11.862015235433063"><ele>250.33333333333334</ele><time>2026-04-26T12:34:02Z</time></trkpt><trkpt lat="42.76104347990276" lon="11.861772260921388"><ele>249.66666666666669</ele><time>2026-04-26T12:34:03Z</time></trkpt><trkpt lat="42.761090585716055" lon="11.861536601977072"><ele>249.0</ele><time>2026-04-26T12:34:04Z</time></trkpt><trkpt lat="42.76113248451488" lon="11.861311408410579"><ele>249.0</ele><time>2026-04-26T12:34:05Z</time></trkpt><trkpt lat="42.761179479980825" lon="11.861081803544481"><ele>249.0</ele><time>2026-04-26T12:34:06Z</time></trkpt><trkpt lat="42.76122513420137" lon="11.860850302487698"><ele>249.0</ele><time>2026-04-26T12:34:07Z</time></trkpt><trkpt lat="42.76126861849662" lon="11.86062109423389"><ele>249.0</ele><time>2026-04-26T12:34:08Z</time></trkpt><trkpt lat="42.76131168772473" lon="11.860388084576021"><ele>249.0</ele><time>2026-04-26T12:34:09Z</time></trkpt><trkpt lat="42.761351910924674" lon="11.860160125652564"><ele>249.0</ele><time>2026-04-26T12:34:10Z</time></trkpt><trkpt lat="42.76139480548435" lon="11.85992988287865"><ele>249.33333333333331</ele><time>2026-04-26T12:34:11Z</time></trkpt><trkpt lat="42.76145263025206" lon="11.859711117709182"><ele>249.66666666666666</ele><time>2026-04-26T12:34:12Z</time></trkpt><trkpt lat="42.76148058269124" lon="11.859475502794975"><ele>250.0</ele><time>2026-04-26T12:34:13Z</time></trkpt><trkpt lat="42.76152730101888" lon="11.859248319634977"><ele>251.0</ele><time>2026-04-26T12:34:14Z</time></trkpt><trkpt lat="42.761570290804215" lon="11.859033862510923"><ele>252.0</ele><time>2026-04-26T12:34:15Z</time></trkpt><trkpt lat="42.76160839430287" lon="11.85882360805027"><ele>253.0</ele><time>2026-04-26T12:34:16Z</time></trkpt><trkpt lat="42.76166515098488" lon="11.85862741025028"><ele>253.25</ele><time>2026-04-26T12:34:17Z</time></trkpt><trkpt lat="42.761714596010364" lon="11.858443681168374"><ele>253.5</ele><time>2026-04-26T12:34:18Z</time></trkpt><trkpt lat="42.761771462171275" lon="11.858267643655514"><ele>253.75</ele><time>2026-04-26T12:34:19Z</time></trkpt><trkpt lat="42.7618346921559" lon="11.858093225604437"><ele>254.0</ele><time>2026-04-26T12:34:20Z</time></trkpt><trkpt lat="42.76188899525402" lon="11.857908455770527"><ele>252.0</ele><time>2026-04-26T12:34:21Z</time></trkpt><trkpt lat="42.76196509875826" lon="11.857729053645528"><ele>250.0</ele><time>2026-04-26T12:34:22Z</time></trkpt><trkpt lat="42.76204236147531" lon="11.857550874394473"><ele>248.0</ele><time>2026-04-26T12:34:23Z</time></trkpt><trkpt lat="42.76211656468052" lon="11.85737633637764"><ele>248.0</ele><time>2026-04-26T12:34:24Z</time></trkpt><trkpt lat="42.76220635924383" lon="11.857228714993"><ele>248.0</ele><time>2026-04-26T12:34:25Z</time></trkpt><trkpt lat="42.76229524056276" lon="11.857085651227864"><ele>248.0</ele><time>2026-04-26T12:34:26Z</time></trkpt><trkpt lat="42.76238310464425" lon="11.856932476803545"><ele>248.0</ele><time>2026-04-26T12:34:27Z</time></trkpt><trkpt lat="42.76248826701886" lon="11.856816559594204"><ele>248.25</ele><time>2026-04-26T12:34:28Z</time></trkpt><trkpt lat="42.76259996377111" lon="11.856703994311173"><ele>248.5</ele><time>2026-04-26T12:34:29Z</time></trkpt><trkpt lat="42.76272043806975" lon="11.856598011488552"><ele>248.75</ele><time>2026-04-26T12:34:30Z</time></trkpt><trkpt lat="42.762852144547686" lon="11.856507723472332"><ele>249.0</ele><time>2026-04-26T12:34:31Z</time></trkpt><trkpt lat="42.76299292295104" lon="11.85643300338791"><ele>248.5</ele><time>2026-04-26T12:34:32Z</time></trkpt><trkpt lat="42.763137582236006" lon="11.856369661158862"><ele>248.0</ele><time>2026-04-26T12:34:33Z</time></trkpt><trkpt lat="42.76328480056151" lon="11.856342832634969"><ele>247.5</ele><time>2026-04-26T12:34:34Z</time></trkpt><trkpt lat="42.76342893652096" lon="11.856315242939631"><ele>247.0</ele><time>2026-04-26T12:34:35Z</time></trkpt><trkpt lat="42.76356904733727" lon="11.856282952458201"><ele>246.75</ele><time>2026-04-26T12:34:36Z</time></trkpt><trkpt lat="42.76370918734209" lon="11.856290309786786"><ele>246.5</ele><time>2026-04-26T12:34:37Z</time></trkpt><trkpt lat="42.763848353383956" lon="11.856298159323094"><ele>246.25</ele><time>2026-04-26T12:34:38Z</time></trkpt><trkpt lat="42.76399438482237" lon="11.85630031396733"><ele>246.0</ele><time>2026-04-26T12:34:39Z</time></trkpt><trkpt lat="42.7642897073096" lon="11.856303348074103"><ele>246.25</ele><time>2026-04-26T12:34:40.999Z</time></trkpt><trkpt lat="42.76443465180058" lon="11.85630354312279"><ele>246.5</ele><time>2026-04-26T12:34:41.999Z</time></trkpt><trkpt lat="42.76456763031166" lon="11.856305851250395"><ele>246.75</ele><time>2026-04-26T12:34:42.999Z</time></trkpt><trkpt lat="42.76469505647618" lon="11.856304027220295"><ele>247.0</ele><time>2026-04-26T12:34:43.999Z</time></trkpt><trkpt lat="42.76483889588443" lon="11.85630361959675"><ele>247.0</ele><time>2026-04-26T12:34:44.999Z</time></trkpt><trkpt lat="42.764993063782555" lon="11.856306469059327"><ele>247.0</ele><time>2026-04-26T12:34:45.999Z</time></trkpt><trkpt lat="42.76515169896035" lon="11.85631122372733"><ele>247.0</ele><time>2026-04-26T12:34:46.999Z</time></trkpt><trkpt lat="42.765317507486316" lon="11.856309854879756"><ele>247.0</ele><time>2026-04-26T12:34:47.999Z</time></trkpt><trkpt lat="42.76548364121744" lon="11.856302349563954"><ele>247.0</ele><time>2026-04-26T12:34:48.999Z</time></trkpt><trkpt lat="42.76565429260839" lon="11.856291654048743"><ele>247.0</ele><time>2026-04-26T12:34:49.999Z</time></trkpt><trkpt lat="42.765831359829534" lon="11.856279339743823"><ele>247.0</ele><time>2026-04-26T12:34:50.999Z</time></trkpt><trkpt lat="42.766009286401726" lon="11.856256021091044"><ele>247.0</ele><time>2026-04-26T12:34:51.999Z</time></trkpt><trkpt lat="42.76619297956895" lon="11.856230563827012"><ele>247.0</ele><time>2026-04-26T12:34:52.999Z</time></trkpt><trkpt lat="42.76637918927073" lon="11.856204347338565"><ele>248.33333333333331</ele><time>2026-04-26T12:34:53.999Z</time></trkpt><trkpt lat="42.76655959417825" lon="11.856176769411631"><ele>249.66666666666669</ele><time>2026-04-26T12:34:54.999Z</time></trkpt><trkpt lat="42.76674335061454" lon="11.856143243179536"><ele>251.0</ele><time>2026-04-26T12:34:55.999Z</time></trkpt><trkpt lat="42.76692901828614" lon="11.856112736879233"><ele>251.66666666666669</ele><time>2026-04-26T12:34:56.999Z</time></trkpt><trkpt lat="42.76711175852899" lon="11.856085432051374"><ele>252.33333333333331</ele><time>2026-04-26T12:34:57.999Z</time></trkpt><trkpt lat="42.76729691111561" lon="11.85605478889054"><ele>253.0</ele><time>2026-04-26T12:34:58.999Z</time></trkpt><trkpt lat="42.76748139473807" lon="11.856025443961443"><ele>253.0</ele><time>2026-04-26T12:34:59.999Z</time></trkpt><trkpt lat="42.76766328660822" lon="11.855994731240653"><ele>253.0</ele><time>2026-04-26T12:35:00.999Z</time></trkpt><trkpt lat="42.76784917990079" lon="11.855968899268031"><ele>253.0</ele><time>2026-04-26T12:35:01.999Z</time></trkpt><trkpt lat="42.76803842248876" lon="11.85593770456855"><ele>253.66666666666666</ele><time>2026-04-26T12:35:02.999Z</time></trkpt><trkpt lat="42.768231916082726" lon="11.855905564693831"><ele>254.33333333333331</ele><time>2026-04-26T12:35:03.999Z</time></trkpt><trkpt lat="42.76842246611869" lon="11.8558697917943"><ele>255.0</ele><time>2026-04-26T12:35:04.999Z</time></trkpt><trkpt lat="42.76862083615375" lon="11.855838882331819"><ele>256.0</ele><time>2026-04-26T12:35:05.999Z</time></trkpt><trkpt lat="42.76881698146955" lon="11.85580657772891"><ele>257.0</ele><time>2026-04-26T12:35:06.999Z</time></trkpt><trkpt lat="42.76902109795531" lon="11.855771205993262"><ele>258.0</ele><time>2026-04-26T12:35:07.999Z</time></trkpt><trkpt lat="42.76922557528965" lon="11.855732564641896"><ele>258.3333333333333</ele><time>2026-04-26T12:35:08.999Z</time></trkpt><trkpt lat="42.76943106099793" lon="11.855720994040949"><ele>258.66666666666663</ele><time>2026-04-26T12:35:09.999Z</time></trkpt><trkpt lat="42.76962679263171" lon="11.855667176507472"><ele>259.0</ele><time>2026-04-26T12:35:10.999Z</time></trkpt><trkpt lat="42.76980836872006" lon="11.85564011918301"><ele>259.0</ele><time>2026-04-26T12:35:11.999Z</time></trkpt><trkpt lat="42.76998209753015" lon="11.855609219466116"><ele>259.0</ele><time>2026-04-26T12:35:12.999Z</time></trkpt><trkpt lat="42.77015197310205" lon="11.855601959405982"><ele>259.0</ele><time>2026-04-26T12:35:13.999Z</time></trkpt><trkpt lat="42.770320043689985" lon="11.855572256422859"><ele>259.66666666666663</ele><time>2026-04-26T12:35:14.999Z</time></trkpt><trkpt lat="42.77047826456085" lon="11.855520504365515"><ele>260.3333333333333</ele><time>2026-04-26T12:35:15.999Z</time></trkpt><trkpt lat="42.770644698480844" lon="11.855459214280366"><ele>261.0</ele><time>2026-04-26T12:35:16.999Z</time></trkpt><trkpt lat="42.77079935314354" lon="11.855350046253843"><ele>261.0</ele><time>2026-04-26T12:35:17.999Z</time></trkpt><trkpt lat="42.77094312350686" lon="11.855212100706987"><ele>261.0</ele><time>2026-04-26T12:35:18.999Z</time></trkpt><trkpt lat="42.7710697970781" lon="11.855038558123848"><ele>261.0</ele><time>2026-04-26T12:35:19.999Z</time></trkpt><trkpt lat="42.77117032054576" lon="11.854839760582234"><ele>262.0</ele><time>2026-04-26T12:35:20.999Z</time></trkpt><trkpt lat="42.77124160306949" lon="11.854611136720223"><ele>263.0</ele><time>2026-04-26T12:35:21.999Z</time></trkpt><trkpt lat="42.77129021211965" lon="11.854373366553746"><ele>264.0</ele><time>2026-04-26T12:35:22.999Z</time></trkpt><trkpt lat="42.77131411042987" lon="11.85412230267854"><ele>264.0</ele><time>2026-04-26T12:35:23.999Z</time></trkpt><trkpt lat="42.771340990698384" lon="11.85386198305627"><ele>264.0</ele><time>2026-04-26T12:35:24.999Z</time></trkpt><trkpt lat="42.77137857663164" lon="11.853607900041753"><ele>264.0</ele><time>2026-04-26T12:35:25.999Z</time></trkpt><trkpt lat="42.771413746460524" lon="11.853377127937812"><ele>263.6666666666667</ele><time>2026-04-26T12:35:26.999Z</time></trkpt><trkpt lat="42.77144572394297" lon="11.853148761051822"><ele>263.33333333333337</ele><time>2026-04-26T12:35:27.999Z</time></trkpt><trkpt lat="42.771475536068735" lon="11.852921410331824"><ele>263.0</ele><time>2026-04-26T12:35:28.999Z</time></trkpt><trkpt lat="42.771514825127994" lon="11.852686441728531"><ele>264.0</ele><time>2026-04-26T12:35:29.999Z</time></trkpt><trkpt lat="42.7715548583285" lon="11.852473629352678"><ele>265.0</ele><time>2026-04-26T12:35:30.999Z</time></trkpt><trkpt lat="42.771607127134565" lon="11.852261241407701"><ele>266.0</ele><time>2026-04-26T12:35:31.999Z</time></trkpt><trkpt lat="42.771700112331565" lon="11.852066117639115"><ele>266.0</ele><time>2026-04-26T12:35:32.999Z</time></trkpt><trkpt lat="42.771801957766456" lon="11.851868656595135"><ele>266.0</ele><time>2026-04-26T12:35:33.999Z</time></trkpt><trkpt lat="42.77192833308986" lon="11.851681031590427"><ele>266.0</ele><time>2026-04-26T12:35:34.999Z</time></trkpt><trkpt lat="42.772056870877755" lon="11.851478659470708"><ele>266.6666666666667</ele><time>2026-04-26T12:35:35.999Z</time></trkpt><trkpt lat="42.77220874698024" lon="11.8512833803628"><ele>267.3333333333333</ele><time>2026-04-26T12:35:36.999Z</time></trkpt><trkpt lat="42.77236166529782" lon="11.851072922767965"><ele>268.0</ele><time>2026-04-26T12:35:37.999Z</time></trkpt><trkpt lat="42.77250867712351" lon="11.850858349236221"><ele>268.0</ele><time>2026-04-26T12:35:38.999Z</time></trkpt><trkpt lat="42.77266711436178" lon="11.85064125290689"><ele>268.0</ele><time>2026-04-26T12:35:39.999Z</time></trkpt><trkpt lat="42.77282824362454" lon="11.850422057250583"><ele>267.66666666666663</ele><time>2026-04-26T12:35:40.999Z</time></trkpt><trkpt lat="42.7729883767095" lon="11.85019970732797"><ele>267.3333333333333</ele><time>2026-04-26T12:35:41.999Z</time></trkpt><trkpt lat="42.77314084487574" lon="11.849988251483774"><ele>267.0</ele><time>2026-04-26T12:35:42.999Z</time></trkpt><trkpt lat="42.773283512737805" lon="11.849791654763669"><ele>267.0</ele><time>2026-04-26T12:35:43.999Z</time></trkpt><trkpt lat="42.773424137559694" lon="11.849604992507539"><ele>267.0</ele><time>2026-04-26T12:35:44.999Z</time></trkpt><trkpt lat="42.77356508246858" lon="11.849419328992823"><ele>267.0</ele><time>2026-04-26T12:35:45.999Z</time></trkpt><trkpt lat="42.77370671651594" lon="11.849230938891576"><ele>268.0</ele><time>2026-04-26T12:35:46.999Z</time></trkpt><trkpt lat="42.7738444972848" lon="11.8490427474647"><ele>269.0</ele><time>2026-04-26T12:35:47.999Z</time></trkpt><trkpt lat="42.77398322623283" lon="11.848855329820822"><ele>270.0</ele><time>2026-04-26T12:35:48.999Z</time></trkpt><trkpt lat="42.7741200809595" lon="11.848667926491574"><ele>270.0</ele><time>2026-04-26T12:35:49.999Z</time></trkpt><trkpt lat="42.774254327474296" lon="11.848479176714319"><ele>270.0</ele><time>2026-04-26T12:35:50.999Z</time></trkpt><trkpt lat="42.77438591060952" lon="11.848297335566063"><ele>270.0</ele><time>2026-04-26T12:35:51.999Z</time></trkpt><trkpt lat="42.77451360671031" lon="11.84811235781677"><ele>271.0</ele><time>2026-04-26T12:35:52.999Z</time></trkpt><trkpt lat="42.774745179692395" lon="11.847703518765464"><ele>272.0</ele><time>2026-04-26T12:35:54.999Z</time></trkpt><trkpt lat="42.77484513975849" lon="11.84746607331898"><ele>270.33333333333337</ele><time>2026-04-26T12:35:55.999Z</time></trkpt><trkpt lat="42.77493152287997" lon="11.847216150276271"><ele>268.6666666666667</ele><time>2026-04-26T12:35:56.999Z</time></trkpt><trkpt lat="42.77500724226423" lon="11.84694599000091"><ele>267.0</ele><time>2026-04-26T12:35:57.999Z</time></trkpt><trkpt lat="42.77507390945018" lon="11.84665463436055"><ele>266.0</ele><time>2026-04-26T12:35:58.999Z</time></trkpt><trkpt lat="42.775130519701165" lon="11.846360894831424"><ele>265.0</ele><time>2026-04-26T12:35:59.999Z</time></trkpt><trkpt lat="42.77518154182818" lon="11.84606008618264"><ele>265.5</ele><time>2026-04-26T12:36:00.999Z</time></trkpt><trkpt lat="42.77523774552725" lon="11.845751295966682"><ele>266.0</ele><time>2026-04-26T12:36:01.999Z</time></trkpt><trkpt lat="42.7753034095433" lon="11.84544391606326"><ele>266.0</ele><time>2026-04-26T12:36:02.999Z</time></trkpt><trkpt lat="42.775375656531494" lon="11.84516358888827"><ele>266.0</ele><time>2026-04-26T12:36:03.999Z</time></trkpt><trkpt lat="42.7754492388924" lon="11.844902738855426"><ele>266.0</ele><time>2026-04-26T12:36:05Z</time></trkpt><trkpt lat="42.7755329325263" lon="11.844658291629306"><ele>265.6666666666667</ele><time>2026-04-26T12:36:06Z</time></trkpt><trkpt lat="42.77562179614414" lon="11.844424655306506"><ele>265.3333333333333</ele><time>2026-04-26T12:36:07Z</time></trkpt><trkpt lat="42.77571258354942" lon="11.844197696891802"><ele>265.0</ele><time>2026-04-26T12:36:08Z</time></trkpt><trkpt lat="42.77581247435747" lon="11.843967453794724"><ele>264.5</ele><time>2026-04-26T12:36:09Z</time></trkpt><trkpt lat="42.77604157442602" lon="11.843522371241033"><ele>264.0</ele><time>2026-04-26T12:36:11Z</time></trkpt><trkpt lat="42.77615994865234" lon="11.843301470928512"><ele>264.0</ele><time>2026-04-26T12:36:12Z</time></trkpt><trkpt lat="42.77627353495872" lon="11.84307795452115"><ele>264.0</ele><time>2026-04-26T12:36:13Z</time></trkpt><trkpt lat="42.776387939581845" lon="11.842855204219592"><ele>264.0</ele><time>2026-04-26T12:36:14Z</time></trkpt><trkpt lat="42.77650061964985" lon="11.842641614262272"><ele>263.6666666666667</ele><time>2026-04-26T12:36:15Z</time></trkpt><trkpt lat="42.776611230335" lon="11.84243540879802"><ele>263.33333333333337</ele><time>2026-04-26T12:36:16Z</time></trkpt><trkpt lat="42.77671860447411" lon="11.842237749438631"><ele>263.0</ele><time>2026-04-26T12:36:17Z</time></trkpt><trkpt lat="42.77682326664736" lon="11.84204336365972"><ele>264.0</ele><time>2026-04-26T12:36:18Z</time></trkpt><trkpt lat="42.77692196896175" lon="11.841851272204535"><ele>265.0</ele><time>2026-04-26T12:36:19Z</time></trkpt><trkpt lat="42.7770214580019" lon="11.841657339509505"><ele>266.0</ele><time>2026-04-26T12:36:20Z</time></trkpt><trkpt lat="42.77711962208684" lon="11.84146614778159"><ele>266.0</ele><time>2026-04-26T12:36:21Z</time></trkpt><trkpt lat="42.77721638474953" lon="11.841274028766499"><ele>266.0</ele><time>2026-04-26T12:36:22Z</time></trkpt><trkpt lat="42.77731099754753" lon="11.841070299921324"><ele>266.0</ele><time>2026-04-26T12:36:23Z</time></trkpt><trkpt lat="42.77740748346926" lon="11.8408604816234"><ele>266.6666666666667</ele><time>2026-04-26T12:36:24Z</time></trkpt><trkpt lat="42.77751492022963" lon="11.840648553691704"><ele>267.3333333333333</ele><time>2026-04-26T12:36:25Z</time></trkpt><trkpt lat="42.777629638751165" lon="11.840439177062063"><ele>268.0</ele><time>2026-04-26T12:36:26Z</time></trkpt><trkpt lat="42.77774677832954" lon="11.840232195027918"><ele>266.3333333333333</ele><time>2026-04-26T12:36:27Z</time></trkpt><trkpt lat="42.77786133115583" lon="11.840017713499817"><ele>264.6666666666667</ele><time>2026-04-26T12:36:28Z</time></trkpt><trkpt lat="42.777975067829274" lon="11.839804671031954"><ele>263.0</ele><time>2026-04-26T12:36:29Z</time></trkpt><trkpt lat="42.77809330039735" lon="11.839593392363275"><ele>263.0</ele><time>2026-04-26T12:36:30Z</time></trkpt><trkpt lat="42.778210647878694" lon="11.8393871330609"><ele>263.0</ele><time>2026-04-26T12:36:31Z</time></trkpt><trkpt lat="42.7783288822776" lon="11.839181762296187"><ele>263.0</ele><time>2026-04-26T12:36:32Z</time></trkpt><trkpt lat="42.778446621378265" lon="11.838977737143232"><ele>263.33333333333337</ele><time>2026-04-26T12:36:33Z</time></trkpt><trkpt lat="42.77856196779054" lon="11.838778755534364"><ele>263.6666666666667</ele><time>2026-04-26T12:36:34Z</time></trkpt><trkpt lat="42.77868112096571" lon="11.838576021202739"><ele>264.0</ele><time>2026-04-26T12:36:35Z</time></trkpt><trkpt lat="42.778801382032064" lon="11.838373136329555"><ele>262.6666666666667</ele><time>2026-04-26T12:36:36Z</time></trkpt><trkpt lat="42.77891672532682" lon="11.838174148998037"><ele>261.33333333333337</ele><time>2026-04-26T12:36:37Z</time></trkpt><trkpt lat="42.7790311896446" lon="11.837969192733466"><ele>260.0</ele><time>2026-04-26T12:36:38Z</time></trkpt><trkpt lat="42.77915625407196" lon="11.837788850806973"><ele>260.0</ele><time>2026-04-26T12:36:39Z</time></trkpt><trkpt lat="42.779271095242166" lon="11.837592947482024"><ele>260.0</ele><time>2026-04-26T12:36:40Z</time></trkpt><trkpt lat="42.779373723791664" lon="11.837381491688644"><ele>260.0</ele><time>2026-04-26T12:36:41Z</time></trkpt><trkpt lat="42.779493745539924" lon="11.837188818680666"><ele>260.6666666666667</ele><time>2026-04-26T12:36:42Z</time></trkpt><trkpt lat="42.77961183500365" lon="11.836988722022443"><ele>261.3333333333333</ele><time>2026-04-26T12:36:43Z</time></trkpt><trkpt lat="42.77972578893108" lon="11.83679089759936"><ele>262.0</ele><time>2026-04-26T12:36:44Z</time></trkpt><trkpt lat="42.77983924613166" lon="11.836592708263584"><ele>262.0</ele><time>2026-04-26T12:36:45Z</time></trkpt><trkpt lat="42.77995192881465" lon="11.836396597422084"><ele>262.0</ele><time>2026-04-26T12:36:46Z</time></trkpt><trkpt lat="42.780066414563834" lon="11.836201457669677"><ele>262.0</ele><time>2026-04-26T12:36:47Z</time></trkpt><trkpt lat="42.780181252145255" lon="11.836010138180916"><ele>263.3333333333333</ele><time>2026-04-26T12:36:48Z</time></trkpt><trkpt lat="42.78029118176909" lon="11.83582292958004"><ele>264.6666666666667</ele><time>2026-04-26T12:36:48.999Z</time></trkpt><trkpt lat="42.78040150304642" lon="11.835634155511057"><ele>266.0</ele><time>2026-04-26T12:36:49.999Z</time></trkpt><trkpt lat="42.78051078027278" lon="11.835444229880453"><ele>266.0</ele><time>2026-04-26T12:36:50.999Z</time></trkpt><trkpt lat="42.78061947066408" lon="11.835250478183097"><ele>266.0</ele><time>2026-04-26T12:36:51.999Z</time></trkpt><trkpt lat="42.780726396506566" lon="11.835050449377109"><ele>266.0</ele><time>2026-04-26T12:36:52.999Z</time></trkpt><trkpt lat="42.780827144362824" lon="11.83484568107042"><ele>265.6666666666667</ele><time>2026-04-26T12:36:53.999Z</time></trkpt><trkpt lat="42.78092039010021" lon="11.834643494632552"><ele>265.3333333333333</ele><time>2026-04-26T12:36:54.999Z</time></trkpt><trkpt lat="42.78101530109867" lon="11.83443605377461"><ele>265.0</ele><time>2026-04-26T12:36:55.999Z</time></trkpt><trkpt lat="42.78110899993733" lon="11.834228625557557"><ele>265.0</ele><time>2026-04-26T12:36:56.999Z</time></trkpt><trkpt lat="42.78119435791547" lon="11.834035092543193"><ele>265.0</ele><time>2026-04-26T12:36:57.999Z</time></trkpt><trkpt lat="42.78127376070334" lon="11.833842954192558"><ele>265.0</ele><time>2026-04-26T12:36:58.999Z</time></trkpt><trkpt lat="42.7813441589566" lon="11.833664194943779"><ele>265.0</ele><time>2026-04-26T12:36:59.999Z</time></trkpt><trkpt lat="42.78141933012026" lon="11.83348938837109"><ele>265.0</ele><time>2026-04-26T12:37:00.999Z</time></trkpt><trkpt lat="42.78150210108989" lon="11.833336371748189"><ele>265.0</ele><time>2026-04-26T12:37:01.999Z</time></trkpt><trkpt lat="42.781588356466266" lon="11.833196164144107"><ele>265.0</ele><time>2026-04-26T12:37:02.999Z</time></trkpt><trkpt lat="42.78167997024346" lon="11.833064964100013"><ele>264.75</ele><time>2026-04-26T12:37:03.999Z</time></trkpt><trkpt lat="42.781782914320836" lon="11.832937519682051"><ele>264.5</ele><time>2026-04-26T12:37:04.999Z</time></trkpt><trkpt lat="42.78189261949471" lon="11.83282484805197"><ele>264.25</ele><time>2026-04-26T12:37:05.999Z</time></trkpt><trkpt lat="42.78199880896813" lon="11.83272937791027"><ele>264.0</ele><time>2026-04-26T12:37:06.999Z</time></trkpt><trkpt lat="42.782109891840214" lon="11.83267424303268"><ele>264.5</ele><time>2026-04-26T12:37:07.999Z</time></trkpt><trkpt lat="42.78230347346714" lon="11.832538677920502"><ele>265.0</ele><time>2026-04-26T12:37:09.999Z</time></trkpt><trkpt lat="42.78241182523465" lon="11.832506783510894"><ele>265.5</ele><time>2026-04-26T12:37:10.999Z</time></trkpt><trkpt lat="42.782518363723696" lon="11.83243415560242"><ele>266.0</ele><time>2026-04-26T12:37:11.999Z</time></trkpt><trkpt lat="42.78263913937459" lon="11.832387870274783"><ele>267.25</ele><time>2026-04-26T12:37:12.999Z</time></trkpt><trkpt lat="42.78276297229157" lon="11.832332971524913"><ele>268.5</ele><time>2026-04-26T12:37:13.999Z</time></trkpt><trkpt lat="42.78288929067169" lon="11.832269798131815"><ele>269.75</ele><time>2026-04-26T12:37:14.999Z</time></trkpt><trkpt lat="42.78301542214208" lon="11.83220642271766"><ele>271.0</ele><time>2026-04-26T12:37:15.999Z</time></trkpt><trkpt lat="42.78314618477037" lon="11.832142444101015"><ele>271.0</ele><time>2026-04-26T12:37:16.999Z</time></trkpt><trkpt lat="42.783283937929106" lon="11.832097012937092"><ele>271.0</ele><time>2026-04-26T12:37:17.999Z</time></trkpt><trkpt lat="42.78342140231982" lon="11.832025992565034"><ele>271.0</ele><time>2026-04-26T12:37:18.999Z</time></trkpt><trkpt lat="42.783555179902336" lon="11.831949834254942"><ele>271.0</ele><time>2026-04-26T12:37:19.999Z</time></trkpt><trkpt lat="42.78369104355823" lon="11.8318594876994"><ele>270.0</ele><time>2026-04-26T12:37:20.999Z</time></trkpt><trkpt lat="42.783821431635864" lon="11.831739092557331"><ele>269.0</ele><time>2026-04-26T12:37:21.999Z</time></trkpt><trkpt lat="42.78393401091686" lon="11.831588029043747"><ele>268.0</ele><time>2026-04-26T12:37:22.999Z</time></trkpt><trkpt lat="42.78405385821114" lon="11.831431393181562"><ele>268.0</ele><time>2026-04-26T12:37:23.999Z</time></trkpt><trkpt lat="42.784162994668456" lon="11.831265676176159"><ele>268.0</ele><time>2026-04-26T12:37:24.999Z</time></trkpt><trkpt lat="42.784284811692" lon="11.831104415298107"><ele>268.0</ele><time>2026-04-26T12:37:25.999Z</time></trkpt><trkpt lat="42.78439904246823" lon="11.830925503786396"><ele>268.66666666666663</ele><time>2026-04-26T12:37:26.999Z</time></trkpt><trkpt lat="42.784505354650726" lon="11.83072517085526"><ele>269.3333333333333</ele><time>2026-04-26T12:37:27.999Z</time></trkpt><trkpt lat="42.78462726447064" lon="11.830536576471784"><ele>270.0</ele><time>2026-04-26T12:37:28.999Z</time></trkpt><trkpt lat="42.78475026408387" lon="11.830345470825545"><ele>270.0</ele><time>2026-04-26T12:37:29.999Z</time></trkpt><trkpt lat="42.784869963813705" lon="11.830153261576436"><ele>270.0</ele><time>2026-04-26T12:37:30.999Z</time></trkpt><trkpt lat="42.784992508154005" lon="11.829956915120789"><ele>270.0</ele><time>2026-04-26T12:37:31.999Z</time></trkpt><trkpt lat="42.78512089160306" lon="11.8297561896939"><ele>269.6666666666667</ele><time>2026-04-26T12:37:32.999Z</time></trkpt><trkpt lat="42.78525344830087" lon="11.829551780487579"><ele>269.33333333333337</ele><time>2026-04-26T12:37:33.999Z</time></trkpt><trkpt lat="42.78538492359459" lon="11.829344705080398"><ele>269.0</ele><time>2026-04-26T12:37:34.999Z</time></trkpt><trkpt lat="42.78551548416428" lon="11.829138126738243"><ele>268.0</ele><time>2026-04-26T12:37:35.999Z</time></trkpt><trkpt lat="42.78564126584596" lon="11.828937573432473"><ele>267.0</ele><time>2026-04-26T12:37:36.999Z</time></trkpt><trkpt lat="42.785782662863305" lon="11.828747322133891"><ele>266.0</ele><time>2026-04-26T12:37:37.999Z</time></trkpt><trkpt lat="42.785914379511965" lon="11.828540015989125"><ele>268.6666666666667</ele><time>2026-04-26T12:37:38.999Z</time></trkpt><trkpt lat="42.78603788610164" lon="11.828331303610629"><ele>271.3333333333333</ele><time>2026-04-26T12:37:39.999Z</time></trkpt><trkpt lat="42.78614151600139" lon="11.828112877605305"><ele>274.0</ele><time>2026-04-26T12:37:40.999Z</time></trkpt><trkpt lat="42.78625618105754" lon="11.827909274754461"><ele>274.0</ele><time>2026-04-26T12:37:41.999Z</time></trkpt><trkpt lat="42.78636873630562" lon="11.827719503582507"><ele>274.0</ele><time>2026-04-26T12:37:42.999Z</time></trkpt><trkpt lat="42.78647116431833" lon="11.827524128527447"><ele>274.0</ele><time>2026-04-26T12:37:43.999Z</time></trkpt><trkpt lat="42.7865677129001" lon="11.827337199089621"><ele>272.3333333333333</ele><time>2026-04-26T12:37:44.999Z</time></trkpt><trkpt lat="42.7866627778166" lon="11.82716009242702"><ele>270.6666666666667</ele><time>2026-04-26T12:37:45.999Z</time></trkpt><trkpt lat="42.78675758006995" lon="11.826978550183478"><ele>269.0</ele><time>2026-04-26T12:37:46.999Z</time></trkpt><trkpt lat="42.7868399251991" lon="11.826812902731591"><ele>270.75</ele><time>2026-04-26T12:37:47.999Z</time></trkpt><trkpt lat="42.786920215390964" lon="11.826660843793531"><ele>272.5</ele><time>2026-04-26T12:37:48.999Z</time></trkpt><trkpt lat="42.78700151641035" lon="11.826510691922605"><ele>274.25</ele><time>2026-04-26T12:37:49.999Z</time></trkpt><trkpt lat="42.787080355597" lon="11.82635841395644"><ele>276.0</ele><time>2026-04-26T12:37:50.999Z</time></trkpt><trkpt lat="42.787183755186334" lon="11.826216792659933"><ele>276.0</ele><time>2026-04-26T12:37:51.999Z</time></trkpt><trkpt lat="42.78727302192898" lon="11.826075046418685"><ele>276.0</ele><time>2026-04-26T12:37:52.999Z</time></trkpt><trkpt lat="42.78734607079328" lon="11.825935039024694"><ele>276.0</ele><time>2026-04-26T12:37:53.999Z</time></trkpt><trkpt lat="42.78742950569979" lon="11.825816608515229"><ele>276.0</ele><time>2026-04-26T12:37:54.999Z</time></trkpt><trkpt lat="42.78750827198118" lon="11.825696164724725"><ele>275.75</ele><time>2026-04-26T12:37:55.999Z</time></trkpt><trkpt lat="42.78758547841361" lon="11.825583319849994"><ele>275.5</ele><time>2026-04-26T12:37:56.999Z</time></trkpt><trkpt lat="42.78767048784496" lon="11.825471979456443"><ele>275.25</ele><time>2026-04-26T12:37:57.999Z</time></trkpt><trkpt lat="42.78776307137756" lon="11.825361385934386"><ele>275.0</ele><time>2026-04-26T12:37:58.999Z</time></trkpt><trkpt lat="42.78785751770675" lon="11.825245521873022"><ele>274.5</ele><time>2026-04-26T12:37:59.999Z</time></trkpt><trkpt lat="42.78795375730469" lon="11.825121942319326"><ele>274.0</ele><time>2026-04-26T12:38:00.999Z</time></trkpt><trkpt lat="42.78804935985767" lon="11.824998096264087"><ele>273.5</ele><time>2026-04-26T12:38:01.999Z</time></trkpt><trkpt lat="42.788151404958576" lon="11.824862738105901"><ele>273.0</ele><time>2026-04-26T12:38:02.999Z</time></trkpt><trkpt lat="42.788254642225816" lon="11.824726780452973"><ele>273.0</ele><time>2026-04-26T12:38:03.999Z</time></trkpt><trkpt lat="42.78836952580131" lon="11.82458676322224"><ele>273.0</ele><time>2026-04-26T12:38:04.999Z</time></trkpt><trkpt lat="42.788483279745684" lon="11.824445860484254"><ele>273.0</ele><time>2026-04-26T12:38:05.999Z</time></trkpt><trkpt lat="42.788602052096124" lon="11.824294543877372"><ele>272.6666666666667</ele><time>2026-04-26T12:38:06.999Z</time></trkpt><trkpt lat="42.78872098072855" lon="11.824141186666623"><ele>272.33333333333337</ele><time>2026-04-26T12:38:07.999Z</time></trkpt><trkpt lat="42.788845787963645" lon="11.82397910249202"><ele>272.0</ele><time>2026-04-26T12:38:08.999Z</time></trkpt><trkpt lat="42.78897568589805" lon="11.823808785780399"><ele>272.0</ele><time>2026-04-26T12:38:09.998Z</time></trkpt><trkpt lat="42.789104890791776" lon="11.823638062415984"><ele>272.0</ele><time>2026-04-26T12:38:11Z</time></trkpt><trkpt lat="42.789242972242974" lon="11.823461431741144"><ele>272.0</ele><time>2026-04-26T12:38:12Z</time></trkpt><trkpt lat="42.78938229973573" lon="11.823285445137634"><ele>273.6666666666667</ele><time>2026-04-26T12:38:13Z</time></trkpt><trkpt lat="42.78952545396295" lon="11.823113503107436"><ele>275.3333333333333</ele><time>2026-04-26T12:38:14Z</time></trkpt><trkpt lat="42.789666807165815" lon="11.822939279752006"><ele>277.0</ele><time>2026-04-26T12:38:15Z</time></trkpt><trkpt lat="42.78980650982057" lon="11.822753368435801"><ele>276.0</ele><time>2026-04-26T12:38:16Z</time></trkpt><trkpt lat="42.78994504501602" lon="11.822564181418963"><ele>275.0</ele><time>2026-04-26T12:38:17Z</time></trkpt><trkpt lat="42.79008403466209" lon="11.822371034319733"><ele>274.0</ele><time>2026-04-26T12:38:18Z</time></trkpt><trkpt lat="42.790220060778566" lon="11.822178436269152"><ele>274.0</ele><time>2026-04-26T12:38:19Z</time></trkpt><trkpt lat="42.79035157994395" lon="11.82198914585625"><ele>274.0</ele><time>2026-04-26T12:38:20Z</time></trkpt><trkpt lat="42.79047828787791" lon="11.82180440045533"><ele>274.0</ele><time>2026-04-26T12:38:21Z</time></trkpt><trkpt lat="42.79060024489585" lon="11.821622168454674"><ele>273.3333333333333</ele><time>2026-04-26T12:38:22Z</time></trkpt><trkpt lat="42.790725311709885" lon="11.821468119560441"><ele>272.6666666666667</ele><time>2026-04-26T12:38:23Z</time></trkpt><trkpt lat="42.7908416076653" lon="11.821300886367977"><ele>272.0</ele><time>2026-04-26T12:38:24Z</time></trkpt><trkpt lat="42.79096084727563" lon="11.821141195910833"><ele>274.0</ele><time>2026-04-26T12:38:25Z</time></trkpt><trkpt lat="42.791075695361116" lon="11.820967162511048"><ele>276.0</ele><time>2026-04-26T12:38:26Z</time></trkpt><trkpt lat="42.7912040584962" lon="11.82081823197229"><ele>278.0</ele><time>2026-04-26T12:38:27Z</time></trkpt><trkpt lat="42.791347689843185" lon="11.820692031636979"><ele>278.0</ele><time>2026-04-26T12:38:28Z</time></trkpt><trkpt lat="42.79148882071034" lon="11.820546853343396"><ele>278.0</ele><time>2026-04-26T12:38:29Z</time></trkpt><trkpt lat="42.79163042484775" lon="11.820401188362336"><ele>278.0</ele><time>2026-04-26T12:38:30Z</time></trkpt><trkpt lat="42.79177462166514" lon="11.820253815964316"><ele>279.6666666666667</ele><time>2026-04-26T12:38:31Z</time></trkpt><trkpt lat="42.7919222546835" lon="11.82010296494864"><ele>281.3333333333333</ele><time>2026-04-26T12:38:32Z</time></trkpt><trkpt lat="42.79206941637228" lon="11.819952595480643"><ele>283.0</ele><time>2026-04-26T12:38:33Z</time></trkpt><trkpt lat="42.79222207779303" lon="11.819796607745387"><ele>283.0</ele><time>2026-04-26T12:38:34Z</time></trkpt><trkpt lat="42.792371218801435" lon="11.819644215962091"><ele>283.0</ele><time>2026-04-26T12:38:35Z</time></trkpt><trkpt lat="42.79252257353204" lon="11.819489562037583"><ele>283.0</ele><time>2026-04-26T12:38:36Z</time></trkpt><trkpt lat="42.79267514858459" lon="11.819333661319385"><ele>284.3333333333333</ele><time>2026-04-26T12:38:37Z</time></trkpt><trkpt lat="42.79282213873764" lon="11.819183467090914"><ele>285.6666666666667</ele><time>2026-04-26T12:38:38Z</time></trkpt><trkpt lat="42.79296547880114" lon="11.81903700261322"><ele>287.0</ele><time>2026-04-26T12:38:39Z</time></trkpt><trkpt lat="42.793104970770436" lon="11.81889266391094"><ele>287.0</ele><time>2026-04-26T12:38:40Z</time></trkpt><trkpt lat="42.793236147517725" lon="11.818747821684779"><ele>287.0</ele><time>2026-04-26T12:38:41Z</time></trkpt><trkpt lat="42.79334574570758" lon="11.818587846278126"><ele>287.0</ele><time>2026-04-26T12:38:42Z</time></trkpt><trkpt lat="42.793467345412324" lon="11.818434555409056"><ele>288.0</ele><time>2026-04-26T12:38:43Z</time></trkpt><trkpt lat="42.79358661156795" lon="11.81826187281026"><ele>289.0</ele><time>2026-04-26T12:38:44Z</time></trkpt><trkpt lat="42.7937069490763" lon="11.81808009092821"><ele>290.0</ele><time>2026-04-26T12:38:45Z</time></trkpt><trkpt lat="42.79382349010562" lon="11.817892969214958"><ele>286.5</ele><time>2026-04-26T12:38:46Z</time></trkpt><trkpt lat="42.7940428809406" lon="11.81754803977127"><ele>283.0</ele><time>2026-04-26T12:38:48Z</time></trkpt><trkpt lat="42.7941472528401" lon="11.817387503291712"><ele>283.0</ele><time>2026-04-26T12:38:49Z</time></trkpt><trkpt lat="42.794245540385326" lon="11.817232540423156"><ele>283.0</ele><time>2026-04-26T12:38:50Z</time></trkpt><trkpt lat="42.79434673763275" lon="11.817073534079288"><ele>283.0</ele><time>2026-04-26T12:38:51Z</time></trkpt><trkpt lat="42.794443036743495" lon="11.816917542683536"><ele>283.3333333333333</ele><time>2026-04-26T12:38:52Z</time></trkpt><trkpt lat="42.794542045717655" lon="11.816761941250709"><ele>283.6666666666667</ele><time>2026-04-26T12:38:53Z</time></trkpt><trkpt lat="42.794644226663635" lon="11.816610714331455"><ele>284.0</ele><time>2026-04-26T12:38:53.999Z</time></trkpt><trkpt lat="42.79475149413014" lon="11.816458726066955"><ele>284.0</ele><time>2026-04-26T12:38:54.999Z</time></trkpt><trkpt lat="42.79485339399509" lon="11.816311719624592"><ele>284.0</ele><time>2026-04-26T12:38:55.999Z</time></trkpt><trkpt lat="42.79497169373512" lon="11.816191736617707"><ele>284.0</ele><time>2026-04-26T12:38:56.999Z</time></trkpt><trkpt lat="42.795078281420814" lon="11.816061155108546"><ele>284.0</ele><time>2026-04-26T12:38:57.999Z</time></trkpt><trkpt lat="42.79518268706719" lon="11.815936999152223"><ele>284.5</ele><time>2026-04-26T12:38:58.999Z</time></trkpt><trkpt lat="42.795289664441995" lon="11.815809784957477"><ele>285.0</ele><time>2026-04-26T12:38:59.999Z</time></trkpt><trkpt lat="42.79540403909207" lon="11.81567990457514"><ele>285.5</ele><time>2026-04-26T12:39:00.999Z</time></trkpt><trkpt lat="42.79551312870234" lon="11.815524398039354"><ele>286.0</ele><time>2026-04-26T12:39:01.999Z</time></trkpt><trkpt lat="42.79564713033542" lon="11.81539104655851"><ele>286.0</ele><time>2026-04-26T12:39:02.999Z</time></trkpt><trkpt lat="42.795782613953946" lon="11.815264879534958"><ele>286.0</ele><time>2026-04-26T12:39:03.999Z</time></trkpt><trkpt lat="42.795923661843524" lon="11.815138197966508"><ele>286.0</ele><time>2026-04-26T12:39:04.999Z</time></trkpt><trkpt lat="42.79606971452828" lon="11.81503688435191"><ele>286.3333333333333</ele><time>2026-04-26T12:39:05.999Z</time></trkpt><trkpt lat="42.79620233685974" lon="11.814921997708174"><ele>286.6666666666667</ele><time>2026-04-26T12:39:06.999Z</time></trkpt><trkpt lat="42.796337103657955" lon="11.814806073291061"><ele>287.0</ele><time>2026-04-26T12:39:07.999Z</time></trkpt><trkpt lat="42.7966265308666" lon="11.814557112466856"><ele>287.0</ele><time>2026-04-26T12:39:09.999Z</time></trkpt><trkpt lat="42.79677102425574" lon="11.81443282135434"><ele>287.0</ele><time>2026-04-26T12:39:10.999Z</time></trkpt><trkpt lat="42.79691592219388" lon="11.814283137646392"><ele>287.0</ele><time>2026-04-26T12:39:11.999Z</time></trkpt><trkpt lat="42.79706631752861" lon="11.814154079917497"><ele>287.0</ele><time>2026-04-26T12:39:12.999Z</time></trkpt><trkpt lat="42.79722291912454" lon="11.814019854112402"><ele>287.0</ele><time>2026-04-26T12:39:13.999Z</time></trkpt><trkpt lat="42.79737797714159" lon="11.81388518182706"><ele>287.0</ele><time>2026-04-26T12:39:14.999Z</time></trkpt><trkpt lat="42.79754259703976" lon="11.813768266799388"><ele>287.0</ele><time>2026-04-26T12:39:15.999Z</time></trkpt><trkpt lat="42.79769755855687" lon="11.813635283014873"><ele>287.0</ele><time>2026-04-26T12:39:16.999Z</time></trkpt><trkpt lat="42.79784975703043" lon="11.813505168296556"><ele>287.0</ele><time>2026-04-26T12:39:17.999Z</time></trkpt><trkpt lat="42.79799953663985" lon="11.81337800002624"><ele>287.0</ele><time>2026-04-26T12:39:18.999Z</time></trkpt><trkpt lat="42.798148241978694" lon="11.813252601797362"><ele>287.0</ele><time>2026-04-26T12:39:19.999Z</time></trkpt><trkpt lat="42.798294750461565" lon="11.81312905615948"><ele>287.0</ele><time>2026-04-26T12:39:20.999Z</time></trkpt><trkpt lat="42.798429660333404" lon="11.812993209799982"><ele>287.6666666666667</ele><time>2026-04-26T12:39:21.999Z</time></trkpt><trkpt lat="42.798563607408205" lon="11.812878674942011"><ele>288.3333333333333</ele><time>2026-04-26T12:39:22.999Z</time></trkpt><trkpt lat="42.79869294740809" lon="11.812761324692907"><ele>289.0</ele><time>2026-04-26T12:39:23.999Z</time></trkpt><trkpt lat="42.79881698057345" lon="11.812647715989486"><ele>289.0</ele><time>2026-04-26T12:39:24.999Z</time></trkpt><trkpt lat="42.79893650638054" lon="11.812545883398796"><ele>289.0</ele><time>2026-04-26T12:39:25.999Z</time></trkpt><trkpt lat="42.799049234826114" lon="11.812439613898011"><ele>289.0</ele><time>2026-04-26T12:39:26.999Z</time></trkpt><trkpt lat="42.79917319853858" lon="11.812343659326674"><ele>289.0</ele><time>2026-04-26T12:39:27.999Z</time></trkpt><trkpt lat="42.79925830902736" lon="11.812190218890517"><ele>290.0</ele><time>2026-04-26T12:39:28.999Z</time></trkpt><trkpt lat="42.79934462222797" lon="11.812020416064898"><ele>291.0</ele><time>2026-04-26T12:39:29.999Z</time></trkpt><trkpt lat="42.79941989797103" lon="11.811836583290578"><ele>292.0</ele><time>2026-04-26T12:39:30.999Z</time></trkpt><trkpt lat="42.79949029249748" lon="11.81162479421913"><ele>286.66666666666663</ele><time>2026-04-26T12:39:31.999Z</time></trkpt><trkpt lat="42.799552682704046" lon="11.811419868188317"><ele>281.3333333333333</ele><time>2026-04-26T12:39:32.999Z</time></trkpt><trkpt lat="42.799621506571974" lon="11.811206955904671"><ele>276.0</ele><time>2026-04-26T12:39:33.999Z</time></trkpt><trkpt lat="42.79969830549362" lon="11.81099681990883"><ele>276.0</ele><time>2026-04-26T12:39:34.999Z</time></trkpt><trkpt lat="42.799772063716794" lon="11.810785769281129"><ele>276.0</ele><time>2026-04-26T12:39:35.999Z</time></trkpt><trkpt lat="42.79984081358404" lon="11.810571441250552"><ele>276.0</ele><time>2026-04-26T12:39:36.999Z</time></trkpt><trkpt lat="42.79991230137378" lon="11.810351347195455"><ele>276.0</ele><time>2026-04-26T12:39:37.999Z</time></trkpt><trkpt lat="42.799985989691486" lon="11.810129523314659"><ele>276.0</ele><time>2026-04-26T12:39:38.999Z</time></trkpt><trkpt lat="42.80005810313816" lon="11.809918248698427"><ele>276.0</ele><time>2026-04-26T12:39:39.999Z</time></trkpt><trkpt lat="42.800126197427005" lon="11.809708393017527"><ele>275.6666666666667</ele><time>2026-04-26T12:39:40.999Z</time></trkpt><trkpt lat="42.80019819229902" lon="11.809501487545624"><ele>275.33333333333337</ele><time>2026-04-26T12:39:41.999Z</time></trkpt><trkpt lat="42.80026777787302" lon="11.809298039569441"><ele>275.0</ele><time>2026-04-26T12:39:42.999Z</time></trkpt><trkpt lat="42.80033691119949" lon="11.809092990333333"><ele>275.0</ele><time>2026-04-26T12:39:43.999Z</time></trkpt><trkpt lat="42.80040295088587" lon="11.80888799818068"><ele>275.0</ele><time>2026-04-26T12:39:44.999Z</time></trkpt><trkpt lat="42.800466824023474" lon="11.808686297416488"><ele>275.0</ele><time>2026-04-26T12:39:45.999Z</time></trkpt><trkpt lat="42.80053501823534" lon="11.808491173114756"><ele>275.0</ele><time>2026-04-26T12:39:46.999Z</time></trkpt><trkpt lat="42.8006055620221" lon="11.808299527524424"><ele>275.0</ele><time>2026-04-26T12:39:47.999Z</time></trkpt><trkpt lat="42.80067951341865" lon="11.80810246419677"><ele>275.0</ele><time>2026-04-26T12:39:48.999Z</time></trkpt><trkpt lat="42.800757468077364" lon="11.807912542399134"><ele>275.0</ele><time>2026-04-26T12:39:49.999Z</time></trkpt><trkpt lat="42.8008484808526" lon="11.80772443041033"><ele>275.0</ele><time>2026-04-26T12:39:50.999Z</time></trkpt><trkpt lat="42.8009522426037" lon="11.807545406867611"><ele>275.0</ele><time>2026-04-26T12:39:51.999Z</time></trkpt><trkpt lat="42.801077852892696" lon="11.807388315062655"><ele>278.0</ele><time>2026-04-26T12:39:52.999Z</time></trkpt><trkpt lat="42.80119536616029" lon="11.807231898461907"><ele>281.0</ele><time>2026-04-26T12:39:53.999Z</time></trkpt><trkpt lat="42.80132544011036" lon="11.807085958992598"><ele>284.0</ele><time>2026-04-26T12:39:54.999Z</time></trkpt><trkpt lat="42.80145189745693" lon="11.806965763356342"><ele>284.0</ele><time>2026-04-26T12:39:55.999Z</time></trkpt><trkpt lat="42.801566463704965" lon="11.80683907827495"><ele>284.0</ele><time>2026-04-26T12:39:56.999Z</time></trkpt><trkpt lat="42.801686904815845" lon="11.806754645476811"><ele>284.0</ele><time>2026-04-26T12:39:57.999Z</time></trkpt><trkpt lat="42.801787402100274" lon="11.806685141266033"><ele>284.0</ele><time>2026-04-26T12:39:58.999Z</time></trkpt><trkpt lat="42.801874281447645" lon="11.806629523830717"><ele>285.0</ele><time>2026-04-26T12:39:59.999Z</time></trkpt><trkpt lat="42.80194862169034" lon="11.806585198988756"><ele>286.0</ele><time>2026-04-26T12:40:00.999Z</time></trkpt><trkpt lat="42.802050224598624" lon="11.806541262428132"><ele>287.0</ele><time>2026-04-26T12:40:02.999Z</time></trkpt><trkpt lat="42.802107815237534" lon="11.806658256101665"><ele>288.0</ele><time>2026-04-26T12:40:04.999Z</time></trkpt><trkpt lat="42.80220648090367" lon="11.806680541274579"><ele>289.0</ele><time>2026-04-26T12:40:06.999Z</time></trkpt><trkpt lat="42.80227183601771" lon="11.806731510573432"><ele>289.0</ele><time>2026-04-26T12:40:07.999Z</time></trkpt><trkpt lat="42.80235870632454" lon="11.806786900796677"><ele>289.0</ele><time>2026-04-26T12:40:08.999Z</time></trkpt><trkpt lat="42.80244128641102" lon="11.806871165228097"><ele>289.0</ele><time>2026-04-26T12:40:09.999Z</time></trkpt><trkpt lat="42.80253866600713" lon="11.806958613806648"><ele>289.0</ele><time>2026-04-26T12:40:10.999Z</time></trkpt><trkpt lat="42.802629370552665" lon="11.807033833475495"><ele>289.0</ele><time>2026-04-26T12:40:11.998Z</time></trkpt><trkpt lat="42.80271494737933" lon="11.807077859338733"><ele>289.4</ele><time>2026-04-26T12:40:12.998Z</time></trkpt><trkpt lat="42.80279452986192" lon="11.807131467692754"><ele>289.79999999999995</ele><time>2026-04-26T12:40:13.998Z</time></trkpt><trkpt lat="42.802870074659324" lon="11.807185833367145"><ele>290.20000000000005</ele><time>2026-04-26T12:40:14.998Z</time></trkpt><trkpt lat="42.80296970533078" lon="11.807171279891534"><ele>290.6</ele><time>2026-04-26T12:40:16Z</time></trkpt><trkpt lat="42.803051524280356" lon="11.807053215676707"><ele>291.0</ele><time>2026-04-26T12:40:17Z</time></trkpt><trkpt lat="42.80310608123124" lon="11.806949335695247"><ele>292.2</ele><time>2026-04-26T12:40:18Z</time></trkpt><trkpt lat="42.80312493387949" lon="11.806824473190312"><ele>293.40000000000003</ele><time>2026-04-26T12:40:19Z</time></trkpt><trkpt lat="42.80313090151178" lon="11.806691462350784"><ele>294.6</ele><time>2026-04-26T12:40:20Z</time></trkpt><trkpt lat="42.80312038120366" lon="11.806559277607672"><ele>295.8</ele><time>2026-04-26T12:40:21Z</time></trkpt><trkpt lat="42.80310876813451" lon="11.806426262204724"><ele>297.0</ele><time>2026-04-26T12:40:22Z</time></trkpt><trkpt lat="42.80313337744694" lon="11.80631345367199"><ele>297.0</ele><time>2026-04-26T12:40:23Z</time></trkpt><trkpt lat="42.80316162703356" lon="11.806216381223225"><ele>297.0</ele><time>2026-04-26T12:40:24Z</time></trkpt><trkpt lat="42.80322077226701" lon="11.806131347593748"><ele>297.0</ele><time>2026-04-26T12:40:25Z</time></trkpt><trkpt lat="42.803287124035194" lon="11.80608001903663"><ele>297.0</ele><time>2026-04-26T12:40:26Z</time></trkpt><trkpt lat="42.80333822875083" lon="11.806000084158725"><ele>297.0</ele><time>2026-04-26T12:40:27Z</time></trkpt><trkpt lat="42.80341085930662" lon="11.806011893099477"><ele>297.0</ele><time>2026-04-26T12:40:28Z</time></trkpt><trkpt lat="42.80348512586771" lon="11.80604949178011"><ele>298.8</ele><time>2026-04-26T12:40:29Z</time></trkpt><trkpt lat="42.80355925094187" lon="11.806096134930652"><ele>300.6</ele><time>2026-04-26T12:40:30Z</time></trkpt><trkpt lat="42.80361215930878" lon="11.806199111040916"><ele>302.40000000000003</ele><time>2026-04-26T12:40:31Z</time></trkpt><trkpt lat="42.80368261272324" lon="11.806279975426394"><ele>304.2</ele><time>2026-04-26T12:40:32Z</time></trkpt><trkpt lat="42.80376140247711" lon="11.806359994860344"><ele>306.0</ele><time>2026-04-26T12:40:33Z</time></trkpt><trkpt lat="42.80385136680358" lon="11.80643405963979"><ele>306.0</ele><time>2026-04-26T12:40:34Z</time></trkpt><trkpt lat="42.803957331158266" lon="11.806481935797379"><ele>306.0</ele><time>2026-04-26T12:40:35Z</time></trkpt><trkpt lat="42.804062218020945" lon="11.806473623870032"><ele>306.0</ele><time>2026-04-26T12:40:36Z</time></trkpt><trkpt lat="42.80416512455056" lon="11.80648901528774"><ele>306.0</ele><time>2026-04-26T12:40:37Z</time></trkpt><trkpt lat="42.804254530768794" lon="11.806462454014973"><ele>306.0</ele><time>2026-04-26T12:40:38Z</time></trkpt><trkpt lat="42.804335379285135" lon="11.806412894765714"><ele>305.8333333333333</ele><time>2026-04-26T12:40:39Z</time></trkpt><trkpt lat="42.80441536345895" lon="11.80635276986706"><ele>305.6666666666667</ele><time>2026-04-26T12:40:40Z</time></trkpt><trkpt lat="42.804471402921614" lon="11.80628603815935"><ele>305.5</ele><time>2026-04-26T12:40:41Z</time></trkpt><trkpt lat="42.80454027662908" lon="11.806235773098527"><ele>305.33333333333337</ele><time>2026-04-26T12:40:42Z</time></trkpt><trkpt lat="42.8046165241727" lon="11.806177681565527"><ele>305.1666666666667</ele><time>2026-04-26T12:40:43Z</time></trkpt><trkpt lat="42.804702175628165" lon="11.8061276567194"><ele>305.0</ele><time>2026-04-26T12:40:44Z</time></trkpt><trkpt lat="42.80478015373215" lon="11.806066859903975"><ele>305.0</ele><time>2026-04-26T12:40:45Z</time></trkpt><trkpt lat="42.80486007572663" lon="11.806007308898794"><ele>305.0</ele><time>2026-04-26T12:40:46Z</time></trkpt><trkpt lat="42.80493955007175" lon="11.805953129501633"><ele>305.0</ele><time>2026-04-26T12:40:47Z</time></trkpt><trkpt lat="42.80502274218258" lon="11.805899618797087"><ele>305.0</ele><time>2026-04-26T12:40:48Z</time></trkpt><trkpt lat="42.805107978763324" lon="11.805847634628822"><ele>305.0</ele><time>2026-04-26T12:40:49Z</time></trkpt><trkpt lat="42.80519327012293" lon="11.80579811587926"><ele>304.8</ele><time>2026-04-26T12:40:50Z</time></trkpt><trkpt lat="42.805281967444756" lon="11.805746619665943"><ele>304.6</ele><time>2026-04-26T12:40:51Z</time></trkpt><trkpt lat="42.80536642290894" lon="11.805697586217503"><ele>304.4</ele><time>2026-04-26T12:40:51.999Z</time></trkpt><trkpt lat="42.805452921034025" lon="11.805647366865024"><ele>304.2</ele><time>2026-04-26T12:40:52.999Z</time></trkpt><trkpt lat="42.80553844384684" lon="11.805598693353264"><ele>304.0</ele><time>2026-04-26T12:40:53.999Z</time></trkpt><trkpt lat="42.80562806640822" lon="11.805548843191888"><ele>304.0</ele><time>2026-04-26T12:40:54.999Z</time></trkpt><trkpt lat="42.80571326495906" lon="11.805501453689867"><ele>304.0</ele><time>2026-04-26T12:40:55.999Z</time></trkpt><trkpt lat="42.80580160374218" lon="11.805452317606054"><ele>304.0</ele><time>2026-04-26T12:40:56.999Z</time></trkpt><trkpt lat="42.80589035753711" lon="11.805400971128895"><ele>304.0</ele><time>2026-04-26T12:40:57.999Z</time></trkpt><trkpt lat="42.80597608275792" lon="11.805349250018153"><ele>304.0</ele><time>2026-04-26T12:40:58.999Z</time></trkpt><trkpt lat="42.806060131755075" lon="11.805296225014207"><ele>304.4</ele><time>2026-04-26T12:40:59.999Z</time></trkpt><trkpt lat="42.806143736578946" lon="11.805236453341816"><ele>304.79999999999995</ele><time>2026-04-26T12:41:00.999Z</time></trkpt><trkpt lat="42.80623419713573" lon="11.805169236997854"><ele>305.20000000000005</ele><time>2026-04-26T12:41:01.999Z</time></trkpt><trkpt lat="42.80632612515104" lon="11.80509811545211"><ele>305.6</ele><time>2026-04-26T12:41:02.999Z</time></trkpt><trkpt lat="42.80641435318763" lon="11.805024801345889"><ele>306.0</ele><time>2026-04-26T12:41:03.999Z</time></trkpt><trkpt lat="42.80650467324694" lon="11.804949545067055"><ele>306.6</ele><time>2026-04-26T12:41:04.999Z</time></trkpt><trkpt lat="42.80659264318861" lon="11.804872999068612"><ele>307.20000000000005</ele><time>2026-04-26T12:41:05.999Z</time></trkpt><trkpt lat="42.806681894494965" lon="11.804790891258907"><ele>307.79999999999995</ele><time>2026-04-26T12:41:06.999Z</time></trkpt><trkpt lat="42.8067670616072" lon="11.804710420641328"><ele>308.4</ele><time>2026-04-26T12:41:07.999Z</time></trkpt><trkpt lat="42.80685630925992" lon="11.804626094521845"><ele>309.0</ele><time>2026-04-26T12:41:08.999Z</time></trkpt><trkpt lat="42.80694052901067" lon="11.804546518984537"><ele>309.0</ele><time>2026-04-26T12:41:09.999Z</time></trkpt><trkpt lat="42.807024497850676" lon="11.804467180604094"><ele>309.0</ele><time>2026-04-26T12:41:10.999Z</time></trkpt><trkpt lat="42.80710721478179" lon="11.804387581120181"><ele>309.0</ele><time>2026-04-26T12:41:11.999Z</time></trkpt><trkpt lat="42.80718767993989" lon="11.804311981775278"><ele>309.0</ele><time>2026-04-26T12:41:12.999Z</time></trkpt><trkpt lat="42.807265723607124" lon="11.804242273576868"><ele>309.0</ele><time>2026-04-26T12:41:13.999Z</time></trkpt><trkpt lat="42.80733790566807" lon="11.804183997771936"><ele>307.6666666666667</ele><time>2026-04-26T12:41:14.999Z</time></trkpt><trkpt lat="42.80741061179425" lon="11.804137746853828"><ele>306.3333333333333</ele><time>2026-04-26T12:41:15.999Z</time></trkpt><trkpt lat="42.807484582835365" lon="11.804102188667914"><ele>305.0</ele><time>2026-04-26T12:41:16.999Z</time></trkpt><trkpt lat="42.80756161041173" lon="11.804078397342273"><ele>303.66666666666663</ele><time>2026-04-26T12:41:17.999Z</time></trkpt><trkpt lat="42.807639574931045" lon="11.804064357218815"><ele>302.3333333333333</ele><time>2026-04-26T12:41:18.999Z</time></trkpt><trkpt lat="42.807730102272465" lon="11.80405761612681"><ele>301.0</ele><time>2026-04-26T12:41:19.999Z</time></trkpt><trkpt lat="42.80781188282213" lon="11.804067249719072"><ele>300.8333333333333</ele><time>2026-04-26T12:41:20.999Z</time></trkpt><trkpt lat="42.80790093146223" lon="11.804092534071795"><ele>300.66666666666663</ele><time>2026-04-26T12:41:21.999Z</time></trkpt><trkpt lat="42.80798276138231" lon="11.804108778591775"><ele>300.5</ele><time>2026-04-26T12:41:22.999Z</time></trkpt><trkpt lat="42.80806287771155" lon="11.804097592066439"><ele>300.3333333333333</ele><time>2026-04-26T12:41:23.999Z</time></trkpt><trkpt lat="42.80812904868569" lon="11.804069221856064"><ele>300.1666666666667</ele><time>2026-04-26T12:41:24.999Z</time></trkpt><trkpt lat="42.80820486752064" lon="11.804012204929494"><ele>300.0</ele><time>2026-04-26T12:41:25.999Z</time></trkpt><trkpt lat="42.8082725148624" lon="11.803916533376315"><ele>300.0</ele><time>2026-04-26T12:41:26.999Z</time></trkpt><trkpt lat="42.80832603305618" lon="11.803775142997871"><ele>300.0</ele><time>2026-04-26T12:41:27.999Z</time></trkpt><trkpt lat="42.80837232547285" lon="11.803632414986708"><ele>300.0</ele><time>2026-04-26T12:41:28.999Z</time></trkpt><trkpt lat="42.80842358197705" lon="11.803495983294797"><ele>300.0</ele><time>2026-04-26T12:41:29.999Z</time></trkpt><trkpt lat="42.80846868026493" lon="11.803368193467008"><ele>300.0</ele><time>2026-04-26T12:41:30.999Z</time></trkpt><trkpt lat="42.80851109127494" lon="11.803244311081777"><ele>301.2</ele><time>2026-04-26T12:41:31.999Z</time></trkpt><trkpt lat="42.8085521841928" lon="11.803124279002535"><ele>302.4</ele><time>2026-04-26T12:41:32.999Z</time></trkpt><trkpt lat="42.80859841376858" lon="11.803007528500343"><ele>303.6</ele><time>2026-04-26T12:41:33.999Z</time></trkpt><trkpt lat="42.80864722187347" lon="11.80290139259324"><ele>304.8</ele><time>2026-04-26T12:41:34.999Z</time></trkpt><trkpt lat="42.80870371163604" lon="11.802810264957193"><ele>306.0</ele><time>2026-04-26T12:41:35.999Z</time></trkpt><trkpt lat="42.808765512511755" lon="11.802738462873798"><ele>306.0</ele><time>2026-04-26T12:41:36.999Z</time></trkpt><trkpt lat="42.808828013427146" lon="11.802688589704095"><ele>306.0</ele><time>2026-04-26T12:41:37.999Z</time></trkpt><trkpt lat="42.808901644483726" lon="11.802649157096585"><ele>306.0</ele><time>2026-04-26T12:41:38.999Z</time></trkpt><trkpt lat="42.80899826289768" lon="11.802604725023313"><ele>306.0</ele><time>2026-04-26T12:41:39.999Z</time></trkpt><trkpt lat="42.80910780543295" lon="11.802556163491715"><ele>306.0</ele><time>2026-04-26T12:41:40.999Z</time></trkpt><trkpt lat="42.80921718609232" lon="11.802505348351838"><ele>306.2</ele><time>2026-04-26T12:41:41.999Z</time></trkpt><trkpt lat="42.80932111657184" lon="11.802460992460011"><ele>306.40000000000003</ele><time>2026-04-26T12:41:42.999Z</time></trkpt><trkpt lat="42.80942025014403" lon="11.802422147901396"><ele>306.6</ele><time>2026-04-26T12:41:43.999Z</time></trkpt><trkpt lat="42.8095154287628" lon="11.802384853197648"><ele>306.8</ele><time>2026-04-26T12:41:44.999Z</time></trkpt><trkpt lat="42.80961170780102" lon="11.8023471273079"><ele>307.0</ele><time>2026-04-26T12:41:45.999Z</time></trkpt><trkpt lat="42.80970669228543" lon="11.802309908576335"><ele>307.0</ele><time>2026-04-26T12:41:46.999Z</time></trkpt><trkpt lat="42.80980193621423" lon="11.802272588187902"><ele>307.0</ele><time>2026-04-26T12:41:47.999Z</time></trkpt><trkpt lat="42.80989285855729" lon="11.802237705698863"><ele>307.0</ele><time>2026-04-26T12:41:48.999Z</time></trkpt><trkpt lat="42.80997453034641" lon="11.80220721048567"><ele>307.0</ele><time>2026-04-26T12:41:49.999Z</time></trkpt><trkpt lat="42.810038278186106" lon="11.802183407903383"><ele>307.0</ele><time>2026-04-26T12:41:50.999Z</time></trkpt><trkpt lat="42.81011726518981" lon="11.802131579120532"><ele>307.0</ele><time>2026-04-26T12:41:51.999Z</time></trkpt><trkpt lat="42.81019378498971" lon="11.802100747394084"><ele>307.2</ele><time>2026-04-26T12:41:52.999Z</time></trkpt><trkpt lat="42.8102745455924" lon="11.802078826258697"><ele>307.4</ele><time>2026-04-26T12:41:53.999Z</time></trkpt><trkpt lat="42.81035878583965" lon="11.80201126725555"><ele>307.6</ele><time>2026-04-26T12:41:54.999Z</time></trkpt><trkpt lat="42.81044766074973" lon="11.801920744705358"><ele>307.8</ele><time>2026-04-26T12:41:55.999Z</time></trkpt><trkpt lat="42.81053402334863" lon="11.801820811950511"><ele>308.0</ele><time>2026-04-26T12:41:56.999Z</time></trkpt><trkpt lat="42.81062141181978" lon="11.801731102571008"><ele>308.0</ele><time>2026-04-26T12:41:57.999Z</time></trkpt><trkpt lat="42.81070927672975" lon="11.801646295677493"><ele>308.0</ele><time>2026-04-26T12:41:58.999Z</time></trkpt><trkpt lat="42.81079269210634" lon="11.80156632911958"><ele>308.0</ele><time>2026-04-26T12:41:59.999Z</time></trkpt><trkpt lat="42.81086875434449" lon="11.801493582193482"><ele>308.0</ele><time>2026-04-26T12:42:00.999Z</time></trkpt><trkpt lat="42.81093635342519" lon="11.801436568439495"><ele>308.0</ele><time>2026-04-26T12:42:01.999Z</time></trkpt><trkpt lat="42.810992266117175" lon="11.801394524292041"><ele>308.0</ele><time>2026-04-26T12:42:02.999Z</time></trkpt><trkpt lat="42.81106173070932" lon="11.801348465602377"><ele>308.0</ele><time>2026-04-26T12:42:03.999Z</time></trkpt><trkpt lat="42.81113288052738" lon="11.801313442528537"><ele>308.0</ele><time>2026-04-26T12:42:04.999Z</time></trkpt><trkpt lat="42.81121043040487" lon="11.801284265472276"><ele>308.0</ele><time>2026-04-26T12:42:05.999Z</time></trkpt><trkpt lat="42.811296903147934" lon="11.801258020500088"><ele>308.0</ele><time>2026-04-26T12:42:06.999Z</time></trkpt><trkpt lat="42.81138469218345" lon="11.801232253100265"><ele>308.0</ele><time>2026-04-26T12:42:07.999Z</time></trkpt><trkpt lat="42.811471801825775" lon="11.80120255992791"><ele>308.0</ele><time>2026-04-26T12:42:08.999Z</time></trkpt><trkpt lat="42.8115583055506" lon="11.801165793461141"><ele>308.0</ele><time>2026-04-26T12:42:09.998Z</time></trkpt><trkpt lat="42.81164387989853" lon="11.801122610393982"><ele>308.0</ele><time>2026-04-26T12:42:10.998Z</time></trkpt><trkpt lat="42.81172053329188" lon="11.801081628274474"><ele>308.0</ele><time>2026-04-26T12:42:11.998Z</time></trkpt><trkpt lat="42.81180229720033" lon="11.801039205332305"><ele>308.0</ele><time>2026-04-26T12:42:12.998Z</time></trkpt><trkpt lat="42.81187815665289" lon="11.801003473546293"><ele>308.0</ele><time>2026-04-26T12:42:13.998Z</time></trkpt><trkpt lat="42.81195531895416" lon="11.80097481665287"><ele>308.0</ele><time>2026-04-26T12:42:14.998Z</time></trkpt><trkpt lat="42.81203024857019" lon="11.800954056652103"><ele>305.8</ele><time>2026-04-26T12:42:15.998Z</time></trkpt><trkpt lat="42.81211018712342" lon="11.800944291525003"><ele>303.6</ele><time>2026-04-26T12:42:16.998Z</time></trkpt><trkpt lat="42.81221652201812" lon="11.800932371329838"><ele>301.4</ele><time>2026-04-26T12:42:17.998Z</time></trkpt><trkpt lat="42.812314629474194" lon="11.800918893817862"><ele>299.2</ele><time>2026-04-26T12:42:18.998Z</time></trkpt><trkpt lat="42.812413543563814" lon="11.800896347055165"><ele>297.0</ele><time>2026-04-26T12:42:19.998Z</time></trkpt><trkpt lat="42.81250701848017" lon="11.80086330311704"><ele>297.0</ele><time>2026-04-26T12:42:20.998Z</time></trkpt><trkpt lat="42.81259754971181" lon="11.800823765590408"><ele>297.0</ele><time>2026-04-26T12:42:22Z</time></trkpt><trkpt lat="42.81269776553596" lon="11.800776590441993"><ele>297.0</ele><time>2026-04-26T12:42:23Z</time></trkpt><trkpt lat="42.81279460713852" lon="11.800729378552875"><ele>297.0</ele><time>2026-04-26T12:42:24Z</time></trkpt><trkpt lat="42.81288264642193" lon="11.800686457919149"><ele>297.0</ele><time>2026-04-26T12:42:25Z</time></trkpt><trkpt lat="42.812967685092495" lon="11.800650254485195"><ele>297.1666666666667</ele><time>2026-04-26T12:42:26Z</time></trkpt><trkpt lat="42.813051769592526" lon="11.800619380487456"><ele>297.3333333333333</ele><time>2026-04-26T12:42:27Z</time></trkpt><trkpt lat="42.8131309006032" lon="11.80059491234647"><ele>297.5</ele><time>2026-04-26T12:42:28Z</time></trkpt><trkpt lat="42.81321519879088" lon="11.800569440931124"><ele>297.66666666666663</ele><time>2026-04-26T12:42:29Z</time></trkpt><trkpt lat="42.813299188054366" lon="11.80054635226462"><ele>297.8333333333333</ele><time>2026-04-26T12:42:30Z</time></trkpt><trkpt lat="42.81338895222774" lon="11.800521777807525"><ele>298.0</ele><time>2026-04-26T12:42:31Z</time></trkpt><trkpt lat="42.81347359466813" lon="11.800498605613894"><ele>298.4</ele><time>2026-04-26T12:42:32Z</time></trkpt><trkpt lat="42.8135740097123" lon="11.800471115449525"><ele>298.8</ele><time>2026-04-26T12:42:33Z</time></trkpt><trkpt lat="42.81367555719981" lon="11.800443575783031"><ele>299.2</ele><time>2026-04-26T12:42:34Z</time></trkpt><trkpt lat="42.81377222216659" lon="11.800417661234107"><ele>299.6</ele><time>2026-04-26T12:42:35Z</time></trkpt><trkpt lat="42.813861452153425" lon="11.800374455188539"><ele>300.0</ele><time>2026-04-26T12:42:36Z</time></trkpt><trkpt lat="42.813948950529785" lon="11.8003642302036"><ele>300.0</ele><time>2026-04-26T12:42:37Z</time></trkpt><trkpt lat="42.81403655988639" lon="11.800347253036097"><ele>300.0</ele><time>2026-04-26T12:42:38Z</time></trkpt><trkpt lat="42.81412736745805" lon="11.80032924275272"><ele>300.0</ele><time>2026-04-26T12:42:39Z</time></trkpt><trkpt lat="42.814212566746605" lon="11.800304479793477"><ele>300.0</ele><time>2026-04-26T12:42:40Z</time></trkpt><trkpt lat="42.8143091057045" lon="11.800266341836178"><ele>300.0</ele><time>2026-04-26T12:42:41Z</time></trkpt><trkpt lat="42.81440033031397" lon="11.800213700264635"><ele>298.8</ele><time>2026-04-26T12:42:42Z</time></trkpt><trkpt lat="42.81448460490984" lon="11.80016367339634"><ele>297.6</ele><time>2026-04-26T12:42:43Z</time></trkpt><trkpt lat="42.814575627760995" lon="11.800124552174962"><ele>296.4</ele><time>2026-04-26T12:42:44Z</time></trkpt><trkpt lat="42.814669352277924" lon="11.800091018461018"><ele>295.2</ele><time>2026-04-26T12:42:45Z</time></trkpt><trkpt lat="42.814758177458955" lon="11.800052396451827"><ele>294.0</ele><time>2026-04-26T12:42:46Z</time></trkpt><trkpt lat="42.81484059216028" lon="11.800012012943943"><ele>294.0</ele><time>2026-04-26T12:42:47Z</time></trkpt><trkpt lat="42.81491812270455" lon="11.799970941567944"><ele>294.0</ele><time>2026-04-26T12:42:48Z</time></trkpt><trkpt lat="42.81499417253379" lon="11.799921309411886"><ele>294.0</ele><time>2026-04-26T12:42:49Z</time></trkpt><trkpt lat="42.81508019493383" lon="11.799866886749577"><ele>294.0</ele><time>2026-04-26T12:42:50Z</time></trkpt><trkpt lat="42.81516381251043" lon="11.799813933816166"><ele>294.0</ele><time>2026-04-26T12:42:51Z</time></trkpt><trkpt lat="42.815251832955326" lon="11.799756043621805"><ele>295.4</ele><time>2026-04-26T12:42:52Z</time></trkpt><trkpt lat="42.8153409396338" lon="11.799689133535505"><ele>296.79999999999995</ele><time>2026-04-26T12:42:53Z</time></trkpt><trkpt lat="42.81543411364815" lon="11.799643604765729"><ele>298.20000000000005</ele><time>2026-04-26T12:42:54Z</time></trkpt><trkpt lat="42.81553085498739" lon="11.799579421709469"><ele>299.6</ele><time>2026-04-26T12:42:55Z</time></trkpt><trkpt lat="42.81562298057444" lon="11.799517219730857"><ele>301.0</ele><time>2026-04-26T12:42:55.999Z</time></trkpt><trkpt lat="42.81571743168325" lon="11.799452847839422"><ele>301.0</ele><time>2026-04-26T12:42:56.999Z</time></trkpt><trkpt lat="42.815807891820704" lon="11.799388597426569"><ele>301.0</ele><time>2026-04-26T12:42:57.999Z</time></trkpt><trkpt lat="42.81589929993403" lon="11.799322027524484"><ele>301.0</ele><time>2026-04-26T12:42:58.999Z</time></trkpt><trkpt lat="42.81598910023815" lon="11.7992537792753"><ele>301.0</ele><time>2026-04-26T12:42:59.999Z</time></trkpt><trkpt lat="42.81606933418423" lon="11.799190866737538"><ele>301.0</ele><time>2026-04-26T12:43:00.999Z</time></trkpt><trkpt lat="42.81615377501088" lon="11.799121003017188"><ele>300.0</ele><time>2026-04-26T12:43:01.999Z</time></trkpt><trkpt lat="42.816233674431075" lon="11.799052296235088"><ele>299.0</ele><time>2026-04-26T12:43:02.999Z</time></trkpt><trkpt lat="42.816308993068304" lon="11.798985243936555"><ele>298.0</ele><time>2026-04-26T12:43:03.999Z</time></trkpt><trkpt lat="42.816367533652446" lon="11.798930914875331"><ele>297.0</ele><time>2026-04-26T12:43:04.999Z</time></trkpt><trkpt lat="42.81646353814849" lon="11.79884066923413"><ele>296.0</ele><time>2026-04-26T12:43:06.999Z</time></trkpt><trkpt lat="42.816552616537614" lon="11.798756632087649"><ele>296.0</ele><time>2026-04-26T12:43:08.999Z</time></trkpt><trkpt lat="42.81661948458568" lon="11.798691308327731"><ele>296.0</ele><time>2026-04-26T12:43:10.999Z</time></trkpt><trkpt lat="42.81667718374231" lon="11.798633164120295"><ele>296.0</ele><time>2026-04-26T12:43:13.999Z</time></trkpt><trkpt lat="42.81673405451489" lon="11.798726727473879"><ele>296.0</ele><time>2026-04-26T12:43:15.999Z</time></trkpt><trkpt lat="42.81677583106006" lon="11.798864707836064"><ele>296.0</ele><time>2026-04-26T12:43:17.999Z</time></trkpt><trkpt lat="42.8168336040153" lon="11.798989632400344"><ele>298.25</ele><time>2026-04-26T12:43:19.999Z</time></trkpt><trkpt lat="42.81690149280835" lon="11.799117638354964"><ele>300.5</ele><time>2026-04-26T12:43:21.999Z</time></trkpt><trkpt lat="42.81696297123589" lon="11.799245669955754"><ele>302.75</ele><time>2026-04-26T12:43:23.999Z</time></trkpt><trkpt lat="42.817028648942866" lon="11.799381677184432"><ele>305.0</ele><time>2026-04-26T12:43:25.999Z</time></trkpt><trkpt lat="42.817092136515924" lon="11.799492188228832"><ele>305.0</ele><time>2026-04-26T12:43:27.999Z</time></trkpt><trkpt lat="42.8171339236407" lon="11.799568721266432"><ele>305.0</ele><time>2026-04-26T12:43:29.999Z</time></trkpt><trkpt lat="42.81718354856706" lon="11.799645348684443"><ele>305.0</ele><time>2026-04-26T12:43:32.999Z</time></trkpt><trkpt lat="42.817131868323" lon="11.799577869009834"><ele>305.0</ele><time>2026-04-26T12:45:28.999Z</time></trkpt><trkpt lat="42.81708746959823" lon="11.799497463494925"><ele>305.0</ele><time>2026-04-26T12:45:41.999Z</time></trkpt><trkpt lat="42.817046262995184" lon="11.799412634885174"><ele>305.0</ele><time>2026-04-26T12:45:58.999Z</time></trkpt><trkpt lat="42.81700784298276" lon="11.799329198534968"><ele>305.0</ele><time>2026-04-26T12:46:05.999Z</time></trkpt><trkpt lat="42.816968569941295" lon="11.799242832949163"><ele>305.0</ele><time>2026-04-26T12:46:10.999Z</time></trkpt><trkpt lat="42.816929616640174" lon="11.799166539749384"><ele>305.0</ele><time>2026-04-26T12:46:14.999Z</time></trkpt><trkpt lat="42.8168840341257" lon="11.799090137060727"><ele>305.0</ele><time>2026-04-26T12:46:17.999Z</time></trkpt><trkpt lat="42.816849453483314" lon="11.799013316522363"><ele>305.0</ele><time>2026-04-26T12:46:20.999Z</time></trkpt><trkpt lat="42.81681482258504" lon="11.798940906492922"><ele>305.0</ele><time>2026-04-26T12:46:23.999Z</time></trkpt><trkpt lat="42.81676441698523" lon="11.798840894362709"><ele>305.0</ele><time>2026-04-26T12:46:26.998Z</time></trkpt><trkpt lat="42.816723810499525" lon="11.798733708949403"><ele>305.0</ele><time>2026-04-26T12:46:29.998Z</time></trkpt><trkpt lat="42.816680420673634" lon="11.79865186289085"><ele>303.5</ele><time>2026-04-26T12:46:32.998Z</time></trkpt><trkpt lat="42.81661656729207" lon="11.798635498395681"><ele>302.0</ele><time>2026-04-26T12:46:36Z</time></trkpt><trkpt lat="42.816562099688696" lon="11.798692532596808"><ele>300.5</ele><time>2026-04-26T12:46:38Z</time></trkpt><trkpt lat="42.8164967657425" lon="11.798769142523915"><ele>299.0</ele><time>2026-04-26T12:46:41Z</time></trkpt><trkpt lat="42.81643661315473" lon="11.798841560859202"><ele>297.5</ele><time>2026-04-26T12:46:43Z</time></trkpt><trkpt lat="42.81634315735022" lon="11.798907042287262"><ele>296.0</ele><time>2026-04-26T12:46:45Z</time></trkpt><trkpt lat="42.81627465484591" lon="11.798959237643636"><ele>296.0</ele><time>2026-04-26T12:46:47Z</time></trkpt><trkpt lat="42.81622838964642" lon="11.79902180434264"><ele>296.0</ele><time>2026-04-26T12:47:03.999Z</time></trkpt><trkpt lat="42.81630302986092" lon="11.798970713168059"><ele>296.0</ele><time>2026-04-26T12:47:11.999Z</time></trkpt><trkpt lat="42.81639714062511" lon="11.798860328305"><ele>296.0</ele><time>2026-04-26T12:47:13.999Z</time></trkpt><trkpt lat="42.816464041685535" lon="11.798806282777877"><ele>296.0</ele><time>2026-04-26T12:47:14.999Z</time></trkpt><trkpt lat="42.816532785194454" lon="11.798743029550607"><ele>296.0</ele><time>2026-04-26T12:47:15.999Z</time></trkpt><trkpt lat="42.816593266154655" lon="11.798682555560907"><ele>296.0</ele><time>2026-04-26T12:47:16.999Z</time></trkpt><trkpt lat="42.81664757120821" lon="11.798623316408127"><ele>296.0</ele><time>2026-04-26T12:47:17.999Z</time></trkpt><trkpt lat="42.816709346387" lon="11.79855700763414"><ele>296.0</ele><time>2026-04-26T12:47:18.999Z</time></trkpt><trkpt lat="42.816778686807076" lon="11.798486901542105"><ele>296.0</ele><time>2026-04-26T12:47:19.999Z</time></trkpt><trkpt lat="42.81684867994768" lon="11.798416582115125"><ele>296.0</ele><time>2026-04-26T12:47:20.999Z</time></trkpt><trkpt lat="42.816917013384526" lon="11.798341231977018"><ele>296.0</ele><time>2026-04-26T12:47:21.999Z</time></trkpt><trkpt lat="42.81698378570172" lon="11.79826198937971"><ele>296.2</ele><time>2026-04-26T12:47:22.999Z</time></trkpt><trkpt lat="42.817050647550595" lon="11.798179021673615"><ele>296.40000000000003</ele><time>2026-04-26T12:47:23.999Z</time></trkpt><trkpt lat="42.81711623780571" lon="11.798101234386493"><ele>296.6</ele><time>2026-04-26T12:47:24.999Z</time></trkpt><trkpt lat="42.81718880077913" lon="11.798013117630932"><ele>296.8</ele><time>2026-04-26T12:47:25.999Z</time></trkpt><trkpt lat="42.81727102101311" lon="11.79791911200523"><ele>297.0</ele><time>2026-04-26T12:47:26.999Z</time></trkpt><trkpt lat="42.817356437887064" lon="11.797821882613636"><ele>297.0</ele><time>2026-04-26T12:47:27.999Z</time></trkpt><trkpt lat="42.81743953283225" lon="11.797723089998254"><ele>297.0</ele><time>2026-04-26T12:47:28.999Z</time></trkpt><trkpt lat="42.8175225740958" lon="11.797623754639135"><ele>297.0</ele><time>2026-04-26T12:47:29.999Z</time></trkpt><trkpt lat="42.817608584832904" lon="11.797523730800489"><ele>297.0</ele><time>2026-04-26T12:47:30.999Z</time></trkpt><trkpt lat="42.81769383591239" lon="11.797422036050419"><ele>297.0</ele><time>2026-04-26T12:47:31.999Z</time></trkpt><trkpt lat="42.81777523710854" lon="11.79731996013631"><ele>297.0</ele><time>2026-04-26T12:47:32.999Z</time></trkpt><trkpt lat="42.817856198107535" lon="11.797219931279285"><ele>297.0</ele><time>2026-04-26T12:47:33.999Z</time></trkpt><trkpt lat="42.817930275688916" lon="11.797127768937838"><ele>297.0</ele><time>2026-04-26T12:47:34.999Z</time></trkpt><trkpt lat="42.81800132631739" lon="11.797036684458714"><ele>297.0</ele><time>2026-04-26T12:47:35.999Z</time></trkpt><trkpt lat="42.818076640364964" lon="11.79697197261757"><ele>297.0</ele><time>2026-04-26T12:47:36.999Z</time></trkpt><trkpt lat="42.8181425647149" lon="11.796900992190642"><ele>296.0</ele><time>2026-04-26T12:47:37.999Z</time></trkpt><trkpt lat="42.818207593589136" lon="11.796830975993222"><ele>295.0</ele><time>2026-04-26T12:47:38.999Z</time></trkpt><trkpt lat="42.818271029748985" lon="11.796759944745727"><ele>294.0</ele><time>2026-04-26T12:47:39.999Z</time></trkpt><trkpt lat="42.81832993223135" lon="11.796681185757459"><ele>293.0</ele><time>2026-04-26T12:47:40.999Z</time></trkpt><trkpt lat="42.81837600584815" lon="11.796600935018494"><ele>292.0</ele><time>2026-04-26T12:47:41.999Z</time></trkpt><trkpt lat="42.818407680046924" lon="11.796506869724771"><ele>291.0</ele><time>2026-04-26T12:47:42.999Z</time></trkpt><trkpt lat="42.81846282792961" lon="11.796413410104124"><ele>291.5</ele><time>2026-04-26T12:47:43.999Z</time></trkpt><trkpt lat="42.81855359102769" lon="11.796344425517782"><ele>292.0</ele><time>2026-04-26T12:47:44.999Z</time></trkpt><trkpt lat="42.818641100245564" lon="11.796248516707466"><ele>292.5</ele><time>2026-04-26T12:47:45.999Z</time></trkpt><trkpt lat="42.81873882287894" lon="11.796132932302287"><ele>293.0</ele><time>2026-04-26T12:47:46.999Z</time></trkpt><trkpt lat="42.818828776630674" lon="11.795989679646302"><ele>293.0</ele><time>2026-04-26T12:47:47.999Z</time></trkpt><trkpt lat="42.818948313537895" lon="11.79586446808946"><ele>293.0</ele><time>2026-04-26T12:47:48.999Z</time></trkpt><trkpt lat="42.81906244296176" lon="11.79570826930989"><ele>293.0</ele><time>2026-04-26T12:47:49.999Z</time></trkpt><trkpt lat="42.81918193739518" lon="11.79553061365103"><ele>293.0</ele><time>2026-04-26T12:47:50.999Z</time></trkpt><trkpt lat="42.8192860640173" lon="11.795324950886316"><ele>293.0</ele><time>2026-04-26T12:47:51.999Z</time></trkpt><trkpt lat="42.819401503173715" lon="11.795118404629841"><ele>293.0</ele><time>2026-04-26T12:47:52.999Z</time></trkpt><trkpt lat="42.81952029598723" lon="11.794898077285726"><ele>293.0</ele><time>2026-04-26T12:47:53.999Z</time></trkpt><trkpt lat="42.81965624893114" lon="11.79468714800625"><ele>293.0</ele><time>2026-04-26T12:47:54.999Z</time></trkpt><trkpt lat="42.81977451189573" lon="11.794435035340145"><ele>293.0</ele><time>2026-04-26T12:47:55.999Z</time></trkpt><trkpt lat="42.81990826353186" lon="11.794202447421446"><ele>293.0</ele><time>2026-04-26T12:47:56.999Z</time></trkpt><trkpt lat="42.82004350592078" lon="11.79395853316853"><ele>293.0</ele><time>2026-04-26T12:47:57.999Z</time></trkpt><trkpt lat="42.82017763059798" lon="11.79370936142503"><ele>295.0</ele><time>2026-04-26T12:47:58.999Z</time></trkpt><trkpt lat="42.820311451645445" lon="11.793459514003208"><ele>297.0</ele><time>2026-04-26T12:47:59.999Z</time></trkpt><trkpt lat="42.820435912823726" lon="11.793230218323975"><ele>299.0</ele><time>2026-04-26T12:48:00.999Z</time></trkpt><trkpt lat="42.82055537841723" lon="11.793014166424502"><ele>299.0</ele><time>2026-04-26T12:48:01.999Z</time></trkpt><trkpt lat="42.82067451914986" lon="11.792799941467457"><ele>299.0</ele><time>2026-04-26T12:48:02.999Z</time></trkpt><trkpt lat="42.82078658783971" lon="11.79259580434004"><ele>299.0</ele><time>2026-04-26T12:48:03.999Z</time></trkpt><trkpt lat="42.82089463452724" lon="11.792402606130677"><ele>300.33333333333337</ele><time>2026-04-26T12:48:04.999Z</time></trkpt><trkpt lat="42.82099332372364" lon="11.79222294130503"><ele>301.6666666666667</ele><time>2026-04-26T12:48:05.999Z</time></trkpt><trkpt lat="42.82108450146961" lon="11.79205428601135"><ele>303.0</ele><time>2026-04-26T12:48:06.999Z</time></trkpt><trkpt lat="42.821172849607954" lon="11.791895500591323"><ele>301.0</ele><time>2026-04-26T12:48:07.999Z</time></trkpt><trkpt lat="42.8212594398924" lon="11.791738592308791"><ele>299.0</ele><time>2026-04-26T12:48:08.999Z</time></trkpt><trkpt lat="42.821338022046305" lon="11.79159277394281"><ele>297.0</ele><time>2026-04-26T12:48:09.999Z</time></trkpt><trkpt lat="42.821414808156376" lon="11.791456453325262"><ele>295.0</ele><time>2026-04-26T12:48:10.999Z</time></trkpt><trkpt lat="42.82148980449646" lon="11.79132951910487"><ele>295.0</ele><time>2026-04-26T12:48:11.999Z</time></trkpt><trkpt lat="42.82155494541461" lon="11.791209361762329"><ele>295.0</ele><time>2026-04-26T12:48:12.999Z</time></trkpt><trkpt lat="42.821618723262795" lon="11.79109220940025"><ele>295.0</ele><time>2026-04-26T12:48:13.999Z</time></trkpt><trkpt lat="42.821687808572605" lon="11.790986785583069"><ele>295.0</ele><time>2026-04-26T12:48:14.999Z</time></trkpt><trkpt lat="42.82176559201914" lon="11.790918005265192"><ele>295.0</ele><time>2026-04-26T12:48:15.999Z</time></trkpt><trkpt lat="42.821853342978365" lon="11.79091052629837"><ele>295.66666666666663</ele><time>2026-04-26T12:48:16.999Z</time></trkpt><trkpt lat="42.821930289026085" lon="11.790909361043179"><ele>296.3333333333333</ele><time>2026-04-26T12:48:17.999Z</time></trkpt><trkpt lat="42.82203240515878" lon="11.790987326250466"><ele>297.0</ele><time>2026-04-26T12:48:19.999Z</time></trkpt><trkpt lat="42.82208332862576" lon="11.791038146485684"><ele>297.6666666666667</ele><time>2026-04-26T12:48:20.999Z</time></trkpt><trkpt lat="42.82210872335884" lon="11.791125615568264"><ele>298.33333333333337</ele><time>2026-04-26T12:48:21.999Z</time></trkpt><trkpt lat="42.82217483330081" lon="11.791210588892664"><ele>299.0</ele><time>2026-04-26T12:48:23.999Z</time></trkpt><trkpt lat="42.82223065527263" lon="11.791092373400598"><ele>306.0</ele><time>2026-04-26T12:48:29.999Z</time></trkpt><trkpt lat="42.82225420979122" lon="11.791003305363176"><ele>299.0</ele><time>2026-04-26T12:48:30.999Z</time></trkpt><trkpt lat="42.82221035617274" lon="11.790860939296497"><ele>299.0</ele><time>2026-04-26T12:48:32.998Z</time></trkpt><trkpt lat="42.82226205921708" lon="11.79074029434481"><ele>299.0</ele><time>2026-04-26T12:48:34.998Z</time></trkpt></trkseg></trk></gpx>